<?xml version="1.0" encoding="UTF-8" standalone="no" ?>
<gpx xmlns="http://www.topografix.com/GPX/1/1" xmlns:xsi="http://www.w3.org/2001/XMLSchema-instance" xsi:schemaLocation="http://www.topografix.com/GPX/1/1 http://www.topografix.com/GPX/1/1/gpx.xsd" version="1.1" creator="VisuGPX - https://www.visugpx.com">
  <metadata>
    <name>Col du Minier - Lac des Pises</name>
    <desc><![CDATA[2019-02 - Raquettes du Col du Minier au Lac des Pises

[b]album[/b] : [url]https://photos.app.goo.gl/HMnFkdis8cJH7A2P7[/url]
[img]https://blogger.googleusercontent.com/img/b/R29vZ2xl/AVvXsEjAs5F0ttDqu6TnztBo9WtJBWEERe3vvfioDrSm_PFn_UyWnb1A5eFb96vMaKA7e5fQUJ-z_AybunQpGegOXYbUqk-2qDzagrwC6Xwpjlhr-LjnW0qzV9c-7hVIRoJEV3lbOIonmZ3XsGq1c546c8xqmAELAmRi8R83Upm3IJ9LLv8vyJWs1jNkxiXDtfix/s600/2019-2-1%20Pises.JPG[/img]
[b]Idées de randonnées dans la même région[/b]
Parcours : [url]https://www.visugpx.com/membres/24856/montagne/aigoual/[/url]
Photos : [url]https://jcvertygo.blogspot.com/p/mont-aigoual.html[/url]]]></desc>
  </metadata>
  <trk>
    <name><![CDATA[2019-02-01_16h45m50_raquettes pise]]></name>
    <extensions>
      <line xmlns="http://www.topografix.com/GPX/gpx_style/0/2">
        <color>0000FF</color>
        <width>4</width>
      </line>
    </extensions>
    <trkseg>
      <trkpt lat="44.05394" lon="3.54741">
        <ele>1274</ele>
        <time>2019-02-01T12:45:46Z</time>
      </trkpt>
      <trkpt lat="44.05398" lon="3.54743">
        <ele>1274</ele>
        <time>2019-02-01T12:45:46Z</time>
      </trkpt>
      <trkpt lat="44.05404" lon="3.54745">
        <ele>1274</ele>
        <time>2019-02-01T12:45:46Z</time>
      </trkpt>
      <trkpt lat="44.05405" lon="3.54745">
        <ele>1274</ele>
        <time>2019-02-01T12:45:46Z</time>
      </trkpt>
      <trkpt lat="44.05399" lon="3.54737">
        <ele>1274</ele>
        <time>2019-02-01T12:49:30Z</time>
      </trkpt>
      <trkpt lat="44.05399" lon="3.54737">
        <ele>1274</ele>
        <time>2019-02-01T12:49:30Z</time>
      </trkpt>
      <trkpt lat="44.05399" lon="3.54732">
        <ele>1274</ele>
        <time>2019-02-01T12:49:30Z</time>
      </trkpt>
      <trkpt lat="44.05399" lon="3.54728">
        <ele>1274</ele>
        <time>2019-02-01T12:49:30Z</time>
      </trkpt>
      <trkpt lat="44.05398" lon="3.54727">
        <ele>1274</ele>
        <time>2019-02-01T12:49:30Z</time>
      </trkpt>
      <trkpt lat="44.05398" lon="3.54726">
        <ele>1274</ele>
        <time>2019-02-01T12:50:14Z</time>
      </trkpt>
      <trkpt lat="44.05398" lon="3.54725">
        <ele>1274</ele>
        <time>2019-02-01T12:50:14Z</time>
      </trkpt>
      <trkpt lat="44.05392" lon="3.5472">
        <ele>1274</ele>
        <time>2019-02-01T12:50:14Z</time>
      </trkpt>
      <trkpt lat="44.05384" lon="3.54714">
        <ele>1274</ele>
        <time>2019-02-01T12:50:14Z</time>
      </trkpt>
      <trkpt lat="44.05377" lon="3.54711">
        <ele>1274</ele>
        <time>2019-02-01T12:51:10Z</time>
      </trkpt>
      <trkpt lat="44.05375" lon="3.5471">
        <ele>1265</ele>
        <time>2019-02-01T12:51:10Z</time>
      </trkpt>
      <trkpt lat="44.05374" lon="3.5471">
        <ele>1265</ele>
        <time>2019-02-01T12:51:10Z</time>
      </trkpt>
      <trkpt lat="44.05372" lon="3.54711">
        <ele>1265</ele>
        <time>2019-02-01T12:51:10Z</time>
      </trkpt>
      <trkpt lat="44.05367" lon="3.54709">
        <ele>1265</ele>
        <time>2019-02-01T12:51:10Z</time>
      </trkpt>
      <trkpt lat="44.05363" lon="3.54706">
        <ele>1288</ele>
        <time>2019-02-01T12:51:30Z</time>
      </trkpt>
      <trkpt lat="44.05358" lon="3.54703">
        <ele>1288</ele>
        <time>2019-02-01T12:51:30Z</time>
      </trkpt>
      <trkpt lat="44.05356" lon="3.54701">
        <ele>1288</ele>
        <time>2019-02-01T12:51:30Z</time>
      </trkpt>
      <trkpt lat="44.05354" lon="3.547">
        <ele>1288</ele>
        <time>2019-02-01T12:51:30Z</time>
      </trkpt>
      <trkpt lat="44.05349" lon="3.54701">
        <ele>1288</ele>
        <time>2019-02-01T12:52:14Z</time>
      </trkpt>
      <trkpt lat="44.05348" lon="3.54702">
        <ele>1288</ele>
        <time>2019-02-01T12:52:14Z</time>
      </trkpt>
      <trkpt lat="44.05345" lon="3.54701">
        <ele>1288</ele>
        <time>2019-02-01T12:52:14Z</time>
      </trkpt>
      <trkpt lat="44.05343" lon="3.54699">
        <ele>1288</ele>
        <time>2019-02-01T12:52:14Z</time>
      </trkpt>
      <trkpt lat="44.05339" lon="3.54695">
        <ele>1288</ele>
        <time>2019-02-01T12:52:14Z</time>
      </trkpt>
      <trkpt lat="44.05333" lon="3.54693">
        <ele>1288</ele>
        <time>2019-02-01T12:52:30Z</time>
      </trkpt>
      <trkpt lat="44.05329" lon="3.5469">
        <ele>1288</ele>
        <time>2019-02-01T12:52:30Z</time>
      </trkpt>
      <trkpt lat="44.05326" lon="3.54689">
        <ele>1288</ele>
        <time>2019-02-01T12:52:30Z</time>
      </trkpt>
      <trkpt lat="44.05323" lon="3.54689">
        <ele>1288</ele>
        <time>2019-02-01T12:52:30Z</time>
      </trkpt>
      <trkpt lat="44.0532" lon="3.54689">
        <ele>1288</ele>
        <time>2019-02-01T12:52:54Z</time>
      </trkpt>
      <trkpt lat="44.05318" lon="3.54688">
        <ele>1288</ele>
        <time>2019-02-01T12:52:54Z</time>
      </trkpt>
      <trkpt lat="44.05313" lon="3.5469">
        <ele>1288</ele>
        <time>2019-02-01T12:52:54Z</time>
      </trkpt>
      <trkpt lat="44.05312" lon="3.5469">
        <ele>1288</ele>
        <time>2019-02-01T12:52:54Z</time>
      </trkpt>
      <trkpt lat="44.05307" lon="3.54687">
        <ele>1288</ele>
        <time>2019-02-01T12:52:54Z</time>
      </trkpt>
      <trkpt lat="44.05306" lon="3.54686">
        <ele>1288</ele>
        <time>2019-02-01T12:54:06Z</time>
      </trkpt>
      <trkpt lat="44.053" lon="3.54685">
        <ele>1288</ele>
        <time>2019-02-01T12:54:06Z</time>
      </trkpt>
      <trkpt lat="44.05296" lon="3.54685">
        <ele>1288</ele>
        <time>2019-02-01T12:54:06Z</time>
      </trkpt>
      <trkpt lat="44.05295" lon="3.54685">
        <ele>1288</ele>
        <time>2019-02-01T12:54:06Z</time>
      </trkpt>
      <trkpt lat="44.05289" lon="3.54683">
        <ele>1283</ele>
        <time>2019-02-01T12:54:34Z</time>
      </trkpt>
      <trkpt lat="44.05284" lon="3.54683">
        <ele>1283</ele>
        <time>2019-02-01T12:54:34Z</time>
      </trkpt>
      <trkpt lat="44.05281" lon="3.54683">
        <ele>1283</ele>
        <time>2019-02-01T12:54:34Z</time>
      </trkpt>
      <trkpt lat="44.05278" lon="3.54682">
        <ele>1283</ele>
        <time>2019-02-01T12:54:34Z</time>
      </trkpt>
      <trkpt lat="44.05272" lon="3.5468">
        <ele>1283</ele>
        <time>2019-02-01T12:55:50Z</time>
      </trkpt>
      <trkpt lat="44.0527" lon="3.54679">
        <ele>1283</ele>
        <time>2019-02-01T12:55:50Z</time>
      </trkpt>
      <trkpt lat="44.05269" lon="3.54679">
        <ele>1283</ele>
        <time>2019-02-01T12:55:50Z</time>
      </trkpt>
      <trkpt lat="44.05268" lon="3.54679">
        <ele>1283</ele>
        <time>2019-02-01T12:55:50Z</time>
      </trkpt>
      <trkpt lat="44.05254" lon="3.54675">
        <ele>1283</ele>
        <time>2019-02-01T12:55:50Z</time>
      </trkpt>
      <trkpt lat="44.05253" lon="3.54674">
        <ele>1283</ele>
        <time>2019-02-01T12:56:22Z</time>
      </trkpt>
      <trkpt lat="44.05246" lon="3.54671">
        <ele>1283</ele>
        <time>2019-02-01T12:56:22Z</time>
      </trkpt>
      <trkpt lat="44.05242" lon="3.5467">
        <ele>1283</ele>
        <time>2019-02-01T12:56:22Z</time>
      </trkpt>
      <trkpt lat="44.05234" lon="3.54667">
        <ele>1283</ele>
        <time>2019-02-01T12:56:22Z</time>
      </trkpt>
      <trkpt lat="44.05227" lon="3.54668">
        <ele>1283</ele>
        <time>2019-02-01T12:57:14Z</time>
      </trkpt>
      <trkpt lat="44.05224" lon="3.54667">
        <ele>1283</ele>
        <time>2019-02-01T12:57:14Z</time>
      </trkpt>
      <trkpt lat="44.05221" lon="3.54666">
        <ele>1283</ele>
        <time>2019-02-01T12:57:14Z</time>
      </trkpt>
      <trkpt lat="44.05212" lon="3.54662">
        <ele>1283</ele>
        <time>2019-02-01T12:57:14Z</time>
      </trkpt>
      <trkpt lat="44.05204" lon="3.54653">
        <ele>1280</ele>
        <time>2019-02-01T12:57:50Z</time>
      </trkpt>
      <trkpt lat="44.05198" lon="3.5465">
        <ele>1280</ele>
        <time>2019-02-01T12:57:50Z</time>
      </trkpt>
      <trkpt lat="44.05192" lon="3.54649">
        <ele>1280</ele>
        <time>2019-02-01T12:57:50Z</time>
      </trkpt>
      <trkpt lat="44.05183" lon="3.54649">
        <ele>1280</ele>
        <time>2019-02-01T12:57:50Z</time>
      </trkpt>
      <trkpt lat="44.05181" lon="3.5465">
        <ele>1280</ele>
        <time>2019-02-01T12:58:06Z</time>
      </trkpt>
      <trkpt lat="44.0517" lon="3.54649">
        <ele>1280</ele>
        <time>2019-02-01T12:58:06Z</time>
      </trkpt>
      <trkpt lat="44.05158" lon="3.54649">
        <ele>1280</ele>
        <time>2019-02-01T12:58:06Z</time>
      </trkpt>
      <trkpt lat="44.05154" lon="3.5465">
        <ele>1280</ele>
        <time>2019-02-01T12:58:06Z</time>
      </trkpt>
      <trkpt lat="44.0515" lon="3.54648">
        <ele>1280</ele>
        <time>2019-02-01T12:58:26Z</time>
      </trkpt>
      <trkpt lat="44.05144" lon="3.54646">
        <ele>1280</ele>
        <time>2019-02-01T12:58:26Z</time>
      </trkpt>
      <trkpt lat="44.05135" lon="3.54645">
        <ele>1280</ele>
        <time>2019-02-01T12:58:26Z</time>
      </trkpt>
      <trkpt lat="44.05128" lon="3.54646">
        <ele>1280</ele>
        <time>2019-02-01T12:58:26Z</time>
      </trkpt>
      <trkpt lat="44.05127" lon="3.54646">
        <ele>1280</ele>
        <time>2019-02-01T12:58:58Z</time>
      </trkpt>
      <trkpt lat="44.05124" lon="3.54647">
        <ele>1274</ele>
        <time>2019-02-01T12:58:58Z</time>
      </trkpt>
      <trkpt lat="44.05114" lon="3.54647">
        <ele>1274</ele>
        <time>2019-02-01T12:58:58Z</time>
      </trkpt>
      <trkpt lat="44.05106" lon="3.54645">
        <ele>1274</ele>
        <time>2019-02-01T12:58:58Z</time>
      </trkpt>
      <trkpt lat="44.051" lon="3.54644">
        <ele>1274</ele>
        <time>2019-02-01T12:59:18Z</time>
      </trkpt>
      <trkpt lat="44.05093" lon="3.54644">
        <ele>1274</ele>
        <time>2019-02-01T12:59:18Z</time>
      </trkpt>
      <trkpt lat="44.05089" lon="3.54642">
        <ele>1274</ele>
        <time>2019-02-01T12:59:18Z</time>
      </trkpt>
      <trkpt lat="44.05085" lon="3.54641">
        <ele>1274</ele>
        <time>2019-02-01T12:59:18Z</time>
      </trkpt>
      <trkpt lat="44.0508" lon="3.54639">
        <ele>1274</ele>
        <time>2019-02-01T12:59:34Z</time>
      </trkpt>
      <trkpt lat="44.05075" lon="3.54639">
        <ele>1274</ele>
        <time>2019-02-01T12:59:34Z</time>
      </trkpt>
      <trkpt lat="44.05071" lon="3.54639">
        <ele>1274</ele>
        <time>2019-02-01T12:59:34Z</time>
      </trkpt>
      <trkpt lat="44.05066" lon="3.5464">
        <ele>1274</ele>
        <time>2019-02-01T12:59:34Z</time>
      </trkpt>
      <trkpt lat="44.05065" lon="3.5464">
        <ele>1274</ele>
        <time>2019-02-01T12:59:58Z</time>
      </trkpt>
      <trkpt lat="44.05064" lon="3.54638">
        <ele>1274</ele>
        <time>2019-02-01T12:59:58Z</time>
      </trkpt>
      <trkpt lat="44.05062" lon="3.54635">
        <ele>1274</ele>
        <time>2019-02-01T12:59:58Z</time>
      </trkpt>
      <trkpt lat="44.05059" lon="3.54633">
        <ele>1274</ele>
        <time>2019-02-01T12:59:58Z</time>
      </trkpt>
      <trkpt lat="44.05058" lon="3.54632">
        <ele>1274</ele>
        <time>2019-02-01T12:59:58Z</time>
      </trkpt>
      <trkpt lat="44.05057" lon="3.54629">
        <ele>1274</ele>
        <time>2019-02-01T13:00:26Z</time>
      </trkpt>
      <trkpt lat="44.05057" lon="3.54628">
        <ele>1274</ele>
        <time>2019-02-01T13:00:26Z</time>
      </trkpt>
      <trkpt lat="44.05057" lon="3.54626">
        <ele>1274</ele>
        <time>2019-02-01T13:00:26Z</time>
      </trkpt>
      <trkpt lat="44.05056" lon="3.54619">
        <ele>1294</ele>
        <time>2019-02-01T13:00:26Z</time>
      </trkpt>
      <trkpt lat="44.05056" lon="3.54613">
        <ele>1294</ele>
        <time>2019-02-01T13:00:26Z</time>
      </trkpt>
      <trkpt lat="44.05055" lon="3.5461">
        <ele>1294</ele>
        <time>2019-02-01T13:00:42Z</time>
      </trkpt>
      <trkpt lat="44.05054" lon="3.54602">
        <ele>1294</ele>
        <time>2019-02-01T13:00:42Z</time>
      </trkpt>
      <trkpt lat="44.05054" lon="3.546">
        <ele>1294</ele>
        <time>2019-02-01T13:00:42Z</time>
      </trkpt>
      <trkpt lat="44.05052" lon="3.54592">
        <ele>1294</ele>
        <time>2019-02-01T13:00:42Z</time>
      </trkpt>
      <trkpt lat="44.05052" lon="3.54589">
        <ele>1294</ele>
        <time>2019-02-01T13:00:58Z</time>
      </trkpt>
      <trkpt lat="44.0505" lon="3.54583">
        <ele>1294</ele>
        <time>2019-02-01T13:00:58Z</time>
      </trkpt>
      <trkpt lat="44.0505" lon="3.54578">
        <ele>1294</ele>
        <time>2019-02-01T13:00:58Z</time>
      </trkpt>
      <trkpt lat="44.05049" lon="3.54573">
        <ele>1294</ele>
        <time>2019-02-01T13:00:58Z</time>
      </trkpt>
      <trkpt lat="44.05048" lon="3.54566">
        <ele>1294</ele>
        <time>2019-02-01T13:01:14Z</time>
      </trkpt>
      <trkpt lat="44.05045" lon="3.54561">
        <ele>1294</ele>
        <time>2019-02-01T13:01:14Z</time>
      </trkpt>
      <trkpt lat="44.05041" lon="3.54556">
        <ele>1274</ele>
        <time>2019-02-01T13:01:14Z</time>
      </trkpt>
      <trkpt lat="44.05038" lon="3.54552">
        <ele>1274</ele>
        <time>2019-02-01T13:01:14Z</time>
      </trkpt>
      <trkpt lat="44.05036" lon="3.54548">
        <ele>1274</ele>
        <time>2019-02-01T13:01:42Z</time>
      </trkpt>
      <trkpt lat="44.05033" lon="3.54544">
        <ele>1274</ele>
        <time>2019-02-01T13:01:42Z</time>
      </trkpt>
      <trkpt lat="44.05024" lon="3.54531">
        <ele>1293</ele>
        <time>2019-02-01T13:01:42Z</time>
      </trkpt>
      <trkpt lat="44.05019" lon="3.54526">
        <ele>1293</ele>
        <time>2019-02-01T13:01:42Z</time>
      </trkpt>
      <trkpt lat="44.05012" lon="3.54522">
        <ele>1293</ele>
        <time>2019-02-01T13:01:58Z</time>
      </trkpt>
      <trkpt lat="44.0501" lon="3.5452">
        <ele>1293</ele>
        <time>2019-02-01T13:01:58Z</time>
      </trkpt>
      <trkpt lat="44.05006" lon="3.54519">
        <ele>1293</ele>
        <time>2019-02-01T13:01:58Z</time>
      </trkpt>
      <trkpt lat="44.05003" lon="3.54516">
        <ele>1293</ele>
        <time>2019-02-01T13:01:58Z</time>
      </trkpt>
      <trkpt lat="44.04999" lon="3.54515">
        <ele>1293</ele>
        <time>2019-02-01T13:02:14Z</time>
      </trkpt>
      <trkpt lat="44.04994" lon="3.54514">
        <ele>1293</ele>
        <time>2019-02-01T13:02:14Z</time>
      </trkpt>
      <trkpt lat="44.0499" lon="3.54513">
        <ele>1293</ele>
        <time>2019-02-01T13:02:14Z</time>
      </trkpt>
      <trkpt lat="44.04985" lon="3.54511">
        <ele>1293</ele>
        <time>2019-02-01T13:02:14Z</time>
      </trkpt>
      <trkpt lat="44.0498" lon="3.54509">
        <ele>1293</ele>
        <time>2019-02-01T13:02:34Z</time>
      </trkpt>
      <trkpt lat="44.04976" lon="3.54506">
        <ele>1293</ele>
        <time>2019-02-01T13:02:34Z</time>
      </trkpt>
      <trkpt lat="44.04974" lon="3.54505">
        <ele>1293</ele>
        <time>2019-02-01T13:02:34Z</time>
      </trkpt>
      <trkpt lat="44.04973" lon="3.54503">
        <ele>1293</ele>
        <time>2019-02-01T13:02:34Z</time>
      </trkpt>
      <trkpt lat="44.04971" lon="3.54502">
        <ele>1293</ele>
        <time>2019-02-01T13:02:34Z</time>
      </trkpt>
      <trkpt lat="44.04967" lon="3.54501">
        <ele>1293</ele>
        <time>2019-02-01T13:02:54Z</time>
      </trkpt>
      <trkpt lat="44.04964" lon="3.54499">
        <ele>1293</ele>
        <time>2019-02-01T13:02:54Z</time>
      </trkpt>
      <trkpt lat="44.04963" lon="3.54498">
        <ele>1293</ele>
        <time>2019-02-01T13:02:54Z</time>
      </trkpt>
      <trkpt lat="44.0496" lon="3.54497">
        <ele>1293</ele>
        <time>2019-02-01T13:02:54Z</time>
      </trkpt>
      <trkpt lat="44.04955" lon="3.54495">
        <ele>1274</ele>
        <time>2019-02-01T13:02:54Z</time>
      </trkpt>
      <trkpt lat="44.0495" lon="3.54492">
        <ele>1274</ele>
        <time>2019-02-01T13:03:10Z</time>
      </trkpt>
      <trkpt lat="44.04945" lon="3.54489">
        <ele>1274</ele>
        <time>2019-02-01T13:03:10Z</time>
      </trkpt>
      <trkpt lat="44.04942" lon="3.54486">
        <ele>1274</ele>
        <time>2019-02-01T13:03:10Z</time>
      </trkpt>
      <trkpt lat="44.0494" lon="3.54485">
        <ele>1274</ele>
        <time>2019-02-01T13:03:10Z</time>
      </trkpt>
      <trkpt lat="44.04935" lon="3.54484">
        <ele>1274</ele>
        <time>2019-02-01T13:03:30Z</time>
      </trkpt>
      <trkpt lat="44.04932" lon="3.54483">
        <ele>1274</ele>
        <time>2019-02-01T13:03:30Z</time>
      </trkpt>
      <trkpt lat="44.0493" lon="3.54481">
        <ele>1274</ele>
        <time>2019-02-01T13:03:30Z</time>
      </trkpt>
      <trkpt lat="44.04926" lon="3.54479">
        <ele>1274</ele>
        <time>2019-02-01T13:03:30Z</time>
      </trkpt>
      <trkpt lat="44.04922" lon="3.54476">
        <ele>1274</ele>
        <time>2019-02-01T13:03:46Z</time>
      </trkpt>
      <trkpt lat="44.04918" lon="3.54472">
        <ele>1274</ele>
        <time>2019-02-01T13:03:46Z</time>
      </trkpt>
      <trkpt lat="44.04917" lon="3.54471">
        <ele>1274</ele>
        <time>2019-02-01T13:03:46Z</time>
      </trkpt>
      <trkpt lat="44.04914" lon="3.5447">
        <ele>1274</ele>
        <time>2019-02-01T13:03:46Z</time>
      </trkpt>
      <trkpt lat="44.04906" lon="3.54464">
        <ele>1274</ele>
        <time>2019-02-01T13:04:06Z</time>
      </trkpt>
      <trkpt lat="44.04899" lon="3.54459">
        <ele>1274</ele>
        <time>2019-02-01T13:04:06Z</time>
      </trkpt>
      <trkpt lat="44.04895" lon="3.54457">
        <ele>1299</ele>
        <time>2019-02-01T13:04:06Z</time>
      </trkpt>
      <trkpt lat="44.04893" lon="3.54454">
        <ele>1299</ele>
        <time>2019-02-01T13:04:06Z</time>
      </trkpt>
      <trkpt lat="44.04889" lon="3.54449">
        <ele>1299</ele>
        <time>2019-02-01T13:04:38Z</time>
      </trkpt>
      <trkpt lat="44.04888" lon="3.54448">
        <ele>1299</ele>
        <time>2019-02-01T13:04:38Z</time>
      </trkpt>
      <trkpt lat="44.04888" lon="3.54444">
        <ele>1299</ele>
        <time>2019-02-01T13:04:38Z</time>
      </trkpt>
      <trkpt lat="44.04887" lon="3.5444">
        <ele>1299</ele>
        <time>2019-02-01T13:04:38Z</time>
      </trkpt>
      <trkpt lat="44.04886" lon="3.54437">
        <ele>1299</ele>
        <time>2019-02-01T13:04:38Z</time>
      </trkpt>
      <trkpt lat="44.04884" lon="3.5443">
        <ele>1299</ele>
        <time>2019-02-01T13:04:58Z</time>
      </trkpt>
      <trkpt lat="44.04882" lon="3.54427">
        <ele>1299</ele>
        <time>2019-02-01T13:04:58Z</time>
      </trkpt>
      <trkpt lat="44.04879" lon="3.54419">
        <ele>1299</ele>
        <time>2019-02-01T13:04:58Z</time>
      </trkpt>
      <trkpt lat="44.04878" lon="3.54417">
        <ele>1299</ele>
        <time>2019-02-01T13:04:58Z</time>
      </trkpt>
      <trkpt lat="44.04876" lon="3.5441">
        <ele>1299</ele>
        <time>2019-02-01T13:05:18Z</time>
      </trkpt>
      <trkpt lat="44.04875" lon="3.54408">
        <ele>1273</ele>
        <time>2019-02-01T13:05:18Z</time>
      </trkpt>
      <trkpt lat="44.04873" lon="3.54403">
        <ele>1273</ele>
        <time>2019-02-01T13:05:18Z</time>
      </trkpt>
      <trkpt lat="44.04872" lon="3.544">
        <ele>1273</ele>
        <time>2019-02-01T13:05:18Z</time>
      </trkpt>
      <trkpt lat="44.04869" lon="3.54393">
        <ele>1273</ele>
        <time>2019-02-01T13:05:18Z</time>
      </trkpt>
      <trkpt lat="44.04865" lon="3.54388">
        <ele>1273</ele>
        <time>2019-02-01T13:05:34Z</time>
      </trkpt>
      <trkpt lat="44.04862" lon="3.54384">
        <ele>1273</ele>
        <time>2019-02-01T13:05:34Z</time>
      </trkpt>
      <trkpt lat="44.04861" lon="3.54383">
        <ele>1273</ele>
        <time>2019-02-01T13:05:34Z</time>
      </trkpt>
      <trkpt lat="44.04858" lon="3.54378">
        <ele>1273</ele>
        <time>2019-02-01T13:05:34Z</time>
      </trkpt>
      <trkpt lat="44.04853" lon="3.54368">
        <ele>1293</ele>
        <time>2019-02-01T13:05:50Z</time>
      </trkpt>
      <trkpt lat="44.04846" lon="3.54363">
        <ele>1293</ele>
        <time>2019-02-01T13:05:50Z</time>
      </trkpt>
      <trkpt lat="44.04843" lon="3.54357">
        <ele>1293</ele>
        <time>2019-02-01T13:05:50Z</time>
      </trkpt>
      <trkpt lat="44.04841" lon="3.54353">
        <ele>1293</ele>
        <time>2019-02-01T13:05:50Z</time>
      </trkpt>
      <trkpt lat="44.04839" lon="3.54349">
        <ele>1293</ele>
        <time>2019-02-01T13:06:06Z</time>
      </trkpt>
      <trkpt lat="44.04837" lon="3.54343">
        <ele>1293</ele>
        <time>2019-02-01T13:06:06Z</time>
      </trkpt>
      <trkpt lat="44.04836" lon="3.54338">
        <ele>1293</ele>
        <time>2019-02-01T13:06:06Z</time>
      </trkpt>
      <trkpt lat="44.04836" lon="3.54336">
        <ele>1293</ele>
        <time>2019-02-01T13:06:06Z</time>
      </trkpt>
      <trkpt lat="44.04834" lon="3.54333">
        <ele>1293</ele>
        <time>2019-02-01T13:06:22Z</time>
      </trkpt>
      <trkpt lat="44.04832" lon="3.54329">
        <ele>1293</ele>
        <time>2019-02-01T13:06:22Z</time>
      </trkpt>
      <trkpt lat="44.04829" lon="3.54325">
        <ele>1293</ele>
        <time>2019-02-01T13:06:22Z</time>
      </trkpt>
      <trkpt lat="44.04827" lon="3.54322">
        <ele>1293</ele>
        <time>2019-02-01T13:06:22Z</time>
      </trkpt>
      <trkpt lat="44.04825" lon="3.54319">
        <ele>1293</ele>
        <time>2019-02-01T13:06:42Z</time>
      </trkpt>
      <trkpt lat="44.04822" lon="3.54315">
        <ele>1293</ele>
        <time>2019-02-01T13:06:42Z</time>
      </trkpt>
      <trkpt lat="44.04821" lon="3.54312">
        <ele>1293</ele>
        <time>2019-02-01T13:06:42Z</time>
      </trkpt>
      <trkpt lat="44.0482" lon="3.5431">
        <ele>1293</ele>
        <time>2019-02-01T13:06:42Z</time>
      </trkpt>
      <trkpt lat="44.04818" lon="3.54307">
        <ele>1293</ele>
        <time>2019-02-01T13:06:42Z</time>
      </trkpt>
      <trkpt lat="44.04816" lon="3.54305">
        <ele>1293</ele>
        <time>2019-02-01T13:07:18Z</time>
      </trkpt>
      <trkpt lat="44.04806" lon="3.54296">
        <ele>1293</ele>
        <time>2019-02-01T13:07:18Z</time>
      </trkpt>
      <trkpt lat="44.04802" lon="3.54294">
        <ele>1293</ele>
        <time>2019-02-01T13:07:18Z</time>
      </trkpt>
      <trkpt lat="44.04796" lon="3.54288">
        <ele>1305</ele>
        <time>2019-02-01T13:07:18Z</time>
      </trkpt>
      <trkpt lat="44.04792" lon="3.54285">
        <ele>1294</ele>
        <time>2019-02-01T13:07:38Z</time>
      </trkpt>
      <trkpt lat="44.04785" lon="3.54282">
        <ele>1294</ele>
        <time>2019-02-01T13:07:38Z</time>
      </trkpt>
      <trkpt lat="44.04775" lon="3.54282">
        <ele>1294</ele>
        <time>2019-02-01T13:07:38Z</time>
      </trkpt>
      <trkpt lat="44.04769" lon="3.54283">
        <ele>1294</ele>
        <time>2019-02-01T13:07:38Z</time>
      </trkpt>
      <trkpt lat="44.04768" lon="3.54284">
        <ele>1294</ele>
        <time>2019-02-01T13:07:54Z</time>
      </trkpt>
      <trkpt lat="44.04767" lon="3.54285">
        <ele>1294</ele>
        <time>2019-02-01T13:07:54Z</time>
      </trkpt>
      <trkpt lat="44.04763" lon="3.54286">
        <ele>1294</ele>
        <time>2019-02-01T13:07:54Z</time>
      </trkpt>
      <trkpt lat="44.04759" lon="3.54289">
        <ele>1294</ele>
        <time>2019-02-01T13:07:54Z</time>
      </trkpt>
      <trkpt lat="44.04755" lon="3.5429">
        <ele>1294</ele>
        <time>2019-02-01T13:08:14Z</time>
      </trkpt>
      <trkpt lat="44.04752" lon="3.5429">
        <ele>1294</ele>
        <time>2019-02-01T13:08:14Z</time>
      </trkpt>
      <trkpt lat="44.04748" lon="3.5429">
        <ele>1294</ele>
        <time>2019-02-01T13:08:14Z</time>
      </trkpt>
      <trkpt lat="44.04746" lon="3.5429">
        <ele>1294</ele>
        <time>2019-02-01T13:08:14Z</time>
      </trkpt>
      <trkpt lat="44.04742" lon="3.54293">
        <ele>1285</ele>
        <time>2019-02-01T13:08:14Z</time>
      </trkpt>
      <trkpt lat="44.04741" lon="3.54293">
        <ele>1285</ele>
        <time>2019-02-01T13:08:50Z</time>
      </trkpt>
      <trkpt lat="44.04734" lon="3.54291">
        <ele>1294</ele>
        <time>2019-02-01T13:08:50Z</time>
      </trkpt>
      <trkpt lat="44.04732" lon="3.5429">
        <ele>1294</ele>
        <time>2019-02-01T13:08:50Z</time>
      </trkpt>
      <trkpt lat="44.04725" lon="3.54291">
        <ele>1294</ele>
        <time>2019-02-01T13:08:50Z</time>
      </trkpt>
      <trkpt lat="44.0472" lon="3.54288">
        <ele>1294</ele>
        <time>2019-02-01T13:08:50Z</time>
      </trkpt>
      <trkpt lat="44.04717" lon="3.54286">
        <ele>1294</ele>
        <time>2019-02-01T13:09:10Z</time>
      </trkpt>
      <trkpt lat="44.04715" lon="3.54283">
        <ele>1294</ele>
        <time>2019-02-01T13:09:10Z</time>
      </trkpt>
      <trkpt lat="44.04713" lon="3.54281">
        <ele>1294</ele>
        <time>2019-02-01T13:09:10Z</time>
      </trkpt>
      <trkpt lat="44.04711" lon="3.5428">
        <ele>1294</ele>
        <time>2019-02-01T13:09:10Z</time>
      </trkpt>
      <trkpt lat="44.04709" lon="3.54275">
        <ele>1294</ele>
        <time>2019-02-01T13:09:10Z</time>
      </trkpt>
      <trkpt lat="44.04704" lon="3.54271">
        <ele>1287</ele>
        <time>2019-02-01T13:09:34Z</time>
      </trkpt>
      <trkpt lat="44.04703" lon="3.54268">
        <ele>1287</ele>
        <time>2019-02-01T13:09:34Z</time>
      </trkpt>
      <trkpt lat="44.04701" lon="3.54267">
        <ele>1287</ele>
        <time>2019-02-01T13:09:34Z</time>
      </trkpt>
      <trkpt lat="44.047" lon="3.54266">
        <ele>1287</ele>
        <time>2019-02-01T13:09:34Z</time>
      </trkpt>
      <trkpt lat="44.04698" lon="3.54264">
        <ele>1287</ele>
        <time>2019-02-01T13:09:34Z</time>
      </trkpt>
      <trkpt lat="44.04696" lon="3.54259">
        <ele>1287</ele>
        <time>2019-02-01T13:09:50Z</time>
      </trkpt>
      <trkpt lat="44.04695" lon="3.54254">
        <ele>1287</ele>
        <time>2019-02-01T13:09:50Z</time>
      </trkpt>
      <trkpt lat="44.04694" lon="3.5425">
        <ele>1287</ele>
        <time>2019-02-01T13:09:50Z</time>
      </trkpt>
      <trkpt lat="44.04692" lon="3.54247">
        <ele>1287</ele>
        <time>2019-02-01T13:09:50Z</time>
      </trkpt>
      <trkpt lat="44.04691" lon="3.54242">
        <ele>1287</ele>
        <time>2019-02-01T13:10:06Z</time>
      </trkpt>
      <trkpt lat="44.04691" lon="3.54237">
        <ele>1287</ele>
        <time>2019-02-01T13:10:06Z</time>
      </trkpt>
      <trkpt lat="44.04689" lon="3.54234">
        <ele>1287</ele>
        <time>2019-02-01T13:10:06Z</time>
      </trkpt>
      <trkpt lat="44.04687" lon="3.5423">
        <ele>1287</ele>
        <time>2019-02-01T13:10:06Z</time>
      </trkpt>
      <trkpt lat="44.04686" lon="3.54225">
        <ele>1287</ele>
        <time>2019-02-01T13:10:22Z</time>
      </trkpt>
      <trkpt lat="44.04686" lon="3.54219">
        <ele>1287</ele>
        <time>2019-02-01T13:10:22Z</time>
      </trkpt>
      <trkpt lat="44.04685" lon="3.54215">
        <ele>1287</ele>
        <time>2019-02-01T13:10:22Z</time>
      </trkpt>
      <trkpt lat="44.04684" lon="3.54211">
        <ele>1287</ele>
        <time>2019-02-01T13:10:22Z</time>
      </trkpt>
      <trkpt lat="44.04683" lon="3.54206">
        <ele>1294</ele>
        <time>2019-02-01T13:10:38Z</time>
      </trkpt>
      <trkpt lat="44.04682" lon="3.54202">
        <ele>1294</ele>
        <time>2019-02-01T13:10:38Z</time>
      </trkpt>
      <trkpt lat="44.0468" lon="3.54198">
        <ele>1294</ele>
        <time>2019-02-01T13:10:38Z</time>
      </trkpt>
      <trkpt lat="44.04679" lon="3.54194">
        <ele>1294</ele>
        <time>2019-02-01T13:10:38Z</time>
      </trkpt>
      <trkpt lat="44.04679" lon="3.54189">
        <ele>1294</ele>
        <time>2019-02-01T13:10:54Z</time>
      </trkpt>
      <trkpt lat="44.0468" lon="3.54183">
        <ele>1294</ele>
        <time>2019-02-01T13:10:54Z</time>
      </trkpt>
      <trkpt lat="44.0468" lon="3.54178">
        <ele>1294</ele>
        <time>2019-02-01T13:10:54Z</time>
      </trkpt>
      <trkpt lat="44.04681" lon="3.54173">
        <ele>1294</ele>
        <time>2019-02-01T13:10:54Z</time>
      </trkpt>
      <trkpt lat="44.04682" lon="3.54168">
        <ele>1294</ele>
        <time>2019-02-01T13:11:10Z</time>
      </trkpt>
      <trkpt lat="44.04682" lon="3.54162">
        <ele>1294</ele>
        <time>2019-02-01T13:11:10Z</time>
      </trkpt>
      <trkpt lat="44.0468" lon="3.54157">
        <ele>1294</ele>
        <time>2019-02-01T13:11:10Z</time>
      </trkpt>
      <trkpt lat="44.04679" lon="3.54151">
        <ele>1294</ele>
        <time>2019-02-01T13:11:10Z</time>
      </trkpt>
      <trkpt lat="44.04678" lon="3.54149">
        <ele>1294</ele>
        <time>2019-02-01T13:11:26Z</time>
      </trkpt>
      <trkpt lat="44.04676" lon="3.54146">
        <ele>1294</ele>
        <time>2019-02-01T13:11:26Z</time>
      </trkpt>
      <trkpt lat="44.04675" lon="3.5414">
        <ele>1294</ele>
        <time>2019-02-01T13:11:26Z</time>
      </trkpt>
      <trkpt lat="44.04674" lon="3.54136">
        <ele>1294</ele>
        <time>2019-02-01T13:11:26Z</time>
      </trkpt>
      <trkpt lat="44.04674" lon="3.54131">
        <ele>1294</ele>
        <time>2019-02-01T13:11:42Z</time>
      </trkpt>
      <trkpt lat="44.04675" lon="3.54126">
        <ele>1294</ele>
        <time>2019-02-01T13:11:42Z</time>
      </trkpt>
      <trkpt lat="44.04675" lon="3.54121">
        <ele>1301</ele>
        <time>2019-02-01T13:11:42Z</time>
      </trkpt>
      <trkpt lat="44.04675" lon="3.54118">
        <ele>1301</ele>
        <time>2019-02-01T13:11:42Z</time>
      </trkpt>
      <trkpt lat="44.04675" lon="3.54113">
        <ele>1301</ele>
        <time>2019-02-01T13:12:02Z</time>
      </trkpt>
      <trkpt lat="44.04674" lon="3.54112">
        <ele>1301</ele>
        <time>2019-02-01T13:12:02Z</time>
      </trkpt>
      <trkpt lat="44.04675" lon="3.54109">
        <ele>1301</ele>
        <time>2019-02-01T13:12:02Z</time>
      </trkpt>
      <trkpt lat="44.04675" lon="3.54105">
        <ele>1301</ele>
        <time>2019-02-01T13:12:02Z</time>
      </trkpt>
      <trkpt lat="44.04675" lon="3.54099">
        <ele>1301</ele>
        <time>2019-02-01T13:12:02Z</time>
      </trkpt>
      <trkpt lat="44.04674" lon="3.54092">
        <ele>1301</ele>
        <time>2019-02-01T13:12:18Z</time>
      </trkpt>
      <trkpt lat="44.04674" lon="3.54088">
        <ele>1301</ele>
        <time>2019-02-01T13:12:18Z</time>
      </trkpt>
      <trkpt lat="44.04674" lon="3.54082">
        <ele>1301</ele>
        <time>2019-02-01T13:12:18Z</time>
      </trkpt>
      <trkpt lat="44.04673" lon="3.54076">
        <ele>1301</ele>
        <time>2019-02-01T13:12:18Z</time>
      </trkpt>
      <trkpt lat="44.04673" lon="3.54068">
        <ele>1301</ele>
        <time>2019-02-01T13:12:42Z</time>
      </trkpt>
      <trkpt lat="44.04673" lon="3.54064">
        <ele>1301</ele>
        <time>2019-02-01T13:12:42Z</time>
      </trkpt>
      <trkpt lat="44.04673" lon="3.54062">
        <ele>1301</ele>
        <time>2019-02-01T13:12:42Z</time>
      </trkpt>
      <trkpt lat="44.04672" lon="3.54061">
        <ele>1301</ele>
        <time>2019-02-01T13:12:42Z</time>
      </trkpt>
      <trkpt lat="44.04672" lon="3.54057">
        <ele>1301</ele>
        <time>2019-02-01T13:12:42Z</time>
      </trkpt>
      <trkpt lat="44.04673" lon="3.54053">
        <ele>1301</ele>
        <time>2019-02-01T13:12:58Z</time>
      </trkpt>
      <trkpt lat="44.04672" lon="3.54048">
        <ele>1301</ele>
        <time>2019-02-01T13:12:58Z</time>
      </trkpt>
      <trkpt lat="44.04674" lon="3.54042">
        <ele>1301</ele>
        <time>2019-02-01T13:12:58Z</time>
      </trkpt>
      <trkpt lat="44.04675" lon="3.54037">
        <ele>1306</ele>
        <time>2019-02-01T13:12:58Z</time>
      </trkpt>
      <trkpt lat="44.04677" lon="3.54034">
        <ele>1306</ele>
        <time>2019-02-01T13:13:14Z</time>
      </trkpt>
      <trkpt lat="44.04679" lon="3.54029">
        <ele>1306</ele>
        <time>2019-02-01T13:13:14Z</time>
      </trkpt>
      <trkpt lat="44.0468" lon="3.54023">
        <ele>1306</ele>
        <time>2019-02-01T13:13:14Z</time>
      </trkpt>
      <trkpt lat="44.04682" lon="3.54019">
        <ele>1306</ele>
        <time>2019-02-01T13:13:14Z</time>
      </trkpt>
      <trkpt lat="44.04683" lon="3.54015">
        <ele>1306</ele>
        <time>2019-02-01T13:14:14Z</time>
      </trkpt>
      <trkpt lat="44.04683" lon="3.54014">
        <ele>1306</ele>
        <time>2019-02-01T13:14:14Z</time>
      </trkpt>
      <trkpt lat="44.04684" lon="3.5401">
        <ele>1306</ele>
        <time>2019-02-01T13:14:14Z</time>
      </trkpt>
      <trkpt lat="44.04683" lon="3.54009">
        <ele>1306</ele>
        <time>2019-02-01T13:14:14Z</time>
      </trkpt>
      <trkpt lat="44.04684" lon="3.53998">
        <ele>1306</ele>
        <time>2019-02-01T13:14:14Z</time>
      </trkpt>
      <trkpt lat="44.04686" lon="3.53996">
        <ele>1306</ele>
        <time>2019-02-01T13:14:46Z</time>
      </trkpt>
      <trkpt lat="44.04686" lon="3.53995">
        <ele>1306</ele>
        <time>2019-02-01T13:14:46Z</time>
      </trkpt>
      <trkpt lat="44.04687" lon="3.53988">
        <ele>1306</ele>
        <time>2019-02-01T13:14:46Z</time>
      </trkpt>
      <trkpt lat="44.04689" lon="3.53982">
        <ele>1306</ele>
        <time>2019-02-01T13:14:46Z</time>
      </trkpt>
      <trkpt lat="44.04691" lon="3.53978">
        <ele>1306</ele>
        <time>2019-02-01T13:15:02Z</time>
      </trkpt>
      <trkpt lat="44.04693" lon="3.53975">
        <ele>1306</ele>
        <time>2019-02-01T13:15:02Z</time>
      </trkpt>
      <trkpt lat="44.04694" lon="3.5397">
        <ele>1306</ele>
        <time>2019-02-01T13:15:02Z</time>
      </trkpt>
      <trkpt lat="44.04696" lon="3.53966">
        <ele>1306</ele>
        <time>2019-02-01T13:15:02Z</time>
      </trkpt>
      <trkpt lat="44.04699" lon="3.53962">
        <ele>1306</ele>
        <time>2019-02-01T13:15:18Z</time>
      </trkpt>
      <trkpt lat="44.047" lon="3.53957">
        <ele>1309</ele>
        <time>2019-02-01T13:15:18Z</time>
      </trkpt>
      <trkpt lat="44.047" lon="3.5395">
        <ele>1309</ele>
        <time>2019-02-01T13:15:18Z</time>
      </trkpt>
      <trkpt lat="44.04701" lon="3.53946">
        <ele>1309</ele>
        <time>2019-02-01T13:15:18Z</time>
      </trkpt>
      <trkpt lat="44.04699" lon="3.53944">
        <ele>1309</ele>
        <time>2019-02-01T13:16:34Z</time>
      </trkpt>
      <trkpt lat="44.04698" lon="3.53942">
        <ele>1309</ele>
        <time>2019-02-01T13:16:34Z</time>
      </trkpt>
      <trkpt lat="44.04697" lon="3.53939">
        <ele>1309</ele>
        <time>2019-02-01T13:16:34Z</time>
      </trkpt>
      <trkpt lat="44.04698" lon="3.53935">
        <ele>1309</ele>
        <time>2019-02-01T13:16:34Z</time>
      </trkpt>
      <trkpt lat="44.04699" lon="3.53929">
        <ele>1309</ele>
        <time>2019-02-01T13:16:34Z</time>
      </trkpt>
      <trkpt lat="44.04701" lon="3.53927">
        <ele>1309</ele>
        <time>2019-02-01T13:16:50Z</time>
      </trkpt>
      <trkpt lat="44.04703" lon="3.53924">
        <ele>1309</ele>
        <time>2019-02-01T13:16:50Z</time>
      </trkpt>
      <trkpt lat="44.04704" lon="3.53918">
        <ele>1309</ele>
        <time>2019-02-01T13:16:50Z</time>
      </trkpt>
      <trkpt lat="44.04705" lon="3.53914">
        <ele>1309</ele>
        <time>2019-02-01T13:16:50Z</time>
      </trkpt>
      <trkpt lat="44.04704" lon="3.53908">
        <ele>1309</ele>
        <time>2019-02-01T13:17:06Z</time>
      </trkpt>
      <trkpt lat="44.04704" lon="3.53906">
        <ele>1309</ele>
        <time>2019-02-01T13:17:06Z</time>
      </trkpt>
      <trkpt lat="44.04705" lon="3.53901">
        <ele>1309</ele>
        <time>2019-02-01T13:17:06Z</time>
      </trkpt>
      <trkpt lat="44.04708" lon="3.53894">
        <ele>1309</ele>
        <time>2019-02-01T13:17:06Z</time>
      </trkpt>
      <trkpt lat="44.0471" lon="3.5389">
        <ele>1304</ele>
        <time>2019-02-01T13:17:50Z</time>
      </trkpt>
      <trkpt lat="44.04708" lon="3.53887">
        <ele>1309</ele>
        <time>2019-02-01T13:17:50Z</time>
      </trkpt>
      <trkpt lat="44.04707" lon="3.53882">
        <ele>1309</ele>
        <time>2019-02-01T13:17:50Z</time>
      </trkpt>
      <trkpt lat="44.04709" lon="3.53878">
        <ele>1304</ele>
        <time>2019-02-01T13:17:50Z</time>
      </trkpt>
      <trkpt lat="44.0471" lon="3.53872">
        <ele>1299</ele>
        <time>2019-02-01T13:17:50Z</time>
      </trkpt>
      <trkpt lat="44.04711" lon="3.53866">
        <ele>1299</ele>
        <time>2019-02-01T13:18:10Z</time>
      </trkpt>
      <trkpt lat="44.0471" lon="3.53864">
        <ele>1299</ele>
        <time>2019-02-01T13:18:10Z</time>
      </trkpt>
      <trkpt lat="44.04709" lon="3.5386">
        <ele>1299</ele>
        <time>2019-02-01T13:18:10Z</time>
      </trkpt>
      <trkpt lat="44.04708" lon="3.53855">
        <ele>1307</ele>
        <time>2019-02-01T13:18:10Z</time>
      </trkpt>
      <trkpt lat="44.04709" lon="3.53849">
        <ele>1299</ele>
        <time>2019-02-01T13:18:10Z</time>
      </trkpt>
      <trkpt lat="44.04709" lon="3.53845">
        <ele>1299</ele>
        <time>2019-02-01T13:18:34Z</time>
      </trkpt>
      <trkpt lat="44.04709" lon="3.53843">
        <ele>1299</ele>
        <time>2019-02-01T13:18:34Z</time>
      </trkpt>
      <trkpt lat="44.04709" lon="3.53839">
        <ele>1299</ele>
        <time>2019-02-01T13:18:34Z</time>
      </trkpt>
      <trkpt lat="44.04709" lon="3.53833">
        <ele>1299</ele>
        <time>2019-02-01T13:18:34Z</time>
      </trkpt>
      <trkpt lat="44.04711" lon="3.53826">
        <ele>1299</ele>
        <time>2019-02-01T13:18:34Z</time>
      </trkpt>
      <trkpt lat="44.04712" lon="3.53818">
        <ele>1299</ele>
        <time>2019-02-01T13:18:50Z</time>
      </trkpt>
      <trkpt lat="44.04712" lon="3.53809">
        <ele>1299</ele>
        <time>2019-02-01T13:18:50Z</time>
      </trkpt>
      <trkpt lat="44.04713" lon="3.53802">
        <ele>1299</ele>
        <time>2019-02-01T13:18:50Z</time>
      </trkpt>
      <trkpt lat="44.04714" lon="3.53797">
        <ele>1299</ele>
        <time>2019-02-01T13:18:50Z</time>
      </trkpt>
      <trkpt lat="44.04714" lon="3.53794">
        <ele>1299</ele>
        <time>2019-02-01T13:19:06Z</time>
      </trkpt>
      <trkpt lat="44.04714" lon="3.53792">
        <ele>1297</ele>
        <time>2019-02-01T13:19:06Z</time>
      </trkpt>
      <trkpt lat="44.04712" lon="3.53787">
        <ele>1297</ele>
        <time>2019-02-01T13:19:06Z</time>
      </trkpt>
      <trkpt lat="44.04713" lon="3.53781">
        <ele>1297</ele>
        <time>2019-02-01T13:19:06Z</time>
      </trkpt>
      <trkpt lat="44.04713" lon="3.53775">
        <ele>1297</ele>
        <time>2019-02-01T13:19:22Z</time>
      </trkpt>
      <trkpt lat="44.04714" lon="3.5377">
        <ele>1297</ele>
        <time>2019-02-01T13:19:22Z</time>
      </trkpt>
      <trkpt lat="44.04714" lon="3.53764">
        <ele>1297</ele>
        <time>2019-02-01T13:19:22Z</time>
      </trkpt>
      <trkpt lat="44.04717" lon="3.5376">
        <ele>1297</ele>
        <time>2019-02-01T13:19:22Z</time>
      </trkpt>
      <trkpt lat="44.0472" lon="3.53754">
        <ele>1297</ele>
        <time>2019-02-01T13:19:42Z</time>
      </trkpt>
      <trkpt lat="44.0472" lon="3.5375">
        <ele>1297</ele>
        <time>2019-02-01T13:19:42Z</time>
      </trkpt>
      <trkpt lat="44.04722" lon="3.5374">
        <ele>1297</ele>
        <time>2019-02-01T13:19:42Z</time>
      </trkpt>
      <trkpt lat="44.04723" lon="3.53731">
        <ele>1297</ele>
        <time>2019-02-01T13:19:42Z</time>
      </trkpt>
      <trkpt lat="44.04724" lon="3.53728">
        <ele>1297</ele>
        <time>2019-02-01T13:19:58Z</time>
      </trkpt>
      <trkpt lat="44.04726" lon="3.53725">
        <ele>1297</ele>
        <time>2019-02-01T13:19:58Z</time>
      </trkpt>
      <trkpt lat="44.04728" lon="3.53722">
        <ele>1297</ele>
        <time>2019-02-01T13:19:58Z</time>
      </trkpt>
      <trkpt lat="44.0473" lon="3.53718">
        <ele>1297</ele>
        <time>2019-02-01T13:19:58Z</time>
      </trkpt>
      <trkpt lat="44.04732" lon="3.53715">
        <ele>1297</ele>
        <time>2019-02-01T13:20:14Z</time>
      </trkpt>
      <trkpt lat="44.04734" lon="3.53712">
        <ele>1297</ele>
        <time>2019-02-01T13:20:14Z</time>
      </trkpt>
      <trkpt lat="44.04736" lon="3.53707">
        <ele>1295</ele>
        <time>2019-02-01T13:20:14Z</time>
      </trkpt>
      <trkpt lat="44.04739" lon="3.53702">
        <ele>1295</ele>
        <time>2019-02-01T13:20:14Z</time>
      </trkpt>
      <trkpt lat="44.04743" lon="3.53695">
        <ele>1295</ele>
        <time>2019-02-01T13:20:38Z</time>
      </trkpt>
      <trkpt lat="44.04743" lon="3.53694">
        <ele>1295</ele>
        <time>2019-02-01T13:20:38Z</time>
      </trkpt>
      <trkpt lat="44.04744" lon="3.53694">
        <ele>1295</ele>
        <time>2019-02-01T13:20:38Z</time>
      </trkpt>
      <trkpt lat="44.04746" lon="3.53688">
        <ele>1295</ele>
        <time>2019-02-01T13:20:38Z</time>
      </trkpt>
      <trkpt lat="44.04749" lon="3.53684">
        <ele>1295</ele>
        <time>2019-02-01T13:20:38Z</time>
      </trkpt>
      <trkpt lat="44.04749" lon="3.53681">
        <ele>1295</ele>
        <time>2019-02-01T13:20:54Z</time>
      </trkpt>
      <trkpt lat="44.04751" lon="3.53678">
        <ele>1295</ele>
        <time>2019-02-01T13:20:54Z</time>
      </trkpt>
      <trkpt lat="44.04753" lon="3.53677">
        <ele>1295</ele>
        <time>2019-02-01T13:20:54Z</time>
      </trkpt>
      <trkpt lat="44.04756" lon="3.53673">
        <ele>1295</ele>
        <time>2019-02-01T13:20:54Z</time>
      </trkpt>
      <trkpt lat="44.04758" lon="3.53672">
        <ele>1295</ele>
        <time>2019-02-01T13:21:58Z</time>
      </trkpt>
      <trkpt lat="44.04762" lon="3.53668">
        <ele>1295</ele>
        <time>2019-02-01T13:21:58Z</time>
      </trkpt>
      <trkpt lat="44.0477" lon="3.53657">
        <ele>1295</ele>
        <time>2019-02-01T13:21:58Z</time>
      </trkpt>
      <trkpt lat="44.0478" lon="3.53646">
        <ele>1295</ele>
        <time>2019-02-01T13:21:58Z</time>
      </trkpt>
      <trkpt lat="44.04795" lon="3.53632">
        <ele>1296</ele>
        <time>2019-02-01T13:22:14Z</time>
      </trkpt>
      <trkpt lat="44.04803" lon="3.53625">
        <ele>1296</ele>
        <time>2019-02-01T13:22:14Z</time>
      </trkpt>
      <trkpt lat="44.04807" lon="3.53622">
        <ele>1286</ele>
        <time>2019-02-01T13:22:14Z</time>
      </trkpt>
      <trkpt lat="44.0481" lon="3.53618">
        <ele>1286</ele>
        <time>2019-02-01T13:22:14Z</time>
      </trkpt>
      <trkpt lat="44.04812" lon="3.53614">
        <ele>1286</ele>
        <time>2019-02-01T13:22:46Z</time>
      </trkpt>
      <trkpt lat="44.04813" lon="3.53613">
        <ele>1286</ele>
        <time>2019-02-01T13:22:46Z</time>
      </trkpt>
      <trkpt lat="44.04821" lon="3.53603">
        <ele>1286</ele>
        <time>2019-02-01T13:22:46Z</time>
      </trkpt>
      <trkpt lat="44.04825" lon="3.53597">
        <ele>1286</ele>
        <time>2019-02-01T13:22:46Z</time>
      </trkpt>
      <trkpt lat="44.04827" lon="3.53594">
        <ele>1286</ele>
        <time>2019-02-01T13:23:06Z</time>
      </trkpt>
      <trkpt lat="44.0483" lon="3.5359">
        <ele>1286</ele>
        <time>2019-02-01T13:23:06Z</time>
      </trkpt>
      <trkpt lat="44.04832" lon="3.53586">
        <ele>1286</ele>
        <time>2019-02-01T13:23:06Z</time>
      </trkpt>
      <trkpt lat="44.04834" lon="3.53583">
        <ele>1286</ele>
        <time>2019-02-01T13:23:06Z</time>
      </trkpt>
      <trkpt lat="44.04836" lon="3.53581">
        <ele>1286</ele>
        <time>2019-02-01T13:23:30Z</time>
      </trkpt>
      <trkpt lat="44.04844" lon="3.53574">
        <ele>1286</ele>
        <time>2019-02-01T13:23:30Z</time>
      </trkpt>
      <trkpt lat="44.0485" lon="3.53568">
        <ele>1286</ele>
        <time>2019-02-01T13:23:30Z</time>
      </trkpt>
      <trkpt lat="44.04856" lon="3.53564">
        <ele>1286</ele>
        <time>2019-02-01T13:23:30Z</time>
      </trkpt>
      <trkpt lat="44.04862" lon="3.53561">
        <ele>1286</ele>
        <time>2019-02-01T13:23:50Z</time>
      </trkpt>
      <trkpt lat="44.04866" lon="3.53558">
        <ele>1286</ele>
        <time>2019-02-01T13:23:50Z</time>
      </trkpt>
      <trkpt lat="44.04871" lon="3.53555">
        <ele>1286</ele>
        <time>2019-02-01T13:23:50Z</time>
      </trkpt>
      <trkpt lat="44.04875" lon="3.53554">
        <ele>1286</ele>
        <time>2019-02-01T13:23:50Z</time>
      </trkpt>
      <trkpt lat="44.0488" lon="3.53551">
        <ele>1294</ele>
        <time>2019-02-01T13:24:06Z</time>
      </trkpt>
      <trkpt lat="44.04884" lon="3.53549">
        <ele>1294</ele>
        <time>2019-02-01T13:24:06Z</time>
      </trkpt>
      <trkpt lat="44.04887" lon="3.53547">
        <ele>1294</ele>
        <time>2019-02-01T13:24:06Z</time>
      </trkpt>
      <trkpt lat="44.0489" lon="3.53544">
        <ele>1294</ele>
        <time>2019-02-01T13:24:06Z</time>
      </trkpt>
      <trkpt lat="44.04897" lon="3.53537">
        <ele>1280</ele>
        <time>2019-02-01T13:25:14Z</time>
      </trkpt>
      <trkpt lat="44.04898" lon="3.53537">
        <ele>1280</ele>
        <time>2019-02-01T13:25:14Z</time>
      </trkpt>
      <trkpt lat="44.049" lon="3.53534">
        <ele>1280</ele>
        <time>2019-02-01T13:25:14Z</time>
      </trkpt>
      <trkpt lat="44.04905" lon="3.5353">
        <ele>1280</ele>
        <time>2019-02-01T13:25:14Z</time>
      </trkpt>
      <trkpt lat="44.04905" lon="3.5353">
        <ele>1280</ele>
        <time>2019-02-01T13:25:14Z</time>
      </trkpt>
      <trkpt lat="44.04911" lon="3.53529">
        <ele>1280</ele>
        <time>2019-02-01T13:25:46Z</time>
      </trkpt>
      <trkpt lat="44.04913" lon="3.53528">
        <ele>1280</ele>
        <time>2019-02-01T13:25:46Z</time>
      </trkpt>
      <trkpt lat="44.04921" lon="3.53523">
        <ele>1280</ele>
        <time>2019-02-01T13:25:46Z</time>
      </trkpt>
      <trkpt lat="44.0493" lon="3.53516">
        <ele>1280</ele>
        <time>2019-02-01T13:25:46Z</time>
      </trkpt>
      <trkpt lat="44.04936" lon="3.5351">
        <ele>1280</ele>
        <time>2019-02-01T13:26:02Z</time>
      </trkpt>
      <trkpt lat="44.04941" lon="3.53504">
        <ele>1280</ele>
        <time>2019-02-01T13:26:02Z</time>
      </trkpt>
      <trkpt lat="44.04943" lon="3.53502">
        <ele>1280</ele>
        <time>2019-02-01T13:26:02Z</time>
      </trkpt>
      <trkpt lat="44.04947" lon="3.53498">
        <ele>1280</ele>
        <time>2019-02-01T13:26:02Z</time>
      </trkpt>
      <trkpt lat="44.04948" lon="3.53497">
        <ele>1280</ele>
        <time>2019-02-01T13:26:26Z</time>
      </trkpt>
      <trkpt lat="44.04949" lon="3.53496">
        <ele>1280</ele>
        <time>2019-02-01T13:26:26Z</time>
      </trkpt>
      <trkpt lat="44.04956" lon="3.53492">
        <ele>1280</ele>
        <time>2019-02-01T13:26:26Z</time>
      </trkpt>
      <trkpt lat="44.04966" lon="3.53484">
        <ele>1283</ele>
        <time>2019-02-01T13:26:26Z</time>
      </trkpt>
      <trkpt lat="44.04968" lon="3.53481">
        <ele>1283</ele>
        <time>2019-02-01T13:26:42Z</time>
      </trkpt>
      <trkpt lat="44.04973" lon="3.53474">
        <ele>1283</ele>
        <time>2019-02-01T13:26:42Z</time>
      </trkpt>
      <trkpt lat="44.04977" lon="3.53469">
        <ele>1283</ele>
        <time>2019-02-01T13:26:42Z</time>
      </trkpt>
      <trkpt lat="44.0498" lon="3.53464">
        <ele>1283</ele>
        <time>2019-02-01T13:26:42Z</time>
      </trkpt>
      <trkpt lat="44.04984" lon="3.53461">
        <ele>1283</ele>
        <time>2019-02-01T13:27:42Z</time>
      </trkpt>
      <trkpt lat="44.04986" lon="3.53457">
        <ele>1274</ele>
        <time>2019-02-01T13:27:42Z</time>
      </trkpt>
      <trkpt lat="44.04989" lon="3.53452">
        <ele>1274</ele>
        <time>2019-02-01T13:27:42Z</time>
      </trkpt>
      <trkpt lat="44.04989" lon="3.53452">
        <ele>1274</ele>
        <time>2019-02-01T13:27:42Z</time>
      </trkpt>
      <trkpt lat="44.0499" lon="3.53451">
        <ele>1274</ele>
        <time>2019-02-01T13:27:42Z</time>
      </trkpt>
      <trkpt lat="44.04993" lon="3.53449">
        <ele>1274</ele>
        <time>2019-02-01T13:28:18Z</time>
      </trkpt>
      <trkpt lat="44.04993" lon="3.53448">
        <ele>1274</ele>
        <time>2019-02-01T13:28:18Z</time>
      </trkpt>
      <trkpt lat="44.04996" lon="3.53446">
        <ele>1274</ele>
        <time>2019-02-01T13:28:18Z</time>
      </trkpt>
      <trkpt lat="44.04998" lon="3.53444">
        <ele>1274</ele>
        <time>2019-02-01T13:28:18Z</time>
      </trkpt>
      <trkpt lat="44.05002" lon="3.53439">
        <ele>1274</ele>
        <time>2019-02-01T13:28:18Z</time>
      </trkpt>
      <trkpt lat="44.05005" lon="3.53436">
        <ele>1274</ele>
        <time>2019-02-01T13:29:02Z</time>
      </trkpt>
      <trkpt lat="44.05007" lon="3.53433">
        <ele>1274</ele>
        <time>2019-02-01T13:29:02Z</time>
      </trkpt>
      <trkpt lat="44.05007" lon="3.53432">
        <ele>1274</ele>
        <time>2019-02-01T13:29:02Z</time>
      </trkpt>
      <trkpt lat="44.05009" lon="3.5343">
        <ele>1274</ele>
        <time>2019-02-01T13:29:02Z</time>
      </trkpt>
      <trkpt lat="44.05017" lon="3.53413">
        <ele>1274</ele>
        <time>2019-02-01T13:29:02Z</time>
      </trkpt>
      <trkpt lat="44.05021" lon="3.53396">
        <ele>1274</ele>
        <time>2019-02-01T13:29:30Z</time>
      </trkpt>
      <trkpt lat="44.05024" lon="3.53393">
        <ele>1274</ele>
        <time>2019-02-01T13:29:30Z</time>
      </trkpt>
      <trkpt lat="44.05025" lon="3.53392">
        <ele>1274</ele>
        <time>2019-02-01T13:29:30Z</time>
      </trkpt>
      <trkpt lat="44.05026" lon="3.5339">
        <ele>1274</ele>
        <time>2019-02-01T13:29:30Z</time>
      </trkpt>
      <trkpt lat="44.0503" lon="3.53384">
        <ele>1274</ele>
        <time>2019-02-01T13:29:30Z</time>
      </trkpt>
      <trkpt lat="44.05032" lon="3.53375">
        <ele>1274</ele>
        <time>2019-02-01T13:30:02Z</time>
      </trkpt>
      <trkpt lat="44.05036" lon="3.53363">
        <ele>1276</ele>
        <time>2019-02-01T13:30:02Z</time>
      </trkpt>
      <trkpt lat="44.05037" lon="3.53356">
        <ele>1276</ele>
        <time>2019-02-01T13:30:02Z</time>
      </trkpt>
      <trkpt lat="44.05037" lon="3.53352">
        <ele>1276</ele>
        <time>2019-02-01T13:30:02Z</time>
      </trkpt>
      <trkpt lat="44.05038" lon="3.53344">
        <ele>1276</ele>
        <time>2019-02-01T13:30:18Z</time>
      </trkpt>
      <trkpt lat="44.0504" lon="3.53337">
        <ele>1276</ele>
        <time>2019-02-01T13:30:18Z</time>
      </trkpt>
      <trkpt lat="44.05041" lon="3.53329">
        <ele>1276</ele>
        <time>2019-02-01T13:30:18Z</time>
      </trkpt>
      <trkpt lat="44.05043" lon="3.53323">
        <ele>1264</ele>
        <time>2019-02-01T13:30:18Z</time>
      </trkpt>
      <trkpt lat="44.05045" lon="3.53316">
        <ele>1264</ele>
        <time>2019-02-01T13:30:34Z</time>
      </trkpt>
      <trkpt lat="44.05045" lon="3.53312">
        <ele>1264</ele>
        <time>2019-02-01T13:30:34Z</time>
      </trkpt>
      <trkpt lat="44.05045" lon="3.53307">
        <ele>1264</ele>
        <time>2019-02-01T13:30:34Z</time>
      </trkpt>
      <trkpt lat="44.05045" lon="3.53303">
        <ele>1264</ele>
        <time>2019-02-01T13:30:34Z</time>
      </trkpt>
      <trkpt lat="44.05045" lon="3.53299">
        <ele>1264</ele>
        <time>2019-02-01T13:31:02Z</time>
      </trkpt>
      <trkpt lat="44.05047" lon="3.53295">
        <ele>1264</ele>
        <time>2019-02-01T13:31:02Z</time>
      </trkpt>
      <trkpt lat="44.05049" lon="3.5329">
        <ele>1261</ele>
        <time>2019-02-01T13:31:02Z</time>
      </trkpt>
      <trkpt lat="44.05049" lon="3.53289">
        <ele>1261</ele>
        <time>2019-02-01T13:31:02Z</time>
      </trkpt>
      <trkpt lat="44.0505" lon="3.53287">
        <ele>1261</ele>
        <time>2019-02-01T13:31:02Z</time>
      </trkpt>
      <trkpt lat="44.05052" lon="3.53283">
        <ele>1261</ele>
        <time>2019-02-01T13:31:18Z</time>
      </trkpt>
      <trkpt lat="44.05054" lon="3.53279">
        <ele>1261</ele>
        <time>2019-02-01T13:31:18Z</time>
      </trkpt>
      <trkpt lat="44.05056" lon="3.53276">
        <ele>1261</ele>
        <time>2019-02-01T13:31:18Z</time>
      </trkpt>
      <trkpt lat="44.05058" lon="3.53273">
        <ele>1261</ele>
        <time>2019-02-01T13:31:18Z</time>
      </trkpt>
      <trkpt lat="44.05061" lon="3.53269">
        <ele>1261</ele>
        <time>2019-02-01T13:31:34Z</time>
      </trkpt>
      <trkpt lat="44.05062" lon="3.53267">
        <ele>1261</ele>
        <time>2019-02-01T13:31:34Z</time>
      </trkpt>
      <trkpt lat="44.05063" lon="3.53263">
        <ele>1261</ele>
        <time>2019-02-01T13:31:34Z</time>
      </trkpt>
      <trkpt lat="44.05065" lon="3.53257">
        <ele>1261</ele>
        <time>2019-02-01T13:31:34Z</time>
      </trkpt>
      <trkpt lat="44.05065" lon="3.53257">
        <ele>1261</ele>
        <time>2019-02-01T13:31:54Z</time>
      </trkpt>
      <trkpt lat="44.05067" lon="3.53252">
        <ele>1261</ele>
        <time>2019-02-01T13:31:54Z</time>
      </trkpt>
      <trkpt lat="44.05069" lon="3.53248">
        <ele>1261</ele>
        <time>2019-02-01T13:31:54Z</time>
      </trkpt>
      <trkpt lat="44.05072" lon="3.53244">
        <ele>1261</ele>
        <time>2019-02-01T13:31:54Z</time>
      </trkpt>
      <trkpt lat="44.05073" lon="3.53244">
        <ele>1261</ele>
        <time>2019-02-01T13:32:10Z</time>
      </trkpt>
      <trkpt lat="44.05075" lon="3.53237">
        <ele>1261</ele>
        <time>2019-02-01T13:32:10Z</time>
      </trkpt>
      <trkpt lat="44.05076" lon="3.53235">
        <ele>1261</ele>
        <time>2019-02-01T13:32:10Z</time>
      </trkpt>
      <trkpt lat="44.05078" lon="3.53231">
        <ele>1261</ele>
        <time>2019-02-01T13:32:10Z</time>
      </trkpt>
      <trkpt lat="44.05079" lon="3.5323">
        <ele>1261</ele>
        <time>2019-02-01T13:32:26Z</time>
      </trkpt>
      <trkpt lat="44.0508" lon="3.53229">
        <ele>1261</ele>
        <time>2019-02-01T13:32:26Z</time>
      </trkpt>
      <trkpt lat="44.05082" lon="3.53225">
        <ele>1261</ele>
        <time>2019-02-01T13:32:26Z</time>
      </trkpt>
      <trkpt lat="44.05088" lon="3.53218">
        <ele>1261</ele>
        <time>2019-02-01T13:32:26Z</time>
      </trkpt>
      <trkpt lat="44.0509" lon="3.53214">
        <ele>1261</ele>
        <time>2019-02-01T13:32:42Z</time>
      </trkpt>
      <trkpt lat="44.05094" lon="3.5321">
        <ele>1261</ele>
        <time>2019-02-01T13:32:42Z</time>
      </trkpt>
      <trkpt lat="44.05096" lon="3.53206">
        <ele>1264</ele>
        <time>2019-02-01T13:32:42Z</time>
      </trkpt>
      <trkpt lat="44.05099" lon="3.53204">
        <ele>1264</ele>
        <time>2019-02-01T13:32:42Z</time>
      </trkpt>
      <trkpt lat="44.051" lon="3.53203">
        <ele>1264</ele>
        <time>2019-02-01T13:33:02Z</time>
      </trkpt>
      <trkpt lat="44.05103" lon="3.53198">
        <ele>1264</ele>
        <time>2019-02-01T13:33:02Z</time>
      </trkpt>
      <trkpt lat="44.05106" lon="3.53196">
        <ele>1264</ele>
        <time>2019-02-01T13:33:02Z</time>
      </trkpt>
      <trkpt lat="44.05107" lon="3.53194">
        <ele>1264</ele>
        <time>2019-02-01T13:33:02Z</time>
      </trkpt>
      <trkpt lat="44.05108" lon="3.53193">
        <ele>1264</ele>
        <time>2019-02-01T13:33:22Z</time>
      </trkpt>
      <trkpt lat="44.0511" lon="3.53188">
        <ele>1264</ele>
        <time>2019-02-01T13:33:22Z</time>
      </trkpt>
      <trkpt lat="44.05112" lon="3.53186">
        <ele>1264</ele>
        <time>2019-02-01T13:33:22Z</time>
      </trkpt>
      <trkpt lat="44.05114" lon="3.53182">
        <ele>1264</ele>
        <time>2019-02-01T13:33:22Z</time>
      </trkpt>
      <trkpt lat="44.05119" lon="3.53174">
        <ele>1264</ele>
        <time>2019-02-01T13:33:50Z</time>
      </trkpt>
      <trkpt lat="44.05121" lon="3.53169">
        <ele>1264</ele>
        <time>2019-02-01T13:33:50Z</time>
      </trkpt>
      <trkpt lat="44.05122" lon="3.53167">
        <ele>1264</ele>
        <time>2019-02-01T13:33:50Z</time>
      </trkpt>
      <trkpt lat="44.05125" lon="3.53163">
        <ele>1264</ele>
        <time>2019-02-01T13:33:50Z</time>
      </trkpt>
      <trkpt lat="44.05128" lon="3.53157">
        <ele>1250</ele>
        <time>2019-02-01T13:34:30Z</time>
      </trkpt>
      <trkpt lat="44.05131" lon="3.53153">
        <ele>1250</ele>
        <time>2019-02-01T13:34:30Z</time>
      </trkpt>
      <trkpt lat="44.05137" lon="3.53144">
        <ele>1250</ele>
        <time>2019-02-01T13:34:30Z</time>
      </trkpt>
      <trkpt lat="44.05143" lon="3.53131">
        <ele>1250</ele>
        <time>2019-02-01T13:34:30Z</time>
      </trkpt>
      <trkpt lat="44.05146" lon="3.53125">
        <ele>1250</ele>
        <time>2019-02-01T13:34:50Z</time>
      </trkpt>
      <trkpt lat="44.05148" lon="3.53124">
        <ele>1252</ele>
        <time>2019-02-01T13:34:50Z</time>
      </trkpt>
      <trkpt lat="44.0515" lon="3.5312">
        <ele>1252</ele>
        <time>2019-02-01T13:34:50Z</time>
      </trkpt>
      <trkpt lat="44.05152" lon="3.53117">
        <ele>1252</ele>
        <time>2019-02-01T13:34:50Z</time>
      </trkpt>
      <trkpt lat="44.05154" lon="3.53111">
        <ele>1252</ele>
        <time>2019-02-01T13:34:50Z</time>
      </trkpt>
      <trkpt lat="44.05156" lon="3.53107">
        <ele>1252</ele>
        <time>2019-02-01T13:35:06Z</time>
      </trkpt>
      <trkpt lat="44.05159" lon="3.53104">
        <ele>1252</ele>
        <time>2019-02-01T13:35:06Z</time>
      </trkpt>
      <trkpt lat="44.0516" lon="3.531">
        <ele>1252</ele>
        <time>2019-02-01T13:35:06Z</time>
      </trkpt>
      <trkpt lat="44.05163" lon="3.53096">
        <ele>1252</ele>
        <time>2019-02-01T13:35:06Z</time>
      </trkpt>
      <trkpt lat="44.05166" lon="3.53092">
        <ele>1252</ele>
        <time>2019-02-01T13:35:22Z</time>
      </trkpt>
      <trkpt lat="44.05169" lon="3.53086">
        <ele>1252</ele>
        <time>2019-02-01T13:35:22Z</time>
      </trkpt>
      <trkpt lat="44.0517" lon="3.5308">
        <ele>1252</ele>
        <time>2019-02-01T13:35:22Z</time>
      </trkpt>
      <trkpt lat="44.0517" lon="3.53078">
        <ele>1252</ele>
        <time>2019-02-01T13:35:22Z</time>
      </trkpt>
      <trkpt lat="44.05169" lon="3.53074">
        <ele>1252</ele>
        <time>2019-02-01T13:35:42Z</time>
      </trkpt>
      <trkpt lat="44.0517" lon="3.53071">
        <ele>1252</ele>
        <time>2019-02-01T13:35:42Z</time>
      </trkpt>
      <trkpt lat="44.05171" lon="3.53067">
        <ele>1252</ele>
        <time>2019-02-01T13:35:42Z</time>
      </trkpt>
      <trkpt lat="44.0517" lon="3.53062">
        <ele>1252</ele>
        <time>2019-02-01T13:35:42Z</time>
      </trkpt>
      <trkpt lat="44.0517" lon="3.53058">
        <ele>1252</ele>
        <time>2019-02-01T13:35:42Z</time>
      </trkpt>
      <trkpt lat="44.0517" lon="3.53053">
        <ele>1252</ele>
        <time>2019-02-01T13:35:58Z</time>
      </trkpt>
      <trkpt lat="44.0517" lon="3.53048">
        <ele>1252</ele>
        <time>2019-02-01T13:35:58Z</time>
      </trkpt>
      <trkpt lat="44.05171" lon="3.53044">
        <ele>1252</ele>
        <time>2019-02-01T13:35:58Z</time>
      </trkpt>
      <trkpt lat="44.05172" lon="3.5304">
        <ele>1256</ele>
        <time>2019-02-01T13:35:58Z</time>
      </trkpt>
      <trkpt lat="44.05174" lon="3.53036">
        <ele>1256</ele>
        <time>2019-02-01T13:36:14Z</time>
      </trkpt>
      <trkpt lat="44.05175" lon="3.53031">
        <ele>1256</ele>
        <time>2019-02-01T13:36:14Z</time>
      </trkpt>
      <trkpt lat="44.05177" lon="3.53028">
        <ele>1256</ele>
        <time>2019-02-01T13:36:14Z</time>
      </trkpt>
      <trkpt lat="44.0518" lon="3.53025">
        <ele>1256</ele>
        <time>2019-02-01T13:36:14Z</time>
      </trkpt>
      <trkpt lat="44.05181" lon="3.53021">
        <ele>1256</ele>
        <time>2019-02-01T13:36:30Z</time>
      </trkpt>
      <trkpt lat="44.05181" lon="3.53017">
        <ele>1256</ele>
        <time>2019-02-01T13:36:30Z</time>
      </trkpt>
      <trkpt lat="44.05183" lon="3.53012">
        <ele>1256</ele>
        <time>2019-02-01T13:36:30Z</time>
      </trkpt>
      <trkpt lat="44.05184" lon="3.53008">
        <ele>1256</ele>
        <time>2019-02-01T13:36:30Z</time>
      </trkpt>
      <trkpt lat="44.05185" lon="3.53004">
        <ele>1256</ele>
        <time>2019-02-01T13:36:46Z</time>
      </trkpt>
      <trkpt lat="44.05186" lon="3.53">
        <ele>1256</ele>
        <time>2019-02-01T13:36:46Z</time>
      </trkpt>
      <trkpt lat="44.05188" lon="3.52998">
        <ele>1256</ele>
        <time>2019-02-01T13:36:46Z</time>
      </trkpt>
      <trkpt lat="44.05189" lon="3.52993">
        <ele>1256</ele>
        <time>2019-02-01T13:36:46Z</time>
      </trkpt>
      <trkpt lat="44.05191" lon="3.52988">
        <ele>1256</ele>
        <time>2019-02-01T13:37:02Z</time>
      </trkpt>
      <trkpt lat="44.05193" lon="3.52984">
        <ele>1256</ele>
        <time>2019-02-01T13:37:02Z</time>
      </trkpt>
      <trkpt lat="44.05195" lon="3.5298">
        <ele>1256</ele>
        <time>2019-02-01T13:37:02Z</time>
      </trkpt>
      <trkpt lat="44.05197" lon="3.52977">
        <ele>1256</ele>
        <time>2019-02-01T13:37:02Z</time>
      </trkpt>
      <trkpt lat="44.05199" lon="3.52974">
        <ele>1256</ele>
        <time>2019-02-01T13:37:18Z</time>
      </trkpt>
      <trkpt lat="44.05201" lon="3.5297">
        <ele>1256</ele>
        <time>2019-02-01T13:37:18Z</time>
      </trkpt>
      <trkpt lat="44.05203" lon="3.52966">
        <ele>1256</ele>
        <time>2019-02-01T13:37:18Z</time>
      </trkpt>
      <trkpt lat="44.05205" lon="3.52961">
        <ele>1256</ele>
        <time>2019-02-01T13:37:18Z</time>
      </trkpt>
      <trkpt lat="44.05206" lon="3.52958">
        <ele>1266</ele>
        <time>2019-02-01T13:37:34Z</time>
      </trkpt>
      <trkpt lat="44.05207" lon="3.52954">
        <ele>1266</ele>
        <time>2019-02-01T13:37:34Z</time>
      </trkpt>
      <trkpt lat="44.05209" lon="3.52951">
        <ele>1257</ele>
        <time>2019-02-01T13:37:34Z</time>
      </trkpt>
      <trkpt lat="44.05211" lon="3.52947">
        <ele>1257</ele>
        <time>2019-02-01T13:37:34Z</time>
      </trkpt>
      <trkpt lat="44.05216" lon="3.5294">
        <ele>1257</ele>
        <time>2019-02-01T13:38:14Z</time>
      </trkpt>
      <trkpt lat="44.05216" lon="3.52938">
        <ele>1257</ele>
        <time>2019-02-01T13:38:14Z</time>
      </trkpt>
      <trkpt lat="44.05216" lon="3.52936">
        <ele>1257</ele>
        <time>2019-02-01T13:38:14Z</time>
      </trkpt>
      <trkpt lat="44.05218" lon="3.52935">
        <ele>1257</ele>
        <time>2019-02-01T13:38:14Z</time>
      </trkpt>
      <trkpt lat="44.05221" lon="3.52932">
        <ele>1257</ele>
        <time>2019-02-01T13:38:14Z</time>
      </trkpt>
      <trkpt lat="44.05225" lon="3.52929">
        <ele>1257</ele>
        <time>2019-02-01T13:38:30Z</time>
      </trkpt>
      <trkpt lat="44.05228" lon="3.52927">
        <ele>1257</ele>
        <time>2019-02-01T13:38:30Z</time>
      </trkpt>
      <trkpt lat="44.05232" lon="3.52926">
        <ele>1257</ele>
        <time>2019-02-01T13:38:30Z</time>
      </trkpt>
      <trkpt lat="44.05235" lon="3.52925">
        <ele>1257</ele>
        <time>2019-02-01T13:38:30Z</time>
      </trkpt>
      <trkpt lat="44.05237" lon="3.52923">
        <ele>1257</ele>
        <time>2019-02-01T13:38:46Z</time>
      </trkpt>
      <trkpt lat="44.0524" lon="3.52921">
        <ele>1257</ele>
        <time>2019-02-01T13:38:46Z</time>
      </trkpt>
      <trkpt lat="44.05243" lon="3.52921">
        <ele>1257</ele>
        <time>2019-02-01T13:38:46Z</time>
      </trkpt>
      <trkpt lat="44.05247" lon="3.5292">
        <ele>1257</ele>
        <time>2019-02-01T13:38:46Z</time>
      </trkpt>
      <trkpt lat="44.0525" lon="3.52921">
        <ele>1257</ele>
        <time>2019-02-01T13:39:06Z</time>
      </trkpt>
      <trkpt lat="44.05252" lon="3.52921">
        <ele>1257</ele>
        <time>2019-02-01T13:39:06Z</time>
      </trkpt>
      <trkpt lat="44.05254" lon="3.5292">
        <ele>1257</ele>
        <time>2019-02-01T13:39:06Z</time>
      </trkpt>
      <trkpt lat="44.05257" lon="3.52918">
        <ele>1257</ele>
        <time>2019-02-01T13:39:06Z</time>
      </trkpt>
      <trkpt lat="44.05259" lon="3.52914">
        <ele>1257</ele>
        <time>2019-02-01T13:39:06Z</time>
      </trkpt>
      <trkpt lat="44.05263" lon="3.52915">
        <ele>1257</ele>
        <time>2019-02-01T13:39:22Z</time>
      </trkpt>
      <trkpt lat="44.05266" lon="3.52916">
        <ele>1257</ele>
        <time>2019-02-01T13:39:22Z</time>
      </trkpt>
      <trkpt lat="44.05269" lon="3.52916">
        <ele>1257</ele>
        <time>2019-02-01T13:39:22Z</time>
      </trkpt>
      <trkpt lat="44.05273" lon="3.52917">
        <ele>1257</ele>
        <time>2019-02-01T13:39:22Z</time>
      </trkpt>
      <trkpt lat="44.05275" lon="3.52918">
        <ele>1257</ele>
        <time>2019-02-01T13:39:42Z</time>
      </trkpt>
      <trkpt lat="44.05278" lon="3.52918">
        <ele>1257</ele>
        <time>2019-02-01T13:39:42Z</time>
      </trkpt>
      <trkpt lat="44.05281" lon="3.52917">
        <ele>1257</ele>
        <time>2019-02-01T13:39:42Z</time>
      </trkpt>
      <trkpt lat="44.05284" lon="3.52915">
        <ele>1257</ele>
        <time>2019-02-01T13:39:42Z</time>
      </trkpt>
      <trkpt lat="44.05287" lon="3.52913">
        <ele>1257</ele>
        <time>2019-02-01T13:39:42Z</time>
      </trkpt>
      <trkpt lat="44.0529" lon="3.52912">
        <ele>1257</ele>
        <time>2019-02-01T13:39:58Z</time>
      </trkpt>
      <trkpt lat="44.05292" lon="3.52911">
        <ele>1257</ele>
        <time>2019-02-01T13:39:58Z</time>
      </trkpt>
      <trkpt lat="44.05296" lon="3.5291">
        <ele>1257</ele>
        <time>2019-02-01T13:39:58Z</time>
      </trkpt>
      <trkpt lat="44.053" lon="3.5291">
        <ele>1257</ele>
        <time>2019-02-01T13:39:58Z</time>
      </trkpt>
      <trkpt lat="44.05304" lon="3.52909">
        <ele>1257</ele>
        <time>2019-02-01T13:40:14Z</time>
      </trkpt>
      <trkpt lat="44.05307" lon="3.52908">
        <ele>1257</ele>
        <time>2019-02-01T13:40:14Z</time>
      </trkpt>
      <trkpt lat="44.05311" lon="3.52907">
        <ele>1257</ele>
        <time>2019-02-01T13:40:14Z</time>
      </trkpt>
      <trkpt lat="44.05316" lon="3.52907">
        <ele>1257</ele>
        <time>2019-02-01T13:40:14Z</time>
      </trkpt>
      <trkpt lat="44.05318" lon="3.52907">
        <ele>1257</ele>
        <time>2019-02-01T13:40:30Z</time>
      </trkpt>
      <trkpt lat="44.05322" lon="3.52907">
        <ele>1257</ele>
        <time>2019-02-01T13:40:30Z</time>
      </trkpt>
      <trkpt lat="44.05325" lon="3.52906">
        <ele>1257</ele>
        <time>2019-02-01T13:40:30Z</time>
      </trkpt>
      <trkpt lat="44.05328" lon="3.52906">
        <ele>1257</ele>
        <time>2019-02-01T13:40:30Z</time>
      </trkpt>
      <trkpt lat="44.0533" lon="3.52907">
        <ele>1257</ele>
        <time>2019-02-01T13:40:46Z</time>
      </trkpt>
      <trkpt lat="44.05334" lon="3.52907">
        <ele>1257</ele>
        <time>2019-02-01T13:40:46Z</time>
      </trkpt>
      <trkpt lat="44.05337" lon="3.52908">
        <ele>1257</ele>
        <time>2019-02-01T13:40:46Z</time>
      </trkpt>
      <trkpt lat="44.05341" lon="3.52908">
        <ele>1257</ele>
        <time>2019-02-01T13:40:46Z</time>
      </trkpt>
      <trkpt lat="44.05343" lon="3.5291">
        <ele>1257</ele>
        <time>2019-02-01T13:41:26Z</time>
      </trkpt>
      <trkpt lat="44.05345" lon="3.52909">
        <ele>1257</ele>
        <time>2019-02-01T13:41:26Z</time>
      </trkpt>
      <trkpt lat="44.05349" lon="3.52907">
        <ele>1257</ele>
        <time>2019-02-01T13:41:26Z</time>
      </trkpt>
      <trkpt lat="44.0535" lon="3.52907">
        <ele>1257</ele>
        <time>2019-02-01T13:41:26Z</time>
      </trkpt>
      <trkpt lat="44.05353" lon="3.52908">
        <ele>1257</ele>
        <time>2019-02-01T13:41:26Z</time>
      </trkpt>
      <trkpt lat="44.05356" lon="3.52908">
        <ele>1257</ele>
        <time>2019-02-01T13:41:46Z</time>
      </trkpt>
      <trkpt lat="44.05359" lon="3.52911">
        <ele>1257</ele>
        <time>2019-02-01T13:41:46Z</time>
      </trkpt>
      <trkpt lat="44.05362" lon="3.52911">
        <ele>1257</ele>
        <time>2019-02-01T13:41:46Z</time>
      </trkpt>
      <trkpt lat="44.05364" lon="3.52912">
        <ele>1257</ele>
        <time>2019-02-01T13:41:46Z</time>
      </trkpt>
      <trkpt lat="44.05367" lon="3.52914">
        <ele>1257</ele>
        <time>2019-02-01T13:41:46Z</time>
      </trkpt>
      <trkpt lat="44.0537" lon="3.52918">
        <ele>1257</ele>
        <time>2019-02-01T13:42:06Z</time>
      </trkpt>
      <trkpt lat="44.05372" lon="3.52923">
        <ele>1257</ele>
        <time>2019-02-01T13:42:06Z</time>
      </trkpt>
      <trkpt lat="44.05373" lon="3.52924">
        <ele>1257</ele>
        <time>2019-02-01T13:42:06Z</time>
      </trkpt>
      <trkpt lat="44.05375" lon="3.52925">
        <ele>1262</ele>
        <time>2019-02-01T13:42:06Z</time>
      </trkpt>
      <trkpt lat="44.05379" lon="3.52926">
        <ele>1262</ele>
        <time>2019-02-01T13:42:06Z</time>
      </trkpt>
      <trkpt lat="44.05382" lon="3.52927">
        <ele>1262</ele>
        <time>2019-02-01T13:42:22Z</time>
      </trkpt>
      <trkpt lat="44.05385" lon="3.52929">
        <ele>1262</ele>
        <time>2019-02-01T13:42:22Z</time>
      </trkpt>
      <trkpt lat="44.05389" lon="3.5293">
        <ele>1262</ele>
        <time>2019-02-01T13:42:22Z</time>
      </trkpt>
      <trkpt lat="44.05391" lon="3.52929">
        <ele>1262</ele>
        <time>2019-02-01T13:42:22Z</time>
      </trkpt>
      <trkpt lat="44.05395" lon="3.52929">
        <ele>1262</ele>
        <time>2019-02-01T13:42:38Z</time>
      </trkpt>
      <trkpt lat="44.05399" lon="3.52928">
        <ele>1262</ele>
        <time>2019-02-01T13:42:38Z</time>
      </trkpt>
      <trkpt lat="44.05402" lon="3.5293">
        <ele>1262</ele>
        <time>2019-02-01T13:42:38Z</time>
      </trkpt>
      <trkpt lat="44.05404" lon="3.52932">
        <ele>1262</ele>
        <time>2019-02-01T13:42:38Z</time>
      </trkpt>
      <trkpt lat="44.05408" lon="3.52933">
        <ele>1262</ele>
        <time>2019-02-01T13:42:54Z</time>
      </trkpt>
      <trkpt lat="44.05411" lon="3.52932">
        <ele>1262</ele>
        <time>2019-02-01T13:42:54Z</time>
      </trkpt>
      <trkpt lat="44.05415" lon="3.52929">
        <ele>1262</ele>
        <time>2019-02-01T13:42:54Z</time>
      </trkpt>
      <trkpt lat="44.05419" lon="3.52927">
        <ele>1262</ele>
        <time>2019-02-01T13:42:54Z</time>
      </trkpt>
      <trkpt lat="44.05423" lon="3.52924">
        <ele>1262</ele>
        <time>2019-02-01T13:43:10Z</time>
      </trkpt>
      <trkpt lat="44.05427" lon="3.52923">
        <ele>1262</ele>
        <time>2019-02-01T13:43:10Z</time>
      </trkpt>
      <trkpt lat="44.0543" lon="3.5292">
        <ele>1262</ele>
        <time>2019-02-01T13:43:10Z</time>
      </trkpt>
      <trkpt lat="44.05433" lon="3.52919">
        <ele>1262</ele>
        <time>2019-02-01T13:43:10Z</time>
      </trkpt>
      <trkpt lat="44.05437" lon="3.52917">
        <ele>1262</ele>
        <time>2019-02-01T13:43:26Z</time>
      </trkpt>
      <trkpt lat="44.05441" lon="3.52915">
        <ele>1262</ele>
        <time>2019-02-01T13:43:26Z</time>
      </trkpt>
      <trkpt lat="44.05444" lon="3.52914">
        <ele>1262</ele>
        <time>2019-02-01T13:43:26Z</time>
      </trkpt>
      <trkpt lat="44.05446" lon="3.52911">
        <ele>1262</ele>
        <time>2019-02-01T13:43:26Z</time>
      </trkpt>
      <trkpt lat="44.05449" lon="3.52907">
        <ele>1262</ele>
        <time>2019-02-01T13:43:42Z</time>
      </trkpt>
      <trkpt lat="44.05452" lon="3.52904">
        <ele>1262</ele>
        <time>2019-02-01T13:43:42Z</time>
      </trkpt>
      <trkpt lat="44.05455" lon="3.52901">
        <ele>1262</ele>
        <time>2019-02-01T13:43:42Z</time>
      </trkpt>
      <trkpt lat="44.05458" lon="3.52899">
        <ele>1262</ele>
        <time>2019-02-01T13:43:42Z</time>
      </trkpt>
      <trkpt lat="44.05461" lon="3.52895">
        <ele>1268</ele>
        <time>2019-02-01T13:43:58Z</time>
      </trkpt>
      <trkpt lat="44.05463" lon="3.52892">
        <ele>1268</ele>
        <time>2019-02-01T13:43:58Z</time>
      </trkpt>
      <trkpt lat="44.05466" lon="3.5289">
        <ele>1268</ele>
        <time>2019-02-01T13:43:58Z</time>
      </trkpt>
      <trkpt lat="44.05469" lon="3.52888">
        <ele>1268</ele>
        <time>2019-02-01T13:43:58Z</time>
      </trkpt>
      <trkpt lat="44.05473" lon="3.52884">
        <ele>1268</ele>
        <time>2019-02-01T13:44:38Z</time>
      </trkpt>
      <trkpt lat="44.05476" lon="3.52882">
        <ele>1268</ele>
        <time>2019-02-01T13:44:38Z</time>
      </trkpt>
      <trkpt lat="44.05477" lon="3.5288">
        <ele>1268</ele>
        <time>2019-02-01T13:44:38Z</time>
      </trkpt>
      <trkpt lat="44.05478" lon="3.5288">
        <ele>1268</ele>
        <time>2019-02-01T13:44:38Z</time>
      </trkpt>
      <trkpt lat="44.0548" lon="3.52877">
        <ele>1268</ele>
        <time>2019-02-01T13:44:38Z</time>
      </trkpt>
      <trkpt lat="44.05483" lon="3.52875">
        <ele>1266</ele>
        <time>2019-02-01T13:44:54Z</time>
      </trkpt>
      <trkpt lat="44.05486" lon="3.52872">
        <ele>1266</ele>
        <time>2019-02-01T13:44:54Z</time>
      </trkpt>
      <trkpt lat="44.05489" lon="3.52869">
        <ele>1266</ele>
        <time>2019-02-01T13:44:54Z</time>
      </trkpt>
      <trkpt lat="44.05492" lon="3.52866">
        <ele>1266</ele>
        <time>2019-02-01T13:44:54Z</time>
      </trkpt>
      <trkpt lat="44.05495" lon="3.52864">
        <ele>1266</ele>
        <time>2019-02-01T13:45:10Z</time>
      </trkpt>
      <trkpt lat="44.05496" lon="3.52859">
        <ele>1266</ele>
        <time>2019-02-01T13:45:10Z</time>
      </trkpt>
      <trkpt lat="44.05498" lon="3.52857">
        <ele>1266</ele>
        <time>2019-02-01T13:45:10Z</time>
      </trkpt>
      <trkpt lat="44.05501" lon="3.52852">
        <ele>1266</ele>
        <time>2019-02-01T13:45:10Z</time>
      </trkpt>
      <trkpt lat="44.05503" lon="3.52849">
        <ele>1266</ele>
        <time>2019-02-01T13:45:26Z</time>
      </trkpt>
      <trkpt lat="44.05506" lon="3.52845">
        <ele>1266</ele>
        <time>2019-02-01T13:45:26Z</time>
      </trkpt>
      <trkpt lat="44.05508" lon="3.52842">
        <ele>1266</ele>
        <time>2019-02-01T13:45:26Z</time>
      </trkpt>
      <trkpt lat="44.05511" lon="3.52839">
        <ele>1266</ele>
        <time>2019-02-01T13:45:26Z</time>
      </trkpt>
      <trkpt lat="44.05514" lon="3.52835">
        <ele>1266</ele>
        <time>2019-02-01T13:45:42Z</time>
      </trkpt>
      <trkpt lat="44.05516" lon="3.52831">
        <ele>1266</ele>
        <time>2019-02-01T13:45:42Z</time>
      </trkpt>
      <trkpt lat="44.05516" lon="3.52826">
        <ele>1266</ele>
        <time>2019-02-01T13:45:42Z</time>
      </trkpt>
      <trkpt lat="44.05518" lon="3.52822">
        <ele>1266</ele>
        <time>2019-02-01T13:45:42Z</time>
      </trkpt>
      <trkpt lat="44.0552" lon="3.52818">
        <ele>1266</ele>
        <time>2019-02-01T13:46:18Z</time>
      </trkpt>
      <trkpt lat="44.05521" lon="3.52813">
        <ele>1266</ele>
        <time>2019-02-01T13:46:18Z</time>
      </trkpt>
      <trkpt lat="44.05522" lon="3.5281">
        <ele>1266</ele>
        <time>2019-02-01T13:46:18Z</time>
      </trkpt>
      <trkpt lat="44.05521" lon="3.52807">
        <ele>1266</ele>
        <time>2019-02-01T13:46:18Z</time>
      </trkpt>
      <trkpt lat="44.05523" lon="3.52804">
        <ele>1266</ele>
        <time>2019-02-01T13:46:18Z</time>
      </trkpt>
      <trkpt lat="44.05524" lon="3.528">
        <ele>1266</ele>
        <time>2019-02-01T13:46:34Z</time>
      </trkpt>
      <trkpt lat="44.05525" lon="3.52798">
        <ele>1266</ele>
        <time>2019-02-01T13:46:34Z</time>
      </trkpt>
      <trkpt lat="44.05528" lon="3.52794">
        <ele>1266</ele>
        <time>2019-02-01T13:46:34Z</time>
      </trkpt>
      <trkpt lat="44.05532" lon="3.5279">
        <ele>1260</ele>
        <time>2019-02-01T13:46:34Z</time>
      </trkpt>
      <trkpt lat="44.05535" lon="3.52785">
        <ele>1260</ele>
        <time>2019-02-01T13:46:50Z</time>
      </trkpt>
      <trkpt lat="44.05536" lon="3.5278">
        <ele>1260</ele>
        <time>2019-02-01T13:46:50Z</time>
      </trkpt>
      <trkpt lat="44.05539" lon="3.52777">
        <ele>1260</ele>
        <time>2019-02-01T13:46:50Z</time>
      </trkpt>
      <trkpt lat="44.05541" lon="3.52772">
        <ele>1260</ele>
        <time>2019-02-01T13:46:50Z</time>
      </trkpt>
      <trkpt lat="44.05542" lon="3.52767">
        <ele>1268</ele>
        <time>2019-02-01T13:47:06Z</time>
      </trkpt>
      <trkpt lat="44.05545" lon="3.52763">
        <ele>1268</ele>
        <time>2019-02-01T13:47:06Z</time>
      </trkpt>
      <trkpt lat="44.05547" lon="3.52758">
        <ele>1268</ele>
        <time>2019-02-01T13:47:06Z</time>
      </trkpt>
      <trkpt lat="44.05547" lon="3.52754">
        <ele>1268</ele>
        <time>2019-02-01T13:47:06Z</time>
      </trkpt>
      <trkpt lat="44.0555" lon="3.52751">
        <ele>1268</ele>
        <time>2019-02-01T13:47:22Z</time>
      </trkpt>
      <trkpt lat="44.0555" lon="3.52746">
        <ele>1268</ele>
        <time>2019-02-01T13:47:22Z</time>
      </trkpt>
      <trkpt lat="44.0555" lon="3.52741">
        <ele>1268</ele>
        <time>2019-02-01T13:47:22Z</time>
      </trkpt>
      <trkpt lat="44.05552" lon="3.52737">
        <ele>1268</ele>
        <time>2019-02-01T13:47:22Z</time>
      </trkpt>
      <trkpt lat="44.05553" lon="3.52733">
        <ele>1268</ele>
        <time>2019-02-01T13:47:38Z</time>
      </trkpt>
      <trkpt lat="44.05554" lon="3.52729">
        <ele>1268</ele>
        <time>2019-02-01T13:47:38Z</time>
      </trkpt>
      <trkpt lat="44.05555" lon="3.52725">
        <ele>1268</ele>
        <time>2019-02-01T13:47:38Z</time>
      </trkpt>
      <trkpt lat="44.05557" lon="3.52722">
        <ele>1268</ele>
        <time>2019-02-01T13:47:38Z</time>
      </trkpt>
      <trkpt lat="44.05559" lon="3.52718">
        <ele>1268</ele>
        <time>2019-02-01T13:47:54Z</time>
      </trkpt>
      <trkpt lat="44.0556" lon="3.52714">
        <ele>1268</ele>
        <time>2019-02-01T13:47:54Z</time>
      </trkpt>
      <trkpt lat="44.05563" lon="3.5271">
        <ele>1268</ele>
        <time>2019-02-01T13:47:54Z</time>
      </trkpt>
      <trkpt lat="44.05564" lon="3.52707">
        <ele>1264</ele>
        <time>2019-02-01T13:47:54Z</time>
      </trkpt>
      <trkpt lat="44.05566" lon="3.52703">
        <ele>1264</ele>
        <time>2019-02-01T13:48:10Z</time>
      </trkpt>
      <trkpt lat="44.05568" lon="3.52699">
        <ele>1264</ele>
        <time>2019-02-01T13:48:10Z</time>
      </trkpt>
      <trkpt lat="44.05568" lon="3.52695">
        <ele>1264</ele>
        <time>2019-02-01T13:48:10Z</time>
      </trkpt>
      <trkpt lat="44.0557" lon="3.52691">
        <ele>1264</ele>
        <time>2019-02-01T13:48:10Z</time>
      </trkpt>
      <trkpt lat="44.05572" lon="3.52686">
        <ele>1264</ele>
        <time>2019-02-01T13:48:26Z</time>
      </trkpt>
      <trkpt lat="44.05574" lon="3.52683">
        <ele>1264</ele>
        <time>2019-02-01T13:48:26Z</time>
      </trkpt>
      <trkpt lat="44.05575" lon="3.52678">
        <ele>1264</ele>
        <time>2019-02-01T13:48:26Z</time>
      </trkpt>
      <trkpt lat="44.05576" lon="3.52672">
        <ele>1264</ele>
        <time>2019-02-01T13:48:26Z</time>
      </trkpt>
      <trkpt lat="44.05578" lon="3.52667">
        <ele>1264</ele>
        <time>2019-02-01T13:48:42Z</time>
      </trkpt>
      <trkpt lat="44.05579" lon="3.52664">
        <ele>1264</ele>
        <time>2019-02-01T13:48:42Z</time>
      </trkpt>
      <trkpt lat="44.05581" lon="3.5266">
        <ele>1264</ele>
        <time>2019-02-01T13:48:42Z</time>
      </trkpt>
      <trkpt lat="44.05583" lon="3.52656">
        <ele>1264</ele>
        <time>2019-02-01T13:48:42Z</time>
      </trkpt>
      <trkpt lat="44.05583" lon="3.52651">
        <ele>1264</ele>
        <time>2019-02-01T13:49:02Z</time>
      </trkpt>
      <trkpt lat="44.05583" lon="3.52647">
        <ele>1264</ele>
        <time>2019-02-01T13:49:02Z</time>
      </trkpt>
      <trkpt lat="44.05584" lon="3.52644">
        <ele>1264</ele>
        <time>2019-02-01T13:49:02Z</time>
      </trkpt>
      <trkpt lat="44.05587" lon="3.5264">
        <ele>1264</ele>
        <time>2019-02-01T13:49:02Z</time>
      </trkpt>
      <trkpt lat="44.05589" lon="3.52636">
        <ele>1264</ele>
        <time>2019-02-01T13:49:02Z</time>
      </trkpt>
      <trkpt lat="44.05591" lon="3.52632">
        <ele>1264</ele>
        <time>2019-02-01T13:49:18Z</time>
      </trkpt>
      <trkpt lat="44.05593" lon="3.52628">
        <ele>1264</ele>
        <time>2019-02-01T13:49:18Z</time>
      </trkpt>
      <trkpt lat="44.05596" lon="3.52623">
        <ele>1257</ele>
        <time>2019-02-01T13:49:18Z</time>
      </trkpt>
      <trkpt lat="44.05598" lon="3.52619">
        <ele>1257</ele>
        <time>2019-02-01T13:49:18Z</time>
      </trkpt>
      <trkpt lat="44.05599" lon="3.52617">
        <ele>1257</ele>
        <time>2019-02-01T13:49:46Z</time>
      </trkpt>
      <trkpt lat="44.05599" lon="3.52616">
        <ele>1257</ele>
        <time>2019-02-01T13:49:46Z</time>
      </trkpt>
      <trkpt lat="44.05602" lon="3.52612">
        <ele>1257</ele>
        <time>2019-02-01T13:49:46Z</time>
      </trkpt>
      <trkpt lat="44.05603" lon="3.52609">
        <ele>1257</ele>
        <time>2019-02-01T13:49:46Z</time>
      </trkpt>
      <trkpt lat="44.05604" lon="3.52605">
        <ele>1257</ele>
        <time>2019-02-01T13:49:46Z</time>
      </trkpt>
      <trkpt lat="44.05606" lon="3.52603">
        <ele>1257</ele>
        <time>2019-02-01T13:50:02Z</time>
      </trkpt>
      <trkpt lat="44.05605" lon="3.52598">
        <ele>1257</ele>
        <time>2019-02-01T13:50:02Z</time>
      </trkpt>
      <trkpt lat="44.05606" lon="3.52594">
        <ele>1257</ele>
        <time>2019-02-01T13:50:02Z</time>
      </trkpt>
      <trkpt lat="44.05607" lon="3.52589">
        <ele>1257</ele>
        <time>2019-02-01T13:50:02Z</time>
      </trkpt>
      <trkpt lat="44.05608" lon="3.52585">
        <ele>1257</ele>
        <time>2019-02-01T13:50:18Z</time>
      </trkpt>
      <trkpt lat="44.0561" lon="3.52582">
        <ele>1257</ele>
        <time>2019-02-01T13:50:18Z</time>
      </trkpt>
      <trkpt lat="44.05612" lon="3.52578">
        <ele>1257</ele>
        <time>2019-02-01T13:50:18Z</time>
      </trkpt>
      <trkpt lat="44.05614" lon="3.52575">
        <ele>1257</ele>
        <time>2019-02-01T13:50:18Z</time>
      </trkpt>
      <trkpt lat="44.05616" lon="3.52571">
        <ele>1257</ele>
        <time>2019-02-01T13:50:34Z</time>
      </trkpt>
      <trkpt lat="44.05618" lon="3.52567">
        <ele>1257</ele>
        <time>2019-02-01T13:50:34Z</time>
      </trkpt>
      <trkpt lat="44.05621" lon="3.52562">
        <ele>1257</ele>
        <time>2019-02-01T13:50:34Z</time>
      </trkpt>
      <trkpt lat="44.05622" lon="3.52557">
        <ele>1257</ele>
        <time>2019-02-01T13:50:34Z</time>
      </trkpt>
      <trkpt lat="44.05624" lon="3.52553">
        <ele>1257</ele>
        <time>2019-02-01T13:50:50Z</time>
      </trkpt>
      <trkpt lat="44.05626" lon="3.52548">
        <ele>1259</ele>
        <time>2019-02-01T13:50:50Z</time>
      </trkpt>
      <trkpt lat="44.05628" lon="3.52545">
        <ele>1259</ele>
        <time>2019-02-01T13:50:50Z</time>
      </trkpt>
      <trkpt lat="44.0563" lon="3.52543">
        <ele>1259</ele>
        <time>2019-02-01T13:50:50Z</time>
      </trkpt>
      <trkpt lat="44.05635" lon="3.52532">
        <ele>1256</ele>
        <time>2019-02-01T13:55:30Z</time>
      </trkpt>
      <trkpt lat="44.05637" lon="3.52529">
        <ele>1256</ele>
        <time>2019-02-01T13:55:30Z</time>
      </trkpt>
      <trkpt lat="44.05637" lon="3.52528">
        <ele>1256</ele>
        <time>2019-02-01T13:55:30Z</time>
      </trkpt>
      <trkpt lat="44.05639" lon="3.52528">
        <ele>1256</ele>
        <time>2019-02-01T13:55:30Z</time>
      </trkpt>
      <trkpt lat="44.05638" lon="3.52526">
        <ele>1256</ele>
        <time>2019-02-01T13:55:30Z</time>
      </trkpt>
      <trkpt lat="44.05641" lon="3.5252">
        <ele>1256</ele>
        <time>2019-02-01T13:56:02Z</time>
      </trkpt>
      <trkpt lat="44.05642" lon="3.5252">
        <ele>1256</ele>
        <time>2019-02-01T13:56:02Z</time>
      </trkpt>
      <trkpt lat="44.05644" lon="3.52514">
        <ele>1256</ele>
        <time>2019-02-01T13:56:02Z</time>
      </trkpt>
      <trkpt lat="44.05646" lon="3.5251">
        <ele>1256</ele>
        <time>2019-02-01T13:56:02Z</time>
      </trkpt>
      <trkpt lat="44.05647" lon="3.52503">
        <ele>1256</ele>
        <time>2019-02-01T13:56:02Z</time>
      </trkpt>
      <trkpt lat="44.05649" lon="3.52498">
        <ele>1256</ele>
        <time>2019-02-01T13:56:18Z</time>
      </trkpt>
      <trkpt lat="44.05651" lon="3.52492">
        <ele>1256</ele>
        <time>2019-02-01T13:56:18Z</time>
      </trkpt>
      <trkpt lat="44.05651" lon="3.52487">
        <ele>1256</ele>
        <time>2019-02-01T13:56:18Z</time>
      </trkpt>
      <trkpt lat="44.05652" lon="3.52482">
        <ele>1256</ele>
        <time>2019-02-01T13:56:18Z</time>
      </trkpt>
      <trkpt lat="44.05653" lon="3.52476">
        <ele>1256</ele>
        <time>2019-02-01T13:56:34Z</time>
      </trkpt>
      <trkpt lat="44.05655" lon="3.52471">
        <ele>1256</ele>
        <time>2019-02-01T13:56:34Z</time>
      </trkpt>
      <trkpt lat="44.05657" lon="3.52465">
        <ele>1256</ele>
        <time>2019-02-01T13:56:34Z</time>
      </trkpt>
      <trkpt lat="44.05658" lon="3.52461">
        <ele>1256</ele>
        <time>2019-02-01T13:56:34Z</time>
      </trkpt>
      <trkpt lat="44.05659" lon="3.52457">
        <ele>1255</ele>
        <time>2019-02-01T13:56:50Z</time>
      </trkpt>
      <trkpt lat="44.05658" lon="3.52453">
        <ele>1255</ele>
        <time>2019-02-01T13:56:50Z</time>
      </trkpt>
      <trkpt lat="44.05658" lon="3.52448">
        <ele>1255</ele>
        <time>2019-02-01T13:56:50Z</time>
      </trkpt>
      <trkpt lat="44.05658" lon="3.52445">
        <ele>1255</ele>
        <time>2019-02-01T13:56:50Z</time>
      </trkpt>
      <trkpt lat="44.05658" lon="3.5244">
        <ele>1255</ele>
        <time>2019-02-01T13:57:06Z</time>
      </trkpt>
      <trkpt lat="44.05658" lon="3.52434">
        <ele>1255</ele>
        <time>2019-02-01T13:57:06Z</time>
      </trkpt>
      <trkpt lat="44.0566" lon="3.52429">
        <ele>1255</ele>
        <time>2019-02-01T13:57:06Z</time>
      </trkpt>
      <trkpt lat="44.05658" lon="3.52425">
        <ele>1255</ele>
        <time>2019-02-01T13:57:06Z</time>
      </trkpt>
      <trkpt lat="44.05658" lon="3.52421">
        <ele>1255</ele>
        <time>2019-02-01T13:57:22Z</time>
      </trkpt>
      <trkpt lat="44.05658" lon="3.52418">
        <ele>1255</ele>
        <time>2019-02-01T13:57:22Z</time>
      </trkpt>
      <trkpt lat="44.05658" lon="3.52412">
        <ele>1255</ele>
        <time>2019-02-01T13:57:22Z</time>
      </trkpt>
      <trkpt lat="44.05658" lon="3.52406">
        <ele>1255</ele>
        <time>2019-02-01T13:57:22Z</time>
      </trkpt>
      <trkpt lat="44.05655" lon="3.52401">
        <ele>1255</ele>
        <time>2019-02-01T13:57:38Z</time>
      </trkpt>
      <trkpt lat="44.05654" lon="3.52396">
        <ele>1255</ele>
        <time>2019-02-01T13:57:38Z</time>
      </trkpt>
      <trkpt lat="44.05653" lon="3.5239">
        <ele>1255</ele>
        <time>2019-02-01T13:57:38Z</time>
      </trkpt>
      <trkpt lat="44.05654" lon="3.52388">
        <ele>1255</ele>
        <time>2019-02-01T13:57:38Z</time>
      </trkpt>
      <trkpt lat="44.05654" lon="3.52384">
        <ele>1255</ele>
        <time>2019-02-01T13:58:18Z</time>
      </trkpt>
      <trkpt lat="44.05654" lon="3.52378">
        <ele>1255</ele>
        <time>2019-02-01T13:58:18Z</time>
      </trkpt>
      <trkpt lat="44.05655" lon="3.52374">
        <ele>1252</ele>
        <time>2019-02-01T13:58:18Z</time>
      </trkpt>
      <trkpt lat="44.05656" lon="3.52373">
        <ele>1252</ele>
        <time>2019-02-01T13:58:18Z</time>
      </trkpt>
      <trkpt lat="44.05657" lon="3.5237">
        <ele>1252</ele>
        <time>2019-02-01T13:58:18Z</time>
      </trkpt>
      <trkpt lat="44.05657" lon="3.52366">
        <ele>1252</ele>
        <time>2019-02-01T13:58:38Z</time>
      </trkpt>
      <trkpt lat="44.05657" lon="3.52362">
        <ele>1252</ele>
        <time>2019-02-01T13:58:38Z</time>
      </trkpt>
      <trkpt lat="44.05658" lon="3.52358">
        <ele>1252</ele>
        <time>2019-02-01T13:58:38Z</time>
      </trkpt>
      <trkpt lat="44.05658" lon="3.52354">
        <ele>1252</ele>
        <time>2019-02-01T13:58:38Z</time>
      </trkpt>
      <trkpt lat="44.05657" lon="3.5235">
        <ele>1252</ele>
        <time>2019-02-01T13:58:38Z</time>
      </trkpt>
      <trkpt lat="44.05657" lon="3.52347">
        <ele>1252</ele>
        <time>2019-02-01T13:58:58Z</time>
      </trkpt>
      <trkpt lat="44.05656" lon="3.52344">
        <ele>1252</ele>
        <time>2019-02-01T13:58:58Z</time>
      </trkpt>
      <trkpt lat="44.05656" lon="3.52339">
        <ele>1252</ele>
        <time>2019-02-01T13:58:58Z</time>
      </trkpt>
      <trkpt lat="44.05656" lon="3.52337">
        <ele>1252</ele>
        <time>2019-02-01T13:58:58Z</time>
      </trkpt>
      <trkpt lat="44.05656" lon="3.52329">
        <ele>1252</ele>
        <time>2019-02-01T13:58:58Z</time>
      </trkpt>
      <trkpt lat="44.05656" lon="3.52325">
        <ele>1252</ele>
        <time>2019-02-01T13:59:14Z</time>
      </trkpt>
      <trkpt lat="44.05657" lon="3.5232">
        <ele>1252</ele>
        <time>2019-02-01T13:59:14Z</time>
      </trkpt>
      <trkpt lat="44.05656" lon="3.52314">
        <ele>1252</ele>
        <time>2019-02-01T13:59:14Z</time>
      </trkpt>
      <trkpt lat="44.05655" lon="3.52308">
        <ele>1252</ele>
        <time>2019-02-01T13:59:14Z</time>
      </trkpt>
      <trkpt lat="44.05654" lon="3.52303">
        <ele>1252</ele>
        <time>2019-02-01T13:59:34Z</time>
      </trkpt>
      <trkpt lat="44.05652" lon="3.52297">
        <ele>1252</ele>
        <time>2019-02-01T13:59:34Z</time>
      </trkpt>
      <trkpt lat="44.05651" lon="3.52297">
        <ele>1252</ele>
        <time>2019-02-01T13:59:34Z</time>
      </trkpt>
      <trkpt lat="44.05649" lon="3.52292">
        <ele>1252</ele>
        <time>2019-02-01T13:59:34Z</time>
      </trkpt>
      <trkpt lat="44.05645" lon="3.5229">
        <ele>1246</ele>
        <time>2019-02-01T13:59:34Z</time>
      </trkpt>
      <trkpt lat="44.05645" lon="3.52285">
        <ele>1246</ele>
        <time>2019-02-01T13:59:54Z</time>
      </trkpt>
      <trkpt lat="44.05645" lon="3.5228">
        <ele>1246</ele>
        <time>2019-02-01T13:59:54Z</time>
      </trkpt>
      <trkpt lat="44.05645" lon="3.5228">
        <ele>1246</ele>
        <time>2019-02-01T13:59:54Z</time>
      </trkpt>
      <trkpt lat="44.05643" lon="3.52276">
        <ele>1246</ele>
        <time>2019-02-01T13:59:54Z</time>
      </trkpt>
      <trkpt lat="44.0564" lon="3.52269">
        <ele>1246</ele>
        <time>2019-02-01T13:59:54Z</time>
      </trkpt>
      <trkpt lat="44.05638" lon="3.52264">
        <ele>1246</ele>
        <time>2019-02-01T14:00:14Z</time>
      </trkpt>
      <trkpt lat="44.05635" lon="3.52258">
        <ele>1246</ele>
        <time>2019-02-01T14:00:14Z</time>
      </trkpt>
      <trkpt lat="44.05634" lon="3.52257">
        <ele>1246</ele>
        <time>2019-02-01T14:00:14Z</time>
      </trkpt>
      <trkpt lat="44.05633" lon="3.52255">
        <ele>1246</ele>
        <time>2019-02-01T14:00:14Z</time>
      </trkpt>
      <trkpt lat="44.0563" lon="3.52251">
        <ele>1246</ele>
        <time>2019-02-01T14:00:14Z</time>
      </trkpt>
      <trkpt lat="44.05628" lon="3.52246">
        <ele>1246</ele>
        <time>2019-02-01T14:00:30Z</time>
      </trkpt>
      <trkpt lat="44.05625" lon="3.52244">
        <ele>1250</ele>
        <time>2019-02-01T14:00:30Z</time>
      </trkpt>
      <trkpt lat="44.05622" lon="3.5224">
        <ele>1250</ele>
        <time>2019-02-01T14:00:30Z</time>
      </trkpt>
      <trkpt lat="44.05621" lon="3.52236">
        <ele>1250</ele>
        <time>2019-02-01T14:00:30Z</time>
      </trkpt>
      <trkpt lat="44.05619" lon="3.52232">
        <ele>1250</ele>
        <time>2019-02-01T14:00:50Z</time>
      </trkpt>
      <trkpt lat="44.05619" lon="3.52229">
        <ele>1250</ele>
        <time>2019-02-01T14:00:50Z</time>
      </trkpt>
      <trkpt lat="44.05617" lon="3.52227">
        <ele>1250</ele>
        <time>2019-02-01T14:00:50Z</time>
      </trkpt>
      <trkpt lat="44.05615" lon="3.52223">
        <ele>1250</ele>
        <time>2019-02-01T14:00:50Z</time>
      </trkpt>
      <trkpt lat="44.05612" lon="3.52222">
        <ele>1250</ele>
        <time>2019-02-01T14:00:50Z</time>
      </trkpt>
      <trkpt lat="44.05611" lon="3.52219">
        <ele>1250</ele>
        <time>2019-02-01T14:01:06Z</time>
      </trkpt>
      <trkpt lat="44.05609" lon="3.52214">
        <ele>1250</ele>
        <time>2019-02-01T14:01:06Z</time>
      </trkpt>
      <trkpt lat="44.05609" lon="3.5221">
        <ele>1250</ele>
        <time>2019-02-01T14:01:06Z</time>
      </trkpt>
      <trkpt lat="44.05606" lon="3.52208">
        <ele>1246</ele>
        <time>2019-02-01T14:01:06Z</time>
      </trkpt>
      <trkpt lat="44.05604" lon="3.52206">
        <ele>1246</ele>
        <time>2019-02-01T14:01:26Z</time>
      </trkpt>
      <trkpt lat="44.05603" lon="3.52206">
        <ele>1246</ele>
        <time>2019-02-01T14:01:26Z</time>
      </trkpt>
      <trkpt lat="44.05601" lon="3.52204">
        <ele>1246</ele>
        <time>2019-02-01T14:01:26Z</time>
      </trkpt>
      <trkpt lat="44.05598" lon="3.52199">
        <ele>1246</ele>
        <time>2019-02-01T14:01:26Z</time>
      </trkpt>
      <trkpt lat="44.05595" lon="3.52194">
        <ele>1246</ele>
        <time>2019-02-01T14:01:26Z</time>
      </trkpt>
      <trkpt lat="44.05592" lon="3.5219">
        <ele>1246</ele>
        <time>2019-02-01T14:01:42Z</time>
      </trkpt>
      <trkpt lat="44.0559" lon="3.52185">
        <ele>1246</ele>
        <time>2019-02-01T14:01:42Z</time>
      </trkpt>
      <trkpt lat="44.05586" lon="3.52182">
        <ele>1246</ele>
        <time>2019-02-01T14:01:42Z</time>
      </trkpt>
      <trkpt lat="44.05583" lon="3.52178">
        <ele>1246</ele>
        <time>2019-02-01T14:01:42Z</time>
      </trkpt>
      <trkpt lat="44.05583" lon="3.52175">
        <ele>1246</ele>
        <time>2019-02-01T14:02:34Z</time>
      </trkpt>
      <trkpt lat="44.05582" lon="3.52174">
        <ele>1246</ele>
        <time>2019-02-01T14:02:34Z</time>
      </trkpt>
      <trkpt lat="44.0558" lon="3.5217">
        <ele>1246</ele>
        <time>2019-02-01T14:02:34Z</time>
      </trkpt>
      <trkpt lat="44.05578" lon="3.52166">
        <ele>1246</ele>
        <time>2019-02-01T14:02:34Z</time>
      </trkpt>
      <trkpt lat="44.05576" lon="3.52163">
        <ele>1246</ele>
        <time>2019-02-01T14:02:34Z</time>
      </trkpt>
      <trkpt lat="44.05574" lon="3.52158">
        <ele>1246</ele>
        <time>2019-02-01T14:02:50Z</time>
      </trkpt>
      <trkpt lat="44.05573" lon="3.52154">
        <ele>1246</ele>
        <time>2019-02-01T14:02:50Z</time>
      </trkpt>
      <trkpt lat="44.05572" lon="3.5215">
        <ele>1246</ele>
        <time>2019-02-01T14:02:50Z</time>
      </trkpt>
      <trkpt lat="44.0557" lon="3.52147">
        <ele>1246</ele>
        <time>2019-02-01T14:02:50Z</time>
      </trkpt>
      <trkpt lat="44.05568" lon="3.52145">
        <ele>1246</ele>
        <time>2019-02-01T14:03:10Z</time>
      </trkpt>
      <trkpt lat="44.05567" lon="3.52142">
        <ele>1246</ele>
        <time>2019-02-01T14:03:10Z</time>
      </trkpt>
      <trkpt lat="44.05566" lon="3.52138">
        <ele>1246</ele>
        <time>2019-02-01T14:03:10Z</time>
      </trkpt>
      <trkpt lat="44.05563" lon="3.52136">
        <ele>1246</ele>
        <time>2019-02-01T14:03:10Z</time>
      </trkpt>
      <trkpt lat="44.05561" lon="3.52132">
        <ele>1246</ele>
        <time>2019-02-01T14:03:10Z</time>
      </trkpt>
      <trkpt lat="44.05559" lon="3.52126">
        <ele>1246</ele>
        <time>2019-02-01T14:03:26Z</time>
      </trkpt>
      <trkpt lat="44.05556" lon="3.52121">
        <ele>1239</ele>
        <time>2019-02-01T14:03:26Z</time>
      </trkpt>
      <trkpt lat="44.05555" lon="3.52116">
        <ele>1239</ele>
        <time>2019-02-01T14:03:26Z</time>
      </trkpt>
      <trkpt lat="44.05554" lon="3.52113">
        <ele>1239</ele>
        <time>2019-02-01T14:03:26Z</time>
      </trkpt>
      <trkpt lat="44.05554" lon="3.52109">
        <ele>1239</ele>
        <time>2019-02-01T14:03:42Z</time>
      </trkpt>
      <trkpt lat="44.05552" lon="3.52105">
        <ele>1239</ele>
        <time>2019-02-01T14:03:42Z</time>
      </trkpt>
      <trkpt lat="44.05549" lon="3.52101">
        <ele>1239</ele>
        <time>2019-02-01T14:03:42Z</time>
      </trkpt>
      <trkpt lat="44.05547" lon="3.52097">
        <ele>1239</ele>
        <time>2019-02-01T14:03:42Z</time>
      </trkpt>
      <trkpt lat="44.05545" lon="3.52094">
        <ele>1239</ele>
        <time>2019-02-01T14:04:02Z</time>
      </trkpt>
      <trkpt lat="44.05543" lon="3.52091">
        <ele>1239</ele>
        <time>2019-02-01T14:04:02Z</time>
      </trkpt>
      <trkpt lat="44.05542" lon="3.52087">
        <ele>1239</ele>
        <time>2019-02-01T14:04:02Z</time>
      </trkpt>
      <trkpt lat="44.0554" lon="3.52085">
        <ele>1256</ele>
        <time>2019-02-01T14:04:02Z</time>
      </trkpt>
      <trkpt lat="44.05538" lon="3.52082">
        <ele>1256</ele>
        <time>2019-02-01T14:04:02Z</time>
      </trkpt>
      <trkpt lat="44.05536" lon="3.52078">
        <ele>1256</ele>
        <time>2019-02-01T14:04:18Z</time>
      </trkpt>
      <trkpt lat="44.05535" lon="3.52073">
        <ele>1256</ele>
        <time>2019-02-01T14:04:18Z</time>
      </trkpt>
      <trkpt lat="44.05534" lon="3.52069">
        <ele>1256</ele>
        <time>2019-02-01T14:04:18Z</time>
      </trkpt>
      <trkpt lat="44.05532" lon="3.52064">
        <ele>1256</ele>
        <time>2019-02-01T14:04:18Z</time>
      </trkpt>
      <trkpt lat="44.05529" lon="3.52061">
        <ele>1256</ele>
        <time>2019-02-01T14:04:34Z</time>
      </trkpt>
      <trkpt lat="44.05529" lon="3.52056">
        <ele>1256</ele>
        <time>2019-02-01T14:04:34Z</time>
      </trkpt>
      <trkpt lat="44.05527" lon="3.52053">
        <ele>1256</ele>
        <time>2019-02-01T14:04:34Z</time>
      </trkpt>
      <trkpt lat="44.05525" lon="3.52049">
        <ele>1256</ele>
        <time>2019-02-01T14:04:34Z</time>
      </trkpt>
      <trkpt lat="44.05523" lon="3.52045">
        <ele>1256</ele>
        <time>2019-02-01T14:04:54Z</time>
      </trkpt>
      <trkpt lat="44.05523" lon="3.52042">
        <ele>1256</ele>
        <time>2019-02-01T14:04:54Z</time>
      </trkpt>
      <trkpt lat="44.05522" lon="3.52038">
        <ele>1255</ele>
        <time>2019-02-01T14:04:54Z</time>
      </trkpt>
      <trkpt lat="44.05521" lon="3.52034">
        <ele>1255</ele>
        <time>2019-02-01T14:04:54Z</time>
      </trkpt>
      <trkpt lat="44.0552" lon="3.5203">
        <ele>1255</ele>
        <time>2019-02-01T14:04:54Z</time>
      </trkpt>
      <trkpt lat="44.05519" lon="3.52026">
        <ele>1255</ele>
        <time>2019-02-01T14:05:10Z</time>
      </trkpt>
      <trkpt lat="44.05516" lon="3.52022">
        <ele>1255</ele>
        <time>2019-02-01T14:05:10Z</time>
      </trkpt>
      <trkpt lat="44.05515" lon="3.52018">
        <ele>1255</ele>
        <time>2019-02-01T14:05:10Z</time>
      </trkpt>
      <trkpt lat="44.05513" lon="3.52015">
        <ele>1255</ele>
        <time>2019-02-01T14:05:10Z</time>
      </trkpt>
      <trkpt lat="44.05513" lon="3.52012">
        <ele>1255</ele>
        <time>2019-02-01T14:05:26Z</time>
      </trkpt>
      <trkpt lat="44.05512" lon="3.52008">
        <ele>1255</ele>
        <time>2019-02-01T14:05:26Z</time>
      </trkpt>
      <trkpt lat="44.0551" lon="3.52004">
        <ele>1255</ele>
        <time>2019-02-01T14:05:26Z</time>
      </trkpt>
      <trkpt lat="44.05508" lon="3.51999">
        <ele>1255</ele>
        <time>2019-02-01T14:05:26Z</time>
      </trkpt>
      <trkpt lat="44.05507" lon="3.51996">
        <ele>1255</ele>
        <time>2019-02-01T14:05:46Z</time>
      </trkpt>
      <trkpt lat="44.05506" lon="3.51993">
        <ele>1255</ele>
        <time>2019-02-01T14:05:46Z</time>
      </trkpt>
      <trkpt lat="44.05504" lon="3.5199">
        <ele>1255</ele>
        <time>2019-02-01T14:05:46Z</time>
      </trkpt>
      <trkpt lat="44.05504" lon="3.51986">
        <ele>1255</ele>
        <time>2019-02-01T14:05:46Z</time>
      </trkpt>
      <trkpt lat="44.05503" lon="3.51984">
        <ele>1255</ele>
        <time>2019-02-01T14:05:46Z</time>
      </trkpt>
      <trkpt lat="44.05501" lon="3.51981">
        <ele>1255</ele>
        <time>2019-02-01T14:06:06Z</time>
      </trkpt>
      <trkpt lat="44.05501" lon="3.51977">
        <ele>1255</ele>
        <time>2019-02-01T14:06:06Z</time>
      </trkpt>
      <trkpt lat="44.055" lon="3.51972">
        <ele>1255</ele>
        <time>2019-02-01T14:06:06Z</time>
      </trkpt>
      <trkpt lat="44.05499" lon="3.5197">
        <ele>1255</ele>
        <time>2019-02-01T14:06:06Z</time>
      </trkpt>
      <trkpt lat="44.05498" lon="3.51968">
        <ele>1255</ele>
        <time>2019-02-01T14:06:06Z</time>
      </trkpt>
      <trkpt lat="44.05497" lon="3.51963">
        <ele>1255</ele>
        <time>2019-02-01T14:06:22Z</time>
      </trkpt>
      <trkpt lat="44.05497" lon="3.51958">
        <ele>1248</ele>
        <time>2019-02-01T14:06:22Z</time>
      </trkpt>
      <trkpt lat="44.05495" lon="3.51953">
        <ele>1248</ele>
        <time>2019-02-01T14:06:22Z</time>
      </trkpt>
      <trkpt lat="44.05494" lon="3.51948">
        <ele>1248</ele>
        <time>2019-02-01T14:06:22Z</time>
      </trkpt>
      <trkpt lat="44.05492" lon="3.51945">
        <ele>1248</ele>
        <time>2019-02-01T14:06:42Z</time>
      </trkpt>
      <trkpt lat="44.05491" lon="3.51941">
        <ele>1248</ele>
        <time>2019-02-01T14:06:42Z</time>
      </trkpt>
      <trkpt lat="44.0549" lon="3.51939">
        <ele>1248</ele>
        <time>2019-02-01T14:06:42Z</time>
      </trkpt>
      <trkpt lat="44.05488" lon="3.51935">
        <ele>1248</ele>
        <time>2019-02-01T14:06:42Z</time>
      </trkpt>
      <trkpt lat="44.05487" lon="3.51932">
        <ele>1248</ele>
        <time>2019-02-01T14:06:42Z</time>
      </trkpt>
      <trkpt lat="44.05487" lon="3.51926">
        <ele>1248</ele>
        <time>2019-02-01T14:06:58Z</time>
      </trkpt>
      <trkpt lat="44.05486" lon="3.5192">
        <ele>1248</ele>
        <time>2019-02-01T14:06:58Z</time>
      </trkpt>
      <trkpt lat="44.05484" lon="3.51916">
        <ele>1248</ele>
        <time>2019-02-01T14:06:58Z</time>
      </trkpt>
      <trkpt lat="44.05483" lon="3.51913">
        <ele>1248</ele>
        <time>2019-02-01T14:06:58Z</time>
      </trkpt>
      <trkpt lat="44.0548" lon="3.51909">
        <ele>1248</ele>
        <time>2019-02-01T14:07:14Z</time>
      </trkpt>
      <trkpt lat="44.05477" lon="3.51906">
        <ele>1248</ele>
        <time>2019-02-01T14:07:14Z</time>
      </trkpt>
      <trkpt lat="44.05477" lon="3.51902">
        <ele>1248</ele>
        <time>2019-02-01T14:07:14Z</time>
      </trkpt>
      <trkpt lat="44.05476" lon="3.51898">
        <ele>1248</ele>
        <time>2019-02-01T14:07:14Z</time>
      </trkpt>
      <trkpt lat="44.05474" lon="3.51891">
        <ele>1248</ele>
        <time>2019-02-01T14:08:14Z</time>
      </trkpt>
      <trkpt lat="44.05474" lon="3.51891">
        <ele>1248</ele>
        <time>2019-02-01T14:08:14Z</time>
      </trkpt>
      <trkpt lat="44.05474" lon="3.51887">
        <ele>1248</ele>
        <time>2019-02-01T14:08:14Z</time>
      </trkpt>
      <trkpt lat="44.05473" lon="3.51884">
        <ele>1248</ele>
        <time>2019-02-01T14:08:14Z</time>
      </trkpt>
      <trkpt lat="44.05474" lon="3.51879">
        <ele>1248</ele>
        <time>2019-02-01T14:08:14Z</time>
      </trkpt>
      <trkpt lat="44.05473" lon="3.51882">
        <ele>1248</ele>
        <time>2019-02-01T14:10:58Z</time>
      </trkpt>
      <trkpt lat="44.05473" lon="3.51879">
        <ele>1248</ele>
        <time>2019-02-01T14:10:58Z</time>
      </trkpt>
      <trkpt lat="44.05474" lon="3.51879">
        <ele>1248</ele>
        <time>2019-02-01T14:10:58Z</time>
      </trkpt>
      <trkpt lat="44.05471" lon="3.51874">
        <ele>1246</ele>
        <time>2019-02-01T14:10:58Z</time>
      </trkpt>
      <trkpt lat="44.0547" lon="3.5187">
        <ele>1246</ele>
        <time>2019-02-01T14:10:58Z</time>
      </trkpt>
      <trkpt lat="44.05469" lon="3.51865">
        <ele>1246</ele>
        <time>2019-02-01T14:11:14Z</time>
      </trkpt>
      <trkpt lat="44.05466" lon="3.51863">
        <ele>1246</ele>
        <time>2019-02-01T14:11:14Z</time>
      </trkpt>
      <trkpt lat="44.0546" lon="3.51858">
        <ele>1246</ele>
        <time>2019-02-01T14:11:14Z</time>
      </trkpt>
      <trkpt lat="44.05457" lon="3.51854">
        <ele>1243</ele>
        <time>2019-02-01T14:11:14Z</time>
      </trkpt>
      <trkpt lat="44.05449" lon="3.51841">
        <ele>1243</ele>
        <time>2019-02-01T14:12:42Z</time>
      </trkpt>
      <trkpt lat="44.05449" lon="3.51841">
        <ele>1243</ele>
        <time>2019-02-01T14:12:42Z</time>
      </trkpt>
      <trkpt lat="44.05448" lon="3.51838">
        <ele>1243</ele>
        <time>2019-02-01T14:12:42Z</time>
      </trkpt>
      <trkpt lat="44.05448" lon="3.51834">
        <ele>1243</ele>
        <time>2019-02-01T14:12:42Z</time>
      </trkpt>
      <trkpt lat="44.05446" lon="3.51831">
        <ele>1243</ele>
        <time>2019-02-01T14:12:42Z</time>
      </trkpt>
      <trkpt lat="44.05442" lon="3.51827">
        <ele>1243</ele>
        <time>2019-02-01T14:12:58Z</time>
      </trkpt>
      <trkpt lat="44.0544" lon="3.51823">
        <ele>1243</ele>
        <time>2019-02-01T14:12:58Z</time>
      </trkpt>
      <trkpt lat="44.05439" lon="3.51822">
        <ele>1243</ele>
        <time>2019-02-01T14:12:58Z</time>
      </trkpt>
      <trkpt lat="44.05435" lon="3.51819">
        <ele>1243</ele>
        <time>2019-02-01T14:12:58Z</time>
      </trkpt>
      <trkpt lat="44.05431" lon="3.51816">
        <ele>1243</ele>
        <time>2019-02-01T14:13:18Z</time>
      </trkpt>
      <trkpt lat="44.05427" lon="3.51815">
        <ele>1243</ele>
        <time>2019-02-01T14:13:18Z</time>
      </trkpt>
      <trkpt lat="44.05425" lon="3.51814">
        <ele>1243</ele>
        <time>2019-02-01T14:13:18Z</time>
      </trkpt>
      <trkpt lat="44.05425" lon="3.51814">
        <ele>1243</ele>
        <time>2019-02-01T14:13:18Z</time>
      </trkpt>
      <trkpt lat="44.05421" lon="3.5181">
        <ele>1243</ele>
        <time>2019-02-01T14:13:18Z</time>
      </trkpt>
      <trkpt lat="44.05419" lon="3.51805">
        <ele>1243</ele>
        <time>2019-02-01T14:13:34Z</time>
      </trkpt>
      <trkpt lat="44.05415" lon="3.51801">
        <ele>1243</ele>
        <time>2019-02-01T14:13:34Z</time>
      </trkpt>
      <trkpt lat="44.05409" lon="3.51796">
        <ele>1243</ele>
        <time>2019-02-01T14:13:34Z</time>
      </trkpt>
      <trkpt lat="44.05405" lon="3.51793">
        <ele>1243</ele>
        <time>2019-02-01T14:13:34Z</time>
      </trkpt>
      <trkpt lat="44.05402" lon="3.51791">
        <ele>1234</ele>
        <time>2019-02-01T14:13:50Z</time>
      </trkpt>
      <trkpt lat="44.05399" lon="3.5179">
        <ele>1234</ele>
        <time>2019-02-01T14:13:50Z</time>
      </trkpt>
      <trkpt lat="44.05395" lon="3.51789">
        <ele>1234</ele>
        <time>2019-02-01T14:13:50Z</time>
      </trkpt>
      <trkpt lat="44.05391" lon="3.51789">
        <ele>1234</ele>
        <time>2019-02-01T14:13:50Z</time>
      </trkpt>
      <trkpt lat="44.05387" lon="3.51786">
        <ele>1234</ele>
        <time>2019-02-01T14:14:06Z</time>
      </trkpt>
      <trkpt lat="44.05383" lon="3.51786">
        <ele>1234</ele>
        <time>2019-02-01T14:14:06Z</time>
      </trkpt>
      <trkpt lat="44.0538" lon="3.51785">
        <ele>1234</ele>
        <time>2019-02-01T14:14:06Z</time>
      </trkpt>
      <trkpt lat="44.05376" lon="3.51782">
        <ele>1234</ele>
        <time>2019-02-01T14:14:06Z</time>
      </trkpt>
      <trkpt lat="44.05372" lon="3.51781">
        <ele>1235</ele>
        <time>2019-02-01T14:14:22Z</time>
      </trkpt>
      <trkpt lat="44.05369" lon="3.51779">
        <ele>1235</ele>
        <time>2019-02-01T14:14:22Z</time>
      </trkpt>
      <trkpt lat="44.05365" lon="3.51777">
        <ele>1235</ele>
        <time>2019-02-01T14:14:22Z</time>
      </trkpt>
      <trkpt lat="44.05361" lon="3.51775">
        <ele>1235</ele>
        <time>2019-02-01T14:14:22Z</time>
      </trkpt>
      <trkpt lat="44.05357" lon="3.51774">
        <ele>1235</ele>
        <time>2019-02-01T14:14:38Z</time>
      </trkpt>
      <trkpt lat="44.05354" lon="3.51773">
        <ele>1235</ele>
        <time>2019-02-01T14:14:38Z</time>
      </trkpt>
      <trkpt lat="44.05351" lon="3.51772">
        <ele>1235</ele>
        <time>2019-02-01T14:14:38Z</time>
      </trkpt>
      <trkpt lat="44.05347" lon="3.51771">
        <ele>1235</ele>
        <time>2019-02-01T14:14:38Z</time>
      </trkpt>
      <trkpt lat="44.05343" lon="3.51769">
        <ele>1235</ele>
        <time>2019-02-01T14:14:54Z</time>
      </trkpt>
      <trkpt lat="44.0534" lon="3.51769">
        <ele>1235</ele>
        <time>2019-02-01T14:14:54Z</time>
      </trkpt>
      <trkpt lat="44.05336" lon="3.51767">
        <ele>1235</ele>
        <time>2019-02-01T14:14:54Z</time>
      </trkpt>
      <trkpt lat="44.05333" lon="3.51766">
        <ele>1235</ele>
        <time>2019-02-01T14:14:54Z</time>
      </trkpt>
      <trkpt lat="44.0533" lon="3.51766">
        <ele>1235</ele>
        <time>2019-02-01T14:15:10Z</time>
      </trkpt>
      <trkpt lat="44.05327" lon="3.51765">
        <ele>1235</ele>
        <time>2019-02-01T14:15:10Z</time>
      </trkpt>
      <trkpt lat="44.05323" lon="3.51765">
        <ele>1235</ele>
        <time>2019-02-01T14:15:10Z</time>
      </trkpt>
      <trkpt lat="44.05318" lon="3.51764">
        <ele>1235</ele>
        <time>2019-02-01T14:15:10Z</time>
      </trkpt>
      <trkpt lat="44.05315" lon="3.51763">
        <ele>1235</ele>
        <time>2019-02-01T14:15:26Z</time>
      </trkpt>
      <trkpt lat="44.0531" lon="3.51762">
        <ele>1235</ele>
        <time>2019-02-01T14:15:26Z</time>
      </trkpt>
      <trkpt lat="44.05307" lon="3.51761">
        <ele>1235</ele>
        <time>2019-02-01T14:15:26Z</time>
      </trkpt>
      <trkpt lat="44.05303" lon="3.5176">
        <ele>1235</ele>
        <time>2019-02-01T14:15:26Z</time>
      </trkpt>
      <trkpt lat="44.053" lon="3.51759">
        <ele>1235</ele>
        <time>2019-02-01T14:15:42Z</time>
      </trkpt>
      <trkpt lat="44.05297" lon="3.51757">
        <ele>1235</ele>
        <time>2019-02-01T14:15:42Z</time>
      </trkpt>
      <trkpt lat="44.05294" lon="3.51757">
        <ele>1235</ele>
        <time>2019-02-01T14:15:42Z</time>
      </trkpt>
      <trkpt lat="44.05291" lon="3.51754">
        <ele>1232</ele>
        <time>2019-02-01T14:15:42Z</time>
      </trkpt>
      <trkpt lat="44.05287" lon="3.51753">
        <ele>1232</ele>
        <time>2019-02-01T14:15:58Z</time>
      </trkpt>
      <trkpt lat="44.05283" lon="3.51754">
        <ele>1232</ele>
        <time>2019-02-01T14:15:58Z</time>
      </trkpt>
      <trkpt lat="44.05279" lon="3.51751">
        <ele>1232</ele>
        <time>2019-02-01T14:15:58Z</time>
      </trkpt>
      <trkpt lat="44.05277" lon="3.51749">
        <ele>1232</ele>
        <time>2019-02-01T14:15:58Z</time>
      </trkpt>
      <trkpt lat="44.05276" lon="3.51747">
        <ele>1232</ele>
        <time>2019-02-01T14:16:14Z</time>
      </trkpt>
      <trkpt lat="44.05274" lon="3.51746">
        <ele>1232</ele>
        <time>2019-02-01T14:16:14Z</time>
      </trkpt>
      <trkpt lat="44.0527" lon="3.51744">
        <ele>1232</ele>
        <time>2019-02-01T14:16:14Z</time>
      </trkpt>
      <trkpt lat="44.05267" lon="3.51742">
        <ele>1232</ele>
        <time>2019-02-01T14:16:14Z</time>
      </trkpt>
      <trkpt lat="44.05264" lon="3.51741">
        <ele>1232</ele>
        <time>2019-02-01T14:16:30Z</time>
      </trkpt>
      <trkpt lat="44.0526" lon="3.51741">
        <ele>1232</ele>
        <time>2019-02-01T14:16:30Z</time>
      </trkpt>
      <trkpt lat="44.05257" lon="3.51741">
        <ele>1232</ele>
        <time>2019-02-01T14:16:30Z</time>
      </trkpt>
      <trkpt lat="44.05254" lon="3.51738">
        <ele>1232</ele>
        <time>2019-02-01T14:16:30Z</time>
      </trkpt>
      <trkpt lat="44.0525" lon="3.51736">
        <ele>1232</ele>
        <time>2019-02-01T14:16:46Z</time>
      </trkpt>
      <trkpt lat="44.05248" lon="3.51733">
        <ele>1232</ele>
        <time>2019-02-01T14:16:46Z</time>
      </trkpt>
      <trkpt lat="44.05245" lon="3.5173">
        <ele>1232</ele>
        <time>2019-02-01T14:16:46Z</time>
      </trkpt>
      <trkpt lat="44.05242" lon="3.51729">
        <ele>1232</ele>
        <time>2019-02-01T14:16:46Z</time>
      </trkpt>
      <trkpt lat="44.05238" lon="3.51728">
        <ele>1232</ele>
        <time>2019-02-01T14:17:02Z</time>
      </trkpt>
      <trkpt lat="44.05235" lon="3.51727">
        <ele>1232</ele>
        <time>2019-02-01T14:17:02Z</time>
      </trkpt>
      <trkpt lat="44.05233" lon="3.51723">
        <ele>1232</ele>
        <time>2019-02-01T14:17:02Z</time>
      </trkpt>
      <trkpt lat="44.05229" lon="3.5172">
        <ele>1232</ele>
        <time>2019-02-01T14:17:02Z</time>
      </trkpt>
      <trkpt lat="44.05225" lon="3.51717">
        <ele>1232</ele>
        <time>2019-02-01T14:17:18Z</time>
      </trkpt>
      <trkpt lat="44.05222" lon="3.51715">
        <ele>1232</ele>
        <time>2019-02-01T14:17:18Z</time>
      </trkpt>
      <trkpt lat="44.05218" lon="3.51712">
        <ele>1232</ele>
        <time>2019-02-01T14:17:18Z</time>
      </trkpt>
      <trkpt lat="44.05214" lon="3.51709">
        <ele>1232</ele>
        <time>2019-02-01T14:17:18Z</time>
      </trkpt>
      <trkpt lat="44.0521" lon="3.51706">
        <ele>1230</ele>
        <time>2019-02-01T14:17:34Z</time>
      </trkpt>
      <trkpt lat="44.05207" lon="3.51704">
        <ele>1225</ele>
        <time>2019-02-01T14:17:34Z</time>
      </trkpt>
      <trkpt lat="44.05204" lon="3.51702">
        <ele>1225</ele>
        <time>2019-02-01T14:17:34Z</time>
      </trkpt>
      <trkpt lat="44.05202" lon="3.51699">
        <ele>1225</ele>
        <time>2019-02-01T14:17:34Z</time>
      </trkpt>
      <trkpt lat="44.05201" lon="3.51697">
        <ele>1225</ele>
        <time>2019-02-01T14:17:54Z</time>
      </trkpt>
      <trkpt lat="44.05198" lon="3.51696">
        <ele>1225</ele>
        <time>2019-02-01T14:17:54Z</time>
      </trkpt>
      <trkpt lat="44.05195" lon="3.51692">
        <ele>1225</ele>
        <time>2019-02-01T14:17:54Z</time>
      </trkpt>
      <trkpt lat="44.05194" lon="3.51691">
        <ele>1225</ele>
        <time>2019-02-01T14:17:54Z</time>
      </trkpt>
      <trkpt lat="44.05192" lon="3.51689">
        <ele>1225</ele>
        <time>2019-02-01T14:17:54Z</time>
      </trkpt>
      <trkpt lat="44.0519" lon="3.51685">
        <ele>1225</ele>
        <time>2019-02-01T14:18:10Z</time>
      </trkpt>
      <trkpt lat="44.05188" lon="3.51681">
        <ele>1225</ele>
        <time>2019-02-01T14:18:10Z</time>
      </trkpt>
      <trkpt lat="44.05187" lon="3.51676">
        <ele>1225</ele>
        <time>2019-02-01T14:18:10Z</time>
      </trkpt>
      <trkpt lat="44.05184" lon="3.51674">
        <ele>1225</ele>
        <time>2019-02-01T14:18:10Z</time>
      </trkpt>
      <trkpt lat="44.0518" lon="3.51671">
        <ele>1225</ele>
        <time>2019-02-01T14:18:26Z</time>
      </trkpt>
      <trkpt lat="44.05178" lon="3.51667">
        <ele>1225</ele>
        <time>2019-02-01T14:18:26Z</time>
      </trkpt>
      <trkpt lat="44.05177" lon="3.51662">
        <ele>1225</ele>
        <time>2019-02-01T14:18:26Z</time>
      </trkpt>
      <trkpt lat="44.05174" lon="3.51657">
        <ele>1225</ele>
        <time>2019-02-01T14:18:26Z</time>
      </trkpt>
      <trkpt lat="44.0517" lon="3.51653">
        <ele>1225</ele>
        <time>2019-02-01T14:18:54Z</time>
      </trkpt>
      <trkpt lat="44.05168" lon="3.5165">
        <ele>1225</ele>
        <time>2019-02-01T14:18:54Z</time>
      </trkpt>
      <trkpt lat="44.05165" lon="3.51647">
        <ele>1225</ele>
        <time>2019-02-01T14:18:54Z</time>
      </trkpt>
      <trkpt lat="44.05164" lon="3.51645">
        <ele>1225</ele>
        <time>2019-02-01T14:18:54Z</time>
      </trkpt>
      <trkpt lat="44.05162" lon="3.51643">
        <ele>1225</ele>
        <time>2019-02-01T14:18:54Z</time>
      </trkpt>
      <trkpt lat="44.05162" lon="3.51642">
        <ele>1225</ele>
        <time>2019-02-01T14:19:18Z</time>
      </trkpt>
      <trkpt lat="44.05159" lon="3.5164">
        <ele>1225</ele>
        <time>2019-02-01T14:19:18Z</time>
      </trkpt>
      <trkpt lat="44.05158" lon="3.51639">
        <ele>1225</ele>
        <time>2019-02-01T14:19:18Z</time>
      </trkpt>
      <trkpt lat="44.05157" lon="3.51636">
        <ele>1225</ele>
        <time>2019-02-01T14:19:18Z</time>
      </trkpt>
      <trkpt lat="44.05154" lon="3.51632">
        <ele>1225</ele>
        <time>2019-02-01T14:19:18Z</time>
      </trkpt>
      <trkpt lat="44.05153" lon="3.5163">
        <ele>1225</ele>
        <time>2019-02-01T14:20:14Z</time>
      </trkpt>
      <trkpt lat="44.05154" lon="3.5163">
        <ele>1225</ele>
        <time>2019-02-01T14:20:14Z</time>
      </trkpt>
      <trkpt lat="44.05153" lon="3.51631">
        <ele>1225</ele>
        <time>2019-02-01T14:20:14Z</time>
      </trkpt>
      <trkpt lat="44.05149" lon="3.51626">
        <ele>1225</ele>
        <time>2019-02-01T14:20:14Z</time>
      </trkpt>
      <trkpt lat="44.05144" lon="3.51622">
        <ele>1231</ele>
        <time>2019-02-01T14:20:14Z</time>
      </trkpt>
      <trkpt lat="44.0514" lon="3.5162">
        <ele>1231</ele>
        <time>2019-02-01T14:20:30Z</time>
      </trkpt>
      <trkpt lat="44.05134" lon="3.51616">
        <ele>1231</ele>
        <time>2019-02-01T14:20:30Z</time>
      </trkpt>
      <trkpt lat="44.05131" lon="3.51616">
        <ele>1231</ele>
        <time>2019-02-01T14:20:30Z</time>
      </trkpt>
      <trkpt lat="44.05125" lon="3.51617">
        <ele>1236</ele>
        <time>2019-02-01T14:20:30Z</time>
      </trkpt>
      <trkpt lat="44.05121" lon="3.51619">
        <ele>1236</ele>
        <time>2019-02-01T14:20:58Z</time>
      </trkpt>
      <trkpt lat="44.05117" lon="3.51622">
        <ele>1236</ele>
        <time>2019-02-01T14:20:58Z</time>
      </trkpt>
      <trkpt lat="44.05117" lon="3.51622">
        <ele>1236</ele>
        <time>2019-02-01T14:20:58Z</time>
      </trkpt>
      <trkpt lat="44.05115" lon="3.51624">
        <ele>1236</ele>
        <time>2019-02-01T14:20:58Z</time>
      </trkpt>
      <trkpt lat="44.05111" lon="3.51626">
        <ele>1224</ele>
        <time>2019-02-01T14:20:58Z</time>
      </trkpt>
      <trkpt lat="44.05108" lon="3.51626">
        <ele>1224</ele>
        <time>2019-02-01T14:21:14Z</time>
      </trkpt>
      <trkpt lat="44.05106" lon="3.51628">
        <ele>1224</ele>
        <time>2019-02-01T14:21:14Z</time>
      </trkpt>
      <trkpt lat="44.05101" lon="3.51627">
        <ele>1224</ele>
        <time>2019-02-01T14:21:14Z</time>
      </trkpt>
      <trkpt lat="44.05098" lon="3.51627">
        <ele>1224</ele>
        <time>2019-02-01T14:21:14Z</time>
      </trkpt>
      <trkpt lat="44.05093" lon="3.51626">
        <ele>1224</ele>
        <time>2019-02-01T14:21:34Z</time>
      </trkpt>
      <trkpt lat="44.05089" lon="3.51624">
        <ele>1236</ele>
        <time>2019-02-01T14:21:34Z</time>
      </trkpt>
      <trkpt lat="44.05087" lon="3.51623">
        <ele>1236</ele>
        <time>2019-02-01T14:21:34Z</time>
      </trkpt>
      <trkpt lat="44.05086" lon="3.51624">
        <ele>1236</ele>
        <time>2019-02-01T14:21:34Z</time>
      </trkpt>
      <trkpt lat="44.05084" lon="3.51625">
        <ele>1236</ele>
        <time>2019-02-01T14:21:34Z</time>
      </trkpt>
      <trkpt lat="44.05082" lon="3.51625">
        <ele>1224</ele>
        <time>2019-02-01T14:21:50Z</time>
      </trkpt>
      <trkpt lat="44.0508" lon="3.51624">
        <ele>1236</ele>
        <time>2019-02-01T14:21:50Z</time>
      </trkpt>
      <trkpt lat="44.05076" lon="3.51621">
        <ele>1236</ele>
        <time>2019-02-01T14:21:50Z</time>
      </trkpt>
      <trkpt lat="44.05071" lon="3.5162">
        <ele>1236</ele>
        <time>2019-02-01T14:21:50Z</time>
      </trkpt>
      <trkpt lat="44.05068" lon="3.51618">
        <ele>1236</ele>
        <time>2019-02-01T14:22:06Z</time>
      </trkpt>
      <trkpt lat="44.05067" lon="3.51619">
        <ele>1236</ele>
        <time>2019-02-01T14:22:06Z</time>
      </trkpt>
      <trkpt lat="44.0506" lon="3.51623">
        <ele>1236</ele>
        <time>2019-02-01T14:22:06Z</time>
      </trkpt>
      <trkpt lat="44.05058" lon="3.51626">
        <ele>1224</ele>
        <time>2019-02-01T14:22:06Z</time>
      </trkpt>
      <trkpt lat="44.05055" lon="3.51628">
        <ele>1224</ele>
        <time>2019-02-01T14:22:22Z</time>
      </trkpt>
      <trkpt lat="44.05052" lon="3.51628">
        <ele>1224</ele>
        <time>2019-02-01T14:22:22Z</time>
      </trkpt>
      <trkpt lat="44.05048" lon="3.51625">
        <ele>1224</ele>
        <time>2019-02-01T14:22:22Z</time>
      </trkpt>
      <trkpt lat="44.05046" lon="3.51625">
        <ele>1236</ele>
        <time>2019-02-01T14:22:22Z</time>
      </trkpt>
      <trkpt lat="44.05042" lon="3.51624">
        <ele>1236</ele>
        <time>2019-02-01T14:23:02Z</time>
      </trkpt>
      <trkpt lat="44.05041" lon="3.51624">
        <ele>1235</ele>
        <time>2019-02-01T14:23:02Z</time>
      </trkpt>
      <trkpt lat="44.0504" lon="3.51623">
        <ele>1235</ele>
        <time>2019-02-01T14:23:02Z</time>
      </trkpt>
      <trkpt lat="44.05039" lon="3.51621">
        <ele>1235</ele>
        <time>2019-02-01T14:23:02Z</time>
      </trkpt>
      <trkpt lat="44.05034" lon="3.51616">
        <ele>1235</ele>
        <time>2019-02-01T14:23:02Z</time>
      </trkpt>
      <trkpt lat="44.05032" lon="3.51614">
        <ele>1235</ele>
        <time>2019-02-01T14:23:34Z</time>
      </trkpt>
      <trkpt lat="44.05031" lon="3.51613">
        <ele>1235</ele>
        <time>2019-02-01T14:23:34Z</time>
      </trkpt>
      <trkpt lat="44.05028" lon="3.51612">
        <ele>1235</ele>
        <time>2019-02-01T14:23:34Z</time>
      </trkpt>
      <trkpt lat="44.05021" lon="3.51607">
        <ele>1235</ele>
        <time>2019-02-01T14:23:34Z</time>
      </trkpt>
      <trkpt lat="44.05018" lon="3.51604">
        <ele>1235</ele>
        <time>2019-02-01T14:23:50Z</time>
      </trkpt>
      <trkpt lat="44.05011" lon="3.51599">
        <ele>1235</ele>
        <time>2019-02-01T14:23:50Z</time>
      </trkpt>
      <trkpt lat="44.05002" lon="3.51595">
        <ele>1235</ele>
        <time>2019-02-01T14:23:50Z</time>
      </trkpt>
      <trkpt lat="44.04999" lon="3.51593">
        <ele>1235</ele>
        <time>2019-02-01T14:23:50Z</time>
      </trkpt>
      <trkpt lat="44.04991" lon="3.51589">
        <ele>1235</ele>
        <time>2019-02-01T14:24:14Z</time>
      </trkpt>
      <trkpt lat="44.04989" lon="3.51588">
        <ele>1235</ele>
        <time>2019-02-01T14:24:14Z</time>
      </trkpt>
      <trkpt lat="44.04989" lon="3.51587">
        <ele>1235</ele>
        <time>2019-02-01T14:24:14Z</time>
      </trkpt>
      <trkpt lat="44.04987" lon="3.51586">
        <ele>1235</ele>
        <time>2019-02-01T14:24:14Z</time>
      </trkpt>
      <trkpt lat="44.04985" lon="3.51587">
        <ele>1235</ele>
        <time>2019-02-01T14:24:14Z</time>
      </trkpt>
      <trkpt lat="44.04981" lon="3.51586">
        <ele>1235</ele>
        <time>2019-02-01T14:24:50Z</time>
      </trkpt>
      <trkpt lat="44.04979" lon="3.51585">
        <ele>1235</ele>
        <time>2019-02-01T14:24:50Z</time>
      </trkpt>
      <trkpt lat="44.04975" lon="3.51584">
        <ele>1235</ele>
        <time>2019-02-01T14:24:50Z</time>
      </trkpt>
      <trkpt lat="44.04974" lon="3.51584">
        <ele>1235</ele>
        <time>2019-02-01T14:24:50Z</time>
      </trkpt>
      <trkpt lat="44.04971" lon="3.51584">
        <ele>1235</ele>
        <time>2019-02-01T14:24:50Z</time>
      </trkpt>
      <trkpt lat="44.04964" lon="3.51581">
        <ele>1235</ele>
        <time>2019-02-01T14:26:14Z</time>
      </trkpt>
      <trkpt lat="44.04962" lon="3.51579">
        <ele>1235</ele>
        <time>2019-02-01T14:26:14Z</time>
      </trkpt>
      <trkpt lat="44.0495" lon="3.51578">
        <ele>1233</ele>
        <time>2019-02-01T14:26:14Z</time>
      </trkpt>
      <trkpt lat="44.04944" lon="3.51573">
        <ele>1233</ele>
        <time>2019-02-01T14:26:14Z</time>
      </trkpt>
      <trkpt lat="44.04937" lon="3.51572">
        <ele>1233</ele>
        <time>2019-02-01T14:26:38Z</time>
      </trkpt>
      <trkpt lat="44.04933" lon="3.51569">
        <ele>1233</ele>
        <time>2019-02-01T14:26:38Z</time>
      </trkpt>
      <trkpt lat="44.04931" lon="3.51568">
        <ele>1233</ele>
        <time>2019-02-01T14:26:38Z</time>
      </trkpt>
      <trkpt lat="44.0493" lon="3.51568">
        <ele>1233</ele>
        <time>2019-02-01T14:26:38Z</time>
      </trkpt>
      <trkpt lat="44.04928" lon="3.51567">
        <ele>1233</ele>
        <time>2019-02-01T14:26:38Z</time>
      </trkpt>
      <trkpt lat="44.04927" lon="3.51566">
        <ele>1233</ele>
        <time>2019-02-01T14:26:58Z</time>
      </trkpt>
      <trkpt lat="44.04923" lon="3.51563">
        <ele>1233</ele>
        <time>2019-02-01T14:26:58Z</time>
      </trkpt>
      <trkpt lat="44.04921" lon="3.51561">
        <ele>1233</ele>
        <time>2019-02-01T14:26:58Z</time>
      </trkpt>
      <trkpt lat="44.04919" lon="3.5156">
        <ele>1233</ele>
        <time>2019-02-01T14:26:58Z</time>
      </trkpt>
      <trkpt lat="44.04918" lon="3.51559">
        <ele>1233</ele>
        <time>2019-02-01T14:27:26Z</time>
      </trkpt>
      <trkpt lat="44.04915" lon="3.51556">
        <ele>1233</ele>
        <time>2019-02-01T14:27:26Z</time>
      </trkpt>
      <trkpt lat="44.04914" lon="3.51554">
        <ele>1233</ele>
        <time>2019-02-01T14:27:26Z</time>
      </trkpt>
      <trkpt lat="44.04912" lon="3.51552">
        <ele>1233</ele>
        <time>2019-02-01T14:27:26Z</time>
      </trkpt>
      <trkpt lat="44.04907" lon="3.51548">
        <ele>1233</ele>
        <time>2019-02-01T14:27:26Z</time>
      </trkpt>
      <trkpt lat="44.04904" lon="3.51542">
        <ele>1233</ele>
        <time>2019-02-01T14:27:46Z</time>
      </trkpt>
      <trkpt lat="44.04901" lon="3.5154">
        <ele>1245</ele>
        <time>2019-02-01T14:27:46Z</time>
      </trkpt>
      <trkpt lat="44.04899" lon="3.51537">
        <ele>1245</ele>
        <time>2019-02-01T14:27:46Z</time>
      </trkpt>
      <trkpt lat="44.04897" lon="3.51535">
        <ele>1245</ele>
        <time>2019-02-01T14:27:46Z</time>
      </trkpt>
      <trkpt lat="44.04895" lon="3.51531">
        <ele>1245</ele>
        <time>2019-02-01T14:27:46Z</time>
      </trkpt>
      <trkpt lat="44.04894" lon="3.51525">
        <ele>1245</ele>
        <time>2019-02-01T14:28:02Z</time>
      </trkpt>
      <trkpt lat="44.04891" lon="3.5152">
        <ele>1245</ele>
        <time>2019-02-01T14:28:02Z</time>
      </trkpt>
      <trkpt lat="44.0489" lon="3.51517">
        <ele>1245</ele>
        <time>2019-02-01T14:28:02Z</time>
      </trkpt>
      <trkpt lat="44.04888" lon="3.51512">
        <ele>1245</ele>
        <time>2019-02-01T14:28:02Z</time>
      </trkpt>
      <trkpt lat="44.04885" lon="3.5151">
        <ele>1245</ele>
        <time>2019-02-01T14:28:30Z</time>
      </trkpt>
      <trkpt lat="44.04885" lon="3.51506">
        <ele>1245</ele>
        <time>2019-02-01T14:28:30Z</time>
      </trkpt>
      <trkpt lat="44.04884" lon="3.51506">
        <ele>1245</ele>
        <time>2019-02-01T14:28:30Z</time>
      </trkpt>
      <trkpt lat="44.04882" lon="3.51498">
        <ele>1245</ele>
        <time>2019-02-01T14:28:30Z</time>
      </trkpt>
      <trkpt lat="44.04881" lon="3.51495">
        <ele>1245</ele>
        <time>2019-02-01T14:28:30Z</time>
      </trkpt>
      <trkpt lat="44.04874" lon="3.51494">
        <ele>1242</ele>
        <time>2019-02-01T14:28:54Z</time>
      </trkpt>
      <trkpt lat="44.04865" lon="3.51492">
        <ele>1242</ele>
        <time>2019-02-01T14:28:54Z</time>
      </trkpt>
      <trkpt lat="44.04859" lon="3.51491">
        <ele>1242</ele>
        <time>2019-02-01T14:28:54Z</time>
      </trkpt>
      <trkpt lat="44.04855" lon="3.5149">
        <ele>1242</ele>
        <time>2019-02-01T14:28:54Z</time>
      </trkpt>
      <trkpt lat="44.04853" lon="3.5149">
        <ele>1242</ele>
        <time>2019-02-01T14:29:10Z</time>
      </trkpt>
      <trkpt lat="44.04849" lon="3.51492">
        <ele>1242</ele>
        <time>2019-02-01T14:29:10Z</time>
      </trkpt>
      <trkpt lat="44.04845" lon="3.51491">
        <ele>1242</ele>
        <time>2019-02-01T14:29:10Z</time>
      </trkpt>
      <trkpt lat="44.04842" lon="3.51491">
        <ele>1242</ele>
        <time>2019-02-01T14:29:10Z</time>
      </trkpt>
      <trkpt lat="44.04839" lon="3.5149">
        <ele>1242</ele>
        <time>2019-02-01T14:29:50Z</time>
      </trkpt>
      <trkpt lat="44.04838" lon="3.51491">
        <ele>1242</ele>
        <time>2019-02-01T14:29:50Z</time>
      </trkpt>
      <trkpt lat="44.04835" lon="3.51491">
        <ele>1242</ele>
        <time>2019-02-01T14:29:50Z</time>
      </trkpt>
      <trkpt lat="44.04834" lon="3.51491">
        <ele>1242</ele>
        <time>2019-02-01T14:29:50Z</time>
      </trkpt>
      <trkpt lat="44.0483" lon="3.51493">
        <ele>1242</ele>
        <time>2019-02-01T14:29:50Z</time>
      </trkpt>
      <trkpt lat="44.04825" lon="3.51495">
        <ele>1242</ele>
        <time>2019-02-01T14:30:06Z</time>
      </trkpt>
      <trkpt lat="44.04821" lon="3.51494">
        <ele>1242</ele>
        <time>2019-02-01T14:30:06Z</time>
      </trkpt>
      <trkpt lat="44.04816" lon="3.51496">
        <ele>1242</ele>
        <time>2019-02-01T14:30:06Z</time>
      </trkpt>
      <trkpt lat="44.04814" lon="3.515">
        <ele>1242</ele>
        <time>2019-02-01T14:30:06Z</time>
      </trkpt>
      <trkpt lat="44.04814" lon="3.51501">
        <ele>1242</ele>
        <time>2019-02-01T14:30:22Z</time>
      </trkpt>
      <trkpt lat="44.04808" lon="3.51503">
        <ele>1242</ele>
        <time>2019-02-01T14:30:22Z</time>
      </trkpt>
      <trkpt lat="44.04802" lon="3.51504">
        <ele>1242</ele>
        <time>2019-02-01T14:30:22Z</time>
      </trkpt>
      <trkpt lat="44.04797" lon="3.51504">
        <ele>1242</ele>
        <time>2019-02-01T14:30:22Z</time>
      </trkpt>
      <trkpt lat="44.04793" lon="3.51505">
        <ele>1242</ele>
        <time>2019-02-01T14:30:38Z</time>
      </trkpt>
      <trkpt lat="44.04789" lon="3.51509">
        <ele>1245</ele>
        <time>2019-02-01T14:30:38Z</time>
      </trkpt>
      <trkpt lat="44.04786" lon="3.51511">
        <ele>1245</ele>
        <time>2019-02-01T14:30:38Z</time>
      </trkpt>
      <trkpt lat="44.04783" lon="3.51511">
        <ele>1245</ele>
        <time>2019-02-01T14:30:38Z</time>
      </trkpt>
      <trkpt lat="44.04782" lon="3.51512">
        <ele>1245</ele>
        <time>2019-02-01T14:31:10Z</time>
      </trkpt>
      <trkpt lat="44.04779" lon="3.51512">
        <ele>1245</ele>
        <time>2019-02-01T14:31:10Z</time>
      </trkpt>
      <trkpt lat="44.04777" lon="3.51513">
        <ele>1245</ele>
        <time>2019-02-01T14:31:10Z</time>
      </trkpt>
      <trkpt lat="44.04776" lon="3.51513">
        <ele>1245</ele>
        <time>2019-02-01T14:31:10Z</time>
      </trkpt>
      <trkpt lat="44.04773" lon="3.51514">
        <ele>1245</ele>
        <time>2019-02-01T14:31:10Z</time>
      </trkpt>
      <trkpt lat="44.0477" lon="3.51514">
        <ele>1245</ele>
        <time>2019-02-01T14:31:42Z</time>
      </trkpt>
      <trkpt lat="44.04766" lon="3.51513">
        <ele>1245</ele>
        <time>2019-02-01T14:31:42Z</time>
      </trkpt>
      <trkpt lat="44.0476" lon="3.51512">
        <ele>1245</ele>
        <time>2019-02-01T14:31:42Z</time>
      </trkpt>
      <trkpt lat="44.04754" lon="3.51511">
        <ele>1245</ele>
        <time>2019-02-01T14:31:42Z</time>
      </trkpt>
      <trkpt lat="44.04752" lon="3.5151">
        <ele>1245</ele>
        <time>2019-02-01T14:32:02Z</time>
      </trkpt>
      <trkpt lat="44.04747" lon="3.5151">
        <ele>1245</ele>
        <time>2019-02-01T14:32:02Z</time>
      </trkpt>
      <trkpt lat="44.04738" lon="3.51508">
        <ele>1245</ele>
        <time>2019-02-01T14:32:02Z</time>
      </trkpt>
      <trkpt lat="44.04733" lon="3.51507">
        <ele>1245</ele>
        <time>2019-02-01T14:32:02Z</time>
      </trkpt>
      <trkpt lat="44.04725" lon="3.51507">
        <ele>1245</ele>
        <time>2019-02-01T14:32:42Z</time>
      </trkpt>
      <trkpt lat="44.04724" lon="3.51507">
        <ele>1245</ele>
        <time>2019-02-01T14:32:42Z</time>
      </trkpt>
      <trkpt lat="44.04723" lon="3.51507">
        <ele>1245</ele>
        <time>2019-02-01T14:32:42Z</time>
      </trkpt>
      <trkpt lat="44.04719" lon="3.51506">
        <ele>1245</ele>
        <time>2019-02-01T14:32:42Z</time>
      </trkpt>
      <trkpt lat="44.04715" lon="3.51506">
        <ele>1245</ele>
        <time>2019-02-01T14:32:42Z</time>
      </trkpt>
      <trkpt lat="44.04711" lon="3.51507">
        <ele>1245</ele>
        <time>2019-02-01T14:33:02Z</time>
      </trkpt>
      <trkpt lat="44.04709" lon="3.51506">
        <ele>1245</ele>
        <time>2019-02-01T14:33:02Z</time>
      </trkpt>
      <trkpt lat="44.04705" lon="3.51506">
        <ele>1249</ele>
        <time>2019-02-01T14:33:02Z</time>
      </trkpt>
      <trkpt lat="44.04702" lon="3.51507">
        <ele>1249</ele>
        <time>2019-02-01T14:33:02Z</time>
      </trkpt>
      <trkpt lat="44.047" lon="3.51507">
        <ele>1249</ele>
        <time>2019-02-01T14:33:26Z</time>
      </trkpt>
      <trkpt lat="44.04697" lon="3.51504">
        <ele>1249</ele>
        <time>2019-02-01T14:33:26Z</time>
      </trkpt>
      <trkpt lat="44.04693" lon="3.51503">
        <ele>1249</ele>
        <time>2019-02-01T14:33:26Z</time>
      </trkpt>
      <trkpt lat="44.0469" lon="3.51501">
        <ele>1249</ele>
        <time>2019-02-01T14:33:26Z</time>
      </trkpt>
      <trkpt lat="44.04684" lon="3.515">
        <ele>1249</ele>
        <time>2019-02-01T14:33:54Z</time>
      </trkpt>
      <trkpt lat="44.04683" lon="3.515">
        <ele>1249</ele>
        <time>2019-02-01T14:33:54Z</time>
      </trkpt>
      <trkpt lat="44.0468" lon="3.515">
        <ele>1249</ele>
        <time>2019-02-01T14:33:54Z</time>
      </trkpt>
      <trkpt lat="44.04678" lon="3.51498">
        <ele>1249</ele>
        <time>2019-02-01T14:33:54Z</time>
      </trkpt>
      <trkpt lat="44.04672" lon="3.51497">
        <ele>1249</ele>
        <time>2019-02-01T14:33:54Z</time>
      </trkpt>
      <trkpt lat="44.04665" lon="3.51494">
        <ele>1249</ele>
        <time>2019-02-01T14:34:18Z</time>
      </trkpt>
      <trkpt lat="44.04658" lon="3.51495">
        <ele>1249</ele>
        <time>2019-02-01T14:34:18Z</time>
      </trkpt>
      <trkpt lat="44.04655" lon="3.51497">
        <ele>1249</ele>
        <time>2019-02-01T14:34:18Z</time>
      </trkpt>
      <trkpt lat="44.0465" lon="3.515">
        <ele>1249</ele>
        <time>2019-02-01T14:34:18Z</time>
      </trkpt>
      <trkpt lat="44.04644" lon="3.51501">
        <ele>1249</ele>
        <time>2019-02-01T14:34:34Z</time>
      </trkpt>
      <trkpt lat="44.04639" lon="3.51504">
        <ele>1249</ele>
        <time>2019-02-01T14:34:34Z</time>
      </trkpt>
      <trkpt lat="44.04633" lon="3.51506">
        <ele>1249</ele>
        <time>2019-02-01T14:34:34Z</time>
      </trkpt>
      <trkpt lat="44.04628" lon="3.51511">
        <ele>1249</ele>
        <time>2019-02-01T14:34:34Z</time>
      </trkpt>
      <trkpt lat="44.04626" lon="3.51518">
        <ele>1249</ele>
        <time>2019-02-01T14:35:02Z</time>
      </trkpt>
      <trkpt lat="44.04624" lon="3.51521">
        <ele>1253</ele>
        <time>2019-02-01T14:35:02Z</time>
      </trkpt>
      <trkpt lat="44.04623" lon="3.51523">
        <ele>1253</ele>
        <time>2019-02-01T14:35:02Z</time>
      </trkpt>
      <trkpt lat="44.04617" lon="3.51533">
        <ele>1253</ele>
        <time>2019-02-01T14:35:02Z</time>
      </trkpt>
      <trkpt lat="44.04613" lon="3.51542">
        <ele>1247</ele>
        <time>2019-02-01T14:35:22Z</time>
      </trkpt>
      <trkpt lat="44.04612" lon="3.51547">
        <ele>1247</ele>
        <time>2019-02-01T14:35:22Z</time>
      </trkpt>
      <trkpt lat="44.0461" lon="3.51549">
        <ele>1247</ele>
        <time>2019-02-01T14:35:22Z</time>
      </trkpt>
      <trkpt lat="44.04607" lon="3.51551">
        <ele>1247</ele>
        <time>2019-02-01T14:35:22Z</time>
      </trkpt>
      <trkpt lat="44.04605" lon="3.51553">
        <ele>1247</ele>
        <time>2019-02-01T14:35:22Z</time>
      </trkpt>
      <trkpt lat="44.04601" lon="3.51557">
        <ele>1247</ele>
        <time>2019-02-01T14:35:46Z</time>
      </trkpt>
      <trkpt lat="44.04601" lon="3.51557">
        <ele>1247</ele>
        <time>2019-02-01T14:35:46Z</time>
      </trkpt>
      <trkpt lat="44.04599" lon="3.5156">
        <ele>1247</ele>
        <time>2019-02-01T14:35:46Z</time>
      </trkpt>
      <trkpt lat="44.04596" lon="3.51562">
        <ele>1247</ele>
        <time>2019-02-01T14:35:46Z</time>
      </trkpt>
      <trkpt lat="44.04593" lon="3.51564">
        <ele>1247</ele>
        <time>2019-02-01T14:35:46Z</time>
      </trkpt>
      <trkpt lat="44.0459" lon="3.51566">
        <ele>1247</ele>
        <time>2019-02-01T14:36:46Z</time>
      </trkpt>
      <trkpt lat="44.0459" lon="3.51568">
        <ele>1247</ele>
        <time>2019-02-01T14:36:46Z</time>
      </trkpt>
      <trkpt lat="44.04589" lon="3.51568">
        <ele>1247</ele>
        <time>2019-02-01T14:36:46Z</time>
      </trkpt>
      <trkpt lat="44.04587" lon="3.51569">
        <ele>1247</ele>
        <time>2019-02-01T14:36:46Z</time>
      </trkpt>
      <trkpt lat="44.04578" lon="3.51582">
        <ele>1247</ele>
        <time>2019-02-01T14:36:46Z</time>
      </trkpt>
      <trkpt lat="44.04575" lon="3.51586">
        <ele>1247</ele>
        <time>2019-02-01T14:37:02Z</time>
      </trkpt>
      <trkpt lat="44.04574" lon="3.51589">
        <ele>1247</ele>
        <time>2019-02-01T14:37:02Z</time>
      </trkpt>
      <trkpt lat="44.04571" lon="3.51592">
        <ele>1247</ele>
        <time>2019-02-01T14:37:02Z</time>
      </trkpt>
      <trkpt lat="44.04568" lon="3.51595">
        <ele>1247</ele>
        <time>2019-02-01T14:37:02Z</time>
      </trkpt>
      <trkpt lat="44.04564" lon="3.51596">
        <ele>1247</ele>
        <time>2019-02-01T14:37:18Z</time>
      </trkpt>
      <trkpt lat="44.04561" lon="3.51597">
        <ele>1247</ele>
        <time>2019-02-01T14:37:18Z</time>
      </trkpt>
      <trkpt lat="44.04557" lon="3.51599">
        <ele>1247</ele>
        <time>2019-02-01T14:37:18Z</time>
      </trkpt>
      <trkpt lat="44.04555" lon="3.516">
        <ele>1247</ele>
        <time>2019-02-01T14:37:18Z</time>
      </trkpt>
      <trkpt lat="44.04553" lon="3.51599">
        <ele>1247</ele>
        <time>2019-02-01T14:37:38Z</time>
      </trkpt>
      <trkpt lat="44.0455" lon="3.51596">
        <ele>1247</ele>
        <time>2019-02-01T14:37:38Z</time>
      </trkpt>
      <trkpt lat="44.04542" lon="3.51589">
        <ele>1247</ele>
        <time>2019-02-01T14:37:38Z</time>
      </trkpt>
      <trkpt lat="44.04538" lon="3.51586">
        <ele>1244</ele>
        <time>2019-02-01T14:37:38Z</time>
      </trkpt>
      <trkpt lat="44.04534" lon="3.51583">
        <ele>1244</ele>
        <time>2019-02-01T14:38:10Z</time>
      </trkpt>
      <trkpt lat="44.04533" lon="3.51583">
        <ele>1244</ele>
        <time>2019-02-01T14:38:10Z</time>
      </trkpt>
      <trkpt lat="44.04532" lon="3.51583">
        <ele>1244</ele>
        <time>2019-02-01T14:38:10Z</time>
      </trkpt>
      <trkpt lat="44.0453" lon="3.51583">
        <ele>1244</ele>
        <time>2019-02-01T14:38:10Z</time>
      </trkpt>
      <trkpt lat="44.04526" lon="3.51584">
        <ele>1244</ele>
        <time>2019-02-01T14:38:10Z</time>
      </trkpt>
      <trkpt lat="44.0452" lon="3.51581">
        <ele>1244</ele>
        <time>2019-02-01T14:38:54Z</time>
      </trkpt>
      <trkpt lat="44.04511" lon="3.51579">
        <ele>1244</ele>
        <time>2019-02-01T14:38:54Z</time>
      </trkpt>
      <trkpt lat="44.04509" lon="3.51579">
        <ele>1244</ele>
        <time>2019-02-01T14:38:54Z</time>
      </trkpt>
      <trkpt lat="44.04508" lon="3.51578">
        <ele>1244</ele>
        <time>2019-02-01T14:38:54Z</time>
      </trkpt>
      <trkpt lat="44.04502" lon="3.51573">
        <ele>1244</ele>
        <time>2019-02-01T14:39:10Z</time>
      </trkpt>
      <trkpt lat="44.04496" lon="3.51566">
        <ele>1244</ele>
        <time>2019-02-01T14:39:10Z</time>
      </trkpt>
      <trkpt lat="44.04493" lon="3.51565">
        <ele>1244</ele>
        <time>2019-02-01T14:39:10Z</time>
      </trkpt>
      <trkpt lat="44.0449" lon="3.5156">
        <ele>1244</ele>
        <time>2019-02-01T14:39:10Z</time>
      </trkpt>
      <trkpt lat="44.0449" lon="3.51558">
        <ele>1244</ele>
        <time>2019-02-01T14:39:38Z</time>
      </trkpt>
      <trkpt lat="44.04487" lon="3.51555">
        <ele>1244</ele>
        <time>2019-02-01T14:39:38Z</time>
      </trkpt>
      <trkpt lat="44.04483" lon="3.5155">
        <ele>1244</ele>
        <time>2019-02-01T14:39:38Z</time>
      </trkpt>
      <trkpt lat="44.04477" lon="3.51545">
        <ele>1244</ele>
        <time>2019-02-01T14:39:38Z</time>
      </trkpt>
      <trkpt lat="44.04475" lon="3.51543">
        <ele>1244</ele>
        <time>2019-02-01T14:39:54Z</time>
      </trkpt>
      <trkpt lat="44.04472" lon="3.51538">
        <ele>1249</ele>
        <time>2019-02-01T14:39:54Z</time>
      </trkpt>
      <trkpt lat="44.04471" lon="3.51535">
        <ele>1249</ele>
        <time>2019-02-01T14:39:54Z</time>
      </trkpt>
      <trkpt lat="44.0447" lon="3.51531">
        <ele>1249</ele>
        <time>2019-02-01T14:39:54Z</time>
      </trkpt>
      <trkpt lat="44.04469" lon="3.51525">
        <ele>1249</ele>
        <time>2019-02-01T14:40:10Z</time>
      </trkpt>
      <trkpt lat="44.04466" lon="3.5152">
        <ele>1249</ele>
        <time>2019-02-01T14:40:10Z</time>
      </trkpt>
      <trkpt lat="44.04464" lon="3.51516">
        <ele>1249</ele>
        <time>2019-02-01T14:40:10Z</time>
      </trkpt>
      <trkpt lat="44.04462" lon="3.51511">
        <ele>1249</ele>
        <time>2019-02-01T14:40:10Z</time>
      </trkpt>
      <trkpt lat="44.04461" lon="3.51507">
        <ele>1249</ele>
        <time>2019-02-01T14:40:26Z</time>
      </trkpt>
      <trkpt lat="44.04458" lon="3.51505">
        <ele>1249</ele>
        <time>2019-02-01T14:40:26Z</time>
      </trkpt>
      <trkpt lat="44.04456" lon="3.51502">
        <ele>1242</ele>
        <time>2019-02-01T14:40:26Z</time>
      </trkpt>
      <trkpt lat="44.04452" lon="3.51497">
        <ele>1242</ele>
        <time>2019-02-01T14:40:26Z</time>
      </trkpt>
      <trkpt lat="44.04449" lon="3.51493">
        <ele>1242</ele>
        <time>2019-02-01T14:40:42Z</time>
      </trkpt>
      <trkpt lat="44.04447" lon="3.5149">
        <ele>1242</ele>
        <time>2019-02-01T14:40:42Z</time>
      </trkpt>
      <trkpt lat="44.04445" lon="3.51486">
        <ele>1242</ele>
        <time>2019-02-01T14:40:42Z</time>
      </trkpt>
      <trkpt lat="44.04442" lon="3.51481">
        <ele>1242</ele>
        <time>2019-02-01T14:40:42Z</time>
      </trkpt>
      <trkpt lat="44.0444" lon="3.51476">
        <ele>1242</ele>
        <time>2019-02-01T14:41:10Z</time>
      </trkpt>
      <trkpt lat="44.04439" lon="3.51475">
        <ele>1242</ele>
        <time>2019-02-01T14:41:10Z</time>
      </trkpt>
      <trkpt lat="44.04438" lon="3.51468">
        <ele>1242</ele>
        <time>2019-02-01T14:41:10Z</time>
      </trkpt>
      <trkpt lat="44.04436" lon="3.51465">
        <ele>1242</ele>
        <time>2019-02-01T14:41:10Z</time>
      </trkpt>
      <trkpt lat="44.04434" lon="3.51461">
        <ele>1242</ele>
        <time>2019-02-01T14:41:10Z</time>
      </trkpt>
      <trkpt lat="44.04432" lon="3.51449">
        <ele>1247</ele>
        <time>2019-02-01T14:41:26Z</time>
      </trkpt>
      <trkpt lat="44.04431" lon="3.51442">
        <ele>1247</ele>
        <time>2019-02-01T14:41:26Z</time>
      </trkpt>
      <trkpt lat="44.04429" lon="3.51438">
        <ele>1247</ele>
        <time>2019-02-01T14:41:26Z</time>
      </trkpt>
      <trkpt lat="44.04428" lon="3.51437">
        <ele>1247</ele>
        <time>2019-02-01T14:41:26Z</time>
      </trkpt>
      <trkpt lat="44.04426" lon="3.51436">
        <ele>1247</ele>
        <time>2019-02-01T14:41:54Z</time>
      </trkpt>
      <trkpt lat="44.04425" lon="3.51435">
        <ele>1247</ele>
        <time>2019-02-01T14:41:54Z</time>
      </trkpt>
      <trkpt lat="44.04424" lon="3.51435">
        <ele>1247</ele>
        <time>2019-02-01T14:41:54Z</time>
      </trkpt>
      <trkpt lat="44.0441" lon="3.51428">
        <ele>1247</ele>
        <time>2019-02-01T14:41:54Z</time>
      </trkpt>
      <trkpt lat="44.04407" lon="3.51427">
        <ele>1247</ele>
        <time>2019-02-01T14:42:26Z</time>
      </trkpt>
      <trkpt lat="44.04403" lon="3.51427">
        <ele>1247</ele>
        <time>2019-02-01T14:42:26Z</time>
      </trkpt>
      <trkpt lat="44.04394" lon="3.51427">
        <ele>1247</ele>
        <time>2019-02-01T14:42:26Z</time>
      </trkpt>
      <trkpt lat="44.04385" lon="3.51429">
        <ele>1247</ele>
        <time>2019-02-01T14:42:26Z</time>
      </trkpt>
      <trkpt lat="44.04381" lon="3.5143">
        <ele>1247</ele>
        <time>2019-02-01T14:42:42Z</time>
      </trkpt>
      <trkpt lat="44.04379" lon="3.51429">
        <ele>1247</ele>
        <time>2019-02-01T14:42:42Z</time>
      </trkpt>
      <trkpt lat="44.04373" lon="3.51429">
        <ele>1240</ele>
        <time>2019-02-01T14:42:42Z</time>
      </trkpt>
      <trkpt lat="44.04371" lon="3.51429">
        <ele>1240</ele>
        <time>2019-02-01T14:42:42Z</time>
      </trkpt>
      <trkpt lat="44.04367" lon="3.51428">
        <ele>1240</ele>
        <time>2019-02-01T14:43:06Z</time>
      </trkpt>
      <trkpt lat="44.04366" lon="3.51428">
        <ele>1240</ele>
        <time>2019-02-01T14:43:06Z</time>
      </trkpt>
      <trkpt lat="44.04362" lon="3.51427">
        <ele>1240</ele>
        <time>2019-02-01T14:43:06Z</time>
      </trkpt>
      <trkpt lat="44.04358" lon="3.51425">
        <ele>1240</ele>
        <time>2019-02-01T14:43:06Z</time>
      </trkpt>
      <trkpt lat="44.04356" lon="3.51422">
        <ele>1240</ele>
        <time>2019-02-01T14:43:06Z</time>
      </trkpt>
      <trkpt lat="44.04356" lon="3.51421">
        <ele>1240</ele>
        <time>2019-02-01T14:43:30Z</time>
      </trkpt>
      <trkpt lat="44.04354" lon="3.51419">
        <ele>1240</ele>
        <time>2019-02-01T14:43:30Z</time>
      </trkpt>
      <trkpt lat="44.04352" lon="3.51416">
        <ele>1240</ele>
        <time>2019-02-01T14:43:30Z</time>
      </trkpt>
      <trkpt lat="44.04351" lon="3.51412">
        <ele>1240</ele>
        <time>2019-02-01T14:43:30Z</time>
      </trkpt>
      <trkpt lat="44.04348" lon="3.51409">
        <ele>1240</ele>
        <time>2019-02-01T14:43:30Z</time>
      </trkpt>
      <trkpt lat="44.04347" lon="3.51406">
        <ele>1240</ele>
        <time>2019-02-01T14:43:58Z</time>
      </trkpt>
      <trkpt lat="44.04346" lon="3.51403">
        <ele>1240</ele>
        <time>2019-02-01T14:43:58Z</time>
      </trkpt>
      <trkpt lat="44.04345" lon="3.51402">
        <ele>1240</ele>
        <time>2019-02-01T14:43:58Z</time>
      </trkpt>
      <trkpt lat="44.04346" lon="3.51399">
        <ele>1240</ele>
        <time>2019-02-01T14:43:58Z</time>
      </trkpt>
      <trkpt lat="44.04345" lon="3.51394">
        <ele>1240</ele>
        <time>2019-02-01T14:43:58Z</time>
      </trkpt>
      <trkpt lat="44.04345" lon="3.51393">
        <ele>1240</ele>
        <time>2019-02-01T14:44:22Z</time>
      </trkpt>
      <trkpt lat="44.04345" lon="3.5139">
        <ele>1240</ele>
        <time>2019-02-01T14:44:22Z</time>
      </trkpt>
      <trkpt lat="44.04343" lon="3.51377">
        <ele>1240</ele>
        <time>2019-02-01T14:44:22Z</time>
      </trkpt>
      <trkpt lat="44.04339" lon="3.51368">
        <ele>1248</ele>
        <time>2019-02-01T14:44:22Z</time>
      </trkpt>
      <trkpt lat="44.04336" lon="3.51362">
        <ele>1248</ele>
        <time>2019-02-01T14:44:42Z</time>
      </trkpt>
      <trkpt lat="44.04337" lon="3.51358">
        <ele>1248</ele>
        <time>2019-02-01T14:44:42Z</time>
      </trkpt>
      <trkpt lat="44.04337" lon="3.51357">
        <ele>1248</ele>
        <time>2019-02-01T14:44:42Z</time>
      </trkpt>
      <trkpt lat="44.04337" lon="3.51353">
        <ele>1248</ele>
        <time>2019-02-01T14:44:42Z</time>
      </trkpt>
      <trkpt lat="44.04336" lon="3.51348">
        <ele>1248</ele>
        <time>2019-02-01T14:44:42Z</time>
      </trkpt>
      <trkpt lat="44.04337" lon="3.51343">
        <ele>1248</ele>
        <time>2019-02-01T14:44:58Z</time>
      </trkpt>
      <trkpt lat="44.04336" lon="3.51336">
        <ele>1248</ele>
        <time>2019-02-01T14:44:58Z</time>
      </trkpt>
      <trkpt lat="44.04336" lon="3.51332">
        <ele>1248</ele>
        <time>2019-02-01T14:44:58Z</time>
      </trkpt>
      <trkpt lat="44.04334" lon="3.51329">
        <ele>1248</ele>
        <time>2019-02-01T14:44:58Z</time>
      </trkpt>
      <trkpt lat="44.04333" lon="3.51327">
        <ele>1248</ele>
        <time>2019-02-01T14:45:26Z</time>
      </trkpt>
      <trkpt lat="44.0433" lon="3.51324">
        <ele>1248</ele>
        <time>2019-02-01T14:45:26Z</time>
      </trkpt>
      <trkpt lat="44.04328" lon="3.51323">
        <ele>1248</ele>
        <time>2019-02-01T14:45:26Z</time>
      </trkpt>
      <trkpt lat="44.04327" lon="3.5132">
        <ele>1248</ele>
        <time>2019-02-01T14:45:26Z</time>
      </trkpt>
      <trkpt lat="44.04327" lon="3.51317">
        <ele>1248</ele>
        <time>2019-02-01T14:45:26Z</time>
      </trkpt>
      <trkpt lat="44.04325" lon="3.51312">
        <ele>1248</ele>
        <time>2019-02-01T14:45:58Z</time>
      </trkpt>
      <trkpt lat="44.04326" lon="3.51308">
        <ele>1248</ele>
        <time>2019-02-01T14:45:58Z</time>
      </trkpt>
      <trkpt lat="44.04326" lon="3.51307">
        <ele>1248</ele>
        <time>2019-02-01T14:45:58Z</time>
      </trkpt>
      <trkpt lat="44.04327" lon="3.51304">
        <ele>1248</ele>
        <time>2019-02-01T14:45:58Z</time>
      </trkpt>
      <trkpt lat="44.04329" lon="3.51299">
        <ele>1248</ele>
        <time>2019-02-01T14:45:58Z</time>
      </trkpt>
      <trkpt lat="44.04329" lon="3.51294">
        <ele>1248</ele>
        <time>2019-02-01T14:46:34Z</time>
      </trkpt>
      <trkpt lat="44.04329" lon="3.5129">
        <ele>1257</ele>
        <time>2019-02-01T14:46:34Z</time>
      </trkpt>
      <trkpt lat="44.04329" lon="3.51288">
        <ele>1257</ele>
        <time>2019-02-01T14:46:34Z</time>
      </trkpt>
      <trkpt lat="44.0433" lon="3.51285">
        <ele>1257</ele>
        <time>2019-02-01T14:46:34Z</time>
      </trkpt>
      <trkpt lat="44.04331" lon="3.51275">
        <ele>1257</ele>
        <time>2019-02-01T14:46:34Z</time>
      </trkpt>
      <trkpt lat="44.0433" lon="3.51261">
        <ele>1257</ele>
        <time>2019-02-01T14:46:50Z</time>
      </trkpt>
      <trkpt lat="44.0433" lon="3.51254">
        <ele>1257</ele>
        <time>2019-02-01T14:46:50Z</time>
      </trkpt>
      <trkpt lat="44.04329" lon="3.51251">
        <ele>1257</ele>
        <time>2019-02-01T14:46:50Z</time>
      </trkpt>
      <trkpt lat="44.04329" lon="3.51239">
        <ele>1257</ele>
        <time>2019-02-01T14:46:50Z</time>
      </trkpt>
      <trkpt lat="44.04323" lon="3.51227">
        <ele>1257</ele>
        <time>2019-02-01T14:47:30Z</time>
      </trkpt>
      <trkpt lat="44.04322" lon="3.51226">
        <ele>1257</ele>
        <time>2019-02-01T14:47:30Z</time>
      </trkpt>
      <trkpt lat="44.04321" lon="3.51224">
        <ele>1257</ele>
        <time>2019-02-01T14:47:30Z</time>
      </trkpt>
      <trkpt lat="44.04321" lon="3.51223">
        <ele>1257</ele>
        <time>2019-02-01T14:47:30Z</time>
      </trkpt>
      <trkpt lat="44.04316" lon="3.51218">
        <ele>1257</ele>
        <time>2019-02-01T14:47:30Z</time>
      </trkpt>
      <trkpt lat="44.04312" lon="3.51214">
        <ele>1257</ele>
        <time>2019-02-01T14:47:50Z</time>
      </trkpt>
      <trkpt lat="44.0431" lon="3.51209">
        <ele>1257</ele>
        <time>2019-02-01T14:47:50Z</time>
      </trkpt>
      <trkpt lat="44.04308" lon="3.51207">
        <ele>1269</ele>
        <time>2019-02-01T14:47:50Z</time>
      </trkpt>
      <trkpt lat="44.04307" lon="3.51206">
        <ele>1269</ele>
        <time>2019-02-01T14:47:50Z</time>
      </trkpt>
      <trkpt lat="44.04303" lon="3.51202">
        <ele>1269</ele>
        <time>2019-02-01T14:47:50Z</time>
      </trkpt>
      <trkpt lat="44.04296" lon="3.51198">
        <ele>1269</ele>
        <time>2019-02-01T14:48:14Z</time>
      </trkpt>
      <trkpt lat="44.04287" lon="3.51191">
        <ele>1258</ele>
        <time>2019-02-01T14:48:14Z</time>
      </trkpt>
      <trkpt lat="44.04286" lon="3.51184">
        <ele>1258</ele>
        <time>2019-02-01T14:48:14Z</time>
      </trkpt>
      <trkpt lat="44.04285" lon="3.51183">
        <ele>1258</ele>
        <time>2019-02-01T14:48:14Z</time>
      </trkpt>
      <trkpt lat="44.04283" lon="3.5118">
        <ele>1258</ele>
        <time>2019-02-01T14:48:30Z</time>
      </trkpt>
      <trkpt lat="44.0428" lon="3.51175">
        <ele>1258</ele>
        <time>2019-02-01T14:48:30Z</time>
      </trkpt>
      <trkpt lat="44.04276" lon="3.51172">
        <ele>1258</ele>
        <time>2019-02-01T14:48:30Z</time>
      </trkpt>
      <trkpt lat="44.04274" lon="3.51169">
        <ele>1258</ele>
        <time>2019-02-01T14:48:30Z</time>
      </trkpt>
      <trkpt lat="44.04272" lon="3.51167">
        <ele>1258</ele>
        <time>2019-02-01T14:48:46Z</time>
      </trkpt>
      <trkpt lat="44.0427" lon="3.51166">
        <ele>1258</ele>
        <time>2019-02-01T14:48:46Z</time>
      </trkpt>
      <trkpt lat="44.04267" lon="3.51164">
        <ele>1258</ele>
        <time>2019-02-01T14:48:46Z</time>
      </trkpt>
      <trkpt lat="44.04264" lon="3.5116">
        <ele>1258</ele>
        <time>2019-02-01T14:48:46Z</time>
      </trkpt>
      <trkpt lat="44.04261" lon="3.51156">
        <ele>1258</ele>
        <time>2019-02-01T14:49:06Z</time>
      </trkpt>
      <trkpt lat="44.04259" lon="3.51153">
        <ele>1258</ele>
        <time>2019-02-01T14:49:06Z</time>
      </trkpt>
      <trkpt lat="44.04258" lon="3.5115">
        <ele>1258</ele>
        <time>2019-02-01T14:49:06Z</time>
      </trkpt>
      <trkpt lat="44.04256" lon="3.51146">
        <ele>1258</ele>
        <time>2019-02-01T14:49:06Z</time>
      </trkpt>
      <trkpt lat="44.04256" lon="3.51143">
        <ele>1258</ele>
        <time>2019-02-01T14:49:06Z</time>
      </trkpt>
      <trkpt lat="44.04254" lon="3.51142">
        <ele>1258</ele>
        <time>2019-02-01T14:49:22Z</time>
      </trkpt>
      <trkpt lat="44.04251" lon="3.51137">
        <ele>1258</ele>
        <time>2019-02-01T14:49:22Z</time>
      </trkpt>
      <trkpt lat="44.04249" lon="3.51132">
        <ele>1258</ele>
        <time>2019-02-01T14:49:22Z</time>
      </trkpt>
      <trkpt lat="44.04247" lon="3.51126">
        <ele>1258</ele>
        <time>2019-02-01T14:49:22Z</time>
      </trkpt>
      <trkpt lat="44.04245" lon="3.5112">
        <ele>1263</ele>
        <time>2019-02-01T14:49:42Z</time>
      </trkpt>
      <trkpt lat="44.04243" lon="3.51115">
        <ele>1263</ele>
        <time>2019-02-01T14:49:42Z</time>
      </trkpt>
      <trkpt lat="44.04243" lon="3.51111">
        <ele>1263</ele>
        <time>2019-02-01T14:49:42Z</time>
      </trkpt>
      <trkpt lat="44.04241" lon="3.51109">
        <ele>1263</ele>
        <time>2019-02-01T14:49:42Z</time>
      </trkpt>
      <trkpt lat="44.04241" lon="3.51105">
        <ele>1263</ele>
        <time>2019-02-01T14:49:42Z</time>
      </trkpt>
      <trkpt lat="44.04238" lon="3.51103">
        <ele>1263</ele>
        <time>2019-02-01T14:49:58Z</time>
      </trkpt>
      <trkpt lat="44.04236" lon="3.51099">
        <ele>1263</ele>
        <time>2019-02-01T14:49:58Z</time>
      </trkpt>
      <trkpt lat="44.04232" lon="3.51095">
        <ele>1263</ele>
        <time>2019-02-01T14:49:58Z</time>
      </trkpt>
      <trkpt lat="44.04229" lon="3.51092">
        <ele>1263</ele>
        <time>2019-02-01T14:49:58Z</time>
      </trkpt>
      <trkpt lat="44.04227" lon="3.51088">
        <ele>1263</ele>
        <time>2019-02-01T14:50:14Z</time>
      </trkpt>
      <trkpt lat="44.04224" lon="3.51085">
        <ele>1263</ele>
        <time>2019-02-01T14:50:14Z</time>
      </trkpt>
      <trkpt lat="44.04221" lon="3.51083">
        <ele>1263</ele>
        <time>2019-02-01T14:50:14Z</time>
      </trkpt>
      <trkpt lat="44.04218" lon="3.51079">
        <ele>1263</ele>
        <time>2019-02-01T14:50:14Z</time>
      </trkpt>
      <trkpt lat="44.04214" lon="3.51076">
        <ele>1263</ele>
        <time>2019-02-01T14:50:30Z</time>
      </trkpt>
      <trkpt lat="44.0421" lon="3.51074">
        <ele>1263</ele>
        <time>2019-02-01T14:50:30Z</time>
      </trkpt>
      <trkpt lat="44.04207" lon="3.51071">
        <ele>1258</ele>
        <time>2019-02-01T14:50:30Z</time>
      </trkpt>
      <trkpt lat="44.04203" lon="3.51068">
        <ele>1258</ele>
        <time>2019-02-01T14:50:30Z</time>
      </trkpt>
      <trkpt lat="44.04201" lon="3.51065">
        <ele>1258</ele>
        <time>2019-02-01T14:50:58Z</time>
      </trkpt>
      <trkpt lat="44.042" lon="3.51062">
        <ele>1258</ele>
        <time>2019-02-01T14:50:58Z</time>
      </trkpt>
      <trkpt lat="44.042" lon="3.51061">
        <ele>1258</ele>
        <time>2019-02-01T14:50:58Z</time>
      </trkpt>
      <trkpt lat="44.04197" lon="3.51057">
        <ele>1258</ele>
        <time>2019-02-01T14:50:58Z</time>
      </trkpt>
      <trkpt lat="44.04195" lon="3.51054">
        <ele>1258</ele>
        <time>2019-02-01T14:50:58Z</time>
      </trkpt>
      <trkpt lat="44.04192" lon="3.51046">
        <ele>1258</ele>
        <time>2019-02-01T14:51:22Z</time>
      </trkpt>
      <trkpt lat="44.04191" lon="3.51044">
        <ele>1258</ele>
        <time>2019-02-01T14:51:22Z</time>
      </trkpt>
      <trkpt lat="44.04189" lon="3.51043">
        <ele>1258</ele>
        <time>2019-02-01T14:51:22Z</time>
      </trkpt>
      <trkpt lat="44.04188" lon="3.51041">
        <ele>1257</ele>
        <time>2019-02-01T14:51:22Z</time>
      </trkpt>
      <trkpt lat="44.04185" lon="3.51039">
        <ele>1257</ele>
        <time>2019-02-01T14:51:22Z</time>
      </trkpt>
      <trkpt lat="44.04182" lon="3.51039">
        <ele>1257</ele>
        <time>2019-02-01T14:51:42Z</time>
      </trkpt>
      <trkpt lat="44.0418" lon="3.51038">
        <ele>1257</ele>
        <time>2019-02-01T14:51:42Z</time>
      </trkpt>
      <trkpt lat="44.04178" lon="3.51039">
        <ele>1257</ele>
        <time>2019-02-01T14:51:42Z</time>
      </trkpt>
      <trkpt lat="44.04175" lon="3.5104">
        <ele>1257</ele>
        <time>2019-02-01T14:51:42Z</time>
      </trkpt>
      <trkpt lat="44.04172" lon="3.51041">
        <ele>1257</ele>
        <time>2019-02-01T14:51:42Z</time>
      </trkpt>
      <trkpt lat="44.0417" lon="3.51041">
        <ele>1257</ele>
        <time>2019-02-01T14:51:58Z</time>
      </trkpt>
      <trkpt lat="44.04167" lon="3.51041">
        <ele>1257</ele>
        <time>2019-02-01T14:51:58Z</time>
      </trkpt>
      <trkpt lat="44.04163" lon="3.51041">
        <ele>1257</ele>
        <time>2019-02-01T14:51:58Z</time>
      </trkpt>
      <trkpt lat="44.0416" lon="3.5104">
        <ele>1257</ele>
        <time>2019-02-01T14:51:58Z</time>
      </trkpt>
      <trkpt lat="44.04157" lon="3.51039">
        <ele>1257</ele>
        <time>2019-02-01T14:52:42Z</time>
      </trkpt>
      <trkpt lat="44.04157" lon="3.51039">
        <ele>1257</ele>
        <time>2019-02-01T14:52:42Z</time>
      </trkpt>
      <trkpt lat="44.04154" lon="3.51041">
        <ele>1257</ele>
        <time>2019-02-01T14:52:42Z</time>
      </trkpt>
      <trkpt lat="44.04149" lon="3.5104">
        <ele>1257</ele>
        <time>2019-02-01T14:52:42Z</time>
      </trkpt>
      <trkpt lat="44.04144" lon="3.5104">
        <ele>1257</ele>
        <time>2019-02-01T14:52:42Z</time>
      </trkpt>
      <trkpt lat="44.0414" lon="3.51038">
        <ele>1257</ele>
        <time>2019-02-01T14:53:02Z</time>
      </trkpt>
      <trkpt lat="44.04137" lon="3.51038">
        <ele>1257</ele>
        <time>2019-02-01T14:53:02Z</time>
      </trkpt>
      <trkpt lat="44.04134" lon="3.51037">
        <ele>1257</ele>
        <time>2019-02-01T14:53:02Z</time>
      </trkpt>
      <trkpt lat="44.04132" lon="3.51039">
        <ele>1257</ele>
        <time>2019-02-01T14:53:02Z</time>
      </trkpt>
      <trkpt lat="44.04129" lon="3.51038">
        <ele>1257</ele>
        <time>2019-02-01T14:53:02Z</time>
      </trkpt>
      <trkpt lat="44.04121" lon="3.51034">
        <ele>1259</ele>
        <time>2019-02-01T14:53:30Z</time>
      </trkpt>
      <trkpt lat="44.04119" lon="3.51032">
        <ele>1259</ele>
        <time>2019-02-01T14:53:30Z</time>
      </trkpt>
      <trkpt lat="44.04119" lon="3.51032">
        <ele>1259</ele>
        <time>2019-02-01T14:53:30Z</time>
      </trkpt>
      <trkpt lat="44.04118" lon="3.51032">
        <ele>1259</ele>
        <time>2019-02-01T14:53:30Z</time>
      </trkpt>
      <trkpt lat="44.04116" lon="3.51031">
        <ele>1259</ele>
        <time>2019-02-01T14:53:30Z</time>
      </trkpt>
      <trkpt lat="44.04105" lon="3.51029">
        <ele>1259</ele>
        <time>2019-02-01T14:54:10Z</time>
      </trkpt>
      <trkpt lat="44.04105" lon="3.51029">
        <ele>1259</ele>
        <time>2019-02-01T14:54:10Z</time>
      </trkpt>
      <trkpt lat="44.04104" lon="3.5103">
        <ele>1259</ele>
        <time>2019-02-01T14:54:10Z</time>
      </trkpt>
      <trkpt lat="44.04104" lon="3.5103">
        <ele>1259</ele>
        <time>2019-02-01T14:54:10Z</time>
      </trkpt>
      <trkpt lat="44.04101" lon="3.5103">
        <ele>1259</ele>
        <time>2019-02-01T14:54:10Z</time>
      </trkpt>
      <trkpt lat="44.04093" lon="3.51024">
        <ele>1259</ele>
        <time>2019-02-01T14:55:10Z</time>
      </trkpt>
      <trkpt lat="44.04093" lon="3.51021">
        <ele>1259</ele>
        <time>2019-02-01T14:55:10Z</time>
      </trkpt>
      <trkpt lat="44.04093" lon="3.51019">
        <ele>1259</ele>
        <time>2019-02-01T14:55:10Z</time>
      </trkpt>
      <trkpt lat="44.04093" lon="3.51019">
        <ele>1259</ele>
        <time>2019-02-01T14:55:10Z</time>
      </trkpt>
      <trkpt lat="44.04093" lon="3.51017">
        <ele>1259</ele>
        <time>2019-02-01T14:55:10Z</time>
      </trkpt>
      <trkpt lat="44.04094" lon="3.51018">
        <ele>1259</ele>
        <time>2019-02-01T14:56:06Z</time>
      </trkpt>
      <trkpt lat="44.04092" lon="3.51018">
        <ele>1259</ele>
        <time>2019-02-01T14:56:06Z</time>
      </trkpt>
      <trkpt lat="44.0409" lon="3.51019">
        <ele>1259</ele>
        <time>2019-02-01T14:56:06Z</time>
      </trkpt>
      <trkpt lat="44.04087" lon="3.51017">
        <ele>1259</ele>
        <time>2019-02-01T14:56:06Z</time>
      </trkpt>
      <trkpt lat="44.04085" lon="3.51013">
        <ele>1259</ele>
        <time>2019-02-01T14:56:06Z</time>
      </trkpt>
      <trkpt lat="44.04082" lon="3.51011">
        <ele>1259</ele>
        <time>2019-02-01T14:56:50Z</time>
      </trkpt>
      <trkpt lat="44.0408" lon="3.51009">
        <ele>1259</ele>
        <time>2019-02-01T14:56:50Z</time>
      </trkpt>
      <trkpt lat="44.04079" lon="3.51007">
        <ele>1259</ele>
        <time>2019-02-01T14:56:50Z</time>
      </trkpt>
      <trkpt lat="44.04076" lon="3.51005">
        <ele>1259</ele>
        <time>2019-02-01T14:56:50Z</time>
      </trkpt>
      <trkpt lat="44.04073" lon="3.51003">
        <ele>1259</ele>
        <time>2019-02-01T14:56:50Z</time>
      </trkpt>
      <trkpt lat="44.04071" lon="3.51">
        <ele>1259</ele>
        <time>2019-02-01T14:57:10Z</time>
      </trkpt>
      <trkpt lat="44.04068" lon="3.50999">
        <ele>1259</ele>
        <time>2019-02-01T14:57:10Z</time>
      </trkpt>
      <trkpt lat="44.04066" lon="3.50996">
        <ele>1259</ele>
        <time>2019-02-01T14:57:10Z</time>
      </trkpt>
      <trkpt lat="44.04065" lon="3.50994">
        <ele>1259</ele>
        <time>2019-02-01T14:57:10Z</time>
      </trkpt>
      <trkpt lat="44.04062" lon="3.50991">
        <ele>1259</ele>
        <time>2019-02-01T14:57:10Z</time>
      </trkpt>
      <trkpt lat="44.04058" lon="3.50991">
        <ele>1259</ele>
        <time>2019-02-01T14:59:42Z</time>
      </trkpt>
      <trkpt lat="44.0406" lon="3.50994">
        <ele>1259</ele>
        <time>2019-02-01T14:59:42Z</time>
      </trkpt>
      <trkpt lat="44.04063" lon="3.50998">
        <ele>1259</ele>
        <time>2019-02-01T14:59:42Z</time>
      </trkpt>
      <trkpt lat="44.04067" lon="3.51">
        <ele>1259</ele>
        <time>2019-02-01T14:59:42Z</time>
      </trkpt>
      <trkpt lat="44.0407" lon="3.51003">
        <ele>1259</ele>
        <time>2019-02-01T14:59:42Z</time>
      </trkpt>
      <trkpt lat="44.04073" lon="3.51007">
        <ele>1259</ele>
        <time>2019-02-01T14:59:58Z</time>
      </trkpt>
      <trkpt lat="44.04077" lon="3.51009">
        <ele>1259</ele>
        <time>2019-02-01T14:59:58Z</time>
      </trkpt>
      <trkpt lat="44.0408" lon="3.51011">
        <ele>1259</ele>
        <time>2019-02-01T14:59:58Z</time>
      </trkpt>
      <trkpt lat="44.04084" lon="3.51016">
        <ele>1259</ele>
        <time>2019-02-01T14:59:58Z</time>
      </trkpt>
      <trkpt lat="44.04086" lon="3.51019">
        <ele>1259</ele>
        <time>2019-02-01T15:00:18Z</time>
      </trkpt>
      <trkpt lat="44.0409" lon="3.51022">
        <ele>1259</ele>
        <time>2019-02-01T15:00:18Z</time>
      </trkpt>
      <trkpt lat="44.04093" lon="3.51023">
        <ele>1259</ele>
        <time>2019-02-01T15:00:18Z</time>
      </trkpt>
      <trkpt lat="44.04093" lon="3.51026">
        <ele>1259</ele>
        <time>2019-02-01T15:00:18Z</time>
      </trkpt>
      <trkpt lat="44.04096" lon="3.51029">
        <ele>1259</ele>
        <time>2019-02-01T15:00:18Z</time>
      </trkpt>
      <trkpt lat="44.04102" lon="3.51038">
        <ele>1259</ele>
        <time>2019-02-01T15:00:58Z</time>
      </trkpt>
      <trkpt lat="44.04104" lon="3.51035">
        <ele>1259</ele>
        <time>2019-02-01T15:00:58Z</time>
      </trkpt>
      <trkpt lat="44.04108" lon="3.51039">
        <ele>1259</ele>
        <time>2019-02-01T15:00:58Z</time>
      </trkpt>
      <trkpt lat="44.04112" lon="3.5104">
        <ele>1259</ele>
        <time>2019-02-01T15:00:58Z</time>
      </trkpt>
      <trkpt lat="44.04116" lon="3.51042">
        <ele>1260</ele>
        <time>2019-02-01T15:00:58Z</time>
      </trkpt>
      <trkpt lat="44.04119" lon="3.51043">
        <ele>1260</ele>
        <time>2019-02-01T15:01:14Z</time>
      </trkpt>
      <trkpt lat="44.04121" lon="3.51045">
        <ele>1260</ele>
        <time>2019-02-01T15:01:14Z</time>
      </trkpt>
      <trkpt lat="44.04125" lon="3.51049">
        <ele>1258</ele>
        <time>2019-02-01T15:01:14Z</time>
      </trkpt>
      <trkpt lat="44.04129" lon="3.51052">
        <ele>1258</ele>
        <time>2019-02-01T15:01:14Z</time>
      </trkpt>
      <trkpt lat="44.04134" lon="3.51055">
        <ele>1258</ele>
        <time>2019-02-01T15:02:10Z</time>
      </trkpt>
      <trkpt lat="44.04138" lon="3.51053">
        <ele>1258</ele>
        <time>2019-02-01T15:02:10Z</time>
      </trkpt>
      <trkpt lat="44.04138" lon="3.51053">
        <ele>1258</ele>
        <time>2019-02-01T15:02:10Z</time>
      </trkpt>
      <trkpt lat="44.0414" lon="3.51054">
        <ele>1258</ele>
        <time>2019-02-01T15:02:10Z</time>
      </trkpt>
      <trkpt lat="44.04146" lon="3.51057">
        <ele>1258</ele>
        <time>2019-02-01T15:02:10Z</time>
      </trkpt>
      <trkpt lat="44.04151" lon="3.51059">
        <ele>1258</ele>
        <time>2019-02-01T15:02:26Z</time>
      </trkpt>
      <trkpt lat="44.04156" lon="3.51058">
        <ele>1258</ele>
        <time>2019-02-01T15:02:26Z</time>
      </trkpt>
      <trkpt lat="44.0416" lon="3.51057">
        <ele>1258</ele>
        <time>2019-02-01T15:02:26Z</time>
      </trkpt>
      <trkpt lat="44.04162" lon="3.51058">
        <ele>1258</ele>
        <time>2019-02-01T15:02:26Z</time>
      </trkpt>
      <trkpt lat="44.04165" lon="3.51058">
        <ele>1258</ele>
        <time>2019-02-01T15:02:42Z</time>
      </trkpt>
      <trkpt lat="44.04168" lon="3.51057">
        <ele>1258</ele>
        <time>2019-02-01T15:02:42Z</time>
      </trkpt>
      <trkpt lat="44.04172" lon="3.51056">
        <ele>1258</ele>
        <time>2019-02-01T15:02:42Z</time>
      </trkpt>
      <trkpt lat="44.04174" lon="3.51054">
        <ele>1258</ele>
        <time>2019-02-01T15:02:42Z</time>
      </trkpt>
      <trkpt lat="44.04176" lon="3.51053">
        <ele>1258</ele>
        <time>2019-02-01T15:03:02Z</time>
      </trkpt>
      <trkpt lat="44.04179" lon="3.51053">
        <ele>1258</ele>
        <time>2019-02-01T15:03:02Z</time>
      </trkpt>
      <trkpt lat="44.04181" lon="3.51053">
        <ele>1258</ele>
        <time>2019-02-01T15:03:02Z</time>
      </trkpt>
      <trkpt lat="44.04183" lon="3.51054">
        <ele>1258</ele>
        <time>2019-02-01T15:03:02Z</time>
      </trkpt>
      <trkpt lat="44.04186" lon="3.51055">
        <ele>1258</ele>
        <time>2019-02-01T15:03:02Z</time>
      </trkpt>
      <trkpt lat="44.04188" lon="3.51056">
        <ele>1258</ele>
        <time>2019-02-01T15:03:22Z</time>
      </trkpt>
      <trkpt lat="44.04189" lon="3.51057">
        <ele>1258</ele>
        <time>2019-02-01T15:03:22Z</time>
      </trkpt>
      <trkpt lat="44.04191" lon="3.5106">
        <ele>1258</ele>
        <time>2019-02-01T15:03:22Z</time>
      </trkpt>
      <trkpt lat="44.04194" lon="3.51063">
        <ele>1258</ele>
        <time>2019-02-01T15:03:22Z</time>
      </trkpt>
      <trkpt lat="44.04196" lon="3.51067">
        <ele>1258</ele>
        <time>2019-02-01T15:03:22Z</time>
      </trkpt>
      <trkpt lat="44.04198" lon="3.51071">
        <ele>1258</ele>
        <time>2019-02-01T15:03:38Z</time>
      </trkpt>
      <trkpt lat="44.042" lon="3.51077">
        <ele>1258</ele>
        <time>2019-02-01T15:03:38Z</time>
      </trkpt>
      <trkpt lat="44.04203" lon="3.51081">
        <ele>1258</ele>
        <time>2019-02-01T15:03:38Z</time>
      </trkpt>
      <trkpt lat="44.04206" lon="3.51084">
        <ele>1258</ele>
        <time>2019-02-01T15:03:38Z</time>
      </trkpt>
      <trkpt lat="44.04209" lon="3.51088">
        <ele>1263</ele>
        <time>2019-02-01T15:03:54Z</time>
      </trkpt>
      <trkpt lat="44.04212" lon="3.51092">
        <ele>1263</ele>
        <time>2019-02-01T15:03:54Z</time>
      </trkpt>
      <trkpt lat="44.04216" lon="3.51096">
        <ele>1263</ele>
        <time>2019-02-01T15:03:54Z</time>
      </trkpt>
      <trkpt lat="44.04219" lon="3.51102">
        <ele>1263</ele>
        <time>2019-02-01T15:03:54Z</time>
      </trkpt>
      <trkpt lat="44.04222" lon="3.51106">
        <ele>1263</ele>
        <time>2019-02-01T15:04:10Z</time>
      </trkpt>
      <trkpt lat="44.04224" lon="3.51111">
        <ele>1263</ele>
        <time>2019-02-01T15:04:10Z</time>
      </trkpt>
      <trkpt lat="44.04227" lon="3.51115">
        <ele>1263</ele>
        <time>2019-02-01T15:04:10Z</time>
      </trkpt>
      <trkpt lat="44.04229" lon="3.51121">
        <ele>1263</ele>
        <time>2019-02-01T15:04:10Z</time>
      </trkpt>
      <trkpt lat="44.04233" lon="3.51127">
        <ele>1258</ele>
        <time>2019-02-01T15:04:26Z</time>
      </trkpt>
      <trkpt lat="44.04235" lon="3.5113">
        <ele>1258</ele>
        <time>2019-02-01T15:04:26Z</time>
      </trkpt>
      <trkpt lat="44.04237" lon="3.51134">
        <ele>1258</ele>
        <time>2019-02-01T15:04:26Z</time>
      </trkpt>
      <trkpt lat="44.04239" lon="3.51139">
        <ele>1258</ele>
        <time>2019-02-01T15:04:26Z</time>
      </trkpt>
      <trkpt lat="44.0424" lon="3.51143">
        <ele>1258</ele>
        <time>2019-02-01T15:04:42Z</time>
      </trkpt>
      <trkpt lat="44.04243" lon="3.51148">
        <ele>1258</ele>
        <time>2019-02-01T15:04:42Z</time>
      </trkpt>
      <trkpt lat="44.04243" lon="3.5115">
        <ele>1258</ele>
        <time>2019-02-01T15:04:42Z</time>
      </trkpt>
      <trkpt lat="44.04246" lon="3.51154">
        <ele>1258</ele>
        <time>2019-02-01T15:04:42Z</time>
      </trkpt>
      <trkpt lat="44.0425" lon="3.51161">
        <ele>1258</ele>
        <time>2019-02-01T15:04:58Z</time>
      </trkpt>
      <trkpt lat="44.04252" lon="3.51167">
        <ele>1258</ele>
        <time>2019-02-01T15:04:58Z</time>
      </trkpt>
      <trkpt lat="44.04255" lon="3.51172">
        <ele>1258</ele>
        <time>2019-02-01T15:04:58Z</time>
      </trkpt>
      <trkpt lat="44.04258" lon="3.51177">
        <ele>1258</ele>
        <time>2019-02-01T15:04:58Z</time>
      </trkpt>
      <trkpt lat="44.0426" lon="3.51182">
        <ele>1258</ele>
        <time>2019-02-01T15:05:18Z</time>
      </trkpt>
      <trkpt lat="44.04262" lon="3.51186">
        <ele>1258</ele>
        <time>2019-02-01T15:05:18Z</time>
      </trkpt>
      <trkpt lat="44.04265" lon="3.51187">
        <ele>1258</ele>
        <time>2019-02-01T15:05:18Z</time>
      </trkpt>
      <trkpt lat="44.04268" lon="3.51189">
        <ele>1258</ele>
        <time>2019-02-01T15:05:18Z</time>
      </trkpt>
      <trkpt lat="44.04271" lon="3.51191">
        <ele>1258</ele>
        <time>2019-02-01T15:05:18Z</time>
      </trkpt>
      <trkpt lat="44.04272" lon="3.51194">
        <ele>1258</ele>
        <time>2019-02-01T15:05:38Z</time>
      </trkpt>
      <trkpt lat="44.04273" lon="3.51198">
        <ele>1258</ele>
        <time>2019-02-01T15:05:38Z</time>
      </trkpt>
      <trkpt lat="44.04275" lon="3.51199">
        <ele>1258</ele>
        <time>2019-02-01T15:05:38Z</time>
      </trkpt>
      <trkpt lat="44.04277" lon="3.51201">
        <ele>1258</ele>
        <time>2019-02-01T15:05:38Z</time>
      </trkpt>
      <trkpt lat="44.04282" lon="3.51206">
        <ele>1258</ele>
        <time>2019-02-01T15:05:38Z</time>
      </trkpt>
      <trkpt lat="44.04287" lon="3.51212">
        <ele>1249</ele>
        <time>2019-02-01T15:05:54Z</time>
      </trkpt>
      <trkpt lat="44.04292" lon="3.51215">
        <ele>1257</ele>
        <time>2019-02-01T15:05:54Z</time>
      </trkpt>
      <trkpt lat="44.04296" lon="3.51219">
        <ele>1257</ele>
        <time>2019-02-01T15:05:54Z</time>
      </trkpt>
      <trkpt lat="44.043" lon="3.51224">
        <ele>1257</ele>
        <time>2019-02-01T15:05:54Z</time>
      </trkpt>
      <trkpt lat="44.04303" lon="3.51228">
        <ele>1257</ele>
        <time>2019-02-01T15:06:14Z</time>
      </trkpt>
      <trkpt lat="44.04306" lon="3.51232">
        <ele>1257</ele>
        <time>2019-02-01T15:06:14Z</time>
      </trkpt>
      <trkpt lat="44.04307" lon="3.51236">
        <ele>1257</ele>
        <time>2019-02-01T15:06:14Z</time>
      </trkpt>
      <trkpt lat="44.0431" lon="3.51239">
        <ele>1257</ele>
        <time>2019-02-01T15:06:14Z</time>
      </trkpt>
      <trkpt lat="44.04312" lon="3.51242">
        <ele>1257</ele>
        <time>2019-02-01T15:06:30Z</time>
      </trkpt>
      <trkpt lat="44.04315" lon="3.51244">
        <ele>1257</ele>
        <time>2019-02-01T15:06:30Z</time>
      </trkpt>
      <trkpt lat="44.04317" lon="3.51249">
        <ele>1257</ele>
        <time>2019-02-01T15:06:30Z</time>
      </trkpt>
      <trkpt lat="44.04319" lon="3.51253">
        <ele>1257</ele>
        <time>2019-02-01T15:06:30Z</time>
      </trkpt>
      <trkpt lat="44.0432" lon="3.51258">
        <ele>1257</ele>
        <time>2019-02-01T15:06:46Z</time>
      </trkpt>
      <trkpt lat="44.04323" lon="3.51263">
        <ele>1257</ele>
        <time>2019-02-01T15:06:46Z</time>
      </trkpt>
      <trkpt lat="44.04323" lon="3.51265">
        <ele>1257</ele>
        <time>2019-02-01T15:06:46Z</time>
      </trkpt>
      <trkpt lat="44.04325" lon="3.51268">
        <ele>1257</ele>
        <time>2019-02-01T15:06:46Z</time>
      </trkpt>
      <trkpt lat="44.04325" lon="3.5127">
        <ele>1257</ele>
        <time>2019-02-01T15:07:02Z</time>
      </trkpt>
      <trkpt lat="44.04325" lon="3.51277">
        <ele>1257</ele>
        <time>2019-02-01T15:07:02Z</time>
      </trkpt>
      <trkpt lat="44.04324" lon="3.51286">
        <ele>1257</ele>
        <time>2019-02-01T15:07:02Z</time>
      </trkpt>
      <trkpt lat="44.04325" lon="3.51293">
        <ele>1248</ele>
        <time>2019-02-01T15:07:02Z</time>
      </trkpt>
      <trkpt lat="44.04326" lon="3.51298">
        <ele>1248</ele>
        <time>2019-02-01T15:07:18Z</time>
      </trkpt>
      <trkpt lat="44.04324" lon="3.51303">
        <ele>1248</ele>
        <time>2019-02-01T15:07:18Z</time>
      </trkpt>
      <trkpt lat="44.04322" lon="3.51308">
        <ele>1248</ele>
        <time>2019-02-01T15:07:18Z</time>
      </trkpt>
      <trkpt lat="44.04321" lon="3.51313">
        <ele>1248</ele>
        <time>2019-02-01T15:07:18Z</time>
      </trkpt>
      <trkpt lat="44.04321" lon="3.51314">
        <ele>1248</ele>
        <time>2019-02-01T15:07:34Z</time>
      </trkpt>
      <trkpt lat="44.04322" lon="3.51319">
        <ele>1248</ele>
        <time>2019-02-01T15:07:34Z</time>
      </trkpt>
      <trkpt lat="44.04322" lon="3.51325">
        <ele>1248</ele>
        <time>2019-02-01T15:07:34Z</time>
      </trkpt>
      <trkpt lat="44.04322" lon="3.51332">
        <ele>1248</ele>
        <time>2019-02-01T15:07:34Z</time>
      </trkpt>
      <trkpt lat="44.04323" lon="3.51338">
        <ele>1248</ele>
        <time>2019-02-01T15:07:54Z</time>
      </trkpt>
      <trkpt lat="44.04324" lon="3.51343">
        <ele>1248</ele>
        <time>2019-02-01T15:07:54Z</time>
      </trkpt>
      <trkpt lat="44.04325" lon="3.51346">
        <ele>1248</ele>
        <time>2019-02-01T15:07:54Z</time>
      </trkpt>
      <trkpt lat="44.04326" lon="3.51349">
        <ele>1248</ele>
        <time>2019-02-01T15:07:54Z</time>
      </trkpt>
      <trkpt lat="44.04328" lon="3.51354">
        <ele>1248</ele>
        <time>2019-02-01T15:07:54Z</time>
      </trkpt>
      <trkpt lat="44.04329" lon="3.51358">
        <ele>1248</ele>
        <time>2019-02-01T15:08:10Z</time>
      </trkpt>
      <trkpt lat="44.04332" lon="3.51364">
        <ele>1248</ele>
        <time>2019-02-01T15:08:10Z</time>
      </trkpt>
      <trkpt lat="44.04334" lon="3.5137">
        <ele>1248</ele>
        <time>2019-02-01T15:08:10Z</time>
      </trkpt>
      <trkpt lat="44.04335" lon="3.51374">
        <ele>1248</ele>
        <time>2019-02-01T15:08:10Z</time>
      </trkpt>
      <trkpt lat="44.04336" lon="3.51379">
        <ele>1240</ele>
        <time>2019-02-01T15:08:26Z</time>
      </trkpt>
      <trkpt lat="44.04338" lon="3.51384">
        <ele>1240</ele>
        <time>2019-02-01T15:08:26Z</time>
      </trkpt>
      <trkpt lat="44.0434" lon="3.51388">
        <ele>1240</ele>
        <time>2019-02-01T15:08:26Z</time>
      </trkpt>
      <trkpt lat="44.04341" lon="3.51392">
        <ele>1240</ele>
        <time>2019-02-01T15:08:26Z</time>
      </trkpt>
      <trkpt lat="44.04344" lon="3.51397">
        <ele>1240</ele>
        <time>2019-02-01T15:08:42Z</time>
      </trkpt>
      <trkpt lat="44.04344" lon="3.51403">
        <ele>1240</ele>
        <time>2019-02-01T15:08:42Z</time>
      </trkpt>
      <trkpt lat="44.04344" lon="3.51407">
        <ele>1240</ele>
        <time>2019-02-01T15:08:42Z</time>
      </trkpt>
      <trkpt lat="44.04345" lon="3.51411">
        <ele>1240</ele>
        <time>2019-02-01T15:08:42Z</time>
      </trkpt>
      <trkpt lat="44.04345" lon="3.51417">
        <ele>1240</ele>
        <time>2019-02-01T15:08:58Z</time>
      </trkpt>
      <trkpt lat="44.04345" lon="3.51422">
        <ele>1240</ele>
        <time>2019-02-01T15:08:58Z</time>
      </trkpt>
      <trkpt lat="44.04345" lon="3.51426">
        <ele>1240</ele>
        <time>2019-02-01T15:08:58Z</time>
      </trkpt>
      <trkpt lat="44.04348" lon="3.51432">
        <ele>1240</ele>
        <time>2019-02-01T15:08:58Z</time>
      </trkpt>
      <trkpt lat="44.04348" lon="3.51433">
        <ele>1240</ele>
        <time>2019-02-01T15:09:14Z</time>
      </trkpt>
      <trkpt lat="44.0435" lon="3.51437">
        <ele>1240</ele>
        <time>2019-02-01T15:09:14Z</time>
      </trkpt>
      <trkpt lat="44.04353" lon="3.51441">
        <ele>1240</ele>
        <time>2019-02-01T15:09:14Z</time>
      </trkpt>
      <trkpt lat="44.04355" lon="3.51443">
        <ele>1240</ele>
        <time>2019-02-01T15:09:14Z</time>
      </trkpt>
      <trkpt lat="44.04358" lon="3.51446">
        <ele>1240</ele>
        <time>2019-02-01T15:09:30Z</time>
      </trkpt>
      <trkpt lat="44.0436" lon="3.51451">
        <ele>1240</ele>
        <time>2019-02-01T15:09:30Z</time>
      </trkpt>
      <trkpt lat="44.04363" lon="3.51456">
        <ele>1240</ele>
        <time>2019-02-01T15:09:30Z</time>
      </trkpt>
      <trkpt lat="44.04365" lon="3.51458">
        <ele>1240</ele>
        <time>2019-02-01T15:09:30Z</time>
      </trkpt>
      <trkpt lat="44.04369" lon="3.51461">
        <ele>1236</ele>
        <time>2019-02-01T15:09:46Z</time>
      </trkpt>
      <trkpt lat="44.04373" lon="3.5146">
        <ele>1236</ele>
        <time>2019-02-01T15:09:46Z</time>
      </trkpt>
      <trkpt lat="44.04377" lon="3.51459">
        <ele>1242</ele>
        <time>2019-02-01T15:09:46Z</time>
      </trkpt>
      <trkpt lat="44.04384" lon="3.51458">
        <ele>1247</ele>
        <time>2019-02-01T15:09:46Z</time>
      </trkpt>
      <trkpt lat="44.04391" lon="3.51456">
        <ele>1247</ele>
        <time>2019-02-01T15:10:02Z</time>
      </trkpt>
      <trkpt lat="44.04396" lon="3.51453">
        <ele>1247</ele>
        <time>2019-02-01T15:10:02Z</time>
      </trkpt>
      <trkpt lat="44.04399" lon="3.51454">
        <ele>1247</ele>
        <time>2019-02-01T15:10:02Z</time>
      </trkpt>
      <trkpt lat="44.04401" lon="3.51455">
        <ele>1247</ele>
        <time>2019-02-01T15:10:02Z</time>
      </trkpt>
      <trkpt lat="44.04405" lon="3.51459">
        <ele>1242</ele>
        <time>2019-02-01T15:10:18Z</time>
      </trkpt>
      <trkpt lat="44.04408" lon="3.5146">
        <ele>1242</ele>
        <time>2019-02-01T15:10:18Z</time>
      </trkpt>
      <trkpt lat="44.04411" lon="3.51461">
        <ele>1242</ele>
        <time>2019-02-01T15:10:18Z</time>
      </trkpt>
      <trkpt lat="44.04414" lon="3.51461">
        <ele>1242</ele>
        <time>2019-02-01T15:10:18Z</time>
      </trkpt>
      <trkpt lat="44.0442" lon="3.51462">
        <ele>1242</ele>
        <time>2019-02-01T15:10:46Z</time>
      </trkpt>
      <trkpt lat="44.0442" lon="3.51462">
        <ele>1242</ele>
        <time>2019-02-01T15:10:46Z</time>
      </trkpt>
      <trkpt lat="44.04422" lon="3.51464">
        <ele>1242</ele>
        <time>2019-02-01T15:10:46Z</time>
      </trkpt>
      <trkpt lat="44.04423" lon="3.51467">
        <ele>1242</ele>
        <time>2019-02-01T15:10:46Z</time>
      </trkpt>
      <trkpt lat="44.04425" lon="3.51472">
        <ele>1242</ele>
        <time>2019-02-01T15:10:46Z</time>
      </trkpt>
      <trkpt lat="44.04426" lon="3.51473">
        <ele>1242</ele>
        <time>2019-02-01T15:11:02Z</time>
      </trkpt>
      <trkpt lat="44.04428" lon="3.51477">
        <ele>1242</ele>
        <time>2019-02-01T15:11:02Z</time>
      </trkpt>
      <trkpt lat="44.0443" lon="3.5148">
        <ele>1242</ele>
        <time>2019-02-01T15:11:02Z</time>
      </trkpt>
      <trkpt lat="44.04432" lon="3.51484">
        <ele>1242</ele>
        <time>2019-02-01T15:11:02Z</time>
      </trkpt>
      <trkpt lat="44.04433" lon="3.51488">
        <ele>1242</ele>
        <time>2019-02-01T15:11:18Z</time>
      </trkpt>
      <trkpt lat="44.04435" lon="3.51491">
        <ele>1242</ele>
        <time>2019-02-01T15:11:18Z</time>
      </trkpt>
      <trkpt lat="44.04438" lon="3.51495">
        <ele>1242</ele>
        <time>2019-02-01T15:11:18Z</time>
      </trkpt>
      <trkpt lat="44.0444" lon="3.515">
        <ele>1242</ele>
        <time>2019-02-01T15:11:18Z</time>
      </trkpt>
      <trkpt lat="44.04442" lon="3.51505">
        <ele>1242</ele>
        <time>2019-02-01T15:11:34Z</time>
      </trkpt>
      <trkpt lat="44.04445" lon="3.5151">
        <ele>1242</ele>
        <time>2019-02-01T15:11:34Z</time>
      </trkpt>
      <trkpt lat="44.04447" lon="3.51515">
        <ele>1242</ele>
        <time>2019-02-01T15:11:34Z</time>
      </trkpt>
      <trkpt lat="44.04448" lon="3.51518">
        <ele>1242</ele>
        <time>2019-02-01T15:11:34Z</time>
      </trkpt>
      <trkpt lat="44.04449" lon="3.51521">
        <ele>1242</ele>
        <time>2019-02-01T15:11:50Z</time>
      </trkpt>
      <trkpt lat="44.04451" lon="3.51528">
        <ele>1242</ele>
        <time>2019-02-01T15:11:50Z</time>
      </trkpt>
      <trkpt lat="44.04451" lon="3.51535">
        <ele>1242</ele>
        <time>2019-02-01T15:11:50Z</time>
      </trkpt>
      <trkpt lat="44.04454" lon="3.51541">
        <ele>1242</ele>
        <time>2019-02-01T15:11:50Z</time>
      </trkpt>
      <trkpt lat="44.04458" lon="3.51545">
        <ele>1239</ele>
        <time>2019-02-01T15:12:06Z</time>
      </trkpt>
      <trkpt lat="44.04461" lon="3.51548">
        <ele>1244</ele>
        <time>2019-02-01T15:12:06Z</time>
      </trkpt>
      <trkpt lat="44.04464" lon="3.51551">
        <ele>1244</ele>
        <time>2019-02-01T15:12:06Z</time>
      </trkpt>
      <trkpt lat="44.04465" lon="3.51553">
        <ele>1244</ele>
        <time>2019-02-01T15:12:06Z</time>
      </trkpt>
      <trkpt lat="44.04467" lon="3.51557">
        <ele>1244</ele>
        <time>2019-02-01T15:12:22Z</time>
      </trkpt>
      <trkpt lat="44.04467" lon="3.5156">
        <ele>1244</ele>
        <time>2019-02-01T15:12:22Z</time>
      </trkpt>
      <trkpt lat="44.04469" lon="3.51565">
        <ele>1244</ele>
        <time>2019-02-01T15:12:22Z</time>
      </trkpt>
      <trkpt lat="44.0447" lon="3.51569">
        <ele>1244</ele>
        <time>2019-02-01T15:12:22Z</time>
      </trkpt>
      <trkpt lat="44.04471" lon="3.51571">
        <ele>1244</ele>
        <time>2019-02-01T15:12:50Z</time>
      </trkpt>
      <trkpt lat="44.04472" lon="3.51574">
        <ele>1244</ele>
        <time>2019-02-01T15:12:50Z</time>
      </trkpt>
      <trkpt lat="44.04475" lon="3.51579">
        <ele>1244</ele>
        <time>2019-02-01T15:12:50Z</time>
      </trkpt>
      <trkpt lat="44.04475" lon="3.51579">
        <ele>1244</ele>
        <time>2019-02-01T15:12:50Z</time>
      </trkpt>
      <trkpt lat="44.04475" lon="3.51585">
        <ele>1244</ele>
        <time>2019-02-01T15:12:50Z</time>
      </trkpt>
      <trkpt lat="44.04477" lon="3.51587">
        <ele>1244</ele>
        <time>2019-02-01T15:13:06Z</time>
      </trkpt>
      <trkpt lat="44.0448" lon="3.51591">
        <ele>1244</ele>
        <time>2019-02-01T15:13:06Z</time>
      </trkpt>
      <trkpt lat="44.04483" lon="3.51595">
        <ele>1244</ele>
        <time>2019-02-01T15:13:06Z</time>
      </trkpt>
      <trkpt lat="44.04487" lon="3.51597">
        <ele>1244</ele>
        <time>2019-02-01T15:13:06Z</time>
      </trkpt>
      <trkpt lat="44.04492" lon="3.51602">
        <ele>1244</ele>
        <time>2019-02-01T15:13:26Z</time>
      </trkpt>
      <trkpt lat="44.04502" lon="3.51607">
        <ele>1244</ele>
        <time>2019-02-01T15:13:26Z</time>
      </trkpt>
      <trkpt lat="44.04508" lon="3.51612">
        <ele>1244</ele>
        <time>2019-02-01T15:13:26Z</time>
      </trkpt>
      <trkpt lat="44.04509" lon="3.51613">
        <ele>1244</ele>
        <time>2019-02-01T15:13:26Z</time>
      </trkpt>
      <trkpt lat="44.04511" lon="3.51613">
        <ele>1244</ele>
        <time>2019-02-01T15:13:42Z</time>
      </trkpt>
      <trkpt lat="44.04515" lon="3.51614">
        <ele>1244</ele>
        <time>2019-02-01T15:13:42Z</time>
      </trkpt>
      <trkpt lat="44.0452" lon="3.51614">
        <ele>1244</ele>
        <time>2019-02-01T15:13:42Z</time>
      </trkpt>
      <trkpt lat="44.04523" lon="3.51615">
        <ele>1244</ele>
        <time>2019-02-01T15:13:42Z</time>
      </trkpt>
      <trkpt lat="44.04527" lon="3.51615">
        <ele>1244</ele>
        <time>2019-02-01T15:14:10Z</time>
      </trkpt>
      <trkpt lat="44.04531" lon="3.51615">
        <ele>1244</ele>
        <time>2019-02-01T15:14:10Z</time>
      </trkpt>
      <trkpt lat="44.04535" lon="3.51614">
        <ele>1244</ele>
        <time>2019-02-01T15:14:10Z</time>
      </trkpt>
      <trkpt lat="44.04551" lon="3.51611">
        <ele>1247</ele>
        <time>2019-02-01T15:14:10Z</time>
      </trkpt>
      <trkpt lat="44.04561" lon="3.51612">
        <ele>1247</ele>
        <time>2019-02-01T15:14:26Z</time>
      </trkpt>
      <trkpt lat="44.04564" lon="3.51613">
        <ele>1247</ele>
        <time>2019-02-01T15:14:26Z</time>
      </trkpt>
      <trkpt lat="44.04567" lon="3.51613">
        <ele>1247</ele>
        <time>2019-02-01T15:14:26Z</time>
      </trkpt>
      <trkpt lat="44.04571" lon="3.51612">
        <ele>1247</ele>
        <time>2019-02-01T15:14:26Z</time>
      </trkpt>
      <trkpt lat="44.04574" lon="3.51609">
        <ele>1247</ele>
        <time>2019-02-01T15:14:46Z</time>
      </trkpt>
      <trkpt lat="44.04575" lon="3.51609">
        <ele>1247</ele>
        <time>2019-02-01T15:14:46Z</time>
      </trkpt>
      <trkpt lat="44.04578" lon="3.51608">
        <ele>1247</ele>
        <time>2019-02-01T15:14:46Z</time>
      </trkpt>
      <trkpt lat="44.04579" lon="3.51607">
        <ele>1247</ele>
        <time>2019-02-01T15:14:46Z</time>
      </trkpt>
      <trkpt lat="44.04587" lon="3.51603">
        <ele>1247</ele>
        <time>2019-02-01T15:14:46Z</time>
      </trkpt>
      <trkpt lat="44.04595" lon="3.51598">
        <ele>1247</ele>
        <time>2019-02-01T15:15:06Z</time>
      </trkpt>
      <trkpt lat="44.04597" lon="3.51597">
        <ele>1247</ele>
        <time>2019-02-01T15:15:06Z</time>
      </trkpt>
      <trkpt lat="44.04599" lon="3.51595">
        <ele>1247</ele>
        <time>2019-02-01T15:15:06Z</time>
      </trkpt>
      <trkpt lat="44.04602" lon="3.51593">
        <ele>1247</ele>
        <time>2019-02-01T15:15:06Z</time>
      </trkpt>
      <trkpt lat="44.04605" lon="3.5159">
        <ele>1247</ele>
        <time>2019-02-01T15:15:06Z</time>
      </trkpt>
      <trkpt lat="44.04609" lon="3.51587">
        <ele>1247</ele>
        <time>2019-02-01T15:15:22Z</time>
      </trkpt>
      <trkpt lat="44.04613" lon="3.51582">
        <ele>1247</ele>
        <time>2019-02-01T15:15:22Z</time>
      </trkpt>
      <trkpt lat="44.04614" lon="3.51579">
        <ele>1247</ele>
        <time>2019-02-01T15:15:22Z</time>
      </trkpt>
      <trkpt lat="44.04618" lon="3.51574">
        <ele>1247</ele>
        <time>2019-02-01T15:15:22Z</time>
      </trkpt>
      <trkpt lat="44.04622" lon="3.51567">
        <ele>1247</ele>
        <time>2019-02-01T15:15:38Z</time>
      </trkpt>
      <trkpt lat="44.04625" lon="3.51561">
        <ele>1247</ele>
        <time>2019-02-01T15:15:38Z</time>
      </trkpt>
      <trkpt lat="44.04628" lon="3.51556">
        <ele>1243</ele>
        <time>2019-02-01T15:15:38Z</time>
      </trkpt>
      <trkpt lat="44.04631" lon="3.51552">
        <ele>1243</ele>
        <time>2019-02-01T15:15:38Z</time>
      </trkpt>
      <trkpt lat="44.04638" lon="3.51548">
        <ele>1243</ele>
        <time>2019-02-01T15:16:02Z</time>
      </trkpt>
      <trkpt lat="44.04638" lon="3.51548">
        <ele>1243</ele>
        <time>2019-02-01T15:16:02Z</time>
      </trkpt>
      <trkpt lat="44.04642" lon="3.51547">
        <ele>1243</ele>
        <time>2019-02-01T15:16:02Z</time>
      </trkpt>
      <trkpt lat="44.04643" lon="3.51547">
        <ele>1243</ele>
        <time>2019-02-01T15:16:02Z</time>
      </trkpt>
      <trkpt lat="44.04646" lon="3.51545">
        <ele>1243</ele>
        <time>2019-02-01T15:16:02Z</time>
      </trkpt>
      <trkpt lat="44.0465" lon="3.51542">
        <ele>1249</ele>
        <time>2019-02-01T15:16:30Z</time>
      </trkpt>
      <trkpt lat="44.04653" lon="3.5154">
        <ele>1249</ele>
        <time>2019-02-01T15:16:30Z</time>
      </trkpt>
      <trkpt lat="44.04656" lon="3.51539">
        <ele>1249</ele>
        <time>2019-02-01T15:16:30Z</time>
      </trkpt>
      <trkpt lat="44.04663" lon="3.51537">
        <ele>1249</ele>
        <time>2019-02-01T15:16:30Z</time>
      </trkpt>
      <trkpt lat="44.04667" lon="3.51537">
        <ele>1249</ele>
        <time>2019-02-01T15:16:46Z</time>
      </trkpt>
      <trkpt lat="44.04671" lon="3.51537">
        <ele>1249</ele>
        <time>2019-02-01T15:16:46Z</time>
      </trkpt>
      <trkpt lat="44.04674" lon="3.51536">
        <ele>1249</ele>
        <time>2019-02-01T15:16:46Z</time>
      </trkpt>
      <trkpt lat="44.04679" lon="3.51537">
        <ele>1249</ele>
        <time>2019-02-01T15:16:46Z</time>
      </trkpt>
      <trkpt lat="44.04679" lon="3.51537">
        <ele>1249</ele>
        <time>2019-02-01T15:17:06Z</time>
      </trkpt>
      <trkpt lat="44.04682" lon="3.51537">
        <ele>1249</ele>
        <time>2019-02-01T15:17:06Z</time>
      </trkpt>
      <trkpt lat="44.04684" lon="3.51536">
        <ele>1249</ele>
        <time>2019-02-01T15:17:06Z</time>
      </trkpt>
      <trkpt lat="44.04694" lon="3.51536">
        <ele>1249</ele>
        <time>2019-02-01T15:17:06Z</time>
      </trkpt>
      <trkpt lat="44.04704" lon="3.51537">
        <ele>1249</ele>
        <time>2019-02-01T15:17:26Z</time>
      </trkpt>
      <trkpt lat="44.04709" lon="3.51539">
        <ele>1245</ele>
        <time>2019-02-01T15:17:26Z</time>
      </trkpt>
      <trkpt lat="44.04715" lon="3.51539">
        <ele>1245</ele>
        <time>2019-02-01T15:17:26Z</time>
      </trkpt>
      <trkpt lat="44.04715" lon="3.51539">
        <ele>1245</ele>
        <time>2019-02-01T15:17:26Z</time>
      </trkpt>
      <trkpt lat="44.04722" lon="3.5154">
        <ele>1245</ele>
        <time>2019-02-01T15:17:54Z</time>
      </trkpt>
      <trkpt lat="44.04733" lon="3.51542">
        <ele>1237</ele>
        <time>2019-02-01T15:17:54Z</time>
      </trkpt>
      <trkpt lat="44.0474" lon="3.51543">
        <ele>1237</ele>
        <time>2019-02-01T15:17:54Z</time>
      </trkpt>
      <trkpt lat="44.04745" lon="3.51543">
        <ele>1237</ele>
        <time>2019-02-01T15:17:54Z</time>
      </trkpt>
      <trkpt lat="44.04751" lon="3.51544">
        <ele>1237</ele>
        <time>2019-02-01T15:18:10Z</time>
      </trkpt>
      <trkpt lat="44.04756" lon="3.51545">
        <ele>1237</ele>
        <time>2019-02-01T15:18:10Z</time>
      </trkpt>
      <trkpt lat="44.04759" lon="3.51546">
        <ele>1237</ele>
        <time>2019-02-01T15:18:10Z</time>
      </trkpt>
      <trkpt lat="44.04762" lon="3.51546">
        <ele>1237</ele>
        <time>2019-02-01T15:18:10Z</time>
      </trkpt>
      <trkpt lat="44.04767" lon="3.51548">
        <ele>1237</ele>
        <time>2019-02-01T15:18:26Z</time>
      </trkpt>
      <trkpt lat="44.04772" lon="3.51549">
        <ele>1237</ele>
        <time>2019-02-01T15:18:26Z</time>
      </trkpt>
      <trkpt lat="44.04777" lon="3.51549">
        <ele>1237</ele>
        <time>2019-02-01T15:18:26Z</time>
      </trkpt>
      <trkpt lat="44.04781" lon="3.51549">
        <ele>1237</ele>
        <time>2019-02-01T15:18:26Z</time>
      </trkpt>
      <trkpt lat="44.04786" lon="3.51549">
        <ele>1237</ele>
        <time>2019-02-01T15:18:46Z</time>
      </trkpt>
      <trkpt lat="44.04787" lon="3.51549">
        <ele>1237</ele>
        <time>2019-02-01T15:18:46Z</time>
      </trkpt>
      <trkpt lat="44.0479" lon="3.51547">
        <ele>1237</ele>
        <time>2019-02-01T15:18:46Z</time>
      </trkpt>
      <trkpt lat="44.04793" lon="3.51546">
        <ele>1231</ele>
        <time>2019-02-01T15:18:46Z</time>
      </trkpt>
      <trkpt lat="44.04796" lon="3.51543">
        <ele>1231</ele>
        <time>2019-02-01T15:18:46Z</time>
      </trkpt>
      <trkpt lat="44.04801" lon="3.5154">
        <ele>1242</ele>
        <time>2019-02-01T15:19:02Z</time>
      </trkpt>
      <trkpt lat="44.04805" lon="3.51536">
        <ele>1242</ele>
        <time>2019-02-01T15:19:02Z</time>
      </trkpt>
      <trkpt lat="44.0481" lon="3.51533">
        <ele>1242</ele>
        <time>2019-02-01T15:19:02Z</time>
      </trkpt>
      <trkpt lat="44.04812" lon="3.51532">
        <ele>1242</ele>
        <time>2019-02-01T15:19:02Z</time>
      </trkpt>
      <trkpt lat="44.04813" lon="3.51531">
        <ele>1242</ele>
        <time>2019-02-01T15:19:22Z</time>
      </trkpt>
      <trkpt lat="44.04821" lon="3.51528">
        <ele>1242</ele>
        <time>2019-02-01T15:19:22Z</time>
      </trkpt>
      <trkpt lat="44.04823" lon="3.51528">
        <ele>1242</ele>
        <time>2019-02-01T15:19:22Z</time>
      </trkpt>
      <trkpt lat="44.04831" lon="3.51528">
        <ele>1242</ele>
        <time>2019-02-01T15:19:22Z</time>
      </trkpt>
      <trkpt lat="44.04833" lon="3.51528">
        <ele>1242</ele>
        <time>2019-02-01T15:19:38Z</time>
      </trkpt>
      <trkpt lat="44.04836" lon="3.51528">
        <ele>1242</ele>
        <time>2019-02-01T15:19:38Z</time>
      </trkpt>
      <trkpt lat="44.04849" lon="3.51529">
        <ele>1242</ele>
        <time>2019-02-01T15:19:38Z</time>
      </trkpt>
      <trkpt lat="44.04854" lon="3.5153">
        <ele>1242</ele>
        <time>2019-02-01T15:19:38Z</time>
      </trkpt>
      <trkpt lat="44.0486" lon="3.51532">
        <ele>1242</ele>
        <time>2019-02-01T15:19:54Z</time>
      </trkpt>
      <trkpt lat="44.04863" lon="3.51534">
        <ele>1242</ele>
        <time>2019-02-01T15:19:54Z</time>
      </trkpt>
      <trkpt lat="44.04865" lon="3.51537">
        <ele>1242</ele>
        <time>2019-02-01T15:19:54Z</time>
      </trkpt>
      <trkpt lat="44.04868" lon="3.51538">
        <ele>1242</ele>
        <time>2019-02-01T15:19:54Z</time>
      </trkpt>
      <trkpt lat="44.0487" lon="3.51536">
        <ele>1242</ele>
        <time>2019-02-01T15:20:14Z</time>
      </trkpt>
      <trkpt lat="44.04872" lon="3.51537">
        <ele>1242</ele>
        <time>2019-02-01T15:20:14Z</time>
      </trkpt>
      <trkpt lat="44.04874" lon="3.51535">
        <ele>1242</ele>
        <time>2019-02-01T15:20:14Z</time>
      </trkpt>
      <trkpt lat="44.04877" lon="3.51535">
        <ele>1245</ele>
        <time>2019-02-01T15:20:14Z</time>
      </trkpt>
      <trkpt lat="44.04879" lon="3.51535">
        <ele>1245</ele>
        <time>2019-02-01T15:20:14Z</time>
      </trkpt>
      <trkpt lat="44.04883" lon="3.51537">
        <ele>1245</ele>
        <time>2019-02-01T15:20:30Z</time>
      </trkpt>
      <trkpt lat="44.04886" lon="3.51539">
        <ele>1245</ele>
        <time>2019-02-01T15:20:30Z</time>
      </trkpt>
      <trkpt lat="44.04888" lon="3.51542">
        <ele>1233</ele>
        <time>2019-02-01T15:20:30Z</time>
      </trkpt>
      <trkpt lat="44.0489" lon="3.51545">
        <ele>1233</ele>
        <time>2019-02-01T15:20:30Z</time>
      </trkpt>
      <trkpt lat="44.04892" lon="3.5155">
        <ele>1233</ele>
        <time>2019-02-01T15:20:46Z</time>
      </trkpt>
      <trkpt lat="44.04895" lon="3.51555">
        <ele>1233</ele>
        <time>2019-02-01T15:20:46Z</time>
      </trkpt>
      <trkpt lat="44.04897" lon="3.5156">
        <ele>1233</ele>
        <time>2019-02-01T15:20:46Z</time>
      </trkpt>
      <trkpt lat="44.04901" lon="3.51565">
        <ele>1233</ele>
        <time>2019-02-01T15:20:46Z</time>
      </trkpt>
      <trkpt lat="44.04905" lon="3.51572">
        <ele>1233</ele>
        <time>2019-02-01T15:21:06Z</time>
      </trkpt>
      <trkpt lat="44.04906" lon="3.51577">
        <ele>1233</ele>
        <time>2019-02-01T15:21:06Z</time>
      </trkpt>
      <trkpt lat="44.04906" lon="3.51577">
        <ele>1233</ele>
        <time>2019-02-01T15:21:06Z</time>
      </trkpt>
      <trkpt lat="44.04909" lon="3.51581">
        <ele>1233</ele>
        <time>2019-02-01T15:21:06Z</time>
      </trkpt>
      <trkpt lat="44.04911" lon="3.51584">
        <ele>1233</ele>
        <time>2019-02-01T15:21:06Z</time>
      </trkpt>
      <trkpt lat="44.04912" lon="3.51585">
        <ele>1233</ele>
        <time>2019-02-01T15:21:22Z</time>
      </trkpt>
      <trkpt lat="44.04916" lon="3.51587">
        <ele>1233</ele>
        <time>2019-02-01T15:21:22Z</time>
      </trkpt>
      <trkpt lat="44.04919" lon="3.51588">
        <ele>1233</ele>
        <time>2019-02-01T15:21:22Z</time>
      </trkpt>
      <trkpt lat="44.04922" lon="3.5159">
        <ele>1233</ele>
        <time>2019-02-01T15:21:22Z</time>
      </trkpt>
      <trkpt lat="44.04926" lon="3.51592">
        <ele>1233</ele>
        <time>2019-02-01T15:21:38Z</time>
      </trkpt>
      <trkpt lat="44.0493" lon="3.51595">
        <ele>1233</ele>
        <time>2019-02-01T15:21:38Z</time>
      </trkpt>
      <trkpt lat="44.04932" lon="3.51598">
        <ele>1233</ele>
        <time>2019-02-01T15:21:38Z</time>
      </trkpt>
      <trkpt lat="44.04935" lon="3.51603">
        <ele>1233</ele>
        <time>2019-02-01T15:21:38Z</time>
      </trkpt>
      <trkpt lat="44.04937" lon="3.51605">
        <ele>1233</ele>
        <time>2019-02-01T15:21:58Z</time>
      </trkpt>
      <trkpt lat="44.04941" lon="3.51607">
        <ele>1233</ele>
        <time>2019-02-01T15:21:58Z</time>
      </trkpt>
      <trkpt lat="44.04945" lon="3.51608">
        <ele>1233</ele>
        <time>2019-02-01T15:21:58Z</time>
      </trkpt>
      <trkpt lat="44.04947" lon="3.51609">
        <ele>1233</ele>
        <time>2019-02-01T15:21:58Z</time>
      </trkpt>
      <trkpt lat="44.04952" lon="3.51611">
        <ele>1233</ele>
        <time>2019-02-01T15:22:18Z</time>
      </trkpt>
      <trkpt lat="44.04957" lon="3.51611">
        <ele>1233</ele>
        <time>2019-02-01T15:22:18Z</time>
      </trkpt>
      <trkpt lat="44.04959" lon="3.51611">
        <ele>1235</ele>
        <time>2019-02-01T15:22:18Z</time>
      </trkpt>
      <trkpt lat="44.04961" lon="3.51611">
        <ele>1235</ele>
        <time>2019-02-01T15:22:18Z</time>
      </trkpt>
      <trkpt lat="44.0497" lon="3.51614">
        <ele>1235</ele>
        <time>2019-02-01T15:22:18Z</time>
      </trkpt>
      <trkpt lat="44.04976" lon="3.51616">
        <ele>1235</ele>
        <time>2019-02-01T15:22:34Z</time>
      </trkpt>
      <trkpt lat="44.04981" lon="3.51617">
        <ele>1235</ele>
        <time>2019-02-01T15:22:34Z</time>
      </trkpt>
      <trkpt lat="44.04986" lon="3.51618">
        <ele>1235</ele>
        <time>2019-02-01T15:22:34Z</time>
      </trkpt>
      <trkpt lat="44.04992" lon="3.5162">
        <ele>1235</ele>
        <time>2019-02-01T15:22:34Z</time>
      </trkpt>
      <trkpt lat="44.04996" lon="3.51623">
        <ele>1235</ele>
        <time>2019-02-01T15:22:54Z</time>
      </trkpt>
      <trkpt lat="44.04999" lon="3.51625">
        <ele>1235</ele>
        <time>2019-02-01T15:22:54Z</time>
      </trkpt>
      <trkpt lat="44.05002" lon="3.51627">
        <ele>1225</ele>
        <time>2019-02-01T15:22:54Z</time>
      </trkpt>
      <trkpt lat="44.05004" lon="3.51628">
        <ele>1225</ele>
        <time>2019-02-01T15:22:54Z</time>
      </trkpt>
      <trkpt lat="44.05006" lon="3.51629">
        <ele>1225</ele>
        <time>2019-02-01T15:22:54Z</time>
      </trkpt>
      <trkpt lat="44.05009" lon="3.5163">
        <ele>1225</ele>
        <time>2019-02-01T15:23:10Z</time>
      </trkpt>
      <trkpt lat="44.05012" lon="3.51631">
        <ele>1225</ele>
        <time>2019-02-01T15:23:10Z</time>
      </trkpt>
      <trkpt lat="44.05015" lon="3.51631">
        <ele>1225</ele>
        <time>2019-02-01T15:23:10Z</time>
      </trkpt>
      <trkpt lat="44.05019" lon="3.51632">
        <ele>1225</ele>
        <time>2019-02-01T15:23:10Z</time>
      </trkpt>
      <trkpt lat="44.05023" lon="3.51634">
        <ele>1225</ele>
        <time>2019-02-01T15:23:26Z</time>
      </trkpt>
      <trkpt lat="44.05027" lon="3.51637">
        <ele>1225</ele>
        <time>2019-02-01T15:23:26Z</time>
      </trkpt>
      <trkpt lat="44.05032" lon="3.51641">
        <ele>1225</ele>
        <time>2019-02-01T15:23:26Z</time>
      </trkpt>
      <trkpt lat="44.05037" lon="3.51646">
        <ele>1225</ele>
        <time>2019-02-01T15:23:26Z</time>
      </trkpt>
      <trkpt lat="44.05042" lon="3.5165">
        <ele>1224</ele>
        <time>2019-02-01T15:23:42Z</time>
      </trkpt>
      <trkpt lat="44.05044" lon="3.51652">
        <ele>1224</ele>
        <time>2019-02-01T15:23:42Z</time>
      </trkpt>
      <trkpt lat="44.05048" lon="3.51653">
        <ele>1224</ele>
        <time>2019-02-01T15:23:42Z</time>
      </trkpt>
      <trkpt lat="44.05051" lon="3.51653">
        <ele>1224</ele>
        <time>2019-02-01T15:23:42Z</time>
      </trkpt>
      <trkpt lat="44.05052" lon="3.51654">
        <ele>1224</ele>
        <time>2019-02-01T15:23:58Z</time>
      </trkpt>
      <trkpt lat="44.05056" lon="3.51656">
        <ele>1224</ele>
        <time>2019-02-01T15:23:58Z</time>
      </trkpt>
      <trkpt lat="44.0506" lon="3.51657">
        <ele>1224</ele>
        <time>2019-02-01T15:23:58Z</time>
      </trkpt>
      <trkpt lat="44.05064" lon="3.51658">
        <ele>1224</ele>
        <time>2019-02-01T15:23:58Z</time>
      </trkpt>
      <trkpt lat="44.05067" lon="3.51657">
        <ele>1224</ele>
        <time>2019-02-01T15:24:14Z</time>
      </trkpt>
      <trkpt lat="44.0507" lon="3.51657">
        <ele>1224</ele>
        <time>2019-02-01T15:24:14Z</time>
      </trkpt>
      <trkpt lat="44.05074" lon="3.51656">
        <ele>1224</ele>
        <time>2019-02-01T15:24:14Z</time>
      </trkpt>
      <trkpt lat="44.05077" lon="3.51655">
        <ele>1224</ele>
        <time>2019-02-01T15:24:14Z</time>
      </trkpt>
      <trkpt lat="44.05081" lon="3.51655">
        <ele>1224</ele>
        <time>2019-02-01T15:24:30Z</time>
      </trkpt>
      <trkpt lat="44.05085" lon="3.51655">
        <ele>1224</ele>
        <time>2019-02-01T15:24:30Z</time>
      </trkpt>
      <trkpt lat="44.0509" lon="3.51654">
        <ele>1224</ele>
        <time>2019-02-01T15:24:30Z</time>
      </trkpt>
      <trkpt lat="44.05094" lon="3.51654">
        <ele>1224</ele>
        <time>2019-02-01T15:24:30Z</time>
      </trkpt>
      <trkpt lat="44.05097" lon="3.51653">
        <ele>1224</ele>
        <time>2019-02-01T15:24:50Z</time>
      </trkpt>
      <trkpt lat="44.051" lon="3.51653">
        <ele>1224</ele>
        <time>2019-02-01T15:24:50Z</time>
      </trkpt>
      <trkpt lat="44.05102" lon="3.51654">
        <ele>1224</ele>
        <time>2019-02-01T15:24:50Z</time>
      </trkpt>
      <trkpt lat="44.05108" lon="3.51655">
        <ele>1224</ele>
        <time>2019-02-01T15:24:50Z</time>
      </trkpt>
      <trkpt lat="44.05113" lon="3.51655">
        <ele>1224</ele>
        <time>2019-02-01T15:25:06Z</time>
      </trkpt>
      <trkpt lat="44.05118" lon="3.51653">
        <ele>1224</ele>
        <time>2019-02-01T15:25:06Z</time>
      </trkpt>
      <trkpt lat="44.05122" lon="3.51653">
        <ele>1224</ele>
        <time>2019-02-01T15:25:06Z</time>
      </trkpt>
      <trkpt lat="44.05127" lon="3.51652">
        <ele>1225</ele>
        <time>2019-02-01T15:25:06Z</time>
      </trkpt>
      <trkpt lat="44.05134" lon="3.51648">
        <ele>1225</ele>
        <time>2019-02-01T15:25:22Z</time>
      </trkpt>
      <trkpt lat="44.05138" lon="3.51645">
        <ele>1225</ele>
        <time>2019-02-01T15:25:22Z</time>
      </trkpt>
      <trkpt lat="44.05142" lon="3.51644">
        <ele>1225</ele>
        <time>2019-02-01T15:25:22Z</time>
      </trkpt>
      <trkpt lat="44.05145" lon="3.51642">
        <ele>1225</ele>
        <time>2019-02-01T15:25:22Z</time>
      </trkpt>
      <trkpt lat="44.0515" lon="3.5164">
        <ele>1225</ele>
        <time>2019-02-01T15:25:54Z</time>
      </trkpt>
      <trkpt lat="44.05152" lon="3.51643">
        <ele>1225</ele>
        <time>2019-02-01T15:25:54Z</time>
      </trkpt>
      <trkpt lat="44.05153" lon="3.51645">
        <ele>1225</ele>
        <time>2019-02-01T15:25:54Z</time>
      </trkpt>
      <trkpt lat="44.05153" lon="3.51646">
        <ele>1225</ele>
        <time>2019-02-01T15:25:54Z</time>
      </trkpt>
      <trkpt lat="44.05154" lon="3.51648">
        <ele>1225</ele>
        <time>2019-02-01T15:25:54Z</time>
      </trkpt>
      <trkpt lat="44.05156" lon="3.51651">
        <ele>1225</ele>
        <time>2019-02-01T15:26:10Z</time>
      </trkpt>
      <trkpt lat="44.05157" lon="3.51654">
        <ele>1225</ele>
        <time>2019-02-01T15:26:10Z</time>
      </trkpt>
      <trkpt lat="44.05158" lon="3.51658">
        <ele>1225</ele>
        <time>2019-02-01T15:26:10Z</time>
      </trkpt>
      <trkpt lat="44.05161" lon="3.51662">
        <ele>1225</ele>
        <time>2019-02-01T15:26:10Z</time>
      </trkpt>
      <trkpt lat="44.05163" lon="3.51666">
        <ele>1225</ele>
        <time>2019-02-01T15:26:26Z</time>
      </trkpt>
      <trkpt lat="44.05165" lon="3.51671">
        <ele>1225</ele>
        <time>2019-02-01T15:26:26Z</time>
      </trkpt>
      <trkpt lat="44.05167" lon="3.51674">
        <ele>1225</ele>
        <time>2019-02-01T15:26:26Z</time>
      </trkpt>
      <trkpt lat="44.05168" lon="3.51677">
        <ele>1225</ele>
        <time>2019-02-01T15:26:26Z</time>
      </trkpt>
      <trkpt lat="44.05173" lon="3.51682">
        <ele>1225</ele>
        <time>2019-02-01T15:27:14Z</time>
      </trkpt>
      <trkpt lat="44.05175" lon="3.51686">
        <ele>1225</ele>
        <time>2019-02-01T15:27:14Z</time>
      </trkpt>
      <trkpt lat="44.05178" lon="3.5169">
        <ele>1225</ele>
        <time>2019-02-01T15:27:14Z</time>
      </trkpt>
      <trkpt lat="44.05181" lon="3.51694">
        <ele>1225</ele>
        <time>2019-02-01T15:27:14Z</time>
      </trkpt>
      <trkpt lat="44.05184" lon="3.51699">
        <ele>1225</ele>
        <time>2019-02-01T15:27:14Z</time>
      </trkpt>
      <trkpt lat="44.05188" lon="3.51703">
        <ele>1225</ele>
        <time>2019-02-01T15:27:30Z</time>
      </trkpt>
      <trkpt lat="44.0519" lon="3.51707">
        <ele>1225</ele>
        <time>2019-02-01T15:27:30Z</time>
      </trkpt>
      <trkpt lat="44.05191" lon="3.5171">
        <ele>1226</ele>
        <time>2019-02-01T15:27:30Z</time>
      </trkpt>
      <trkpt lat="44.05194" lon="3.51715">
        <ele>1226</ele>
        <time>2019-02-01T15:27:30Z</time>
      </trkpt>
      <trkpt lat="44.05199" lon="3.5172">
        <ele>1226</ele>
        <time>2019-02-01T15:27:46Z</time>
      </trkpt>
      <trkpt lat="44.05204" lon="3.51723">
        <ele>1226</ele>
        <time>2019-02-01T15:27:46Z</time>
      </trkpt>
      <trkpt lat="44.05207" lon="3.51725">
        <ele>1226</ele>
        <time>2019-02-01T15:27:46Z</time>
      </trkpt>
      <trkpt lat="44.05211" lon="3.51728">
        <ele>1232</ele>
        <time>2019-02-01T15:27:46Z</time>
      </trkpt>
      <trkpt lat="44.05214" lon="3.51731">
        <ele>1232</ele>
        <time>2019-02-01T15:28:06Z</time>
      </trkpt>
      <trkpt lat="44.05216" lon="3.51734">
        <ele>1232</ele>
        <time>2019-02-01T15:28:06Z</time>
      </trkpt>
      <trkpt lat="44.0522" lon="3.51736">
        <ele>1232</ele>
        <time>2019-02-01T15:28:06Z</time>
      </trkpt>
      <trkpt lat="44.05223" lon="3.51736">
        <ele>1232</ele>
        <time>2019-02-01T15:28:06Z</time>
      </trkpt>
      <trkpt lat="44.05226" lon="3.51737">
        <ele>1232</ele>
        <time>2019-02-01T15:28:06Z</time>
      </trkpt>
      <trkpt lat="44.05232" lon="3.51741">
        <ele>1232</ele>
        <time>2019-02-01T15:28:22Z</time>
      </trkpt>
      <trkpt lat="44.05234" lon="3.51745">
        <ele>1232</ele>
        <time>2019-02-01T15:28:22Z</time>
      </trkpt>
      <trkpt lat="44.05237" lon="3.51747">
        <ele>1232</ele>
        <time>2019-02-01T15:28:22Z</time>
      </trkpt>
      <trkpt lat="44.05241" lon="3.51749">
        <ele>1232</ele>
        <time>2019-02-01T15:28:22Z</time>
      </trkpt>
      <trkpt lat="44.05245" lon="3.51751">
        <ele>1232</ele>
        <time>2019-02-01T15:28:38Z</time>
      </trkpt>
      <trkpt lat="44.05248" lon="3.51752">
        <ele>1232</ele>
        <time>2019-02-01T15:28:38Z</time>
      </trkpt>
      <trkpt lat="44.05252" lon="3.51753">
        <ele>1232</ele>
        <time>2019-02-01T15:28:38Z</time>
      </trkpt>
      <trkpt lat="44.05256" lon="3.51753">
        <ele>1232</ele>
        <time>2019-02-01T15:28:38Z</time>
      </trkpt>
      <trkpt lat="44.0526" lon="3.51755">
        <ele>1232</ele>
        <time>2019-02-01T15:28:54Z</time>
      </trkpt>
      <trkpt lat="44.05264" lon="3.51757">
        <ele>1232</ele>
        <time>2019-02-01T15:28:54Z</time>
      </trkpt>
      <trkpt lat="44.05268" lon="3.51761">
        <ele>1232</ele>
        <time>2019-02-01T15:28:54Z</time>
      </trkpt>
      <trkpt lat="44.05272" lon="3.51763">
        <ele>1232</ele>
        <time>2019-02-01T15:28:54Z</time>
      </trkpt>
      <trkpt lat="44.05276" lon="3.51767">
        <ele>1232</ele>
        <time>2019-02-01T15:29:10Z</time>
      </trkpt>
      <trkpt lat="44.05281" lon="3.51768">
        <ele>1232</ele>
        <time>2019-02-01T15:29:10Z</time>
      </trkpt>
      <trkpt lat="44.05284" lon="3.51771">
        <ele>1232</ele>
        <time>2019-02-01T15:29:10Z</time>
      </trkpt>
      <trkpt lat="44.0529" lon="3.51773">
        <ele>1232</ele>
        <time>2019-02-01T15:29:10Z</time>
      </trkpt>
      <trkpt lat="44.05294" lon="3.51773">
        <ele>1235</ele>
        <time>2019-02-01T15:29:26Z</time>
      </trkpt>
      <trkpt lat="44.05298" lon="3.51774">
        <ele>1235</ele>
        <time>2019-02-01T15:29:26Z</time>
      </trkpt>
      <trkpt lat="44.05303" lon="3.51776">
        <ele>1235</ele>
        <time>2019-02-01T15:29:26Z</time>
      </trkpt>
      <trkpt lat="44.05307" lon="3.51777">
        <ele>1235</ele>
        <time>2019-02-01T15:29:26Z</time>
      </trkpt>
      <trkpt lat="44.0531" lon="3.51778">
        <ele>1235</ele>
        <time>2019-02-01T15:29:42Z</time>
      </trkpt>
      <trkpt lat="44.05315" lon="3.51781">
        <ele>1235</ele>
        <time>2019-02-01T15:29:42Z</time>
      </trkpt>
      <trkpt lat="44.05318" lon="3.51784">
        <ele>1235</ele>
        <time>2019-02-01T15:29:42Z</time>
      </trkpt>
      <trkpt lat="44.05321" lon="3.51786">
        <ele>1235</ele>
        <time>2019-02-01T15:29:42Z</time>
      </trkpt>
      <trkpt lat="44.05325" lon="3.51788">
        <ele>1235</ele>
        <time>2019-02-01T15:29:58Z</time>
      </trkpt>
      <trkpt lat="44.05328" lon="3.51789">
        <ele>1235</ele>
        <time>2019-02-01T15:29:58Z</time>
      </trkpt>
      <trkpt lat="44.05332" lon="3.51791">
        <ele>1235</ele>
        <time>2019-02-01T15:29:58Z</time>
      </trkpt>
      <trkpt lat="44.05336" lon="3.51791">
        <ele>1235</ele>
        <time>2019-02-01T15:29:58Z</time>
      </trkpt>
      <trkpt lat="44.05339" lon="3.5179">
        <ele>1235</ele>
        <time>2019-02-01T15:30:14Z</time>
      </trkpt>
      <trkpt lat="44.05343" lon="3.51792">
        <ele>1242</ele>
        <time>2019-02-01T15:30:14Z</time>
      </trkpt>
      <trkpt lat="44.05347" lon="3.51793">
        <ele>1242</ele>
        <time>2019-02-01T15:30:14Z</time>
      </trkpt>
      <trkpt lat="44.0535" lon="3.51795">
        <ele>1242</ele>
        <time>2019-02-01T15:30:14Z</time>
      </trkpt>
      <trkpt lat="44.05355" lon="3.51795">
        <ele>1242</ele>
        <time>2019-02-01T15:30:30Z</time>
      </trkpt>
      <trkpt lat="44.05358" lon="3.51795">
        <ele>1242</ele>
        <time>2019-02-01T15:30:30Z</time>
      </trkpt>
      <trkpt lat="44.05362" lon="3.51797">
        <ele>1242</ele>
        <time>2019-02-01T15:30:30Z</time>
      </trkpt>
      <trkpt lat="44.05367" lon="3.51799">
        <ele>1242</ele>
        <time>2019-02-01T15:30:30Z</time>
      </trkpt>
      <trkpt lat="44.05372" lon="3.51802">
        <ele>1242</ele>
        <time>2019-02-01T15:30:46Z</time>
      </trkpt>
      <trkpt lat="44.05376" lon="3.51803">
        <ele>1243</ele>
        <time>2019-02-01T15:30:46Z</time>
      </trkpt>
      <trkpt lat="44.0538" lon="3.51805">
        <ele>1243</ele>
        <time>2019-02-01T15:30:46Z</time>
      </trkpt>
      <trkpt lat="44.05383" lon="3.51805">
        <ele>1243</ele>
        <time>2019-02-01T15:30:46Z</time>
      </trkpt>
      <trkpt lat="44.05387" lon="3.51807">
        <ele>1243</ele>
        <time>2019-02-01T15:31:02Z</time>
      </trkpt>
      <trkpt lat="44.0539" lon="3.51808">
        <ele>1243</ele>
        <time>2019-02-01T15:31:02Z</time>
      </trkpt>
      <trkpt lat="44.05393" lon="3.51809">
        <ele>1243</ele>
        <time>2019-02-01T15:31:02Z</time>
      </trkpt>
      <trkpt lat="44.05397" lon="3.51809">
        <ele>1243</ele>
        <time>2019-02-01T15:31:02Z</time>
      </trkpt>
      <trkpt lat="44.05401" lon="3.5181">
        <ele>1243</ele>
        <time>2019-02-01T15:31:18Z</time>
      </trkpt>
      <trkpt lat="44.05405" lon="3.51813">
        <ele>1243</ele>
        <time>2019-02-01T15:31:18Z</time>
      </trkpt>
      <trkpt lat="44.05409" lon="3.51816">
        <ele>1243</ele>
        <time>2019-02-01T15:31:18Z</time>
      </trkpt>
      <trkpt lat="44.05413" lon="3.51818">
        <ele>1243</ele>
        <time>2019-02-01T15:31:18Z</time>
      </trkpt>
      <trkpt lat="44.05416" lon="3.51821">
        <ele>1243</ele>
        <time>2019-02-01T15:31:34Z</time>
      </trkpt>
      <trkpt lat="44.0542" lon="3.51824">
        <ele>1243</ele>
        <time>2019-02-01T15:31:34Z</time>
      </trkpt>
      <trkpt lat="44.05422" lon="3.51827">
        <ele>1243</ele>
        <time>2019-02-01T15:31:34Z</time>
      </trkpt>
      <trkpt lat="44.05425" lon="3.5183">
        <ele>1243</ele>
        <time>2019-02-01T15:31:34Z</time>
      </trkpt>
      <trkpt lat="44.05427" lon="3.51833">
        <ele>1243</ele>
        <time>2019-02-01T15:31:54Z</time>
      </trkpt>
      <trkpt lat="44.05429" lon="3.51835">
        <ele>1243</ele>
        <time>2019-02-01T15:31:54Z</time>
      </trkpt>
      <trkpt lat="44.0543" lon="3.51837">
        <ele>1243</ele>
        <time>2019-02-01T15:31:54Z</time>
      </trkpt>
      <trkpt lat="44.05433" lon="3.51839">
        <ele>1243</ele>
        <time>2019-02-01T15:31:54Z</time>
      </trkpt>
      <trkpt lat="44.05436" lon="3.51843">
        <ele>1243</ele>
        <time>2019-02-01T15:31:54Z</time>
      </trkpt>
      <trkpt lat="44.0544" lon="3.51846">
        <ele>1243</ele>
        <time>2019-02-01T15:32:10Z</time>
      </trkpt>
      <trkpt lat="44.05443" lon="3.5185">
        <ele>1243</ele>
        <time>2019-02-01T15:32:10Z</time>
      </trkpt>
      <trkpt lat="44.05444" lon="3.51855">
        <ele>1243</ele>
        <time>2019-02-01T15:32:10Z</time>
      </trkpt>
      <trkpt lat="44.05447" lon="3.51857">
        <ele>1243</ele>
        <time>2019-02-01T15:32:10Z</time>
      </trkpt>
      <trkpt lat="44.0545" lon="3.51859">
        <ele>1243</ele>
        <time>2019-02-01T15:32:26Z</time>
      </trkpt>
      <trkpt lat="44.05453" lon="3.51862">
        <ele>1243</ele>
        <time>2019-02-01T15:32:26Z</time>
      </trkpt>
      <trkpt lat="44.05455" lon="3.51865">
        <ele>1243</ele>
        <time>2019-02-01T15:32:26Z</time>
      </trkpt>
      <trkpt lat="44.05457" lon="3.51867">
        <ele>1243</ele>
        <time>2019-02-01T15:32:26Z</time>
      </trkpt>
      <trkpt lat="44.0546" lon="3.51868">
        <ele>1246</ele>
        <time>2019-02-01T15:32:46Z</time>
      </trkpt>
      <trkpt lat="44.05463" lon="3.5187">
        <ele>1246</ele>
        <time>2019-02-01T15:32:46Z</time>
      </trkpt>
      <trkpt lat="44.05464" lon="3.51873">
        <ele>1246</ele>
        <time>2019-02-01T15:32:46Z</time>
      </trkpt>
      <trkpt lat="44.05466" lon="3.51876">
        <ele>1248</ele>
        <time>2019-02-01T15:32:46Z</time>
      </trkpt>
      <trkpt lat="44.05469" lon="3.51879">
        <ele>1248</ele>
        <time>2019-02-01T15:32:46Z</time>
      </trkpt>
      <trkpt lat="44.0547" lon="3.51883">
        <ele>1248</ele>
        <time>2019-02-01T15:33:02Z</time>
      </trkpt>
      <trkpt lat="44.05473" lon="3.51887">
        <ele>1248</ele>
        <time>2019-02-01T15:33:02Z</time>
      </trkpt>
      <trkpt lat="44.05476" lon="3.5189">
        <ele>1248</ele>
        <time>2019-02-01T15:33:02Z</time>
      </trkpt>
      <trkpt lat="44.05479" lon="3.51895">
        <ele>1248</ele>
        <time>2019-02-01T15:33:02Z</time>
      </trkpt>
      <trkpt lat="44.05481" lon="3.51898">
        <ele>1248</ele>
        <time>2019-02-01T15:33:18Z</time>
      </trkpt>
      <trkpt lat="44.05483" lon="3.51902">
        <ele>1248</ele>
        <time>2019-02-01T15:33:18Z</time>
      </trkpt>
      <trkpt lat="44.05484" lon="3.51907">
        <ele>1248</ele>
        <time>2019-02-01T15:33:18Z</time>
      </trkpt>
      <trkpt lat="44.05486" lon="3.51912">
        <ele>1248</ele>
        <time>2019-02-01T15:33:18Z</time>
      </trkpt>
      <trkpt lat="44.05488" lon="3.51916">
        <ele>1248</ele>
        <time>2019-02-01T15:33:34Z</time>
      </trkpt>
      <trkpt lat="44.0549" lon="3.51922">
        <ele>1248</ele>
        <time>2019-02-01T15:33:34Z</time>
      </trkpt>
      <trkpt lat="44.05491" lon="3.51929">
        <ele>1248</ele>
        <time>2019-02-01T15:33:34Z</time>
      </trkpt>
      <trkpt lat="44.05494" lon="3.51937">
        <ele>1248</ele>
        <time>2019-02-01T15:33:34Z</time>
      </trkpt>
      <trkpt lat="44.05499" lon="3.51943">
        <ele>1248</ele>
        <time>2019-02-01T15:33:50Z</time>
      </trkpt>
      <trkpt lat="44.05502" lon="3.51949">
        <ele>1248</ele>
        <time>2019-02-01T15:33:50Z</time>
      </trkpt>
      <trkpt lat="44.05505" lon="3.51953">
        <ele>1248</ele>
        <time>2019-02-01T15:33:50Z</time>
      </trkpt>
      <trkpt lat="44.05506" lon="3.5196">
        <ele>1255</ele>
        <time>2019-02-01T15:33:50Z</time>
      </trkpt>
      <trkpt lat="44.05507" lon="3.51965">
        <ele>1255</ele>
        <time>2019-02-01T15:34:06Z</time>
      </trkpt>
      <trkpt lat="44.05508" lon="3.51969">
        <ele>1255</ele>
        <time>2019-02-01T15:34:06Z</time>
      </trkpt>
      <trkpt lat="44.05509" lon="3.51975">
        <ele>1255</ele>
        <time>2019-02-01T15:34:06Z</time>
      </trkpt>
      <trkpt lat="44.0551" lon="3.5198">
        <ele>1255</ele>
        <time>2019-02-01T15:34:06Z</time>
      </trkpt>
      <trkpt lat="44.05511" lon="3.51984">
        <ele>1255</ele>
        <time>2019-02-01T15:34:22Z</time>
      </trkpt>
      <trkpt lat="44.05512" lon="3.5199">
        <ele>1255</ele>
        <time>2019-02-01T15:34:22Z</time>
      </trkpt>
      <trkpt lat="44.05513" lon="3.51995">
        <ele>1255</ele>
        <time>2019-02-01T15:34:22Z</time>
      </trkpt>
      <trkpt lat="44.05515" lon="3.52001">
        <ele>1255</ele>
        <time>2019-02-01T15:34:22Z</time>
      </trkpt>
      <trkpt lat="44.05517" lon="3.52007">
        <ele>1255</ele>
        <time>2019-02-01T15:34:38Z</time>
      </trkpt>
      <trkpt lat="44.05519" lon="3.52012">
        <ele>1255</ele>
        <time>2019-02-01T15:34:38Z</time>
      </trkpt>
      <trkpt lat="44.05521" lon="3.52016">
        <ele>1255</ele>
        <time>2019-02-01T15:34:38Z</time>
      </trkpt>
      <trkpt lat="44.05523" lon="3.52021">
        <ele>1255</ele>
        <time>2019-02-01T15:34:38Z</time>
      </trkpt>
      <trkpt lat="44.05526" lon="3.52025">
        <ele>1255</ele>
        <time>2019-02-01T15:34:54Z</time>
      </trkpt>
      <trkpt lat="44.05528" lon="3.52031">
        <ele>1255</ele>
        <time>2019-02-01T15:34:54Z</time>
      </trkpt>
      <trkpt lat="44.05531" lon="3.52035">
        <ele>1255</ele>
        <time>2019-02-01T15:34:54Z</time>
      </trkpt>
      <trkpt lat="44.05533" lon="3.5204">
        <ele>1255</ele>
        <time>2019-02-01T15:34:54Z</time>
      </trkpt>
      <trkpt lat="44.05534" lon="3.52046">
        <ele>1256</ele>
        <time>2019-02-01T15:35:10Z</time>
      </trkpt>
      <trkpt lat="44.05536" lon="3.5205">
        <ele>1256</ele>
        <time>2019-02-01T15:35:10Z</time>
      </trkpt>
      <trkpt lat="44.05539" lon="3.52056">
        <ele>1256</ele>
        <time>2019-02-01T15:35:10Z</time>
      </trkpt>
      <trkpt lat="44.05541" lon="3.52062">
        <ele>1256</ele>
        <time>2019-02-01T15:35:10Z</time>
      </trkpt>
      <trkpt lat="44.05541" lon="3.52068">
        <ele>1256</ele>
        <time>2019-02-01T15:35:26Z</time>
      </trkpt>
      <trkpt lat="44.05542" lon="3.52072">
        <ele>1239</ele>
        <time>2019-02-01T15:35:26Z</time>
      </trkpt>
      <trkpt lat="44.05545" lon="3.52077">
        <ele>1239</ele>
        <time>2019-02-01T15:35:26Z</time>
      </trkpt>
      <trkpt lat="44.05547" lon="3.52082">
        <ele>1239</ele>
        <time>2019-02-01T15:35:26Z</time>
      </trkpt>
      <trkpt lat="44.05548" lon="3.52088">
        <ele>1239</ele>
        <time>2019-02-01T15:35:42Z</time>
      </trkpt>
      <trkpt lat="44.05549" lon="3.52094">
        <ele>1239</ele>
        <time>2019-02-01T15:35:42Z</time>
      </trkpt>
      <trkpt lat="44.05552" lon="3.52099">
        <ele>1239</ele>
        <time>2019-02-01T15:35:42Z</time>
      </trkpt>
      <trkpt lat="44.05554" lon="3.52103">
        <ele>1239</ele>
        <time>2019-02-01T15:35:42Z</time>
      </trkpt>
      <trkpt lat="44.05555" lon="3.52108">
        <ele>1239</ele>
        <time>2019-02-01T15:35:58Z</time>
      </trkpt>
      <trkpt lat="44.05558" lon="3.52113">
        <ele>1239</ele>
        <time>2019-02-01T15:35:58Z</time>
      </trkpt>
      <trkpt lat="44.0556" lon="3.52117">
        <ele>1239</ele>
        <time>2019-02-01T15:35:58Z</time>
      </trkpt>
      <trkpt lat="44.05562" lon="3.52122">
        <ele>1239</ele>
        <time>2019-02-01T15:35:58Z</time>
      </trkpt>
      <trkpt lat="44.05564" lon="3.52125">
        <ele>1246</ele>
        <time>2019-02-01T15:36:14Z</time>
      </trkpt>
      <trkpt lat="44.05565" lon="3.5213">
        <ele>1246</ele>
        <time>2019-02-01T15:36:14Z</time>
      </trkpt>
      <trkpt lat="44.05567" lon="3.52134">
        <ele>1246</ele>
        <time>2019-02-01T15:36:14Z</time>
      </trkpt>
      <trkpt lat="44.05569" lon="3.52138">
        <ele>1246</ele>
        <time>2019-02-01T15:36:14Z</time>
      </trkpt>
      <trkpt lat="44.0557" lon="3.52143">
        <ele>1246</ele>
        <time>2019-02-01T15:36:30Z</time>
      </trkpt>
      <trkpt lat="44.05573" lon="3.52148">
        <ele>1246</ele>
        <time>2019-02-01T15:36:30Z</time>
      </trkpt>
      <trkpt lat="44.05578" lon="3.52153">
        <ele>1246</ele>
        <time>2019-02-01T15:36:30Z</time>
      </trkpt>
      <trkpt lat="44.05582" lon="3.52159">
        <ele>1246</ele>
        <time>2019-02-01T15:36:30Z</time>
      </trkpt>
      <trkpt lat="44.05584" lon="3.52165">
        <ele>1246</ele>
        <time>2019-02-01T15:36:46Z</time>
      </trkpt>
      <trkpt lat="44.05585" lon="3.5217">
        <ele>1246</ele>
        <time>2019-02-01T15:36:46Z</time>
      </trkpt>
      <trkpt lat="44.05587" lon="3.52174">
        <ele>1246</ele>
        <time>2019-02-01T15:36:46Z</time>
      </trkpt>
      <trkpt lat="44.05591" lon="3.52177">
        <ele>1246</ele>
        <time>2019-02-01T15:36:46Z</time>
      </trkpt>
      <trkpt lat="44.05591" lon="3.5218">
        <ele>1246</ele>
        <time>2019-02-01T15:37:02Z</time>
      </trkpt>
      <trkpt lat="44.05593" lon="3.52185">
        <ele>1246</ele>
        <time>2019-02-01T15:37:02Z</time>
      </trkpt>
      <trkpt lat="44.05595" lon="3.5219">
        <ele>1246</ele>
        <time>2019-02-01T15:37:02Z</time>
      </trkpt>
      <trkpt lat="44.05599" lon="3.52195">
        <ele>1246</ele>
        <time>2019-02-01T15:37:02Z</time>
      </trkpt>
      <trkpt lat="44.056" lon="3.52199">
        <ele>1246</ele>
        <time>2019-02-01T15:37:18Z</time>
      </trkpt>
      <trkpt lat="44.05603" lon="3.52203">
        <ele>1246</ele>
        <time>2019-02-01T15:37:18Z</time>
      </trkpt>
      <trkpt lat="44.05606" lon="3.52208">
        <ele>1246</ele>
        <time>2019-02-01T15:37:18Z</time>
      </trkpt>
      <trkpt lat="44.05607" lon="3.52213">
        <ele>1250</ele>
        <time>2019-02-01T15:37:18Z</time>
      </trkpt>
      <trkpt lat="44.05607" lon="3.52217">
        <ele>1250</ele>
        <time>2019-02-01T15:37:34Z</time>
      </trkpt>
      <trkpt lat="44.05609" lon="3.5222">
        <ele>1250</ele>
        <time>2019-02-01T15:37:34Z</time>
      </trkpt>
      <trkpt lat="44.0561" lon="3.52224">
        <ele>1250</ele>
        <time>2019-02-01T15:37:34Z</time>
      </trkpt>
      <trkpt lat="44.05611" lon="3.52229">
        <ele>1250</ele>
        <time>2019-02-01T15:37:34Z</time>
      </trkpt>
      <trkpt lat="44.05611" lon="3.52232">
        <ele>1250</ele>
        <time>2019-02-01T15:37:50Z</time>
      </trkpt>
      <trkpt lat="44.05613" lon="3.52236">
        <ele>1250</ele>
        <time>2019-02-01T15:37:50Z</time>
      </trkpt>
      <trkpt lat="44.05615" lon="3.5224">
        <ele>1250</ele>
        <time>2019-02-01T15:37:50Z</time>
      </trkpt>
      <trkpt lat="44.05618" lon="3.52244">
        <ele>1250</ele>
        <time>2019-02-01T15:37:50Z</time>
      </trkpt>
      <trkpt lat="44.0562" lon="3.52249">
        <ele>1250</ele>
        <time>2019-02-01T15:38:06Z</time>
      </trkpt>
      <trkpt lat="44.05623" lon="3.52252">
        <ele>1250</ele>
        <time>2019-02-01T15:38:06Z</time>
      </trkpt>
      <trkpt lat="44.05625" lon="3.52255">
        <ele>1246</ele>
        <time>2019-02-01T15:38:06Z</time>
      </trkpt>
      <trkpt lat="44.05628" lon="3.52261">
        <ele>1246</ele>
        <time>2019-02-01T15:38:06Z</time>
      </trkpt>
      <trkpt lat="44.0563" lon="3.52265">
        <ele>1246</ele>
        <time>2019-02-01T15:38:22Z</time>
      </trkpt>
      <trkpt lat="44.05633" lon="3.52269">
        <ele>1246</ele>
        <time>2019-02-01T15:38:22Z</time>
      </trkpt>
      <trkpt lat="44.05636" lon="3.52273">
        <ele>1246</ele>
        <time>2019-02-01T15:38:22Z</time>
      </trkpt>
      <trkpt lat="44.05637" lon="3.52279">
        <ele>1246</ele>
        <time>2019-02-01T15:38:22Z</time>
      </trkpt>
      <trkpt lat="44.05638" lon="3.52282">
        <ele>1246</ele>
        <time>2019-02-01T15:38:38Z</time>
      </trkpt>
      <trkpt lat="44.05639" lon="3.52284">
        <ele>1246</ele>
        <time>2019-02-01T15:38:38Z</time>
      </trkpt>
      <trkpt lat="44.05641" lon="3.52289">
        <ele>1246</ele>
        <time>2019-02-01T15:38:38Z</time>
      </trkpt>
      <trkpt lat="44.05643" lon="3.52293">
        <ele>1252</ele>
        <time>2019-02-01T15:38:38Z</time>
      </trkpt>
      <trkpt lat="44.05644" lon="3.52295">
        <ele>1252</ele>
        <time>2019-02-01T15:38:58Z</time>
      </trkpt>
      <trkpt lat="44.05645" lon="3.52298">
        <ele>1252</ele>
        <time>2019-02-01T15:38:58Z</time>
      </trkpt>
      <trkpt lat="44.05645" lon="3.52301">
        <ele>1252</ele>
        <time>2019-02-01T15:38:58Z</time>
      </trkpt>
      <trkpt lat="44.05645" lon="3.52306">
        <ele>1252</ele>
        <time>2019-02-01T15:38:58Z</time>
      </trkpt>
      <trkpt lat="44.05646" lon="3.52308">
        <ele>1252</ele>
        <time>2019-02-01T15:38:58Z</time>
      </trkpt>
      <trkpt lat="44.05646" lon="3.52315">
        <ele>1252</ele>
        <time>2019-02-01T15:39:14Z</time>
      </trkpt>
      <trkpt lat="44.05647" lon="3.52322">
        <ele>1252</ele>
        <time>2019-02-01T15:39:14Z</time>
      </trkpt>
      <trkpt lat="44.05648" lon="3.52328">
        <ele>1252</ele>
        <time>2019-02-01T15:39:14Z</time>
      </trkpt>
      <trkpt lat="44.05649" lon="3.52335">
        <ele>1252</ele>
        <time>2019-02-01T15:39:14Z</time>
      </trkpt>
      <trkpt lat="44.05649" lon="3.5234">
        <ele>1252</ele>
        <time>2019-02-01T15:39:30Z</time>
      </trkpt>
      <trkpt lat="44.05649" lon="3.52347">
        <ele>1252</ele>
        <time>2019-02-01T15:39:30Z</time>
      </trkpt>
      <trkpt lat="44.05649" lon="3.52355">
        <ele>1252</ele>
        <time>2019-02-01T15:39:30Z</time>
      </trkpt>
      <trkpt lat="44.05648" lon="3.52361">
        <ele>1252</ele>
        <time>2019-02-01T15:39:30Z</time>
      </trkpt>
      <trkpt lat="44.05648" lon="3.52364">
        <ele>1252</ele>
        <time>2019-02-01T15:39:46Z</time>
      </trkpt>
      <trkpt lat="44.05649" lon="3.52367">
        <ele>1252</ele>
        <time>2019-02-01T15:39:46Z</time>
      </trkpt>
      <trkpt lat="44.05649" lon="3.52374">
        <ele>1252</ele>
        <time>2019-02-01T15:39:46Z</time>
      </trkpt>
      <trkpt lat="44.05649" lon="3.52379">
        <ele>1255</ele>
        <time>2019-02-01T15:39:46Z</time>
      </trkpt>
      <trkpt lat="44.0565" lon="3.52384">
        <ele>1255</ele>
        <time>2019-02-01T15:40:02Z</time>
      </trkpt>
      <trkpt lat="44.05652" lon="3.5239">
        <ele>1255</ele>
        <time>2019-02-01T15:40:02Z</time>
      </trkpt>
      <trkpt lat="44.05652" lon="3.52396">
        <ele>1255</ele>
        <time>2019-02-01T15:40:02Z</time>
      </trkpt>
      <trkpt lat="44.05653" lon="3.52402">
        <ele>1255</ele>
        <time>2019-02-01T15:40:02Z</time>
      </trkpt>
      <trkpt lat="44.05654" lon="3.52409">
        <ele>1255</ele>
        <time>2019-02-01T15:40:18Z</time>
      </trkpt>
      <trkpt lat="44.05656" lon="3.52418">
        <ele>1255</ele>
        <time>2019-02-01T15:40:18Z</time>
      </trkpt>
      <trkpt lat="44.05656" lon="3.52427">
        <ele>1255</ele>
        <time>2019-02-01T15:40:18Z</time>
      </trkpt>
      <trkpt lat="44.05655" lon="3.52434">
        <ele>1255</ele>
        <time>2019-02-01T15:40:18Z</time>
      </trkpt>
      <trkpt lat="44.05654" lon="3.5244">
        <ele>1255</ele>
        <time>2019-02-01T15:40:34Z</time>
      </trkpt>
      <trkpt lat="44.05655" lon="3.52444">
        <ele>1255</ele>
        <time>2019-02-01T15:40:34Z</time>
      </trkpt>
      <trkpt lat="44.05655" lon="3.52448">
        <ele>1255</ele>
        <time>2019-02-01T15:40:34Z</time>
      </trkpt>
      <trkpt lat="44.05655" lon="3.52452">
        <ele>1255</ele>
        <time>2019-02-01T15:40:34Z</time>
      </trkpt>
      <trkpt lat="44.05657" lon="3.52458">
        <ele>1255</ele>
        <time>2019-02-01T15:40:54Z</time>
      </trkpt>
      <trkpt lat="44.05658" lon="3.52463">
        <ele>1256</ele>
        <time>2019-02-01T15:40:54Z</time>
      </trkpt>
      <trkpt lat="44.05659" lon="3.52467">
        <ele>1256</ele>
        <time>2019-02-01T15:40:54Z</time>
      </trkpt>
      <trkpt lat="44.05658" lon="3.5247">
        <ele>1256</ele>
        <time>2019-02-01T15:40:54Z</time>
      </trkpt>
      <trkpt lat="44.05657" lon="3.52478">
        <ele>1256</ele>
        <time>2019-02-01T15:40:54Z</time>
      </trkpt>
      <trkpt lat="44.05656" lon="3.52484">
        <ele>1256</ele>
        <time>2019-02-01T15:41:10Z</time>
      </trkpt>
      <trkpt lat="44.05656" lon="3.52487">
        <ele>1256</ele>
        <time>2019-02-01T15:41:10Z</time>
      </trkpt>
      <trkpt lat="44.05655" lon="3.52491">
        <ele>1256</ele>
        <time>2019-02-01T15:41:10Z</time>
      </trkpt>
      <trkpt lat="44.05651" lon="3.52497">
        <ele>1256</ele>
        <time>2019-02-01T15:41:10Z</time>
      </trkpt>
      <trkpt lat="44.05649" lon="3.52501">
        <ele>1256</ele>
        <time>2019-02-01T15:41:26Z</time>
      </trkpt>
      <trkpt lat="44.05645" lon="3.52505">
        <ele>1256</ele>
        <time>2019-02-01T15:41:26Z</time>
      </trkpt>
      <trkpt lat="44.05643" lon="3.52509">
        <ele>1256</ele>
        <time>2019-02-01T15:41:26Z</time>
      </trkpt>
      <trkpt lat="44.05641" lon="3.52513">
        <ele>1256</ele>
        <time>2019-02-01T15:41:26Z</time>
      </trkpt>
      <trkpt lat="44.05638" lon="3.5252">
        <ele>1256</ele>
        <time>2019-02-01T15:41:42Z</time>
      </trkpt>
      <trkpt lat="44.05636" lon="3.52527">
        <ele>1256</ele>
        <time>2019-02-01T15:41:42Z</time>
      </trkpt>
      <trkpt lat="44.05634" lon="3.52532">
        <ele>1256</ele>
        <time>2019-02-01T15:41:42Z</time>
      </trkpt>
      <trkpt lat="44.05631" lon="3.52539">
        <ele>1256</ele>
        <time>2019-02-01T15:41:42Z</time>
      </trkpt>
      <trkpt lat="44.05629" lon="3.52544">
        <ele>1259</ele>
        <time>2019-02-01T15:41:58Z</time>
      </trkpt>
      <trkpt lat="44.05625" lon="3.52549">
        <ele>1257</ele>
        <time>2019-02-01T15:41:58Z</time>
      </trkpt>
      <trkpt lat="44.05622" lon="3.52552">
        <ele>1257</ele>
        <time>2019-02-01T15:41:58Z</time>
      </trkpt>
      <trkpt lat="44.05621" lon="3.52556">
        <ele>1257</ele>
        <time>2019-02-01T15:41:58Z</time>
      </trkpt>
      <trkpt lat="44.0562" lon="3.52561">
        <ele>1257</ele>
        <time>2019-02-01T15:42:14Z</time>
      </trkpt>
      <trkpt lat="44.0562" lon="3.52566">
        <ele>1257</ele>
        <time>2019-02-01T15:42:14Z</time>
      </trkpt>
      <trkpt lat="44.05621" lon="3.52571">
        <ele>1257</ele>
        <time>2019-02-01T15:42:14Z</time>
      </trkpt>
      <trkpt lat="44.05618" lon="3.52576">
        <ele>1257</ele>
        <time>2019-02-01T15:42:14Z</time>
      </trkpt>
      <trkpt lat="44.05616" lon="3.52581">
        <ele>1257</ele>
        <time>2019-02-01T15:42:30Z</time>
      </trkpt>
      <trkpt lat="44.05614" lon="3.52586">
        <ele>1257</ele>
        <time>2019-02-01T15:42:30Z</time>
      </trkpt>
      <trkpt lat="44.05612" lon="3.5259">
        <ele>1257</ele>
        <time>2019-02-01T15:42:30Z</time>
      </trkpt>
      <trkpt lat="44.05609" lon="3.52593">
        <ele>1257</ele>
        <time>2019-02-01T15:42:30Z</time>
      </trkpt>
      <trkpt lat="44.05607" lon="3.52598">
        <ele>1257</ele>
        <time>2019-02-01T15:42:46Z</time>
      </trkpt>
      <trkpt lat="44.05605" lon="3.52599">
        <ele>1257</ele>
        <time>2019-02-01T15:42:46Z</time>
      </trkpt>
      <trkpt lat="44.05603" lon="3.52604">
        <ele>1257</ele>
        <time>2019-02-01T15:42:46Z</time>
      </trkpt>
      <trkpt lat="44.056" lon="3.5261">
        <ele>1257</ele>
        <time>2019-02-01T15:42:46Z</time>
      </trkpt>
      <trkpt lat="44.05598" lon="3.52615">
        <ele>1257</ele>
        <time>2019-02-01T15:43:02Z</time>
      </trkpt>
      <trkpt lat="44.05597" lon="3.52622">
        <ele>1257</ele>
        <time>2019-02-01T15:43:02Z</time>
      </trkpt>
      <trkpt lat="44.05597" lon="3.52628">
        <ele>1264</ele>
        <time>2019-02-01T15:43:02Z</time>
      </trkpt>
      <trkpt lat="44.05594" lon="3.52633">
        <ele>1264</ele>
        <time>2019-02-01T15:43:02Z</time>
      </trkpt>
      <trkpt lat="44.05593" lon="3.52637">
        <ele>1264</ele>
        <time>2019-02-01T15:43:18Z</time>
      </trkpt>
      <trkpt lat="44.05591" lon="3.52641">
        <ele>1264</ele>
        <time>2019-02-01T15:43:18Z</time>
      </trkpt>
      <trkpt lat="44.0559" lon="3.52645">
        <ele>1264</ele>
        <time>2019-02-01T15:43:18Z</time>
      </trkpt>
      <trkpt lat="44.05588" lon="3.52652">
        <ele>1264</ele>
        <time>2019-02-01T15:43:18Z</time>
      </trkpt>
      <trkpt lat="44.05587" lon="3.52657">
        <ele>1264</ele>
        <time>2019-02-01T15:43:34Z</time>
      </trkpt>
      <trkpt lat="44.05586" lon="3.52663">
        <ele>1264</ele>
        <time>2019-02-01T15:43:34Z</time>
      </trkpt>
      <trkpt lat="44.05583" lon="3.52667">
        <ele>1264</ele>
        <time>2019-02-01T15:43:34Z</time>
      </trkpt>
      <trkpt lat="44.05581" lon="3.52672">
        <ele>1264</ele>
        <time>2019-02-01T15:43:34Z</time>
      </trkpt>
      <trkpt lat="44.0558" lon="3.52677">
        <ele>1264</ele>
        <time>2019-02-01T15:43:50Z</time>
      </trkpt>
      <trkpt lat="44.05578" lon="3.52682">
        <ele>1264</ele>
        <time>2019-02-01T15:43:50Z</time>
      </trkpt>
      <trkpt lat="44.05576" lon="3.52688">
        <ele>1264</ele>
        <time>2019-02-01T15:43:50Z</time>
      </trkpt>
      <trkpt lat="44.05573" lon="3.52693">
        <ele>1264</ele>
        <time>2019-02-01T15:43:50Z</time>
      </trkpt>
      <trkpt lat="44.05572" lon="3.52698">
        <ele>1264</ele>
        <time>2019-02-01T15:44:06Z</time>
      </trkpt>
      <trkpt lat="44.05571" lon="3.52704">
        <ele>1264</ele>
        <time>2019-02-01T15:44:06Z</time>
      </trkpt>
      <trkpt lat="44.05568" lon="3.52709">
        <ele>1268</ele>
        <time>2019-02-01T15:44:06Z</time>
      </trkpt>
      <trkpt lat="44.05567" lon="3.52714">
        <ele>1268</ele>
        <time>2019-02-01T15:44:06Z</time>
      </trkpt>
      <trkpt lat="44.05564" lon="3.52719">
        <ele>1268</ele>
        <time>2019-02-01T15:44:22Z</time>
      </trkpt>
      <trkpt lat="44.05563" lon="3.52723">
        <ele>1268</ele>
        <time>2019-02-01T15:44:22Z</time>
      </trkpt>
      <trkpt lat="44.0556" lon="3.5273">
        <ele>1268</ele>
        <time>2019-02-01T15:44:22Z</time>
      </trkpt>
      <trkpt lat="44.05558" lon="3.52736">
        <ele>1268</ele>
        <time>2019-02-01T15:44:22Z</time>
      </trkpt>
      <trkpt lat="44.05555" lon="3.52741">
        <ele>1268</ele>
        <time>2019-02-01T15:44:38Z</time>
      </trkpt>
      <trkpt lat="44.05553" lon="3.52747">
        <ele>1268</ele>
        <time>2019-02-01T15:44:38Z</time>
      </trkpt>
      <trkpt lat="44.05552" lon="3.52753">
        <ele>1268</ele>
        <time>2019-02-01T15:44:38Z</time>
      </trkpt>
      <trkpt lat="44.05549" lon="3.52759">
        <ele>1268</ele>
        <time>2019-02-01T15:44:38Z</time>
      </trkpt>
      <trkpt lat="44.05547" lon="3.52765">
        <ele>1268</ele>
        <time>2019-02-01T15:44:54Z</time>
      </trkpt>
      <trkpt lat="44.05545" lon="3.52769">
        <ele>1268</ele>
        <time>2019-02-01T15:44:54Z</time>
      </trkpt>
      <trkpt lat="44.05542" lon="3.52776">
        <ele>1268</ele>
        <time>2019-02-01T15:44:54Z</time>
      </trkpt>
      <trkpt lat="44.0554" lon="3.52782">
        <ele>1260</ele>
        <time>2019-02-01T15:44:54Z</time>
      </trkpt>
      <trkpt lat="44.05539" lon="3.52788">
        <ele>1260</ele>
        <time>2019-02-01T15:45:10Z</time>
      </trkpt>
      <trkpt lat="44.05536" lon="3.52794">
        <ele>1266</ele>
        <time>2019-02-01T15:45:10Z</time>
      </trkpt>
      <trkpt lat="44.05534" lon="3.52799">
        <ele>1266</ele>
        <time>2019-02-01T15:45:10Z</time>
      </trkpt>
      <trkpt lat="44.0553" lon="3.52804">
        <ele>1266</ele>
        <time>2019-02-01T15:45:10Z</time>
      </trkpt>
      <trkpt lat="44.05528" lon="3.52809">
        <ele>1266</ele>
        <time>2019-02-01T15:45:26Z</time>
      </trkpt>
      <trkpt lat="44.05528" lon="3.5281">
        <ele>1266</ele>
        <time>2019-02-01T15:45:26Z</time>
      </trkpt>
      <trkpt lat="44.05526" lon="3.52815">
        <ele>1266</ele>
        <time>2019-02-01T15:45:26Z</time>
      </trkpt>
      <trkpt lat="44.05524" lon="3.52821">
        <ele>1266</ele>
        <time>2019-02-01T15:45:26Z</time>
      </trkpt>
      <trkpt lat="44.05521" lon="3.52826">
        <ele>1266</ele>
        <time>2019-02-01T15:45:42Z</time>
      </trkpt>
      <trkpt lat="44.05518" lon="3.5283">
        <ele>1266</ele>
        <time>2019-02-01T15:45:42Z</time>
      </trkpt>
      <trkpt lat="44.05515" lon="3.52835">
        <ele>1266</ele>
        <time>2019-02-01T15:45:42Z</time>
      </trkpt>
      <trkpt lat="44.05511" lon="3.52841">
        <ele>1266</ele>
        <time>2019-02-01T15:45:42Z</time>
      </trkpt>
      <trkpt lat="44.05507" lon="3.52844">
        <ele>1266</ele>
        <time>2019-02-01T15:45:58Z</time>
      </trkpt>
      <trkpt lat="44.05504" lon="3.52847">
        <ele>1266</ele>
        <time>2019-02-01T15:45:58Z</time>
      </trkpt>
      <trkpt lat="44.05501" lon="3.52852">
        <ele>1266</ele>
        <time>2019-02-01T15:45:58Z</time>
      </trkpt>
      <trkpt lat="44.05497" lon="3.52856">
        <ele>1266</ele>
        <time>2019-02-01T15:45:58Z</time>
      </trkpt>
      <trkpt lat="44.05494" lon="3.52859">
        <ele>1266</ele>
        <time>2019-02-01T15:46:14Z</time>
      </trkpt>
      <trkpt lat="44.0549" lon="3.52863">
        <ele>1266</ele>
        <time>2019-02-01T15:46:14Z</time>
      </trkpt>
      <trkpt lat="44.05486" lon="3.52867">
        <ele>1266</ele>
        <time>2019-02-01T15:46:14Z</time>
      </trkpt>
      <trkpt lat="44.05482" lon="3.52871">
        <ele>1266</ele>
        <time>2019-02-01T15:46:14Z</time>
      </trkpt>
      <trkpt lat="44.05479" lon="3.52873">
        <ele>1266</ele>
        <time>2019-02-01T15:46:30Z</time>
      </trkpt>
      <trkpt lat="44.05477" lon="3.52875">
        <ele>1266</ele>
        <time>2019-02-01T15:46:30Z</time>
      </trkpt>
      <trkpt lat="44.05475" lon="3.5288">
        <ele>1268</ele>
        <time>2019-02-01T15:46:30Z</time>
      </trkpt>
      <trkpt lat="44.05471" lon="3.52884">
        <ele>1268</ele>
        <time>2019-02-01T15:46:30Z</time>
      </trkpt>
      <trkpt lat="44.05467" lon="3.52889">
        <ele>1268</ele>
        <time>2019-02-01T15:46:46Z</time>
      </trkpt>
      <trkpt lat="44.05462" lon="3.52894">
        <ele>1268</ele>
        <time>2019-02-01T15:46:46Z</time>
      </trkpt>
      <trkpt lat="44.05457" lon="3.52897">
        <ele>1262</ele>
        <time>2019-02-01T15:46:46Z</time>
      </trkpt>
      <trkpt lat="44.05453" lon="3.529">
        <ele>1262</ele>
        <time>2019-02-01T15:46:46Z</time>
      </trkpt>
      <trkpt lat="44.05448" lon="3.52906">
        <ele>1262</ele>
        <time>2019-02-01T15:47:02Z</time>
      </trkpt>
      <trkpt lat="44.05444" lon="3.52908">
        <ele>1262</ele>
        <time>2019-02-01T15:47:02Z</time>
      </trkpt>
      <trkpt lat="44.05441" lon="3.52909">
        <ele>1262</ele>
        <time>2019-02-01T15:47:02Z</time>
      </trkpt>
      <trkpt lat="44.05437" lon="3.52912">
        <ele>1262</ele>
        <time>2019-02-01T15:47:02Z</time>
      </trkpt>
      <trkpt lat="44.05433" lon="3.52914">
        <ele>1262</ele>
        <time>2019-02-01T15:47:18Z</time>
      </trkpt>
      <trkpt lat="44.0543" lon="3.52915">
        <ele>1262</ele>
        <time>2019-02-01T15:47:18Z</time>
      </trkpt>
      <trkpt lat="44.05426" lon="3.5292">
        <ele>1262</ele>
        <time>2019-02-01T15:47:18Z</time>
      </trkpt>
      <trkpt lat="44.05421" lon="3.52923">
        <ele>1262</ele>
        <time>2019-02-01T15:47:18Z</time>
      </trkpt>
      <trkpt lat="44.05417" lon="3.52926">
        <ele>1262</ele>
        <time>2019-02-01T15:47:34Z</time>
      </trkpt>
      <trkpt lat="44.05413" lon="3.52927">
        <ele>1262</ele>
        <time>2019-02-01T15:47:34Z</time>
      </trkpt>
      <trkpt lat="44.05409" lon="3.52927">
        <ele>1262</ele>
        <time>2019-02-01T15:47:34Z</time>
      </trkpt>
      <trkpt lat="44.05404" lon="3.52926">
        <ele>1262</ele>
        <time>2019-02-01T15:47:34Z</time>
      </trkpt>
      <trkpt lat="44.05399" lon="3.52924">
        <ele>1262</ele>
        <time>2019-02-01T15:47:50Z</time>
      </trkpt>
      <trkpt lat="44.05394" lon="3.52919">
        <ele>1262</ele>
        <time>2019-02-01T15:47:50Z</time>
      </trkpt>
      <trkpt lat="44.0539" lon="3.52918">
        <ele>1262</ele>
        <time>2019-02-01T15:47:50Z</time>
      </trkpt>
      <trkpt lat="44.05388" lon="3.52916">
        <ele>1262</ele>
        <time>2019-02-01T15:47:50Z</time>
      </trkpt>
      <trkpt lat="44.05383" lon="3.52914">
        <ele>1262</ele>
        <time>2019-02-01T15:48:06Z</time>
      </trkpt>
      <trkpt lat="44.0538" lon="3.52913">
        <ele>1262</ele>
        <time>2019-02-01T15:48:06Z</time>
      </trkpt>
      <trkpt lat="44.05377" lon="3.5291">
        <ele>1262</ele>
        <time>2019-02-01T15:48:06Z</time>
      </trkpt>
      <trkpt lat="44.05372" lon="3.52906">
        <ele>1257</ele>
        <time>2019-02-01T15:48:06Z</time>
      </trkpt>
      <trkpt lat="44.05367" lon="3.52906">
        <ele>1257</ele>
        <time>2019-02-01T15:48:22Z</time>
      </trkpt>
      <trkpt lat="44.05362" lon="3.52904">
        <ele>1257</ele>
        <time>2019-02-01T15:48:22Z</time>
      </trkpt>
      <trkpt lat="44.05356" lon="3.52901">
        <ele>1257</ele>
        <time>2019-02-01T15:48:22Z</time>
      </trkpt>
      <trkpt lat="44.05352" lon="3.529">
        <ele>1257</ele>
        <time>2019-02-01T15:48:22Z</time>
      </trkpt>
      <trkpt lat="44.05345" lon="3.529">
        <ele>1257</ele>
        <time>2019-02-01T15:48:38Z</time>
      </trkpt>
      <trkpt lat="44.05341" lon="3.52898">
        <ele>1257</ele>
        <time>2019-02-01T15:48:38Z</time>
      </trkpt>
      <trkpt lat="44.05336" lon="3.52896">
        <ele>1257</ele>
        <time>2019-02-01T15:48:38Z</time>
      </trkpt>
      <trkpt lat="44.05331" lon="3.52896">
        <ele>1257</ele>
        <time>2019-02-01T15:48:38Z</time>
      </trkpt>
      <trkpt lat="44.05328" lon="3.52896">
        <ele>1257</ele>
        <time>2019-02-01T15:48:54Z</time>
      </trkpt>
      <trkpt lat="44.05324" lon="3.52897">
        <ele>1257</ele>
        <time>2019-02-01T15:48:54Z</time>
      </trkpt>
      <trkpt lat="44.05318" lon="3.52899">
        <ele>1257</ele>
        <time>2019-02-01T15:48:54Z</time>
      </trkpt>
      <trkpt lat="44.05314" lon="3.529">
        <ele>1257</ele>
        <time>2019-02-01T15:48:54Z</time>
      </trkpt>
      <trkpt lat="44.05311" lon="3.529">
        <ele>1257</ele>
        <time>2019-02-01T15:49:10Z</time>
      </trkpt>
      <trkpt lat="44.05307" lon="3.52902">
        <ele>1257</ele>
        <time>2019-02-01T15:49:10Z</time>
      </trkpt>
      <trkpt lat="44.05302" lon="3.52903">
        <ele>1257</ele>
        <time>2019-02-01T15:49:10Z</time>
      </trkpt>
      <trkpt lat="44.05298" lon="3.52905">
        <ele>1257</ele>
        <time>2019-02-01T15:49:10Z</time>
      </trkpt>
      <trkpt lat="44.05291" lon="3.52905">
        <ele>1257</ele>
        <time>2019-02-01T15:49:26Z</time>
      </trkpt>
      <trkpt lat="44.05288" lon="3.52906">
        <ele>1257</ele>
        <time>2019-02-01T15:49:26Z</time>
      </trkpt>
      <trkpt lat="44.05287" lon="3.52912">
        <ele>1257</ele>
        <time>2019-02-01T15:49:26Z</time>
      </trkpt>
      <trkpt lat="44.05281" lon="3.52911">
        <ele>1257</ele>
        <time>2019-02-01T15:49:26Z</time>
      </trkpt>
      <trkpt lat="44.05277" lon="3.52912">
        <ele>1257</ele>
        <time>2019-02-01T15:49:42Z</time>
      </trkpt>
      <trkpt lat="44.05272" lon="3.52914">
        <ele>1257</ele>
        <time>2019-02-01T15:49:42Z</time>
      </trkpt>
      <trkpt lat="44.05267" lon="3.52916">
        <ele>1257</ele>
        <time>2019-02-01T15:49:42Z</time>
      </trkpt>
      <trkpt lat="44.05262" lon="3.52917">
        <ele>1257</ele>
        <time>2019-02-01T15:49:42Z</time>
      </trkpt>
      <trkpt lat="44.05255" lon="3.52917">
        <ele>1257</ele>
        <time>2019-02-01T15:50:02Z</time>
      </trkpt>
      <trkpt lat="44.05253" lon="3.52917">
        <ele>1257</ele>
        <time>2019-02-01T15:50:02Z</time>
      </trkpt>
      <trkpt lat="44.0525" lon="3.52918">
        <ele>1257</ele>
        <time>2019-02-01T15:50:02Z</time>
      </trkpt>
      <trkpt lat="44.05247" lon="3.52918">
        <ele>1257</ele>
        <time>2019-02-01T15:50:02Z</time>
      </trkpt>
      <trkpt lat="44.05244" lon="3.52918">
        <ele>1257</ele>
        <time>2019-02-01T15:50:02Z</time>
      </trkpt>
      <trkpt lat="44.05238" lon="3.52919">
        <ele>1257</ele>
        <time>2019-02-01T15:50:18Z</time>
      </trkpt>
      <trkpt lat="44.05235" lon="3.52922">
        <ele>1257</ele>
        <time>2019-02-01T15:50:18Z</time>
      </trkpt>
      <trkpt lat="44.05231" lon="3.52924">
        <ele>1257</ele>
        <time>2019-02-01T15:50:18Z</time>
      </trkpt>
      <trkpt lat="44.05227" lon="3.52929">
        <ele>1257</ele>
        <time>2019-02-01T15:50:18Z</time>
      </trkpt>
      <trkpt lat="44.05225" lon="3.52931">
        <ele>1257</ele>
        <time>2019-02-01T15:50:34Z</time>
      </trkpt>
      <trkpt lat="44.05222" lon="3.52934">
        <ele>1257</ele>
        <time>2019-02-01T15:50:34Z</time>
      </trkpt>
      <trkpt lat="44.05221" lon="3.52939">
        <ele>1257</ele>
        <time>2019-02-01T15:50:34Z</time>
      </trkpt>
      <trkpt lat="44.05218" lon="3.52943">
        <ele>1257</ele>
        <time>2019-02-01T15:50:34Z</time>
      </trkpt>
      <trkpt lat="44.05214" lon="3.52947">
        <ele>1257</ele>
        <time>2019-02-01T15:50:50Z</time>
      </trkpt>
      <trkpt lat="44.05212" lon="3.52951">
        <ele>1257</ele>
        <time>2019-02-01T15:50:50Z</time>
      </trkpt>
      <trkpt lat="44.05212" lon="3.52955">
        <ele>1257</ele>
        <time>2019-02-01T15:50:50Z</time>
      </trkpt>
      <trkpt lat="44.05211" lon="3.52961">
        <ele>1246</ele>
        <time>2019-02-01T15:50:50Z</time>
      </trkpt>
      <trkpt lat="44.0521" lon="3.52964">
        <ele>1246</ele>
        <time>2019-02-01T15:51:06Z</time>
      </trkpt>
      <trkpt lat="44.05206" lon="3.5297">
        <ele>1256</ele>
        <time>2019-02-01T15:51:06Z</time>
      </trkpt>
      <trkpt lat="44.05202" lon="3.52977">
        <ele>1256</ele>
        <time>2019-02-01T15:51:06Z</time>
      </trkpt>
      <trkpt lat="44.05201" lon="3.52981">
        <ele>1256</ele>
        <time>2019-02-01T15:51:06Z</time>
      </trkpt>
      <trkpt lat="44.05199" lon="3.52988">
        <ele>1256</ele>
        <time>2019-02-01T15:51:22Z</time>
      </trkpt>
      <trkpt lat="44.05198" lon="3.52992">
        <ele>1256</ele>
        <time>2019-02-01T15:51:22Z</time>
      </trkpt>
      <trkpt lat="44.05197" lon="3.52995">
        <ele>1256</ele>
        <time>2019-02-01T15:51:22Z</time>
      </trkpt>
      <trkpt lat="44.05196" lon="3.53001">
        <ele>1256</ele>
        <time>2019-02-01T15:51:22Z</time>
      </trkpt>
      <trkpt lat="44.05195" lon="3.53005">
        <ele>1256</ele>
        <time>2019-02-01T15:51:38Z</time>
      </trkpt>
      <trkpt lat="44.05193" lon="3.53009">
        <ele>1256</ele>
        <time>2019-02-01T15:51:38Z</time>
      </trkpt>
      <trkpt lat="44.05188" lon="3.53016">
        <ele>1256</ele>
        <time>2019-02-01T15:51:38Z</time>
      </trkpt>
      <trkpt lat="44.05186" lon="3.53023">
        <ele>1256</ele>
        <time>2019-02-01T15:51:38Z</time>
      </trkpt>
      <trkpt lat="44.05185" lon="3.53027">
        <ele>1256</ele>
        <time>2019-02-01T15:51:54Z</time>
      </trkpt>
      <trkpt lat="44.05183" lon="3.53032">
        <ele>1256</ele>
        <time>2019-02-01T15:51:54Z</time>
      </trkpt>
      <trkpt lat="44.05181" lon="3.53038">
        <ele>1256</ele>
        <time>2019-02-01T15:51:54Z</time>
      </trkpt>
      <trkpt lat="44.0518" lon="3.53044">
        <ele>1252</ele>
        <time>2019-02-01T15:51:54Z</time>
      </trkpt>
      <trkpt lat="44.05179" lon="3.53049">
        <ele>1252</ele>
        <time>2019-02-01T15:52:14Z</time>
      </trkpt>
      <trkpt lat="44.0518" lon="3.53055">
        <ele>1252</ele>
        <time>2019-02-01T15:52:14Z</time>
      </trkpt>
      <trkpt lat="44.05179" lon="3.53056">
        <ele>1252</ele>
        <time>2019-02-01T15:52:14Z</time>
      </trkpt>
      <trkpt lat="44.05179" lon="3.53057">
        <ele>1252</ele>
        <time>2019-02-01T15:52:14Z</time>
      </trkpt>
      <trkpt lat="44.05178" lon="3.53065">
        <ele>1252</ele>
        <time>2019-02-01T15:52:14Z</time>
      </trkpt>
      <trkpt lat="44.05176" lon="3.5307">
        <ele>1252</ele>
        <time>2019-02-01T15:52:30Z</time>
      </trkpt>
      <trkpt lat="44.05175" lon="3.53077">
        <ele>1252</ele>
        <time>2019-02-01T15:52:30Z</time>
      </trkpt>
      <trkpt lat="44.05175" lon="3.53082">
        <ele>1252</ele>
        <time>2019-02-01T15:52:30Z</time>
      </trkpt>
      <trkpt lat="44.05174" lon="3.53087">
        <ele>1252</ele>
        <time>2019-02-01T15:52:30Z</time>
      </trkpt>
      <trkpt lat="44.05173" lon="3.53092">
        <ele>1252</ele>
        <time>2019-02-01T15:52:46Z</time>
      </trkpt>
      <trkpt lat="44.05172" lon="3.53097">
        <ele>1252</ele>
        <time>2019-02-01T15:52:46Z</time>
      </trkpt>
      <trkpt lat="44.0517" lon="3.53102">
        <ele>1252</ele>
        <time>2019-02-01T15:52:46Z</time>
      </trkpt>
      <trkpt lat="44.05167" lon="3.53105">
        <ele>1252</ele>
        <time>2019-02-01T15:52:46Z</time>
      </trkpt>
      <trkpt lat="44.05164" lon="3.53108">
        <ele>1252</ele>
        <time>2019-02-01T15:53:02Z</time>
      </trkpt>
      <trkpt lat="44.05162" lon="3.53112">
        <ele>1252</ele>
        <time>2019-02-01T15:53:02Z</time>
      </trkpt>
      <trkpt lat="44.0516" lon="3.53116">
        <ele>1252</ele>
        <time>2019-02-01T15:53:02Z</time>
      </trkpt>
      <trkpt lat="44.05156" lon="3.5312">
        <ele>1252</ele>
        <time>2019-02-01T15:53:02Z</time>
      </trkpt>
      <trkpt lat="44.05153" lon="3.53124">
        <ele>1252</ele>
        <time>2019-02-01T15:53:18Z</time>
      </trkpt>
      <trkpt lat="44.05151" lon="3.53128">
        <ele>1250</ele>
        <time>2019-02-01T15:53:18Z</time>
      </trkpt>
      <trkpt lat="44.05149" lon="3.53132">
        <ele>1250</ele>
        <time>2019-02-01T15:53:18Z</time>
      </trkpt>
      <trkpt lat="44.05145" lon="3.53135">
        <ele>1250</ele>
        <time>2019-02-01T15:53:18Z</time>
      </trkpt>
      <trkpt lat="44.05141" lon="3.53137">
        <ele>1250</ele>
        <time>2019-02-01T15:53:34Z</time>
      </trkpt>
      <trkpt lat="44.05138" lon="3.53141">
        <ele>1250</ele>
        <time>2019-02-01T15:53:34Z</time>
      </trkpt>
      <trkpt lat="44.05135" lon="3.53144">
        <ele>1250</ele>
        <time>2019-02-01T15:53:34Z</time>
      </trkpt>
      <trkpt lat="44.05131" lon="3.53148">
        <ele>1250</ele>
        <time>2019-02-01T15:53:34Z</time>
      </trkpt>
      <trkpt lat="44.0513" lon="3.5315">
        <ele>1250</ele>
        <time>2019-02-01T15:53:58Z</time>
      </trkpt>
      <trkpt lat="44.05127" lon="3.5315">
        <ele>1250</ele>
        <time>2019-02-01T15:53:58Z</time>
      </trkpt>
      <trkpt lat="44.05124" lon="3.53152">
        <ele>1264</ele>
        <time>2019-02-01T15:53:58Z</time>
      </trkpt>
      <trkpt lat="44.05124" lon="3.53152">
        <ele>1264</ele>
        <time>2019-02-01T15:53:58Z</time>
      </trkpt>
      <trkpt lat="44.05122" lon="3.53156">
        <ele>1264</ele>
        <time>2019-02-01T15:53:58Z</time>
      </trkpt>
      <trkpt lat="44.05118" lon="3.5316">
        <ele>1264</ele>
        <time>2019-02-01T15:54:22Z</time>
      </trkpt>
      <trkpt lat="44.05118" lon="3.5316">
        <ele>1264</ele>
        <time>2019-02-01T15:54:22Z</time>
      </trkpt>
      <trkpt lat="44.05115" lon="3.53162">
        <ele>1264</ele>
        <time>2019-02-01T15:54:22Z</time>
      </trkpt>
      <trkpt lat="44.05113" lon="3.53166">
        <ele>1264</ele>
        <time>2019-02-01T15:54:22Z</time>
      </trkpt>
      <trkpt lat="44.0511" lon="3.53171">
        <ele>1264</ele>
        <time>2019-02-01T15:54:22Z</time>
      </trkpt>
      <trkpt lat="44.05107" lon="3.53175">
        <ele>1264</ele>
        <time>2019-02-01T15:54:38Z</time>
      </trkpt>
      <trkpt lat="44.05104" lon="3.53179">
        <ele>1264</ele>
        <time>2019-02-01T15:54:38Z</time>
      </trkpt>
      <trkpt lat="44.05102" lon="3.53182">
        <ele>1264</ele>
        <time>2019-02-01T15:54:38Z</time>
      </trkpt>
      <trkpt lat="44.05098" lon="3.53184">
        <ele>1264</ele>
        <time>2019-02-01T15:54:38Z</time>
      </trkpt>
      <trkpt lat="44.05098" lon="3.53185">
        <ele>1264</ele>
        <time>2019-02-01T15:55:06Z</time>
      </trkpt>
      <trkpt lat="44.05093" lon="3.53194">
        <ele>1264</ele>
        <time>2019-02-01T15:55:06Z</time>
      </trkpt>
      <trkpt lat="44.05091" lon="3.532">
        <ele>1264</ele>
        <time>2019-02-01T15:55:06Z</time>
      </trkpt>
      <trkpt lat="44.05089" lon="3.53201">
        <ele>1264</ele>
        <time>2019-02-01T15:55:06Z</time>
      </trkpt>
      <trkpt lat="44.05085" lon="3.53205">
        <ele>1264</ele>
        <time>2019-02-01T15:55:22Z</time>
      </trkpt>
      <trkpt lat="44.05083" lon="3.53209">
        <ele>1261</ele>
        <time>2019-02-01T15:55:22Z</time>
      </trkpt>
      <trkpt lat="44.05081" lon="3.53214">
        <ele>1261</ele>
        <time>2019-02-01T15:55:22Z</time>
      </trkpt>
      <trkpt lat="44.05078" lon="3.53221">
        <ele>1261</ele>
        <time>2019-02-01T15:55:22Z</time>
      </trkpt>
      <trkpt lat="44.05077" lon="3.53225">
        <ele>1261</ele>
        <time>2019-02-01T15:55:38Z</time>
      </trkpt>
      <trkpt lat="44.05076" lon="3.53228">
        <ele>1261</ele>
        <time>2019-02-01T15:55:38Z</time>
      </trkpt>
      <trkpt lat="44.05075" lon="3.53233">
        <ele>1261</ele>
        <time>2019-02-01T15:55:38Z</time>
      </trkpt>
      <trkpt lat="44.05073" lon="3.53238">
        <ele>1261</ele>
        <time>2019-02-01T15:55:38Z</time>
      </trkpt>
      <trkpt lat="44.05069" lon="3.53244">
        <ele>1261</ele>
        <time>2019-02-01T15:56:06Z</time>
      </trkpt>
      <trkpt lat="44.05069" lon="3.53245">
        <ele>1261</ele>
        <time>2019-02-01T15:56:06Z</time>
      </trkpt>
      <trkpt lat="44.05069" lon="3.53246">
        <ele>1261</ele>
        <time>2019-02-01T15:56:06Z</time>
      </trkpt>
      <trkpt lat="44.05066" lon="3.53251">
        <ele>1261</ele>
        <time>2019-02-01T15:56:06Z</time>
      </trkpt>
      <trkpt lat="44.05065" lon="3.53253">
        <ele>1261</ele>
        <time>2019-02-01T15:56:06Z</time>
      </trkpt>
      <trkpt lat="44.05062" lon="3.53257">
        <ele>1261</ele>
        <time>2019-02-01T15:56:22Z</time>
      </trkpt>
      <trkpt lat="44.05059" lon="3.53261">
        <ele>1261</ele>
        <time>2019-02-01T15:56:22Z</time>
      </trkpt>
      <trkpt lat="44.05058" lon="3.53268">
        <ele>1261</ele>
        <time>2019-02-01T15:56:22Z</time>
      </trkpt>
      <trkpt lat="44.05056" lon="3.53273">
        <ele>1261</ele>
        <time>2019-02-01T15:56:22Z</time>
      </trkpt>
      <trkpt lat="44.05055" lon="3.53279">
        <ele>1261</ele>
        <time>2019-02-01T15:56:38Z</time>
      </trkpt>
      <trkpt lat="44.05053" lon="3.53285">
        <ele>1261</ele>
        <time>2019-02-01T15:56:38Z</time>
      </trkpt>
      <trkpt lat="44.05051" lon="3.53292">
        <ele>1264</ele>
        <time>2019-02-01T15:56:38Z</time>
      </trkpt>
      <trkpt lat="44.0505" lon="3.53298">
        <ele>1264</ele>
        <time>2019-02-01T15:56:38Z</time>
      </trkpt>
      <trkpt lat="44.05048" lon="3.53302">
        <ele>1264</ele>
        <time>2019-02-01T15:57:26Z</time>
      </trkpt>
      <trkpt lat="44.05047" lon="3.53304">
        <ele>1264</ele>
        <time>2019-02-01T15:57:26Z</time>
      </trkpt>
      <trkpt lat="44.05046" lon="3.53306">
        <ele>1264</ele>
        <time>2019-02-01T15:57:26Z</time>
      </trkpt>
      <trkpt lat="44.05044" lon="3.53312">
        <ele>1264</ele>
        <time>2019-02-01T15:57:26Z</time>
      </trkpt>
      <trkpt lat="44.05043" lon="3.53317">
        <ele>1264</ele>
        <time>2019-02-01T15:57:26Z</time>
      </trkpt>
      <trkpt lat="44.05042" lon="3.53323">
        <ele>1264</ele>
        <time>2019-02-01T15:57:42Z</time>
      </trkpt>
      <trkpt lat="44.0504" lon="3.53326">
        <ele>1276</ele>
        <time>2019-02-01T15:57:42Z</time>
      </trkpt>
      <trkpt lat="44.05038" lon="3.53332">
        <ele>1276</ele>
        <time>2019-02-01T15:57:42Z</time>
      </trkpt>
      <trkpt lat="44.05038" lon="3.53336">
        <ele>1276</ele>
        <time>2019-02-01T15:57:42Z</time>
      </trkpt>
      <trkpt lat="44.05037" lon="3.53341">
        <ele>1276</ele>
        <time>2019-02-01T15:57:58Z</time>
      </trkpt>
      <trkpt lat="44.05036" lon="3.53347">
        <ele>1276</ele>
        <time>2019-02-01T15:57:58Z</time>
      </trkpt>
      <trkpt lat="44.05034" lon="3.53353">
        <ele>1276</ele>
        <time>2019-02-01T15:57:58Z</time>
      </trkpt>
      <trkpt lat="44.05034" lon="3.53357">
        <ele>1276</ele>
        <time>2019-02-01T15:57:58Z</time>
      </trkpt>
      <trkpt lat="44.05032" lon="3.5336">
        <ele>1276</ele>
        <time>2019-02-01T15:58:14Z</time>
      </trkpt>
      <trkpt lat="44.0503" lon="3.53365">
        <ele>1276</ele>
        <time>2019-02-01T15:58:14Z</time>
      </trkpt>
      <trkpt lat="44.05029" lon="3.53369">
        <ele>1276</ele>
        <time>2019-02-01T15:58:14Z</time>
      </trkpt>
      <trkpt lat="44.05027" lon="3.53372">
        <ele>1276</ele>
        <time>2019-02-01T15:58:14Z</time>
      </trkpt>
      <trkpt lat="44.05027" lon="3.53375">
        <ele>1276</ele>
        <time>2019-02-01T15:58:30Z</time>
      </trkpt>
      <trkpt lat="44.05025" lon="3.53377">
        <ele>1274</ele>
        <time>2019-02-01T15:58:30Z</time>
      </trkpt>
      <trkpt lat="44.05022" lon="3.53381">
        <ele>1274</ele>
        <time>2019-02-01T15:58:30Z</time>
      </trkpt>
      <trkpt lat="44.0502" lon="3.53386">
        <ele>1274</ele>
        <time>2019-02-01T15:58:30Z</time>
      </trkpt>
      <trkpt lat="44.05018" lon="3.53389">
        <ele>1274</ele>
        <time>2019-02-01T15:59:10Z</time>
      </trkpt>
      <trkpt lat="44.05017" lon="3.53393">
        <ele>1274</ele>
        <time>2019-02-01T15:59:10Z</time>
      </trkpt>
      <trkpt lat="44.05016" lon="3.53394">
        <ele>1274</ele>
        <time>2019-02-01T15:59:10Z</time>
      </trkpt>
      <trkpt lat="44.05015" lon="3.53395">
        <ele>1274</ele>
        <time>2019-02-01T15:59:10Z</time>
      </trkpt>
      <trkpt lat="44.05012" lon="3.53399">
        <ele>1274</ele>
        <time>2019-02-01T15:59:10Z</time>
      </trkpt>
      <trkpt lat="44.0501" lon="3.53403">
        <ele>1274</ele>
        <time>2019-02-01T15:59:26Z</time>
      </trkpt>
      <trkpt lat="44.05009" lon="3.53406">
        <ele>1274</ele>
        <time>2019-02-01T15:59:26Z</time>
      </trkpt>
      <trkpt lat="44.05005" lon="3.53409">
        <ele>1274</ele>
        <time>2019-02-01T15:59:26Z</time>
      </trkpt>
      <trkpt lat="44.05004" lon="3.53414">
        <ele>1274</ele>
        <time>2019-02-01T15:59:26Z</time>
      </trkpt>
      <trkpt lat="44.04999" lon="3.53419">
        <ele>1274</ele>
        <time>2019-02-01T15:59:50Z</time>
      </trkpt>
      <trkpt lat="44.04997" lon="3.53421">
        <ele>1274</ele>
        <time>2019-02-01T15:59:50Z</time>
      </trkpt>
      <trkpt lat="44.04997" lon="3.53422">
        <ele>1274</ele>
        <time>2019-02-01T15:59:50Z</time>
      </trkpt>
      <trkpt lat="44.04995" lon="3.53424">
        <ele>1274</ele>
        <time>2019-02-01T15:59:50Z</time>
      </trkpt>
      <trkpt lat="44.04994" lon="3.53425">
        <ele>1274</ele>
        <time>2019-02-01T15:59:50Z</time>
      </trkpt>
      <trkpt lat="44.0499" lon="3.53429">
        <ele>1274</ele>
        <time>2019-02-01T16:00:06Z</time>
      </trkpt>
      <trkpt lat="44.04987" lon="3.53433">
        <ele>1274</ele>
        <time>2019-02-01T16:00:06Z</time>
      </trkpt>
      <trkpt lat="44.04983" lon="3.53436">
        <ele>1274</ele>
        <time>2019-02-01T16:00:06Z</time>
      </trkpt>
      <trkpt lat="44.0498" lon="3.53438">
        <ele>1274</ele>
        <time>2019-02-01T16:00:06Z</time>
      </trkpt>
      <trkpt lat="44.04978" lon="3.5344">
        <ele>1274</ele>
        <time>2019-02-01T16:00:22Z</time>
      </trkpt>
      <trkpt lat="44.04977" lon="3.53441">
        <ele>1274</ele>
        <time>2019-02-01T16:00:22Z</time>
      </trkpt>
      <trkpt lat="44.04974" lon="3.53446">
        <ele>1274</ele>
        <time>2019-02-01T16:00:22Z</time>
      </trkpt>
      <trkpt lat="44.0497" lon="3.5345">
        <ele>1274</ele>
        <time>2019-02-01T16:00:22Z</time>
      </trkpt>
      <trkpt lat="44.04968" lon="3.53455">
        <ele>1274</ele>
        <time>2019-02-01T16:00:46Z</time>
      </trkpt>
      <trkpt lat="44.04967" lon="3.53457">
        <ele>1274</ele>
        <time>2019-02-01T16:00:46Z</time>
      </trkpt>
      <trkpt lat="44.04963" lon="3.5346">
        <ele>1283</ele>
        <time>2019-02-01T16:00:46Z</time>
      </trkpt>
      <trkpt lat="44.04962" lon="3.53461">
        <ele>1283</ele>
        <time>2019-02-01T16:00:46Z</time>
      </trkpt>
      <trkpt lat="44.04959" lon="3.53463">
        <ele>1283</ele>
        <time>2019-02-01T16:00:46Z</time>
      </trkpt>
      <trkpt lat="44.04956" lon="3.53467">
        <ele>1280</ele>
        <time>2019-02-01T16:01:02Z</time>
      </trkpt>
      <trkpt lat="44.04952" lon="3.53473">
        <ele>1280</ele>
        <time>2019-02-01T16:01:02Z</time>
      </trkpt>
      <trkpt lat="44.04946" lon="3.53482">
        <ele>1280</ele>
        <time>2019-02-01T16:01:02Z</time>
      </trkpt>
      <trkpt lat="44.0494" lon="3.53488">
        <ele>1280</ele>
        <time>2019-02-01T16:01:02Z</time>
      </trkpt>
      <trkpt lat="44.04936" lon="3.5349">
        <ele>1280</ele>
        <time>2019-02-01T16:01:18Z</time>
      </trkpt>
      <trkpt lat="44.04932" lon="3.53493">
        <ele>1280</ele>
        <time>2019-02-01T16:01:18Z</time>
      </trkpt>
      <trkpt lat="44.04927" lon="3.53494">
        <ele>1280</ele>
        <time>2019-02-01T16:01:18Z</time>
      </trkpt>
      <trkpt lat="44.04924" lon="3.53496">
        <ele>1280</ele>
        <time>2019-02-01T16:01:18Z</time>
      </trkpt>
      <trkpt lat="44.04922" lon="3.53498">
        <ele>1280</ele>
        <time>2019-02-01T16:01:34Z</time>
      </trkpt>
      <trkpt lat="44.04919" lon="3.53501">
        <ele>1280</ele>
        <time>2019-02-01T16:01:34Z</time>
      </trkpt>
      <trkpt lat="44.04915" lon="3.53506">
        <ele>1280</ele>
        <time>2019-02-01T16:01:34Z</time>
      </trkpt>
      <trkpt lat="44.04911" lon="3.53511">
        <ele>1280</ele>
        <time>2019-02-01T16:01:34Z</time>
      </trkpt>
      <trkpt lat="44.04909" lon="3.53513">
        <ele>1280</ele>
        <time>2019-02-01T16:01:50Z</time>
      </trkpt>
      <trkpt lat="44.04908" lon="3.53516">
        <ele>1280</ele>
        <time>2019-02-01T16:01:50Z</time>
      </trkpt>
      <trkpt lat="44.04903" lon="3.53518">
        <ele>1280</ele>
        <time>2019-02-01T16:01:50Z</time>
      </trkpt>
      <trkpt lat="44.049" lon="3.5352">
        <ele>1280</ele>
        <time>2019-02-01T16:01:50Z</time>
      </trkpt>
      <trkpt lat="44.04896" lon="3.53524">
        <ele>1280</ele>
        <time>2019-02-01T16:02:06Z</time>
      </trkpt>
      <trkpt lat="44.04892" lon="3.53526">
        <ele>1280</ele>
        <time>2019-02-01T16:02:06Z</time>
      </trkpt>
      <trkpt lat="44.04888" lon="3.53528">
        <ele>1280</ele>
        <time>2019-02-01T16:02:06Z</time>
      </trkpt>
      <trkpt lat="44.04883" lon="3.5353">
        <ele>1280</ele>
        <time>2019-02-01T16:02:06Z</time>
      </trkpt>
      <trkpt lat="44.04879" lon="3.53533">
        <ele>1280</ele>
        <time>2019-02-01T16:02:22Z</time>
      </trkpt>
      <trkpt lat="44.04874" lon="3.53534">
        <ele>1279</ele>
        <time>2019-02-01T16:02:22Z</time>
      </trkpt>
      <trkpt lat="44.04871" lon="3.53536">
        <ele>1279</ele>
        <time>2019-02-01T16:02:22Z</time>
      </trkpt>
      <trkpt lat="44.04869" lon="3.53539">
        <ele>1279</ele>
        <time>2019-02-01T16:02:22Z</time>
      </trkpt>
      <trkpt lat="44.04865" lon="3.53543">
        <ele>1286</ele>
        <time>2019-02-01T16:02:38Z</time>
      </trkpt>
      <trkpt lat="44.04862" lon="3.53545">
        <ele>1286</ele>
        <time>2019-02-01T16:02:38Z</time>
      </trkpt>
      <trkpt lat="44.0486" lon="3.53547">
        <ele>1286</ele>
        <time>2019-02-01T16:02:38Z</time>
      </trkpt>
      <trkpt lat="44.04857" lon="3.53549">
        <ele>1286</ele>
        <time>2019-02-01T16:02:38Z</time>
      </trkpt>
      <trkpt lat="44.04855" lon="3.53551">
        <ele>1286</ele>
        <time>2019-02-01T16:02:58Z</time>
      </trkpt>
      <trkpt lat="44.04854" lon="3.53551">
        <ele>1286</ele>
        <time>2019-02-01T16:02:58Z</time>
      </trkpt>
      <trkpt lat="44.04851" lon="3.53554">
        <ele>1286</ele>
        <time>2019-02-01T16:02:58Z</time>
      </trkpt>
      <trkpt lat="44.04849" lon="3.53557">
        <ele>1286</ele>
        <time>2019-02-01T16:02:58Z</time>
      </trkpt>
      <trkpt lat="44.04844" lon="3.53561">
        <ele>1286</ele>
        <time>2019-02-01T16:02:58Z</time>
      </trkpt>
      <trkpt lat="44.04844" lon="3.53561">
        <ele>1286</ele>
        <time>2019-02-01T16:03:22Z</time>
      </trkpt>
      <trkpt lat="44.04839" lon="3.53565">
        <ele>1286</ele>
        <time>2019-02-01T16:03:22Z</time>
      </trkpt>
      <trkpt lat="44.04838" lon="3.53566">
        <ele>1286</ele>
        <time>2019-02-01T16:03:22Z</time>
      </trkpt>
      <trkpt lat="44.04837" lon="3.53568">
        <ele>1286</ele>
        <time>2019-02-01T16:03:22Z</time>
      </trkpt>
      <trkpt lat="44.04831" lon="3.53576">
        <ele>1286</ele>
        <time>2019-02-01T16:03:22Z</time>
      </trkpt>
      <trkpt lat="44.04824" lon="3.53584">
        <ele>1286</ele>
        <time>2019-02-01T16:03:38Z</time>
      </trkpt>
      <trkpt lat="44.04819" lon="3.53588">
        <ele>1286</ele>
        <time>2019-02-01T16:03:38Z</time>
      </trkpt>
      <trkpt lat="44.04814" lon="3.53591">
        <ele>1286</ele>
        <time>2019-02-01T16:03:38Z</time>
      </trkpt>
      <trkpt lat="44.0481" lon="3.53594">
        <ele>1286</ele>
        <time>2019-02-01T16:03:38Z</time>
      </trkpt>
      <trkpt lat="44.04807" lon="3.53598">
        <ele>1286</ele>
        <time>2019-02-01T16:03:58Z</time>
      </trkpt>
      <trkpt lat="44.04805" lon="3.536">
        <ele>1286</ele>
        <time>2019-02-01T16:03:58Z</time>
      </trkpt>
      <trkpt lat="44.04804" lon="3.53601">
        <ele>1286</ele>
        <time>2019-02-01T16:03:58Z</time>
      </trkpt>
      <trkpt lat="44.04803" lon="3.53604">
        <ele>1286</ele>
        <time>2019-02-01T16:03:58Z</time>
      </trkpt>
      <trkpt lat="44.04799" lon="3.53608">
        <ele>1286</ele>
        <time>2019-02-01T16:03:58Z</time>
      </trkpt>
      <trkpt lat="44.04795" lon="3.53612">
        <ele>1286</ele>
        <time>2019-02-01T16:04:14Z</time>
      </trkpt>
      <trkpt lat="44.0479" lon="3.53616">
        <ele>1288</ele>
        <time>2019-02-01T16:04:14Z</time>
      </trkpt>
      <trkpt lat="44.04786" lon="3.5362">
        <ele>1288</ele>
        <time>2019-02-01T16:04:14Z</time>
      </trkpt>
      <trkpt lat="44.04783" lon="3.53623">
        <ele>1288</ele>
        <time>2019-02-01T16:04:14Z</time>
      </trkpt>
      <trkpt lat="44.04779" lon="3.53626">
        <ele>1295</ele>
        <time>2019-02-01T16:04:30Z</time>
      </trkpt>
      <trkpt lat="44.04775" lon="3.53629">
        <ele>1295</ele>
        <time>2019-02-01T16:04:30Z</time>
      </trkpt>
      <trkpt lat="44.04772" lon="3.53632">
        <ele>1295</ele>
        <time>2019-02-01T16:04:30Z</time>
      </trkpt>
      <trkpt lat="44.0477" lon="3.53634">
        <ele>1295</ele>
        <time>2019-02-01T16:04:30Z</time>
      </trkpt>
      <trkpt lat="44.04769" lon="3.53634">
        <ele>1295</ele>
        <time>2019-02-01T16:04:50Z</time>
      </trkpt>
      <trkpt lat="44.04766" lon="3.53635">
        <ele>1295</ele>
        <time>2019-02-01T16:04:50Z</time>
      </trkpt>
      <trkpt lat="44.04762" lon="3.53636">
        <ele>1295</ele>
        <time>2019-02-01T16:04:50Z</time>
      </trkpt>
      <trkpt lat="44.04761" lon="3.53638">
        <ele>1295</ele>
        <time>2019-02-01T16:04:50Z</time>
      </trkpt>
      <trkpt lat="44.04759" lon="3.53642">
        <ele>1295</ele>
        <time>2019-02-01T16:04:50Z</time>
      </trkpt>
      <trkpt lat="44.04753" lon="3.53648">
        <ele>1295</ele>
        <time>2019-02-01T16:05:14Z</time>
      </trkpt>
      <trkpt lat="44.04752" lon="3.53649">
        <ele>1295</ele>
        <time>2019-02-01T16:05:14Z</time>
      </trkpt>
      <trkpt lat="44.04749" lon="3.53652">
        <ele>1295</ele>
        <time>2019-02-01T16:05:14Z</time>
      </trkpt>
      <trkpt lat="44.04748" lon="3.53654">
        <ele>1295</ele>
        <time>2019-02-01T16:05:14Z</time>
      </trkpt>
      <trkpt lat="44.04746" lon="3.53656">
        <ele>1295</ele>
        <time>2019-02-01T16:05:14Z</time>
      </trkpt>
      <trkpt lat="44.04746" lon="3.53657">
        <ele>1295</ele>
        <time>2019-02-01T16:05:50Z</time>
      </trkpt>
      <trkpt lat="44.04742" lon="3.5366">
        <ele>1295</ele>
        <time>2019-02-01T16:05:50Z</time>
      </trkpt>
      <trkpt lat="44.04739" lon="3.53664">
        <ele>1295</ele>
        <time>2019-02-01T16:05:50Z</time>
      </trkpt>
      <trkpt lat="44.04736" lon="3.53669">
        <ele>1295</ele>
        <time>2019-02-01T16:05:50Z</time>
      </trkpt>
      <trkpt lat="44.04731" lon="3.53674">
        <ele>1295</ele>
        <time>2019-02-01T16:06:06Z</time>
      </trkpt>
      <trkpt lat="44.04729" lon="3.53678">
        <ele>1295</ele>
        <time>2019-02-01T16:06:06Z</time>
      </trkpt>
      <trkpt lat="44.04725" lon="3.53682">
        <ele>1295</ele>
        <time>2019-02-01T16:06:06Z</time>
      </trkpt>
      <trkpt lat="44.04722" lon="3.53687">
        <ele>1295</ele>
        <time>2019-02-01T16:06:06Z</time>
      </trkpt>
      <trkpt lat="44.0472" lon="3.53691">
        <ele>1295</ele>
        <time>2019-02-01T16:06:26Z</time>
      </trkpt>
      <trkpt lat="44.04718" lon="3.53696">
        <ele>1295</ele>
        <time>2019-02-01T16:06:26Z</time>
      </trkpt>
      <trkpt lat="44.04717" lon="3.537">
        <ele>1295</ele>
        <time>2019-02-01T16:06:26Z</time>
      </trkpt>
      <trkpt lat="44.04716" lon="3.53702">
        <ele>1295</ele>
        <time>2019-02-01T16:06:26Z</time>
      </trkpt>
      <trkpt lat="44.04715" lon="3.53707">
        <ele>1295</ele>
        <time>2019-02-01T16:06:26Z</time>
      </trkpt>
      <trkpt lat="44.04713" lon="3.53715">
        <ele>1297</ele>
        <time>2019-02-01T16:06:42Z</time>
      </trkpt>
      <trkpt lat="44.0471" lon="3.53721">
        <ele>1297</ele>
        <time>2019-02-01T16:06:42Z</time>
      </trkpt>
      <trkpt lat="44.04708" lon="3.53727">
        <ele>1300</ele>
        <time>2019-02-01T16:06:42Z</time>
      </trkpt>
      <trkpt lat="44.04708" lon="3.5373">
        <ele>1300</ele>
        <time>2019-02-01T16:06:42Z</time>
      </trkpt>
      <trkpt lat="44.04708" lon="3.5374">
        <ele>1300</ele>
        <time>2019-02-01T16:06:58Z</time>
      </trkpt>
      <trkpt lat="44.04708" lon="3.5375">
        <ele>1300</ele>
        <time>2019-02-01T16:06:58Z</time>
      </trkpt>
      <trkpt lat="44.04706" lon="3.53757">
        <ele>1300</ele>
        <time>2019-02-01T16:06:58Z</time>
      </trkpt>
      <trkpt lat="44.04705" lon="3.53761">
        <ele>1300</ele>
        <time>2019-02-01T16:06:58Z</time>
      </trkpt>
      <trkpt lat="44.04703" lon="3.53766">
        <ele>1300</ele>
        <time>2019-02-01T16:07:22Z</time>
      </trkpt>
      <trkpt lat="44.04703" lon="3.53769">
        <ele>1300</ele>
        <time>2019-02-01T16:07:22Z</time>
      </trkpt>
      <trkpt lat="44.04703" lon="3.53771">
        <ele>1300</ele>
        <time>2019-02-01T16:07:22Z</time>
      </trkpt>
      <trkpt lat="44.04703" lon="3.53776">
        <ele>1300</ele>
        <time>2019-02-01T16:07:22Z</time>
      </trkpt>
      <trkpt lat="44.04703" lon="3.53781">
        <ele>1300</ele>
        <time>2019-02-01T16:07:22Z</time>
      </trkpt>
      <trkpt lat="44.04702" lon="3.53794">
        <ele>1307</ele>
        <time>2019-02-01T16:07:42Z</time>
      </trkpt>
      <trkpt lat="44.04702" lon="3.53807">
        <ele>1307</ele>
        <time>2019-02-01T16:07:42Z</time>
      </trkpt>
      <trkpt lat="44.04702" lon="3.5381">
        <ele>1307</ele>
        <time>2019-02-01T16:07:42Z</time>
      </trkpt>
      <trkpt lat="44.04702" lon="3.53811">
        <ele>1307</ele>
        <time>2019-02-01T16:07:42Z</time>
      </trkpt>
      <trkpt lat="44.04703" lon="3.53814">
        <ele>1307</ele>
        <time>2019-02-01T16:07:58Z</time>
      </trkpt>
      <trkpt lat="44.04701" lon="3.53824">
        <ele>1307</ele>
        <time>2019-02-01T16:07:58Z</time>
      </trkpt>
      <trkpt lat="44.04699" lon="3.53833">
        <ele>1307</ele>
        <time>2019-02-01T16:07:58Z</time>
      </trkpt>
      <trkpt lat="44.04699" lon="3.53835">
        <ele>1307</ele>
        <time>2019-02-01T16:07:58Z</time>
      </trkpt>
      <trkpt lat="44.04699" lon="3.53837">
        <ele>1307</ele>
        <time>2019-02-01T16:08:14Z</time>
      </trkpt>
      <trkpt lat="44.04698" lon="3.53842">
        <ele>1307</ele>
        <time>2019-02-01T16:08:14Z</time>
      </trkpt>
      <trkpt lat="44.04698" lon="3.53846">
        <ele>1307</ele>
        <time>2019-02-01T16:08:14Z</time>
      </trkpt>
      <trkpt lat="44.04698" lon="3.5385">
        <ele>1307</ele>
        <time>2019-02-01T16:08:14Z</time>
      </trkpt>
      <trkpt lat="44.04696" lon="3.53853">
        <ele>1307</ele>
        <time>2019-02-01T16:08:46Z</time>
      </trkpt>
      <trkpt lat="44.04696" lon="3.53856">
        <ele>1307</ele>
        <time>2019-02-01T16:08:46Z</time>
      </trkpt>
      <trkpt lat="44.04695" lon="3.53864">
        <ele>1307</ele>
        <time>2019-02-01T16:08:46Z</time>
      </trkpt>
      <trkpt lat="44.04695" lon="3.53874">
        <ele>1307</ele>
        <time>2019-02-01T16:08:46Z</time>
      </trkpt>
      <trkpt lat="44.04694" lon="3.53883">
        <ele>1309</ele>
        <time>2019-02-01T16:09:02Z</time>
      </trkpt>
      <trkpt lat="44.04694" lon="3.53886">
        <ele>1309</ele>
        <time>2019-02-01T16:09:02Z</time>
      </trkpt>
      <trkpt lat="44.04693" lon="3.53896">
        <ele>1309</ele>
        <time>2019-02-01T16:09:02Z</time>
      </trkpt>
      <trkpt lat="44.04692" lon="3.53902">
        <ele>1309</ele>
        <time>2019-02-01T16:09:02Z</time>
      </trkpt>
      <trkpt lat="44.04692" lon="3.53903">
        <ele>1309</ele>
        <time>2019-02-01T16:09:18Z</time>
      </trkpt>
      <trkpt lat="44.04692" lon="3.53906">
        <ele>1309</ele>
        <time>2019-02-01T16:09:18Z</time>
      </trkpt>
      <trkpt lat="44.04689" lon="3.53915">
        <ele>1309</ele>
        <time>2019-02-01T16:09:18Z</time>
      </trkpt>
      <trkpt lat="44.04687" lon="3.53921">
        <ele>1309</ele>
        <time>2019-02-01T16:09:18Z</time>
      </trkpt>
      <trkpt lat="44.04687" lon="3.53922">
        <ele>1309</ele>
        <time>2019-02-01T16:09:34Z</time>
      </trkpt>
      <trkpt lat="44.04686" lon="3.53929">
        <ele>1309</ele>
        <time>2019-02-01T16:09:34Z</time>
      </trkpt>
      <trkpt lat="44.04686" lon="3.53937">
        <ele>1309</ele>
        <time>2019-02-01T16:09:34Z</time>
      </trkpt>
      <trkpt lat="44.04686" lon="3.53943">
        <ele>1309</ele>
        <time>2019-02-01T16:09:34Z</time>
      </trkpt>
      <trkpt lat="44.04684" lon="3.53948">
        <ele>1309</ele>
        <time>2019-02-01T16:09:50Z</time>
      </trkpt>
      <trkpt lat="44.04684" lon="3.53951">
        <ele>1309</ele>
        <time>2019-02-01T16:09:50Z</time>
      </trkpt>
      <trkpt lat="44.04684" lon="3.53953">
        <ele>1309</ele>
        <time>2019-02-01T16:09:50Z</time>
      </trkpt>
      <trkpt lat="44.04683" lon="3.53964">
        <ele>1306</ele>
        <time>2019-02-01T16:09:50Z</time>
      </trkpt>
      <trkpt lat="44.04685" lon="3.53972">
        <ele>1306</ele>
        <time>2019-02-01T16:10:06Z</time>
      </trkpt>
      <trkpt lat="44.04684" lon="3.53979">
        <ele>1306</ele>
        <time>2019-02-01T16:10:06Z</time>
      </trkpt>
      <trkpt lat="44.04683" lon="3.53985">
        <ele>1306</ele>
        <time>2019-02-01T16:10:06Z</time>
      </trkpt>
      <trkpt lat="44.04681" lon="3.53989">
        <ele>1306</ele>
        <time>2019-02-01T16:10:06Z</time>
      </trkpt>
      <trkpt lat="44.04679" lon="3.53993">
        <ele>1306</ele>
        <time>2019-02-01T16:10:22Z</time>
      </trkpt>
      <trkpt lat="44.04678" lon="3.53997">
        <ele>1306</ele>
        <time>2019-02-01T16:10:22Z</time>
      </trkpt>
      <trkpt lat="44.04676" lon="3.54">
        <ele>1306</ele>
        <time>2019-02-01T16:10:22Z</time>
      </trkpt>
      <trkpt lat="44.04675" lon="3.54005">
        <ele>1306</ele>
        <time>2019-02-01T16:10:22Z</time>
      </trkpt>
      <trkpt lat="44.04673" lon="3.54012">
        <ele>1306</ele>
        <time>2019-02-01T16:10:38Z</time>
      </trkpt>
      <trkpt lat="44.04672" lon="3.54017">
        <ele>1306</ele>
        <time>2019-02-01T16:10:38Z</time>
      </trkpt>
      <trkpt lat="44.04671" lon="3.54023">
        <ele>1306</ele>
        <time>2019-02-01T16:10:38Z</time>
      </trkpt>
      <trkpt lat="44.04669" lon="3.54028">
        <ele>1306</ele>
        <time>2019-02-01T16:10:38Z</time>
      </trkpt>
      <trkpt lat="44.04668" lon="3.54036">
        <ele>1306</ele>
        <time>2019-02-01T16:10:54Z</time>
      </trkpt>
      <trkpt lat="44.04667" lon="3.54042">
        <ele>1301</ele>
        <time>2019-02-01T16:10:54Z</time>
      </trkpt>
      <trkpt lat="44.04666" lon="3.54049">
        <ele>1301</ele>
        <time>2019-02-01T16:10:54Z</time>
      </trkpt>
      <trkpt lat="44.04666" lon="3.54055">
        <ele>1301</ele>
        <time>2019-02-01T16:10:54Z</time>
      </trkpt>
      <trkpt lat="44.04667" lon="3.54061">
        <ele>1301</ele>
        <time>2019-02-01T16:11:10Z</time>
      </trkpt>
      <trkpt lat="44.04667" lon="3.54068">
        <ele>1301</ele>
        <time>2019-02-01T16:11:10Z</time>
      </trkpt>
      <trkpt lat="44.04667" lon="3.54073">
        <ele>1301</ele>
        <time>2019-02-01T16:11:10Z</time>
      </trkpt>
      <trkpt lat="44.04667" lon="3.54079">
        <ele>1301</ele>
        <time>2019-02-01T16:11:10Z</time>
      </trkpt>
      <trkpt lat="44.04667" lon="3.54086">
        <ele>1301</ele>
        <time>2019-02-01T16:11:26Z</time>
      </trkpt>
      <trkpt lat="44.04667" lon="3.54093">
        <ele>1301</ele>
        <time>2019-02-01T16:11:26Z</time>
      </trkpt>
      <trkpt lat="44.04667" lon="3.54099">
        <ele>1301</ele>
        <time>2019-02-01T16:11:26Z</time>
      </trkpt>
      <trkpt lat="44.04667" lon="3.54104">
        <ele>1301</ele>
        <time>2019-02-01T16:11:26Z</time>
      </trkpt>
      <trkpt lat="44.04667" lon="3.54111">
        <ele>1301</ele>
        <time>2019-02-01T16:11:42Z</time>
      </trkpt>
      <trkpt lat="44.04667" lon="3.54117">
        <ele>1301</ele>
        <time>2019-02-01T16:11:42Z</time>
      </trkpt>
      <trkpt lat="44.04667" lon="3.54123">
        <ele>1301</ele>
        <time>2019-02-01T16:11:42Z</time>
      </trkpt>
      <trkpt lat="44.04667" lon="3.54129">
        <ele>1294</ele>
        <time>2019-02-01T16:11:42Z</time>
      </trkpt>
      <trkpt lat="44.04667" lon="3.54133">
        <ele>1294</ele>
        <time>2019-02-01T16:11:58Z</time>
      </trkpt>
      <trkpt lat="44.04668" lon="3.54137">
        <ele>1294</ele>
        <time>2019-02-01T16:11:58Z</time>
      </trkpt>
      <trkpt lat="44.04668" lon="3.54144">
        <ele>1294</ele>
        <time>2019-02-01T16:11:58Z</time>
      </trkpt>
      <trkpt lat="44.04668" lon="3.5415">
        <ele>1294</ele>
        <time>2019-02-01T16:11:58Z</time>
      </trkpt>
      <trkpt lat="44.04669" lon="3.54157">
        <ele>1294</ele>
        <time>2019-02-01T16:12:14Z</time>
      </trkpt>
      <trkpt lat="44.0467" lon="3.54164">
        <ele>1294</ele>
        <time>2019-02-01T16:12:14Z</time>
      </trkpt>
      <trkpt lat="44.04672" lon="3.5417">
        <ele>1294</ele>
        <time>2019-02-01T16:12:14Z</time>
      </trkpt>
      <trkpt lat="44.04672" lon="3.54175">
        <ele>1294</ele>
        <time>2019-02-01T16:12:14Z</time>
      </trkpt>
      <trkpt lat="44.04674" lon="3.54181">
        <ele>1294</ele>
        <time>2019-02-01T16:12:30Z</time>
      </trkpt>
      <trkpt lat="44.04675" lon="3.54186">
        <ele>1294</ele>
        <time>2019-02-01T16:12:30Z</time>
      </trkpt>
      <trkpt lat="44.04675" lon="3.54192">
        <ele>1294</ele>
        <time>2019-02-01T16:12:30Z</time>
      </trkpt>
      <trkpt lat="44.04675" lon="3.54198">
        <ele>1294</ele>
        <time>2019-02-01T16:12:30Z</time>
      </trkpt>
      <trkpt lat="44.04675" lon="3.54204">
        <ele>1294</ele>
        <time>2019-02-01T16:12:46Z</time>
      </trkpt>
      <trkpt lat="44.04676" lon="3.54208">
        <ele>1294</ele>
        <time>2019-02-01T16:12:46Z</time>
      </trkpt>
      <trkpt lat="44.04677" lon="3.54212">
        <ele>1287</ele>
        <time>2019-02-01T16:12:46Z</time>
      </trkpt>
      <trkpt lat="44.04679" lon="3.54217">
        <ele>1287</ele>
        <time>2019-02-01T16:12:46Z</time>
      </trkpt>
      <trkpt lat="44.04678" lon="3.54225">
        <ele>1287</ele>
        <time>2019-02-01T16:13:02Z</time>
      </trkpt>
      <trkpt lat="44.04679" lon="3.54229">
        <ele>1287</ele>
        <time>2019-02-01T16:13:02Z</time>
      </trkpt>
      <trkpt lat="44.04679" lon="3.54235">
        <ele>1287</ele>
        <time>2019-02-01T16:13:02Z</time>
      </trkpt>
      <trkpt lat="44.04681" lon="3.5424">
        <ele>1287</ele>
        <time>2019-02-01T16:13:02Z</time>
      </trkpt>
      <trkpt lat="44.04682" lon="3.54243">
        <ele>1287</ele>
        <time>2019-02-01T16:13:18Z</time>
      </trkpt>
      <trkpt lat="44.04683" lon="3.54249">
        <ele>1287</ele>
        <time>2019-02-01T16:13:18Z</time>
      </trkpt>
      <trkpt lat="44.04686" lon="3.54254">
        <ele>1287</ele>
        <time>2019-02-01T16:13:18Z</time>
      </trkpt>
      <trkpt lat="44.0469" lon="3.54258">
        <ele>1287</ele>
        <time>2019-02-01T16:13:18Z</time>
      </trkpt>
      <trkpt lat="44.04693" lon="3.54262">
        <ele>1287</ele>
        <time>2019-02-01T16:13:34Z</time>
      </trkpt>
      <trkpt lat="44.04695" lon="3.54266">
        <ele>1287</ele>
        <time>2019-02-01T16:13:34Z</time>
      </trkpt>
      <trkpt lat="44.04698" lon="3.54271">
        <ele>1287</ele>
        <time>2019-02-01T16:13:34Z</time>
      </trkpt>
      <trkpt lat="44.047" lon="3.54278">
        <ele>1287</ele>
        <time>2019-02-01T16:13:34Z</time>
      </trkpt>
      <trkpt lat="44.04701" lon="3.54283">
        <ele>1287</ele>
        <time>2019-02-01T16:13:50Z</time>
      </trkpt>
      <trkpt lat="44.04704" lon="3.54286">
        <ele>1287</ele>
        <time>2019-02-01T16:13:50Z</time>
      </trkpt>
      <trkpt lat="44.04707" lon="3.5429">
        <ele>1287</ele>
        <time>2019-02-01T16:13:50Z</time>
      </trkpt>
      <trkpt lat="44.0471" lon="3.54294">
        <ele>1285</ele>
        <time>2019-02-01T16:13:50Z</time>
      </trkpt>
      <trkpt lat="44.04712" lon="3.54298">
        <ele>1285</ele>
        <time>2019-02-01T16:14:06Z</time>
      </trkpt>
      <trkpt lat="44.04714" lon="3.54302">
        <ele>1285</ele>
        <time>2019-02-01T16:14:06Z</time>
      </trkpt>
      <trkpt lat="44.04717" lon="3.54304">
        <ele>1285</ele>
        <time>2019-02-01T16:14:06Z</time>
      </trkpt>
      <trkpt lat="44.04721" lon="3.54307">
        <ele>1285</ele>
        <time>2019-02-01T16:14:06Z</time>
      </trkpt>
      <trkpt lat="44.04726" lon="3.54309">
        <ele>1285</ele>
        <time>2019-02-01T16:14:22Z</time>
      </trkpt>
      <trkpt lat="44.04729" lon="3.54311">
        <ele>1285</ele>
        <time>2019-02-01T16:14:22Z</time>
      </trkpt>
      <trkpt lat="44.04732" lon="3.54312">
        <ele>1285</ele>
        <time>2019-02-01T16:14:22Z</time>
      </trkpt>
      <trkpt lat="44.04735" lon="3.54313">
        <ele>1285</ele>
        <time>2019-02-01T16:14:22Z</time>
      </trkpt>
      <trkpt lat="44.04739" lon="3.54314">
        <ele>1285</ele>
        <time>2019-02-01T16:14:46Z</time>
      </trkpt>
      <trkpt lat="44.0474" lon="3.54314">
        <ele>1285</ele>
        <time>2019-02-01T16:14:46Z</time>
      </trkpt>
      <trkpt lat="44.04742" lon="3.54314">
        <ele>1285</ele>
        <time>2019-02-01T16:14:46Z</time>
      </trkpt>
      <trkpt lat="44.04745" lon="3.54314">
        <ele>1285</ele>
        <time>2019-02-01T16:14:46Z</time>
      </trkpt>
      <trkpt lat="44.04749" lon="3.54313">
        <ele>1285</ele>
        <time>2019-02-01T16:14:46Z</time>
      </trkpt>
      <trkpt lat="44.04753" lon="3.54313">
        <ele>1285</ele>
        <time>2019-02-01T16:15:06Z</time>
      </trkpt>
      <trkpt lat="44.04756" lon="3.54312">
        <ele>1285</ele>
        <time>2019-02-01T16:15:06Z</time>
      </trkpt>
      <trkpt lat="44.04758" lon="3.54312">
        <ele>1285</ele>
        <time>2019-02-01T16:15:06Z</time>
      </trkpt>
      <trkpt lat="44.04762" lon="3.5431">
        <ele>1285</ele>
        <time>2019-02-01T16:15:06Z</time>
      </trkpt>
      <trkpt lat="44.04774" lon="3.54307">
        <ele>1285</ele>
        <time>2019-02-01T16:15:22Z</time>
      </trkpt>
      <trkpt lat="44.04782" lon="3.54305">
        <ele>1285</ele>
        <time>2019-02-01T16:15:22Z</time>
      </trkpt>
      <trkpt lat="44.04787" lon="3.54303">
        <ele>1285</ele>
        <time>2019-02-01T16:15:22Z</time>
      </trkpt>
      <trkpt lat="44.04792" lon="3.54303">
        <ele>1293</ele>
        <time>2019-02-01T16:15:22Z</time>
      </trkpt>
      <trkpt lat="44.04795" lon="3.54304">
        <ele>1293</ele>
        <time>2019-02-01T16:15:38Z</time>
      </trkpt>
      <trkpt lat="44.04797" lon="3.54307">
        <ele>1293</ele>
        <time>2019-02-01T16:15:38Z</time>
      </trkpt>
      <trkpt lat="44.048" lon="3.54311">
        <ele>1293</ele>
        <time>2019-02-01T16:15:38Z</time>
      </trkpt>
      <trkpt lat="44.04802" lon="3.54315">
        <ele>1293</ele>
        <time>2019-02-01T16:15:38Z</time>
      </trkpt>
      <trkpt lat="44.04805" lon="3.54319">
        <ele>1293</ele>
        <time>2019-02-01T16:15:54Z</time>
      </trkpt>
      <trkpt lat="44.04807" lon="3.54322">
        <ele>1293</ele>
        <time>2019-02-01T16:15:54Z</time>
      </trkpt>
      <trkpt lat="44.0481" lon="3.54325">
        <ele>1293</ele>
        <time>2019-02-01T16:15:54Z</time>
      </trkpt>
      <trkpt lat="44.04812" lon="3.54329">
        <ele>1293</ele>
        <time>2019-02-01T16:15:54Z</time>
      </trkpt>
      <trkpt lat="44.04814" lon="3.54333">
        <ele>1293</ele>
        <time>2019-02-01T16:16:10Z</time>
      </trkpt>
      <trkpt lat="44.04816" lon="3.54336">
        <ele>1293</ele>
        <time>2019-02-01T16:16:10Z</time>
      </trkpt>
      <trkpt lat="44.04819" lon="3.54339">
        <ele>1293</ele>
        <time>2019-02-01T16:16:10Z</time>
      </trkpt>
      <trkpt lat="44.04822" lon="3.54341">
        <ele>1293</ele>
        <time>2019-02-01T16:16:10Z</time>
      </trkpt>
      <trkpt lat="44.04825" lon="3.54343">
        <ele>1293</ele>
        <time>2019-02-01T16:16:26Z</time>
      </trkpt>
      <trkpt lat="44.04829" lon="3.54346">
        <ele>1293</ele>
        <time>2019-02-01T16:16:26Z</time>
      </trkpt>
      <trkpt lat="44.04832" lon="3.54349">
        <ele>1293</ele>
        <time>2019-02-01T16:16:26Z</time>
      </trkpt>
      <trkpt lat="44.04835" lon="3.54353">
        <ele>1293</ele>
        <time>2019-02-01T16:16:26Z</time>
      </trkpt>
      <trkpt lat="44.04838" lon="3.54356">
        <ele>1293</ele>
        <time>2019-02-01T16:16:42Z</time>
      </trkpt>
      <trkpt lat="44.0484" lon="3.54361">
        <ele>1293</ele>
        <time>2019-02-01T16:16:42Z</time>
      </trkpt>
      <trkpt lat="44.04842" lon="3.54366">
        <ele>1293</ele>
        <time>2019-02-01T16:16:42Z</time>
      </trkpt>
      <trkpt lat="44.04844" lon="3.5437">
        <ele>1293</ele>
        <time>2019-02-01T16:16:42Z</time>
      </trkpt>
      <trkpt lat="44.04846" lon="3.54374">
        <ele>1293</ele>
        <time>2019-02-01T16:16:58Z</time>
      </trkpt>
      <trkpt lat="44.04848" lon="3.54377">
        <ele>1273</ele>
        <time>2019-02-01T16:16:58Z</time>
      </trkpt>
      <trkpt lat="44.0485" lon="3.54382">
        <ele>1273</ele>
        <time>2019-02-01T16:16:58Z</time>
      </trkpt>
      <trkpt lat="44.04852" lon="3.54385">
        <ele>1273</ele>
        <time>2019-02-01T16:16:58Z</time>
      </trkpt>
      <trkpt lat="44.04854" lon="3.5439">
        <ele>1273</ele>
        <time>2019-02-01T16:17:14Z</time>
      </trkpt>
      <trkpt lat="44.04856" lon="3.54394">
        <ele>1273</ele>
        <time>2019-02-01T16:17:14Z</time>
      </trkpt>
      <trkpt lat="44.04857" lon="3.54398">
        <ele>1273</ele>
        <time>2019-02-01T16:17:14Z</time>
      </trkpt>
      <trkpt lat="44.04858" lon="3.54404">
        <ele>1273</ele>
        <time>2019-02-01T16:17:14Z</time>
      </trkpt>
      <trkpt lat="44.0486" lon="3.54407">
        <ele>1273</ele>
        <time>2019-02-01T16:17:30Z</time>
      </trkpt>
      <trkpt lat="44.04861" lon="3.54411">
        <ele>1273</ele>
        <time>2019-02-01T16:17:30Z</time>
      </trkpt>
      <trkpt lat="44.04864" lon="3.54415">
        <ele>1273</ele>
        <time>2019-02-01T16:17:30Z</time>
      </trkpt>
      <trkpt lat="44.04865" lon="3.54421">
        <ele>1273</ele>
        <time>2019-02-01T16:17:30Z</time>
      </trkpt>
      <trkpt lat="44.04868" lon="3.54425">
        <ele>1273</ele>
        <time>2019-02-01T16:17:46Z</time>
      </trkpt>
      <trkpt lat="44.0487" lon="3.54429">
        <ele>1273</ele>
        <time>2019-02-01T16:17:46Z</time>
      </trkpt>
      <trkpt lat="44.04872" lon="3.54433">
        <ele>1273</ele>
        <time>2019-02-01T16:17:46Z</time>
      </trkpt>
      <trkpt lat="44.04874" lon="3.54439">
        <ele>1273</ele>
        <time>2019-02-01T16:17:46Z</time>
      </trkpt>
      <trkpt lat="44.04876" lon="3.54444">
        <ele>1299</ele>
        <time>2019-02-01T16:18:02Z</time>
      </trkpt>
      <trkpt lat="44.04878" lon="3.54447">
        <ele>1299</ele>
        <time>2019-02-01T16:18:02Z</time>
      </trkpt>
      <trkpt lat="44.04881" lon="3.54449">
        <ele>1299</ele>
        <time>2019-02-01T16:18:02Z</time>
      </trkpt>
      <trkpt lat="44.04884" lon="3.54455">
        <ele>1299</ele>
        <time>2019-02-01T16:18:02Z</time>
      </trkpt>
      <trkpt lat="44.04886" lon="3.54458">
        <ele>1274</ele>
        <time>2019-02-01T16:18:18Z</time>
      </trkpt>
      <trkpt lat="44.0489" lon="3.54462">
        <ele>1274</ele>
        <time>2019-02-01T16:18:18Z</time>
      </trkpt>
      <trkpt lat="44.04893" lon="3.54466">
        <ele>1274</ele>
        <time>2019-02-01T16:18:18Z</time>
      </trkpt>
      <trkpt lat="44.04895" lon="3.5447">
        <ele>1274</ele>
        <time>2019-02-01T16:18:18Z</time>
      </trkpt>
      <trkpt lat="44.04897" lon="3.54472">
        <ele>1274</ele>
        <time>2019-02-01T16:18:34Z</time>
      </trkpt>
      <trkpt lat="44.04899" lon="3.54475">
        <ele>1274</ele>
        <time>2019-02-01T16:18:34Z</time>
      </trkpt>
      <trkpt lat="44.04902" lon="3.54478">
        <ele>1274</ele>
        <time>2019-02-01T16:18:34Z</time>
      </trkpt>
      <trkpt lat="44.04904" lon="3.54481">
        <ele>1274</ele>
        <time>2019-02-01T16:18:34Z</time>
      </trkpt>
      <trkpt lat="44.04907" lon="3.54482">
        <ele>1274</ele>
        <time>2019-02-01T16:18:50Z</time>
      </trkpt>
      <trkpt lat="44.04909" lon="3.54485">
        <ele>1274</ele>
        <time>2019-02-01T16:18:50Z</time>
      </trkpt>
      <trkpt lat="44.04912" lon="3.54487">
        <ele>1274</ele>
        <time>2019-02-01T16:18:50Z</time>
      </trkpt>
      <trkpt lat="44.04916" lon="3.54489">
        <ele>1274</ele>
        <time>2019-02-01T16:18:50Z</time>
      </trkpt>
      <trkpt lat="44.04918" lon="3.5449">
        <ele>1274</ele>
        <time>2019-02-01T16:19:14Z</time>
      </trkpt>
      <trkpt lat="44.0492" lon="3.54491">
        <ele>1274</ele>
        <time>2019-02-01T16:19:14Z</time>
      </trkpt>
      <trkpt lat="44.0493" lon="3.54496">
        <ele>1274</ele>
        <time>2019-02-01T16:19:14Z</time>
      </trkpt>
      <trkpt lat="44.04934" lon="3.54499">
        <ele>1274</ele>
        <time>2019-02-01T16:19:14Z</time>
      </trkpt>
      <trkpt lat="44.04938" lon="3.54503">
        <ele>1274</ele>
        <time>2019-02-01T16:19:34Z</time>
      </trkpt>
      <trkpt lat="44.04939" lon="3.54505">
        <ele>1274</ele>
        <time>2019-02-01T16:19:34Z</time>
      </trkpt>
      <trkpt lat="44.04942" lon="3.54508">
        <ele>1274</ele>
        <time>2019-02-01T16:19:34Z</time>
      </trkpt>
      <trkpt lat="44.0495" lon="3.54516">
        <ele>1274</ele>
        <time>2019-02-01T16:19:34Z</time>
      </trkpt>
      <trkpt lat="44.04955" lon="3.54521">
        <ele>1274</ele>
        <time>2019-02-01T16:19:50Z</time>
      </trkpt>
      <trkpt lat="44.04959" lon="3.54523">
        <ele>1293</ele>
        <time>2019-02-01T16:19:50Z</time>
      </trkpt>
      <trkpt lat="44.04961" lon="3.54524">
        <ele>1293</ele>
        <time>2019-02-01T16:19:50Z</time>
      </trkpt>
      <trkpt lat="44.04966" lon="3.54527">
        <ele>1293</ele>
        <time>2019-02-01T16:19:50Z</time>
      </trkpt>
      <trkpt lat="44.0497" lon="3.54529">
        <ele>1293</ele>
        <time>2019-02-01T16:20:10Z</time>
      </trkpt>
      <trkpt lat="44.04974" lon="3.54531">
        <ele>1293</ele>
        <time>2019-02-01T16:20:10Z</time>
      </trkpt>
      <trkpt lat="44.04979" lon="3.54532">
        <ele>1293</ele>
        <time>2019-02-01T16:20:10Z</time>
      </trkpt>
      <trkpt lat="44.04981" lon="3.54533">
        <ele>1293</ele>
        <time>2019-02-01T16:20:10Z</time>
      </trkpt>
      <trkpt lat="44.04984" lon="3.54536">
        <ele>1293</ele>
        <time>2019-02-01T16:20:34Z</time>
      </trkpt>
      <trkpt lat="44.04986" lon="3.54536">
        <ele>1293</ele>
        <time>2019-02-01T16:20:34Z</time>
      </trkpt>
      <trkpt lat="44.04987" lon="3.54537">
        <ele>1293</ele>
        <time>2019-02-01T16:20:34Z</time>
      </trkpt>
      <trkpt lat="44.04996" lon="3.54539">
        <ele>1293</ele>
        <time>2019-02-01T16:20:34Z</time>
      </trkpt>
      <trkpt lat="44.05005" lon="3.54544">
        <ele>1274</ele>
        <time>2019-02-01T16:20:50Z</time>
      </trkpt>
      <trkpt lat="44.0501" lon="3.54549">
        <ele>1274</ele>
        <time>2019-02-01T16:20:50Z</time>
      </trkpt>
      <trkpt lat="44.05017" lon="3.54552">
        <ele>1274</ele>
        <time>2019-02-01T16:20:50Z</time>
      </trkpt>
      <trkpt lat="44.05021" lon="3.54553">
        <ele>1274</ele>
        <time>2019-02-01T16:20:50Z</time>
      </trkpt>
      <trkpt lat="44.05024" lon="3.54554">
        <ele>1274</ele>
        <time>2019-02-01T16:21:10Z</time>
      </trkpt>
      <trkpt lat="44.05027" lon="3.54555">
        <ele>1274</ele>
        <time>2019-02-01T16:21:10Z</time>
      </trkpt>
      <trkpt lat="44.05029" lon="3.54557">
        <ele>1274</ele>
        <time>2019-02-01T16:21:10Z</time>
      </trkpt>
      <trkpt lat="44.0503" lon="3.54558">
        <ele>1274</ele>
        <time>2019-02-01T16:21:10Z</time>
      </trkpt>
      <trkpt lat="44.05032" lon="3.5456">
        <ele>1274</ele>
        <time>2019-02-01T16:21:10Z</time>
      </trkpt>
      <trkpt lat="44.05035" lon="3.54565">
        <ele>1274</ele>
        <time>2019-02-01T16:21:26Z</time>
      </trkpt>
      <trkpt lat="44.05037" lon="3.54571">
        <ele>1274</ele>
        <time>2019-02-01T16:21:26Z</time>
      </trkpt>
      <trkpt lat="44.0504" lon="3.54577">
        <ele>1274</ele>
        <time>2019-02-01T16:21:26Z</time>
      </trkpt>
      <trkpt lat="44.05041" lon="3.54583">
        <ele>1274</ele>
        <time>2019-02-01T16:21:26Z</time>
      </trkpt>
      <trkpt lat="44.05042" lon="3.54585">
        <ele>1294</ele>
        <time>2019-02-01T16:21:54Z</time>
      </trkpt>
      <trkpt lat="44.05043" lon="3.54591">
        <ele>1294</ele>
        <time>2019-02-01T16:21:54Z</time>
      </trkpt>
      <trkpt lat="44.05045" lon="3.54601">
        <ele>1294</ele>
        <time>2019-02-01T16:21:54Z</time>
      </trkpt>
      <trkpt lat="44.05045" lon="3.54602">
        <ele>1294</ele>
        <time>2019-02-01T16:21:54Z</time>
      </trkpt>
      <trkpt lat="44.05047" lon="3.54608">
        <ele>1294</ele>
        <time>2019-02-01T16:22:10Z</time>
      </trkpt>
      <trkpt lat="44.05052" lon="3.54618">
        <ele>1294</ele>
        <time>2019-02-01T16:22:10Z</time>
      </trkpt>
      <trkpt lat="44.05053" lon="3.54623">
        <ele>1294</ele>
        <time>2019-02-01T16:22:10Z</time>
      </trkpt>
      <trkpt lat="44.05054" lon="3.54628">
        <ele>1274</ele>
        <time>2019-02-01T16:22:10Z</time>
      </trkpt>
      <trkpt lat="44.05056" lon="3.54634">
        <ele>1274</ele>
        <time>2019-02-01T16:22:26Z</time>
      </trkpt>
      <trkpt lat="44.05057" lon="3.5464">
        <ele>1274</ele>
        <time>2019-02-01T16:22:26Z</time>
      </trkpt>
      <trkpt lat="44.05057" lon="3.54644">
        <ele>1274</ele>
        <time>2019-02-01T16:22:26Z</time>
      </trkpt>
      <trkpt lat="44.05059" lon="3.54647">
        <ele>1274</ele>
        <time>2019-02-01T16:22:26Z</time>
      </trkpt>
      <trkpt lat="44.05061" lon="3.54649">
        <ele>1274</ele>
        <time>2019-02-01T16:22:46Z</time>
      </trkpt>
      <trkpt lat="44.05063" lon="3.54651">
        <ele>1274</ele>
        <time>2019-02-01T16:22:46Z</time>
      </trkpt>
      <trkpt lat="44.05066" lon="3.54652">
        <ele>1274</ele>
        <time>2019-02-01T16:22:46Z</time>
      </trkpt>
      <trkpt lat="44.05067" lon="3.54655">
        <ele>1274</ele>
        <time>2019-02-01T16:22:46Z</time>
      </trkpt>
      <trkpt lat="44.05071" lon="3.54655">
        <ele>1274</ele>
        <time>2019-02-01T16:22:46Z</time>
      </trkpt>
      <trkpt lat="44.05072" lon="3.54655">
        <ele>1274</ele>
        <time>2019-02-01T16:23:02Z</time>
      </trkpt>
      <trkpt lat="44.05075" lon="3.54657">
        <ele>1274</ele>
        <time>2019-02-01T16:23:02Z</time>
      </trkpt>
      <trkpt lat="44.05078" lon="3.54658">
        <ele>1274</ele>
        <time>2019-02-01T16:23:02Z</time>
      </trkpt>
      <trkpt lat="44.05081" lon="3.5466">
        <ele>1274</ele>
        <time>2019-02-01T16:23:02Z</time>
      </trkpt>
      <trkpt lat="44.05085" lon="3.54662">
        <ele>1274</ele>
        <time>2019-02-01T16:23:22Z</time>
      </trkpt>
      <trkpt lat="44.05088" lon="3.54663">
        <ele>1274</ele>
        <time>2019-02-01T16:23:22Z</time>
      </trkpt>
      <trkpt lat="44.05089" lon="3.54664">
        <ele>1274</ele>
        <time>2019-02-01T16:23:22Z</time>
      </trkpt>
      <trkpt lat="44.0509" lon="3.54664">
        <ele>1274</ele>
        <time>2019-02-01T16:23:22Z</time>
      </trkpt>
      <trkpt lat="44.05095" lon="3.54665">
        <ele>1274</ele>
        <time>2019-02-01T16:23:22Z</time>
      </trkpt>
      <trkpt lat="44.05098" lon="3.54667">
        <ele>1274</ele>
        <time>2019-02-01T16:23:42Z</time>
      </trkpt>
      <trkpt lat="44.05101" lon="3.54669">
        <ele>1274</ele>
        <time>2019-02-01T16:23:42Z</time>
      </trkpt>
      <trkpt lat="44.05104" lon="3.5467">
        <ele>1274</ele>
        <time>2019-02-01T16:23:42Z</time>
      </trkpt>
      <trkpt lat="44.05105" lon="3.5467">
        <ele>1274</ele>
        <time>2019-02-01T16:23:42Z</time>
      </trkpt>
      <trkpt lat="44.05109" lon="3.54672">
        <ele>1274</ele>
        <time>2019-02-01T16:23:42Z</time>
      </trkpt>
      <trkpt lat="44.05114" lon="3.54674">
        <ele>1274</ele>
        <time>2019-02-01T16:23:58Z</time>
      </trkpt>
      <trkpt lat="44.05117" lon="3.54676">
        <ele>1274</ele>
        <time>2019-02-01T16:23:58Z</time>
      </trkpt>
      <trkpt lat="44.05123" lon="3.54679">
        <ele>1274</ele>
        <time>2019-02-01T16:23:58Z</time>
      </trkpt>
      <trkpt lat="44.05126" lon="3.5468">
        <ele>1280</ele>
        <time>2019-02-01T16:23:58Z</time>
      </trkpt>
      <trkpt lat="44.05129" lon="3.5468">
        <ele>1280</ele>
        <time>2019-02-01T16:24:30Z</time>
      </trkpt>
      <trkpt lat="44.05131" lon="3.54681">
        <ele>1280</ele>
        <time>2019-02-01T16:24:30Z</time>
      </trkpt>
      <trkpt lat="44.05135" lon="3.54682">
        <ele>1280</ele>
        <time>2019-02-01T16:24:30Z</time>
      </trkpt>
      <trkpt lat="44.05135" lon="3.54682">
        <ele>1280</ele>
        <time>2019-02-01T16:24:30Z</time>
      </trkpt>
      <trkpt lat="44.05143" lon="3.54681">
        <ele>1280</ele>
        <time>2019-02-01T16:24:30Z</time>
      </trkpt>
      <trkpt lat="44.05149" lon="3.54682">
        <ele>1280</ele>
        <time>2019-02-01T16:24:46Z</time>
      </trkpt>
      <trkpt lat="44.05153" lon="3.54684">
        <ele>1280</ele>
        <time>2019-02-01T16:24:46Z</time>
      </trkpt>
      <trkpt lat="44.05158" lon="3.54686">
        <ele>1280</ele>
        <time>2019-02-01T16:24:46Z</time>
      </trkpt>
      <trkpt lat="44.05159" lon="3.54686">
        <ele>1280</ele>
        <time>2019-02-01T16:24:46Z</time>
      </trkpt>
      <trkpt lat="44.05163" lon="3.54686">
        <ele>1280</ele>
        <time>2019-02-01T16:25:02Z</time>
      </trkpt>
      <trkpt lat="44.05167" lon="3.54687">
        <ele>1280</ele>
        <time>2019-02-01T16:25:02Z</time>
      </trkpt>
      <trkpt lat="44.05172" lon="3.54688">
        <ele>1280</ele>
        <time>2019-02-01T16:25:02Z</time>
      </trkpt>
      <trkpt lat="44.05178" lon="3.54688">
        <ele>1280</ele>
        <time>2019-02-01T16:25:02Z</time>
      </trkpt>
      <trkpt lat="44.05182" lon="3.54689">
        <ele>1280</ele>
        <time>2019-02-01T16:25:22Z</time>
      </trkpt>
      <trkpt lat="44.05184" lon="3.54691">
        <ele>1280</ele>
        <time>2019-02-01T16:25:22Z</time>
      </trkpt>
      <trkpt lat="44.05187" lon="3.54694">
        <ele>1280</ele>
        <time>2019-02-01T16:25:22Z</time>
      </trkpt>
      <trkpt lat="44.05188" lon="3.54695">
        <ele>1280</ele>
        <time>2019-02-01T16:25:22Z</time>
      </trkpt>
      <trkpt lat="44.0519" lon="3.54696">
        <ele>1280</ele>
        <time>2019-02-01T16:25:22Z</time>
      </trkpt>
      <trkpt lat="44.05193" lon="3.54695">
        <ele>1280</ele>
        <time>2019-02-01T16:25:46Z</time>
      </trkpt>
      <trkpt lat="44.05196" lon="3.54694">
        <ele>1280</ele>
        <time>2019-02-01T16:25:46Z</time>
      </trkpt>
      <trkpt lat="44.052" lon="3.54694">
        <ele>1280</ele>
        <time>2019-02-01T16:25:46Z</time>
      </trkpt>
      <trkpt lat="44.05202" lon="3.54693">
        <ele>1280</ele>
        <time>2019-02-01T16:25:46Z</time>
      </trkpt>
      <trkpt lat="44.05203" lon="3.54693">
        <ele>1280</ele>
        <time>2019-02-01T16:25:46Z</time>
      </trkpt>
      <trkpt lat="44.05208" lon="3.54695">
        <ele>1280</ele>
        <time>2019-02-01T16:26:06Z</time>
      </trkpt>
      <trkpt lat="44.05213" lon="3.54696">
        <ele>1283</ele>
        <time>2019-02-01T16:26:06Z</time>
      </trkpt>
      <trkpt lat="44.05218" lon="3.54697">
        <ele>1283</ele>
        <time>2019-02-01T16:26:06Z</time>
      </trkpt>
      <trkpt lat="44.05222" lon="3.54697">
        <ele>1283</ele>
        <time>2019-02-01T16:26:06Z</time>
      </trkpt>
      <trkpt lat="44.05224" lon="3.54697">
        <ele>1283</ele>
        <time>2019-02-01T16:26:26Z</time>
      </trkpt>
      <trkpt lat="44.05226" lon="3.54698">
        <ele>1283</ele>
        <time>2019-02-01T16:26:26Z</time>
      </trkpt>
      <trkpt lat="44.05234" lon="3.54699">
        <ele>1283</ele>
        <time>2019-02-01T16:26:26Z</time>
      </trkpt>
      <trkpt lat="44.05241" lon="3.54703">
        <ele>1283</ele>
        <time>2019-02-01T16:26:26Z</time>
      </trkpt>
      <trkpt lat="44.05244" lon="3.54705">
        <ele>1283</ele>
        <time>2019-02-01T16:26:42Z</time>
      </trkpt>
      <trkpt lat="44.05248" lon="3.54708">
        <ele>1283</ele>
        <time>2019-02-01T16:26:42Z</time>
      </trkpt>
      <trkpt lat="44.05252" lon="3.54709">
        <ele>1253</ele>
        <time>2019-02-01T16:26:42Z</time>
      </trkpt>
      <trkpt lat="44.05256" lon="3.54709">
        <ele>1253</ele>
        <time>2019-02-01T16:26:42Z</time>
      </trkpt>
      <trkpt lat="44.05257" lon="3.54709">
        <ele>1253</ele>
        <time>2019-02-01T16:27:02Z</time>
      </trkpt>
      <trkpt lat="44.05261" lon="3.54711">
        <ele>1253</ele>
        <time>2019-02-01T16:27:02Z</time>
      </trkpt>
      <trkpt lat="44.05264" lon="3.54713">
        <ele>1253</ele>
        <time>2019-02-01T16:27:02Z</time>
      </trkpt>
      <trkpt lat="44.05268" lon="3.54713">
        <ele>1253</ele>
        <time>2019-02-01T16:27:02Z</time>
      </trkpt>
      <trkpt lat="44.05269" lon="3.54713">
        <ele>1253</ele>
        <time>2019-02-01T16:27:26Z</time>
      </trkpt>
      <trkpt lat="44.05274" lon="3.54713">
        <ele>1253</ele>
        <time>2019-02-01T16:27:26Z</time>
      </trkpt>
      <trkpt lat="44.05274" lon="3.54713">
        <ele>1253</ele>
        <time>2019-02-01T16:27:26Z</time>
      </trkpt>
      <trkpt lat="44.05278" lon="3.54715">
        <ele>1253</ele>
        <time>2019-02-01T16:27:26Z</time>
      </trkpt>
      <trkpt lat="44.05284" lon="3.54718">
        <ele>1253</ele>
        <time>2019-02-01T16:27:26Z</time>
      </trkpt>
      <trkpt lat="44.05289" lon="3.5472">
        <ele>1253</ele>
        <time>2019-02-01T16:27:42Z</time>
      </trkpt>
      <trkpt lat="44.05291" lon="3.54721">
        <ele>1253</ele>
        <time>2019-02-01T16:27:42Z</time>
      </trkpt>
      <trkpt lat="44.05295" lon="3.54721">
        <ele>1265</ele>
        <time>2019-02-01T16:27:42Z</time>
      </trkpt>
      <trkpt lat="44.05301" lon="3.54722">
        <ele>1265</ele>
        <time>2019-02-01T16:27:42Z</time>
      </trkpt>
      <trkpt lat="44.05306" lon="3.54723">
        <ele>1265</ele>
        <time>2019-02-01T16:27:58Z</time>
      </trkpt>
      <trkpt lat="44.05313" lon="3.54724">
        <ele>1265</ele>
        <time>2019-02-01T16:27:58Z</time>
      </trkpt>
      <trkpt lat="44.05319" lon="3.54726">
        <ele>1265</ele>
        <time>2019-02-01T16:27:58Z</time>
      </trkpt>
      <trkpt lat="44.05326" lon="3.54724">
        <ele>1265</ele>
        <time>2019-02-01T16:27:58Z</time>
      </trkpt>
      <trkpt lat="44.0533" lon="3.54725">
        <ele>1265</ele>
        <time>2019-02-01T16:28:14Z</time>
      </trkpt>
      <trkpt lat="44.05333" lon="3.54727">
        <ele>1265</ele>
        <time>2019-02-01T16:28:14Z</time>
      </trkpt>
      <trkpt lat="44.05335" lon="3.5473">
        <ele>1265</ele>
        <time>2019-02-01T16:28:14Z</time>
      </trkpt>
      <trkpt lat="44.05338" lon="3.54733">
        <ele>1265</ele>
        <time>2019-02-01T16:28:14Z</time>
      </trkpt>
      <trkpt lat="44.05342" lon="3.54735">
        <ele>1265</ele>
        <time>2019-02-01T16:28:30Z</time>
      </trkpt>
      <trkpt lat="44.05347" lon="3.54736">
        <ele>1265</ele>
        <time>2019-02-01T16:28:30Z</time>
      </trkpt>
      <trkpt lat="44.0535" lon="3.54735">
        <ele>1265</ele>
        <time>2019-02-01T16:28:30Z</time>
      </trkpt>
      <trkpt lat="44.05353" lon="3.54735">
        <ele>1265</ele>
        <time>2019-02-01T16:28:30Z</time>
      </trkpt>
      <trkpt lat="44.05357" lon="3.54733">
        <ele>1265</ele>
        <time>2019-02-01T16:28:46Z</time>
      </trkpt>
      <trkpt lat="44.05361" lon="3.54732">
        <ele>1265</ele>
        <time>2019-02-01T16:28:46Z</time>
      </trkpt>
      <trkpt lat="44.05365" lon="3.54733">
        <ele>1265</ele>
        <time>2019-02-01T16:28:46Z</time>
      </trkpt>
      <trkpt lat="44.0537" lon="3.54733">
        <ele>1265</ele>
        <time>2019-02-01T16:28:46Z</time>
      </trkpt>
      <trkpt lat="44.05374" lon="3.54734">
        <ele>1265</ele>
        <time>2019-02-01T16:29:02Z</time>
      </trkpt>
      <trkpt lat="44.05379" lon="3.54736">
        <ele>1274</ele>
        <time>2019-02-01T16:29:02Z</time>
      </trkpt>
      <trkpt lat="44.05383" lon="3.54739">
        <ele>1274</ele>
        <time>2019-02-01T16:29:02Z</time>
      </trkpt>
      <trkpt lat="44.05387" lon="3.54742">
        <ele>1274</ele>
        <time>2019-02-01T16:29:02Z</time>
      </trkpt>
    </trkseg>
  </trk>
</gpx>